<?xml version="1.0" encoding="UTF-8" standalone="no" ?>
<gpx xmlns="http://www.topografix.com/GPX/1/1" xmlns:xsi="http://www.w3.org/2001/XMLSchema-instance" xsi:schemaLocation="http://www.topografix.com/GPX/1/1 http://www.topografix.com/GPX/1/1/gpx.xsd" version="1.1" creator="VisuGPX - https://www.visugpx.com">
  <metadata>
    <name>Trail de Septembre</name>
    <desc><![CDATA[Pompertuzat, Rebigue, Mervilla, Castanet et Pechabou...
]]></desc>
  </metadata>
  <trk>
    <name><![CDATA[Semi Trail]]></name>
    <desc><![CDATA[]]></desc>
    <trkseg>
      <trkpt lat="43.49127" lon="1.51566">
        <ele>193.8</ele>
        <time>2013-09-28T13:13:51.528Z</time>
      </trkpt>
      <trkpt lat="43.49129" lon="1.51568">
        <ele>193.7</ele>
        <time>2013-09-28T13:13:52.432Z</time>
      </trkpt>
      <trkpt lat="43.49154" lon="1.51575">
        <ele>308.5</ele>
        <time>2013-09-28T13:13:56.462Z</time>
      </trkpt>
      <trkpt lat="43.49154" lon="1.51575">
        <ele>308.5</ele>
        <time>2013-09-28T13:13:57.399Z</time>
      </trkpt>
      <trkpt lat="43.49129" lon="1.5159">
        <ele>269.8</ele>
        <time>2013-09-28T13:13:57.948Z</time>
      </trkpt>
      <trkpt lat="43.49119" lon="1.51595">
        <ele>259.5</ele>
        <time>2013-09-28T13:14:01.443Z</time>
      </trkpt>
      <trkpt lat="43.49119" lon="1.51595">
        <ele>259.5</ele>
        <time>2013-09-28T13:14:02.707Z</time>
      </trkpt>
      <trkpt lat="43.49129" lon="1.5159">
        <ele>265.1</ele>
        <time>2013-09-28T13:14:03.929Z</time>
      </trkpt>
      <trkpt lat="43.49121" lon="1.516">
        <ele>265.6</ele>
        <time>2013-09-28T13:14:04.926Z</time>
      </trkpt>
      <trkpt lat="43.49109" lon="1.51607">
        <ele>253.8</ele>
        <time>2013-09-28T13:14:06.887Z</time>
      </trkpt>
      <trkpt lat="43.49101" lon="1.5161">
        <ele>225</ele>
        <time>2013-09-28T13:14:09.445Z</time>
      </trkpt>
      <trkpt lat="43.49128" lon="1.51567">
        <ele>193.8</ele>
        <time>2013-09-28T13:14:11.639Z</time>
      </trkpt>
      <trkpt lat="43.49097" lon="1.51615">
        <ele>239.7</ele>
        <time>2013-09-28T13:14:11.691Z</time>
      </trkpt>
      <trkpt lat="43.49128" lon="1.51567">
        <ele>193.8</ele>
        <time>2013-09-28T13:14:12.412Z</time>
      </trkpt>
      <trkpt lat="43.49131" lon="1.51577">
        <ele>263.6</ele>
        <time>2013-09-28T13:15:02.819Z</time>
      </trkpt>
      <trkpt lat="43.49131" lon="1.51577">
        <ele>263.5</ele>
        <time>2013-09-28T13:15:03.844Z</time>
      </trkpt>
      <trkpt lat="43.49131" lon="1.51577">
        <ele>263.3</ele>
        <time>2013-09-28T13:15:04.847Z</time>
      </trkpt>
      <trkpt lat="43.4913" lon="1.51577">
        <ele>261</ele>
        <time>2013-09-28T13:15:05.859Z</time>
      </trkpt>
      <trkpt lat="43.49126" lon="1.51578">
        <ele>253.1</ele>
        <time>2013-09-28T13:15:22.842Z</time>
      </trkpt>
      <trkpt lat="43.49126" lon="1.51578">
        <ele>253</ele>
        <time>2013-09-28T13:15:23.829Z</time>
      </trkpt>
      <trkpt lat="43.49126" lon="1.51579">
        <ele>256.9</ele>
        <time>2013-09-28T13:15:42.847Z</time>
      </trkpt>
      <trkpt lat="43.49124" lon="1.51578">
        <ele>251.9</ele>
        <time>2013-09-28T13:15:43.884Z</time>
      </trkpt>
      <trkpt lat="43.49122" lon="1.51573">
        <ele>248.8</ele>
        <time>2013-09-28T13:15:54.395Z</time>
      </trkpt>
      <trkpt lat="43.49122" lon="1.51573">
        <ele>247.6</ele>
        <time>2013-09-28T13:15:54.874Z</time>
      </trkpt>
      <trkpt lat="43.49122" lon="1.51574">
        <ele>247.3</ele>
        <time>2013-09-28T13:15:55.874Z</time>
      </trkpt>
      <trkpt lat="43.49122" lon="1.51574">
        <ele>247.5</ele>
        <time>2013-09-28T13:15:56.820Z</time>
      </trkpt>
      <trkpt lat="43.49122" lon="1.51574">
        <ele>247.8</ele>
        <time>2013-09-28T13:15:57.824Z</time>
      </trkpt>
      <trkpt lat="43.49122" lon="1.51574">
        <ele>248.1</ele>
        <time>2013-09-28T13:16:02.864Z</time>
      </trkpt>
      <trkpt lat="43.49123" lon="1.51573">
        <ele>247.3</ele>
        <time>2013-09-28T13:16:03.864Z</time>
      </trkpt>
      <trkpt lat="43.49123" lon="1.5157">
        <ele>244.1</ele>
        <time>2013-09-28T13:16:09.521Z</time>
      </trkpt>
      <trkpt lat="43.49122" lon="1.51571">
        <ele>243.7</ele>
        <time>2013-09-28T13:16:09.870Z</time>
      </trkpt>
      <trkpt lat="43.49122" lon="1.51571">
        <ele>243.6</ele>
        <time>2013-09-28T13:16:10.859Z</time>
      </trkpt>
      <trkpt lat="43.49122" lon="1.51572">
        <ele>243.9</ele>
        <time>2013-09-28T13:16:11.827Z</time>
      </trkpt>
      <trkpt lat="43.49121" lon="1.51572">
        <ele>242.8</ele>
        <time>2013-09-28T13:16:14.417Z</time>
      </trkpt>
      <trkpt lat="43.49121" lon="1.51572">
        <ele>242.9</ele>
        <time>2013-09-28T13:16:14.830Z</time>
      </trkpt>
      <trkpt lat="43.49122" lon="1.51572">
        <ele>245.2</ele>
        <time>2013-09-28T13:16:19.869Z</time>
      </trkpt>
      <trkpt lat="43.49122" lon="1.51573">
        <ele>245.1</ele>
        <time>2013-09-28T13:16:20.866Z</time>
      </trkpt>
      <trkpt lat="43.49123" lon="1.51582">
        <ele>248.2</ele>
        <time>2013-09-28T13:16:22.833Z</time>
      </trkpt>
      <trkpt lat="43.49122" lon="1.51589">
        <ele>248.2</ele>
        <time>2013-09-28T13:16:23.855Z</time>
      </trkpt>
      <trkpt lat="43.49121" lon="1.51594">
        <ele>249.7</ele>
        <time>2013-09-28T13:16:24.831Z</time>
      </trkpt>
      <trkpt lat="43.4912" lon="1.51601">
        <ele>247.1</ele>
        <time>2013-09-28T13:16:25.850Z</time>
      </trkpt>
      <trkpt lat="43.49118" lon="1.51611">
        <ele>248.5</ele>
        <time>2013-09-28T13:16:29.402Z</time>
      </trkpt>
      <trkpt lat="43.49117" lon="1.51614">
        <ele>249.4</ele>
        <time>2013-09-28T13:16:29.861Z</time>
      </trkpt>
      <trkpt lat="43.49114" lon="1.51623">
        <ele>250.9</ele>
        <time>2013-09-28T13:16:32.877Z</time>
      </trkpt>
      <trkpt lat="43.49114" lon="1.51626">
        <ele>251</ele>
        <time>2013-09-28T13:16:33.927Z</time>
      </trkpt>
      <trkpt lat="43.49113" lon="1.51638">
        <ele>252.4</ele>
        <time>2013-09-28T13:16:37.869Z</time>
      </trkpt>
      <trkpt lat="43.49113" lon="1.5164">
        <ele>252</ele>
        <time>2013-09-28T13:16:38.882Z</time>
      </trkpt>
      <trkpt lat="43.49115" lon="1.5165">
        <ele>249.1</ele>
        <time>2013-09-28T13:16:40.916Z</time>
      </trkpt>
      <trkpt lat="43.49126" lon="1.51659">
        <ele>252.2</ele>
        <time>2013-09-28T13:16:41.845Z</time>
      </trkpt>
      <trkpt lat="43.49135" lon="1.51666">
        <ele>252.8</ele>
        <time>2013-09-28T13:16:42.873Z</time>
      </trkpt>
      <trkpt lat="43.49133" lon="1.51676">
        <ele>257.3</ele>
        <time>2013-09-28T13:16:47.880Z</time>
      </trkpt>
      <trkpt lat="43.49129" lon="1.51677">
        <ele>259.6</ele>
        <time>2013-09-28T13:16:48.869Z</time>
      </trkpt>
      <trkpt lat="43.49121" lon="1.51677">
        <ele>260.6</ele>
        <time>2013-09-28T13:16:50.839Z</time>
      </trkpt>
      <trkpt lat="43.49113" lon="1.51673">
        <ele>261.3</ele>
        <time>2013-09-28T13:16:51.852Z</time>
      </trkpt>
      <trkpt lat="43.49105" lon="1.5167">
        <ele>260.7</ele>
        <time>2013-09-28T13:16:52.844Z</time>
      </trkpt>
      <trkpt lat="43.49097" lon="1.51667">
        <ele>260.3</ele>
        <time>2013-09-28T13:16:53.838Z</time>
      </trkpt>
      <trkpt lat="43.49091" lon="1.51664">
        <ele>258.8</ele>
        <time>2013-09-28T13:16:54.855Z</time>
      </trkpt>
      <trkpt lat="43.49088" lon="1.51663">
        <ele>258.2</ele>
        <time>2013-09-28T13:16:55.828Z</time>
      </trkpt>
      <trkpt lat="43.4908" lon="1.51659">
        <ele>256.1</ele>
        <time>2013-09-28T13:16:58.154Z</time>
      </trkpt>
      <trkpt lat="43.49078" lon="1.51658">
        <ele>255.1</ele>
        <time>2013-09-28T13:16:58.836Z</time>
      </trkpt>
      <trkpt lat="43.49072" lon="1.51654">
        <ele>253.6</ele>
        <time>2013-09-28T13:17:01.224Z</time>
      </trkpt>
      <trkpt lat="43.49069" lon="1.5165">
        <ele>252</ele>
        <time>2013-09-28T13:17:02.982Z</time>
      </trkpt>
      <trkpt lat="43.49066" lon="1.51642">
        <ele>250.4</ele>
        <time>2013-09-28T13:17:05.840Z</time>
      </trkpt>
      <trkpt lat="43.49065" lon="1.51638">
        <ele>256.4</ele>
        <time>2013-09-28T13:17:06.936Z</time>
      </trkpt>
      <trkpt lat="43.49061" lon="1.51631">
        <ele>256.3</ele>
        <time>2013-09-28T13:17:09.585Z</time>
      </trkpt>
      <trkpt lat="43.49059" lon="1.51627">
        <ele>256.2</ele>
        <time>2013-09-28T13:17:09.883Z</time>
      </trkpt>
      <trkpt lat="43.49057" lon="1.51615">
        <ele>259</ele>
        <time>2013-09-28T13:17:13.896Z</time>
      </trkpt>
      <trkpt lat="43.49053" lon="1.51613">
        <ele>260.6</ele>
        <time>2013-09-28T13:17:14.853Z</time>
      </trkpt>
      <trkpt lat="43.49049" lon="1.51611">
        <ele>259.8</ele>
        <time>2013-09-28T13:17:16.598Z</time>
      </trkpt>
      <trkpt lat="43.49044" lon="1.51609">
        <ele>257.3</ele>
        <time>2013-09-28T13:17:16.878Z</time>
      </trkpt>
      <trkpt lat="43.49037" lon="1.51604">
        <ele>261.3</ele>
        <time>2013-09-28T13:17:18.851Z</time>
      </trkpt>
      <trkpt lat="43.49033" lon="1.51603">
        <ele>260.5</ele>
        <time>2013-09-28T13:17:19.921Z</time>
      </trkpt>
      <trkpt lat="43.49026" lon="1.51598">
        <ele>261.8</ele>
        <time>2013-09-28T13:17:22.900Z</time>
      </trkpt>
      <trkpt lat="43.49024" lon="1.51595">
        <ele>262</ele>
        <time>2013-09-28T13:17:22.998Z</time>
      </trkpt>
      <trkpt lat="43.49019" lon="1.51588">
        <ele>273.9</ele>
        <time>2013-09-28T13:17:27.908Z</time>
      </trkpt>
      <trkpt lat="43.49018" lon="1.51584">
        <ele>269.2</ele>
        <time>2013-09-28T13:17:28.885Z</time>
      </trkpt>
      <trkpt lat="43.49015" lon="1.51576">
        <ele>273</ele>
        <time>2013-09-28T13:17:32.923Z</time>
      </trkpt>
      <trkpt lat="43.49012" lon="1.51574">
        <ele>272.4</ele>
        <time>2013-09-28T13:17:33.873Z</time>
      </trkpt>
      <trkpt lat="43.49005" lon="1.51571">
        <ele>274.1</ele>
        <time>2013-09-28T13:17:36.357Z</time>
      </trkpt>
      <trkpt lat="43.49002" lon="1.51569">
        <ele>272.2</ele>
        <time>2013-09-28T13:17:37.032Z</time>
      </trkpt>
      <trkpt lat="43.48997" lon="1.51561">
        <ele>271.9</ele>
        <time>2013-09-28T13:17:38.971Z</time>
      </trkpt>
      <trkpt lat="43.48994" lon="1.51558">
        <ele>272.7</ele>
        <time>2013-09-28T13:17:39.910Z</time>
      </trkpt>
      <trkpt lat="43.48988" lon="1.51552">
        <ele>275</ele>
        <time>2013-09-28T13:17:42.007Z</time>
      </trkpt>
      <trkpt lat="43.48985" lon="1.51551">
        <ele>275.9</ele>
        <time>2013-09-28T13:17:42.909Z</time>
      </trkpt>
      <trkpt lat="43.48982" lon="1.51542">
        <ele>276.6</ele>
        <time>2013-09-28T13:17:44.915Z</time>
      </trkpt>
      <trkpt lat="43.48981" lon="1.51538">
        <ele>277.5</ele>
        <time>2013-09-28T13:17:45.950Z</time>
      </trkpt>
      <trkpt lat="43.4898" lon="1.51529">
        <ele>282.2</ele>
        <time>2013-09-28T13:17:49.687Z</time>
      </trkpt>
      <trkpt lat="43.48978" lon="1.51525">
        <ele>283.1</ele>
        <time>2013-09-28T13:17:49.837Z</time>
      </trkpt>
      <trkpt lat="43.48974" lon="1.51517">
        <ele>280.3</ele>
        <time>2013-09-28T13:17:51.851Z</time>
      </trkpt>
      <trkpt lat="43.48972" lon="1.51513">
        <ele>279.9</ele>
        <time>2013-09-28T13:17:52.842Z</time>
      </trkpt>
      <trkpt lat="43.48965" lon="1.51504">
        <ele>277.4</ele>
        <time>2013-09-28T13:17:55.911Z</time>
      </trkpt>
      <trkpt lat="43.48964" lon="1.51501">
        <ele>277.5</ele>
        <time>2013-09-28T13:17:56.921Z</time>
      </trkpt>
      <trkpt lat="43.4896" lon="1.51491">
        <ele>272.3</ele>
        <time>2013-09-28T13:17:59.759Z</time>
      </trkpt>
      <trkpt lat="43.48959" lon="1.51488">
        <ele>271.4</ele>
        <time>2013-09-28T13:17:59.949Z</time>
      </trkpt>
      <trkpt lat="43.48954" lon="1.51477">
        <ele>272.2</ele>
        <time>2013-09-28T13:18:04.805Z</time>
      </trkpt>
      <trkpt lat="43.48952" lon="1.51475">
        <ele>273</ele>
        <time>2013-09-28T13:18:04.954Z</time>
      </trkpt>
      <trkpt lat="43.48947" lon="1.51467">
        <ele>275.2</ele>
        <time>2013-09-28T13:18:07.910Z</time>
      </trkpt>
      <trkpt lat="43.48945" lon="1.51463">
        <ele>273.9</ele>
        <time>2013-09-28T13:18:08.965Z</time>
      </trkpt>
      <trkpt lat="43.48938" lon="1.51455">
        <ele>274.3</ele>
        <time>2013-09-28T13:18:12.887Z</time>
      </trkpt>
      <trkpt lat="43.48936" lon="1.51454">
        <ele>273.7</ele>
        <time>2013-09-28T13:18:13.931Z</time>
      </trkpt>
      <trkpt lat="43.4893" lon="1.51445">
        <ele>266.4</ele>
        <time>2013-09-28T13:18:17.938Z</time>
      </trkpt>
      <trkpt lat="43.48928" lon="1.51442">
        <ele>264.7</ele>
        <time>2013-09-28T13:18:18.915Z</time>
      </trkpt>
      <trkpt lat="43.48924" lon="1.51435">
        <ele>266.4</ele>
        <time>2013-09-28T13:18:21.924Z</time>
      </trkpt>
      <trkpt lat="43.48922" lon="1.51432">
        <ele>267.3</ele>
        <time>2013-09-28T13:18:22.891Z</time>
      </trkpt>
      <trkpt lat="43.48916" lon="1.51426">
        <ele>266.4</ele>
        <time>2013-09-28T13:18:25.974Z</time>
      </trkpt>
      <trkpt lat="43.48913" lon="1.51425">
        <ele>265.2</ele>
        <time>2013-09-28T13:18:27.003Z</time>
      </trkpt>
      <trkpt lat="43.48906" lon="1.51421">
        <ele>264.7</ele>
        <time>2013-09-28T13:18:30.341Z</time>
      </trkpt>
      <trkpt lat="43.48904" lon="1.51419">
        <ele>264.5</ele>
        <time>2013-09-28T13:18:30.862Z</time>
      </trkpt>
      <trkpt lat="43.48898" lon="1.51412">
        <ele>264.8</ele>
        <time>2013-09-28T13:18:35.064Z</time>
      </trkpt>
      <trkpt lat="43.48896" lon="1.51409">
        <ele>264.9</ele>
        <time>2013-09-28T13:18:35.485Z</time>
      </trkpt>
      <trkpt lat="43.48891" lon="1.51399">
        <ele>261.1</ele>
        <time>2013-09-28T13:18:40.187Z</time>
      </trkpt>
      <trkpt lat="43.48887" lon="1.51396">
        <ele>260.7</ele>
        <time>2013-09-28T13:18:40.289Z</time>
      </trkpt>
      <trkpt lat="43.4888" lon="1.5139">
        <ele>263</ele>
        <time>2013-09-28T13:18:42.858Z</time>
      </trkpt>
      <trkpt lat="43.48878" lon="1.51389">
        <ele>264.6</ele>
        <time>2013-09-28T13:18:43.882Z</time>
      </trkpt>
      <trkpt lat="43.48871" lon="1.51384">
        <ele>271.5</ele>
        <time>2013-09-28T13:18:48.911Z</time>
      </trkpt>
      <trkpt lat="43.48869" lon="1.51381">
        <ele>271.5</ele>
        <time>2013-09-28T13:18:50.048Z</time>
      </trkpt>
      <trkpt lat="43.48866" lon="1.51372">
        <ele>273.1</ele>
        <time>2013-09-28T13:18:54.681Z</time>
      </trkpt>
      <trkpt lat="43.48864" lon="1.51369">
        <ele>271.1</ele>
        <time>2013-09-28T13:18:55.126Z</time>
      </trkpt>
      <trkpt lat="43.48858" lon="1.51362">
        <ele>269.5</ele>
        <time>2013-09-28T13:18:57.876Z</time>
      </trkpt>
      <trkpt lat="43.48856" lon="1.51359">
        <ele>269.1</ele>
        <time>2013-09-28T13:18:58.922Z</time>
      </trkpt>
      <trkpt lat="43.48854" lon="1.51347">
        <ele>268.1</ele>
        <time>2013-09-28T13:19:04.890Z</time>
      </trkpt>
      <trkpt lat="43.48851" lon="1.51345">
        <ele>266.2</ele>
        <time>2013-09-28T13:19:05.148Z</time>
      </trkpt>
      <trkpt lat="43.48843" lon="1.51342">
        <ele>263.3</ele>
        <time>2013-09-28T13:19:09.728Z</time>
      </trkpt>
      <trkpt lat="43.48841" lon="1.51341">
        <ele>262.4</ele>
        <time>2013-09-28T13:19:10.042Z</time>
      </trkpt>
      <trkpt lat="43.48839" lon="1.51335">
        <ele>264.2</ele>
        <time>2013-09-28T13:19:11.881Z</time>
      </trkpt>
      <trkpt lat="43.48837" lon="1.5133">
        <ele>266.2</ele>
        <time>2013-09-28T13:19:13.012Z</time>
      </trkpt>
      <trkpt lat="43.48832" lon="1.51319">
        <ele>268.7</ele>
        <time>2013-09-28T13:19:15.849Z</time>
      </trkpt>
      <trkpt lat="43.4883" lon="1.51316">
        <ele>270.2</ele>
        <time>2013-09-28T13:19:16.865Z</time>
      </trkpt>
      <trkpt lat="43.48826" lon="1.51311">
        <ele>269.8</ele>
        <time>2013-09-28T13:19:19.617Z</time>
      </trkpt>
      <trkpt lat="43.48823" lon="1.51306">
        <ele>269.9</ele>
        <time>2013-09-28T13:19:20.138Z</time>
      </trkpt>
      <trkpt lat="43.48823" lon="1.51295">
        <ele>272</ele>
        <time>2013-09-28T13:19:21.895Z</time>
      </trkpt>
      <trkpt lat="43.48822" lon="1.51292">
        <ele>272</ele>
        <time>2013-09-28T13:19:22.867Z</time>
      </trkpt>
      <trkpt lat="43.48815" lon="1.51286">
        <ele>270.9</ele>
        <time>2013-09-28T13:19:26.897Z</time>
      </trkpt>
      <trkpt lat="43.48814" lon="1.51285">
        <ele>271.7</ele>
        <time>2013-09-28T13:19:27.835Z</time>
      </trkpt>
      <trkpt lat="43.48805" lon="1.5128">
        <ele>271.6</ele>
        <time>2013-09-28T13:19:31.869Z</time>
      </trkpt>
      <trkpt lat="43.48804" lon="1.51279">
        <ele>271.6</ele>
        <time>2013-09-28T13:19:32.846Z</time>
      </trkpt>
      <trkpt lat="43.48796" lon="1.51281">
        <ele>274.3</ele>
        <time>2013-09-28T13:19:37.909Z</time>
      </trkpt>
      <trkpt lat="43.48795" lon="1.51283">
        <ele>274.3</ele>
        <time>2013-09-28T13:19:39.109Z</time>
      </trkpt>
      <trkpt lat="43.48792" lon="1.51294">
        <ele>282.3</ele>
        <time>2013-09-28T13:19:44.739Z</time>
      </trkpt>
      <trkpt lat="43.48791" lon="1.51296">
        <ele>282.3</ele>
        <time>2013-09-28T13:19:44.840Z</time>
      </trkpt>
      <trkpt lat="43.48784" lon="1.51302">
        <ele>284.4</ele>
        <time>2013-09-28T13:19:49.492Z</time>
      </trkpt>
      <trkpt lat="43.48782" lon="1.51303">
        <ele>283.4</ele>
        <time>2013-09-28T13:19:49.996Z</time>
      </trkpt>
      <trkpt lat="43.48774" lon="1.51305">
        <ele>281.2</ele>
        <time>2013-09-28T13:19:51.924Z</time>
      </trkpt>
      <trkpt lat="43.4877" lon="1.51305">
        <ele>280.8</ele>
        <time>2013-09-28T13:19:52.893Z</time>
      </trkpt>
      <trkpt lat="43.48764" lon="1.51305">
        <ele>282.5</ele>
        <time>2013-09-28T13:19:54.855Z</time>
      </trkpt>
      <trkpt lat="43.48761" lon="1.51304">
        <ele>282.9</ele>
        <time>2013-09-28T13:19:55.989Z</time>
      </trkpt>
      <trkpt lat="43.48753" lon="1.51303">
        <ele>284.9</ele>
        <time>2013-09-28T13:20:02.905Z</time>
      </trkpt>
      <trkpt lat="43.48751" lon="1.51302">
        <ele>285.4</ele>
        <time>2013-09-28T13:20:03.882Z</time>
      </trkpt>
      <trkpt lat="43.48744" lon="1.51298">
        <ele>286.1</ele>
        <time>2013-09-28T13:20:07.882Z</time>
      </trkpt>
      <trkpt lat="43.48741" lon="1.51297">
        <ele>283.8</ele>
        <time>2013-09-28T13:20:09.032Z</time>
      </trkpt>
      <trkpt lat="43.48733" lon="1.51293">
        <ele>281.2</ele>
        <time>2013-09-28T13:20:11.953Z</time>
      </trkpt>
      <trkpt lat="43.48729" lon="1.51291">
        <ele>279.9</ele>
        <time>2013-09-28T13:20:12.881Z</time>
      </trkpt>
      <trkpt lat="43.48722" lon="1.51286">
        <ele>280.5</ele>
        <time>2013-09-28T13:20:14.853Z</time>
      </trkpt>
      <trkpt lat="43.48718" lon="1.51284">
        <ele>280.7</ele>
        <time>2013-09-28T13:20:15.904Z</time>
      </trkpt>
      <trkpt lat="43.4871" lon="1.51279">
        <ele>279.2</ele>
        <time>2013-09-28T13:20:19.845Z</time>
      </trkpt>
      <trkpt lat="43.48707" lon="1.51277">
        <ele>277.7</ele>
        <time>2013-09-28T13:20:19.945Z</time>
      </trkpt>
      <trkpt lat="43.487" lon="1.51272">
        <ele>277.1</ele>
        <time>2013-09-28T13:20:22.929Z</time>
      </trkpt>
      <trkpt lat="43.48697" lon="1.5127">
        <ele>277.8</ele>
        <time>2013-09-28T13:20:24.095Z</time>
      </trkpt>
      <trkpt lat="43.48689" lon="1.51266">
        <ele>275.3</ele>
        <time>2013-09-28T13:20:26.893Z</time>
      </trkpt>
      <trkpt lat="43.48686" lon="1.51264">
        <ele>275.9</ele>
        <time>2013-09-28T13:20:27.987Z</time>
      </trkpt>
      <trkpt lat="43.4868" lon="1.51257">
        <ele>276</ele>
        <time>2013-09-28T13:20:30.878Z</time>
      </trkpt>
      <trkpt lat="43.48678" lon="1.51255">
        <ele>276.3</ele>
        <time>2013-09-28T13:20:32.020Z</time>
      </trkpt>
      <trkpt lat="43.4867" lon="1.5125">
        <ele>280.7</ele>
        <time>2013-09-28T13:20:36.942Z</time>
      </trkpt>
      <trkpt lat="43.48669" lon="1.51249">
        <ele>281.6</ele>
        <time>2013-09-28T13:20:37.091Z</time>
      </trkpt>
      <trkpt lat="43.48661" lon="1.51243">
        <ele>282.9</ele>
        <time>2013-09-28T13:20:40.933Z</time>
      </trkpt>
      <trkpt lat="43.48658" lon="1.51242">
        <ele>282.9</ele>
        <time>2013-09-28T13:20:42.083Z</time>
      </trkpt>
      <trkpt lat="43.48651" lon="1.51241">
        <ele>283.3</ele>
        <time>2013-09-28T13:20:45.128Z</time>
      </trkpt>
      <trkpt lat="43.48649" lon="1.51239">
        <ele>283.5</ele>
        <time>2013-09-28T13:20:46.002Z</time>
      </trkpt>
      <trkpt lat="43.48641" lon="1.51233">
        <ele>283.3</ele>
        <time>2013-09-28T13:20:49.914Z</time>
      </trkpt>
      <trkpt lat="43.48639" lon="1.51231">
        <ele>283.2</ele>
        <time>2013-09-28T13:20:50.960Z</time>
      </trkpt>
      <trkpt lat="43.48632" lon="1.51226">
        <ele>283.7</ele>
        <time>2013-09-28T13:20:55.153Z</time>
      </trkpt>
      <trkpt lat="43.48631" lon="1.51225">
        <ele>283.7</ele>
        <time>2013-09-28T13:20:55.852Z</time>
      </trkpt>
      <trkpt lat="43.48622" lon="1.51221">
        <ele>282.8</ele>
        <time>2013-09-28T13:20:59.854Z</time>
      </trkpt>
      <trkpt lat="43.4862" lon="1.51219">
        <ele>282.7</ele>
        <time>2013-09-28T13:21:00.935Z</time>
      </trkpt>
      <trkpt lat="43.48614" lon="1.51215">
        <ele>282.5</ele>
        <time>2013-09-28T13:21:04.926Z</time>
      </trkpt>
      <trkpt lat="43.48611" lon="1.51213">
        <ele>283</ele>
        <time>2013-09-28T13:21:05.102Z</time>
      </trkpt>
      <trkpt lat="43.48604" lon="1.51209">
        <ele>283.3</ele>
        <time>2013-09-28T13:21:07.891Z</time>
      </trkpt>
      <trkpt lat="43.48603" lon="1.51207">
        <ele>283.4</ele>
        <time>2013-09-28T13:21:08.878Z</time>
      </trkpt>
      <trkpt lat="43.48598" lon="1.512">
        <ele>285.9</ele>
        <time>2013-09-28T13:21:14.614Z</time>
      </trkpt>
      <trkpt lat="43.48596" lon="1.51198">
        <ele>285.6</ele>
        <time>2013-09-28T13:21:14.847Z</time>
      </trkpt>
      <trkpt lat="43.48589" lon="1.51195">
        <ele>284.8</ele>
        <time>2013-09-28T13:21:17.900Z</time>
      </trkpt>
      <trkpt lat="43.48586" lon="1.51194">
        <ele>284.6</ele>
        <time>2013-09-28T13:21:18.931Z</time>
      </trkpt>
      <trkpt lat="43.48579" lon="1.51191">
        <ele>285.4</ele>
        <time>2013-09-28T13:21:22.002Z</time>
      </trkpt>
      <trkpt lat="43.48577" lon="1.51189">
        <ele>284.6</ele>
        <time>2013-09-28T13:21:23.129Z</time>
      </trkpt>
      <trkpt lat="43.4857" lon="1.51184">
        <ele>284.8</ele>
        <time>2013-09-28T13:21:25.835Z</time>
      </trkpt>
      <trkpt lat="43.48567" lon="1.51183">
        <ele>284.2</ele>
        <time>2013-09-28T13:21:26.879Z</time>
      </trkpt>
      <trkpt lat="43.48559" lon="1.51177">
        <ele>284.1</ele>
        <time>2013-09-28T13:21:29.982Z</time>
      </trkpt>
      <trkpt lat="43.48557" lon="1.51176">
        <ele>284.1</ele>
        <time>2013-09-28T13:21:30.846Z</time>
      </trkpt>
      <trkpt lat="43.48549" lon="1.5117">
        <ele>285.9</ele>
        <time>2013-09-28T13:21:34.864Z</time>
      </trkpt>
      <trkpt lat="43.48547" lon="1.51168">
        <ele>286.3</ele>
        <time>2013-09-28T13:21:35.845Z</time>
      </trkpt>
      <trkpt lat="43.48539" lon="1.51164">
        <ele>285.8</ele>
        <time>2013-09-28T13:21:38.960Z</time>
      </trkpt>
      <trkpt lat="43.48537" lon="1.51163">
        <ele>285.6</ele>
        <time>2013-09-28T13:21:40.021Z</time>
      </trkpt>
      <trkpt lat="43.48531" lon="1.51159">
        <ele>285.9</ele>
        <time>2013-09-28T13:21:42.920Z</time>
      </trkpt>
      <trkpt lat="43.48528" lon="1.51157">
        <ele>285.9</ele>
        <time>2013-09-28T13:21:44.072Z</time>
      </trkpt>
      <trkpt lat="43.48522" lon="1.51152">
        <ele>287.1</ele>
        <time>2013-09-28T13:21:46.846Z</time>
      </trkpt>
      <trkpt lat="43.4852" lon="1.5115">
        <ele>288</ele>
        <time>2013-09-28T13:21:47.853Z</time>
      </trkpt>
      <trkpt lat="43.48513" lon="1.51147">
        <ele>287.5</ele>
        <time>2013-09-28T13:21:51.039Z</time>
      </trkpt>
      <trkpt lat="43.48511" lon="1.51146">
        <ele>288.4</ele>
        <time>2013-09-28T13:21:51.929Z</time>
      </trkpt>
      <trkpt lat="43.48505" lon="1.51141">
        <ele>289.2</ele>
        <time>2013-09-28T13:21:55.110Z</time>
      </trkpt>
      <trkpt lat="43.48503" lon="1.5114">
        <ele>289.4</ele>
        <time>2013-09-28T13:21:55.927Z</time>
      </trkpt>
      <trkpt lat="43.48497" lon="1.51135">
        <ele>290.7</ele>
        <time>2013-09-28T13:21:58.928Z</time>
      </trkpt>
      <trkpt lat="43.48495" lon="1.51134">
        <ele>292.7</ele>
        <time>2013-09-28T13:21:59.915Z</time>
      </trkpt>
      <trkpt lat="43.48488" lon="1.51128">
        <ele>292</ele>
        <time>2013-09-28T13:22:03.861Z</time>
      </trkpt>
      <trkpt lat="43.48485" lon="1.51126">
        <ele>291.5</ele>
        <time>2013-09-28T13:22:04.915Z</time>
      </trkpt>
      <trkpt lat="43.48479" lon="1.5112">
        <ele>291.3</ele>
        <time>2013-09-28T13:22:08.060Z</time>
      </trkpt>
      <trkpt lat="43.48477" lon="1.51119">
        <ele>291.2</ele>
        <time>2013-09-28T13:22:08.919Z</time>
      </trkpt>
      <trkpt lat="43.48472" lon="1.51113">
        <ele>291.2</ele>
        <time>2013-09-28T13:22:11.833Z</time>
      </trkpt>
      <trkpt lat="43.4847" lon="1.51111">
        <ele>291.3</ele>
        <time>2013-09-28T13:22:12.848Z</time>
      </trkpt>
      <trkpt lat="43.48465" lon="1.51102">
        <ele>295.3</ele>
        <time>2013-09-28T13:22:17.081Z</time>
      </trkpt>
      <trkpt lat="43.48464" lon="1.51101">
        <ele>298</ele>
        <time>2013-09-28T13:22:17.981Z</time>
      </trkpt>
      <trkpt lat="43.48459" lon="1.51093">
        <ele>301.9</ele>
        <time>2013-09-28T13:22:22.857Z</time>
      </trkpt>
      <trkpt lat="43.48458" lon="1.5109">
        <ele>301.8</ele>
        <time>2013-09-28T13:22:23.849Z</time>
      </trkpt>
      <trkpt lat="43.48455" lon="1.5108">
        <ele>301.8</ele>
        <time>2013-09-28T13:22:26.842Z</time>
      </trkpt>
      <trkpt lat="43.48454" lon="1.51077">
        <ele>301.8</ele>
        <time>2013-09-28T13:22:27.848Z</time>
      </trkpt>
      <trkpt lat="43.48452" lon="1.51065">
        <ele>300.8</ele>
        <time>2013-09-28T13:22:31.919Z</time>
      </trkpt>
      <trkpt lat="43.48451" lon="1.51062">
        <ele>300.8</ele>
        <time>2013-09-28T13:22:32.923Z</time>
      </trkpt>
      <trkpt lat="43.48449" lon="1.5105">
        <ele>299.4</ele>
        <time>2013-09-28T13:22:36.931Z</time>
      </trkpt>
      <trkpt lat="43.48449" lon="1.51046">
        <ele>299.4</ele>
        <time>2013-09-28T13:22:37.915Z</time>
      </trkpt>
      <trkpt lat="43.48447" lon="1.51035">
        <ele>302.1</ele>
        <time>2013-09-28T13:22:42.884Z</time>
      </trkpt>
      <trkpt lat="43.48446" lon="1.51032">
        <ele>300</ele>
        <time>2013-09-28T13:22:43.838Z</time>
      </trkpt>
      <trkpt lat="43.48444" lon="1.51021">
        <ele>298.2</ele>
        <time>2013-09-28T13:22:46.937Z</time>
      </trkpt>
      <trkpt lat="43.48446" lon="1.51018">
        <ele>296.4</ele>
        <time>2013-09-28T13:22:47.923Z</time>
      </trkpt>
      <trkpt lat="43.48445" lon="1.51006">
        <ele>296.3</ele>
        <time>2013-09-28T13:22:50.945Z</time>
      </trkpt>
      <trkpt lat="43.48444" lon="1.51002">
        <ele>296.6</ele>
        <time>2013-09-28T13:22:51.918Z</time>
      </trkpt>
      <trkpt lat="43.48443" lon="1.50992">
        <ele>297.6</ele>
        <time>2013-09-28T13:22:54.910Z</time>
      </trkpt>
      <trkpt lat="43.48443" lon="1.5099">
        <ele>296.7</ele>
        <time>2013-09-28T13:22:55.941Z</time>
      </trkpt>
      <trkpt lat="43.4844" lon="1.50978">
        <ele>295.2</ele>
        <time>2013-09-28T13:22:59.837Z</time>
      </trkpt>
      <trkpt lat="43.48439" lon="1.50975">
        <ele>294.9</ele>
        <time>2013-09-28T13:23:00.883Z</time>
      </trkpt>
      <trkpt lat="43.48437" lon="1.50963">
        <ele>294.5</ele>
        <time>2013-09-28T13:23:04.955Z</time>
      </trkpt>
      <trkpt lat="43.48437" lon="1.50961">
        <ele>295.9</ele>
        <time>2013-09-28T13:23:05.962Z</time>
      </trkpt>
      <trkpt lat="43.48437" lon="1.50951">
        <ele>298.1</ele>
        <time>2013-09-28T13:23:09.819Z</time>
      </trkpt>
      <trkpt lat="43.48436" lon="1.50948">
        <ele>298.1</ele>
        <time>2013-09-28T13:23:11.041Z</time>
      </trkpt>
      <trkpt lat="43.48434" lon="1.50937">
        <ele>296.5</ele>
        <time>2013-09-28T13:23:14.956Z</time>
      </trkpt>
      <trkpt lat="43.48434" lon="1.50933">
        <ele>297.8</ele>
        <time>2013-09-28T13:23:16.111Z</time>
      </trkpt>
      <trkpt lat="43.48433" lon="1.50924">
        <ele>299.5</ele>
        <time>2013-09-28T13:23:19.751Z</time>
      </trkpt>
      <trkpt lat="43.48433" lon="1.5092">
        <ele>300.2</ele>
        <time>2013-09-28T13:23:19.846Z</time>
      </trkpt>
      <trkpt lat="43.48433" lon="1.5091">
        <ele>299.6</ele>
        <time>2013-09-28T13:23:22.919Z</time>
      </trkpt>
      <trkpt lat="43.48433" lon="1.50906">
        <ele>299.7</ele>
        <time>2013-09-28T13:23:23.941Z</time>
      </trkpt>
      <trkpt lat="43.48431" lon="1.50895">
        <ele>302.4</ele>
        <time>2013-09-28T13:23:27.957Z</time>
      </trkpt>
      <trkpt lat="43.48431" lon="1.50892">
        <ele>302.9</ele>
        <time>2013-09-28T13:23:28.951Z</time>
      </trkpt>
      <trkpt lat="43.48428" lon="1.50881">
        <ele>302.3</ele>
        <time>2013-09-28T13:23:32.855Z</time>
      </trkpt>
      <trkpt lat="43.48427" lon="1.50877">
        <ele>302.7</ele>
        <time>2013-09-28T13:23:33.849Z</time>
      </trkpt>
      <trkpt lat="43.48426" lon="1.50867">
        <ele>303.2</ele>
        <time>2013-09-28T13:23:36.951Z</time>
      </trkpt>
      <trkpt lat="43.48425" lon="1.50863">
        <ele>303.7</ele>
        <time>2013-09-28T13:23:37.920Z</time>
      </trkpt>
      <trkpt lat="43.48423" lon="1.50851">
        <ele>304.9</ele>
        <time>2013-09-28T13:23:41.919Z</time>
      </trkpt>
      <trkpt lat="43.48422" lon="1.50849">
        <ele>304.7</ele>
        <time>2013-09-28T13:23:42.881Z</time>
      </trkpt>
      <trkpt lat="43.4842" lon="1.50837">
        <ele>303</ele>
        <time>2013-09-28T13:23:46.913Z</time>
      </trkpt>
      <trkpt lat="43.4842" lon="1.50834">
        <ele>303.6</ele>
        <time>2013-09-28T13:23:47.947Z</time>
      </trkpt>
      <trkpt lat="43.48419" lon="1.50824">
        <ele>303.6</ele>
        <time>2013-09-28T13:23:50.914Z</time>
      </trkpt>
      <trkpt lat="43.48418" lon="1.50821">
        <ele>304.6</ele>
        <time>2013-09-28T13:23:51.913Z</time>
      </trkpt>
      <trkpt lat="43.48418" lon="1.50812">
        <ele>304</ele>
        <time>2013-09-28T13:23:54.906Z</time>
      </trkpt>
      <trkpt lat="43.48417" lon="1.50808">
        <ele>305.3</ele>
        <time>2013-09-28T13:23:55.950Z</time>
      </trkpt>
      <trkpt lat="43.48416" lon="1.50798">
        <ele>305.3</ele>
        <time>2013-09-28T13:23:59.527Z</time>
      </trkpt>
      <trkpt lat="43.48416" lon="1.50795">
        <ele>304.9</ele>
        <time>2013-09-28T13:23:59.820Z</time>
      </trkpt>
      <trkpt lat="43.48414" lon="1.50785">
        <ele>302.3</ele>
        <time>2013-09-28T13:24:02.927Z</time>
      </trkpt>
      <trkpt lat="43.48413" lon="1.50782">
        <ele>302.1</ele>
        <time>2013-09-28T13:24:03.888Z</time>
      </trkpt>
      <trkpt lat="43.4841" lon="1.50771">
        <ele>303</ele>
        <time>2013-09-28T13:24:07.914Z</time>
      </trkpt>
      <trkpt lat="43.48409" lon="1.50768">
        <ele>302.7</ele>
        <time>2013-09-28T13:24:08.971Z</time>
      </trkpt>
      <trkpt lat="43.48406" lon="1.50758">
        <ele>304.5</ele>
        <time>2013-09-28T13:24:12.879Z</time>
      </trkpt>
      <trkpt lat="43.48405" lon="1.50755">
        <ele>304.3</ele>
        <time>2013-09-28T13:24:13.909Z</time>
      </trkpt>
      <trkpt lat="43.48404" lon="1.50746">
        <ele>304</ele>
        <time>2013-09-28T13:24:16.868Z</time>
      </trkpt>
      <trkpt lat="43.48403" lon="1.50742">
        <ele>304.5</ele>
        <time>2013-09-28T13:24:17.889Z</time>
      </trkpt>
      <trkpt lat="43.48401" lon="1.50731">
        <ele>305.7</ele>
        <time>2013-09-28T13:24:21.008Z</time>
      </trkpt>
      <trkpt lat="43.484" lon="1.50728">
        <ele>306.1</ele>
        <time>2013-09-28T13:24:21.883Z</time>
      </trkpt>
      <trkpt lat="43.48398" lon="1.50719">
        <ele>305.4</ele>
        <time>2013-09-28T13:24:24.866Z</time>
      </trkpt>
      <trkpt lat="43.48397" lon="1.50715">
        <ele>305.4</ele>
        <time>2013-09-28T13:24:26.014Z</time>
      </trkpt>
      <trkpt lat="43.48395" lon="1.50706">
        <ele>306.1</ele>
        <time>2013-09-28T13:24:29.845Z</time>
      </trkpt>
      <trkpt lat="43.48394" lon="1.50703">
        <ele>306.4</ele>
        <time>2013-09-28T13:24:30.056Z</time>
      </trkpt>
      <trkpt lat="43.48392" lon="1.50694">
        <ele>307.9</ele>
        <time>2013-09-28T13:24:32.923Z</time>
      </trkpt>
      <trkpt lat="43.4839" lon="1.50691">
        <ele>308.7</ele>
        <time>2013-09-28T13:24:33.994Z</time>
      </trkpt>
      <trkpt lat="43.48387" lon="1.5068">
        <ele>310.5</ele>
        <time>2013-09-28T13:24:37.917Z</time>
      </trkpt>
      <trkpt lat="43.48386" lon="1.50677">
        <ele>310.4</ele>
        <time>2013-09-28T13:24:38.993Z</time>
      </trkpt>
      <trkpt lat="43.48382" lon="1.50669">
        <ele>310.7</ele>
        <time>2013-09-28T13:24:41.878Z</time>
      </trkpt>
      <trkpt lat="43.48381" lon="1.50666">
        <ele>310.9</ele>
        <time>2013-09-28T13:24:42.840Z</time>
      </trkpt>
      <trkpt lat="43.48378" lon="1.50656">
        <ele>310.7</ele>
        <time>2013-09-28T13:24:45.852Z</time>
      </trkpt>
      <trkpt lat="43.48377" lon="1.50653">
        <ele>311.6</ele>
        <time>2013-09-28T13:24:46.856Z</time>
      </trkpt>
      <trkpt lat="43.48373" lon="1.50643">
        <ele>313</ele>
        <time>2013-09-28T13:24:51.570Z</time>
      </trkpt>
      <trkpt lat="43.48372" lon="1.5064">
        <ele>312.1</ele>
        <time>2013-09-28T13:24:51.868Z</time>
      </trkpt>
      <trkpt lat="43.48369" lon="1.5063">
        <ele>310.5</ele>
        <time>2013-09-28T13:24:54.987Z</time>
      </trkpt>
      <trkpt lat="43.48368" lon="1.50627">
        <ele>310</ele>
        <time>2013-09-28T13:24:55.928Z</time>
      </trkpt>
      <trkpt lat="43.48364" lon="1.50616">
        <ele>307.7</ele>
        <time>2013-09-28T13:24:59.673Z</time>
      </trkpt>
      <trkpt lat="43.48364" lon="1.50612">
        <ele>306.6</ele>
        <time>2013-09-28T13:24:59.926Z</time>
      </trkpt>
      <trkpt lat="43.4836" lon="1.50603">
        <ele>306.1</ele>
        <time>2013-09-28T13:25:02.923Z</time>
      </trkpt>
      <trkpt lat="43.48358" lon="1.506">
        <ele>305.6</ele>
        <time>2013-09-28T13:25:03.922Z</time>
      </trkpt>
      <trkpt lat="43.48354" lon="1.50589">
        <ele>306.9</ele>
        <time>2013-09-28T13:25:07.939Z</time>
      </trkpt>
      <trkpt lat="43.48353" lon="1.50587">
        <ele>306.7</ele>
        <time>2013-09-28T13:25:08.957Z</time>
      </trkpt>
      <trkpt lat="43.4835" lon="1.50577">
        <ele>307</ele>
        <time>2013-09-28T13:25:11.910Z</time>
      </trkpt>
      <trkpt lat="43.48349" lon="1.50574">
        <ele>306.5</ele>
        <time>2013-09-28T13:25:12.871Z</time>
      </trkpt>
      <trkpt lat="43.48347" lon="1.50564">
        <ele>304.6</ele>
        <time>2013-09-28T13:25:15.930Z</time>
      </trkpt>
      <trkpt lat="43.48345" lon="1.50561">
        <ele>304.9</ele>
        <time>2013-09-28T13:25:16.862Z</time>
      </trkpt>
      <trkpt lat="43.48342" lon="1.5055">
        <ele>304.6</ele>
        <time>2013-09-28T13:25:19.825Z</time>
      </trkpt>
      <trkpt lat="43.4834" lon="1.50547">
        <ele>304.9</ele>
        <time>2013-09-28T13:25:20.901Z</time>
      </trkpt>
      <trkpt lat="43.48336" lon="1.50536">
        <ele>304.1</ele>
        <time>2013-09-28T13:25:24.903Z</time>
      </trkpt>
      <trkpt lat="43.48335" lon="1.50533">
        <ele>304.1</ele>
        <time>2013-09-28T13:25:25.817Z</time>
      </trkpt>
      <trkpt lat="43.48331" lon="1.50523">
        <ele>305.1</ele>
        <time>2013-09-28T13:25:29.839Z</time>
      </trkpt>
      <trkpt lat="43.4833" lon="1.5052">
        <ele>305.5</ele>
        <time>2013-09-28T13:25:29.925Z</time>
      </trkpt>
      <trkpt lat="43.48326" lon="1.50512">
        <ele>305.9</ele>
        <time>2013-09-28T13:25:32.878Z</time>
      </trkpt>
      <trkpt lat="43.48325" lon="1.50509">
        <ele>305.4</ele>
        <time>2013-09-28T13:25:33.898Z</time>
      </trkpt>
      <trkpt lat="43.48323" lon="1.50499">
        <ele>306.1</ele>
        <time>2013-09-28T13:25:36.839Z</time>
      </trkpt>
      <trkpt lat="43.48321" lon="1.50496">
        <ele>305.9</ele>
        <time>2013-09-28T13:25:37.899Z</time>
      </trkpt>
      <trkpt lat="43.48317" lon="1.50488">
        <ele>306.2</ele>
        <time>2013-09-28T13:25:40.941Z</time>
      </trkpt>
      <trkpt lat="43.48316" lon="1.50484">
        <ele>306.8</ele>
        <time>2013-09-28T13:25:41.945Z</time>
      </trkpt>
      <trkpt lat="43.48312" lon="1.50476">
        <ele>306</ele>
        <time>2013-09-28T13:25:44.927Z</time>
      </trkpt>
      <trkpt lat="43.48311" lon="1.50473">
        <ele>306.1</ele>
        <time>2013-09-28T13:25:45.921Z</time>
      </trkpt>
      <trkpt lat="43.48307" lon="1.50465">
        <ele>305.7</ele>
        <time>2013-09-28T13:25:49.513Z</time>
      </trkpt>
      <trkpt lat="43.48305" lon="1.50462">
        <ele>306.4</ele>
        <time>2013-09-28T13:25:49.902Z</time>
      </trkpt>
      <trkpt lat="43.48301" lon="1.50453">
        <ele>308.4</ele>
        <time>2013-09-28T13:25:52.878Z</time>
      </trkpt>
      <trkpt lat="43.48301" lon="1.5045">
        <ele>308.1</ele>
        <time>2013-09-28T13:25:53.917Z</time>
      </trkpt>
      <trkpt lat="43.48295" lon="1.50441">
        <ele>310.1</ele>
        <time>2013-09-28T13:25:57.922Z</time>
      </trkpt>
      <trkpt lat="43.48295" lon="1.50438">
        <ele>310.2</ele>
        <time>2013-09-28T13:25:58.844Z</time>
      </trkpt>
      <trkpt lat="43.48294" lon="1.50428">
        <ele>310.9</ele>
        <time>2013-09-28T13:26:01.884Z</time>
      </trkpt>
      <trkpt lat="43.48294" lon="1.50425">
        <ele>311.7</ele>
        <time>2013-09-28T13:26:02.886Z</time>
      </trkpt>
      <trkpt lat="43.48293" lon="1.50417">
        <ele>310.6</ele>
        <time>2013-09-28T13:26:04.842Z</time>
      </trkpt>
      <trkpt lat="43.4829" lon="1.50414">
        <ele>309.8</ele>
        <time>2013-09-28T13:26:05.862Z</time>
      </trkpt>
      <trkpt lat="43.48283" lon="1.50407">
        <ele>313.5</ele>
        <time>2013-09-28T13:26:09.891Z</time>
      </trkpt>
      <trkpt lat="43.48281" lon="1.50405">
        <ele>313.9</ele>
        <time>2013-09-28T13:26:10.935Z</time>
      </trkpt>
      <trkpt lat="43.48275" lon="1.50397">
        <ele>315.2</ele>
        <time>2013-09-28T13:26:14.910Z</time>
      </trkpt>
      <trkpt lat="43.48274" lon="1.50395">
        <ele>315.1</ele>
        <time>2013-09-28T13:26:15.878Z</time>
      </trkpt>
      <trkpt lat="43.48274" lon="1.50385">
        <ele>315.1</ele>
        <time>2013-09-28T13:26:19.697Z</time>
      </trkpt>
      <trkpt lat="43.48274" lon="1.50381">
        <ele>313.9</ele>
        <time>2013-09-28T13:26:19.921Z</time>
      </trkpt>
      <trkpt lat="43.48278" lon="1.50371">
        <ele>312.7</ele>
        <time>2013-09-28T13:26:23.074Z</time>
      </trkpt>
      <trkpt lat="43.4828" lon="1.50369">
        <ele>313.3</ele>
        <time>2013-09-28T13:26:23.947Z</time>
      </trkpt>
      <trkpt lat="43.48283" lon="1.50359">
        <ele>314.9</ele>
        <time>2013-09-28T13:26:26.864Z</time>
      </trkpt>
      <trkpt lat="43.48285" lon="1.50356">
        <ele>314.7</ele>
        <time>2013-09-28T13:26:27.842Z</time>
      </trkpt>
      <trkpt lat="43.48292" lon="1.50355">
        <ele>313.7</ele>
        <time>2013-09-28T13:26:31.369Z</time>
      </trkpt>
      <trkpt lat="43.48294" lon="1.50356">
        <ele>314</ele>
        <time>2013-09-28T13:26:31.866Z</time>
      </trkpt>
      <trkpt lat="43.48302" lon="1.50354">
        <ele>314.1</ele>
        <time>2013-09-28T13:26:33.859Z</time>
      </trkpt>
      <trkpt lat="43.48307" lon="1.50353">
        <ele>313.7</ele>
        <time>2013-09-28T13:26:34.841Z</time>
      </trkpt>
      <trkpt lat="43.48313" lon="1.5035">
        <ele>313.4</ele>
        <time>2013-09-28T13:26:36.888Z</time>
      </trkpt>
      <trkpt lat="43.48316" lon="1.50349">
        <ele>313.2</ele>
        <time>2013-09-28T13:26:37.936Z</time>
      </trkpt>
      <trkpt lat="43.4832" lon="1.50339">
        <ele>312.7</ele>
        <time>2013-09-28T13:26:41.919Z</time>
      </trkpt>
      <trkpt lat="43.48321" lon="1.50338">
        <ele>313.5</ele>
        <time>2013-09-28T13:26:42.898Z</time>
      </trkpt>
      <trkpt lat="43.48328" lon="1.50331">
        <ele>317.2</ele>
        <time>2013-09-28T13:26:45.908Z</time>
      </trkpt>
      <trkpt lat="43.48329" lon="1.50327">
        <ele>318.1</ele>
        <time>2013-09-28T13:26:46.929Z</time>
      </trkpt>
      <trkpt lat="43.48337" lon="1.50321">
        <ele>315.8</ele>
        <time>2013-09-28T13:26:49.617Z</time>
      </trkpt>
      <trkpt lat="43.4834" lon="1.50319">
        <ele>315.9</ele>
        <time>2013-09-28T13:26:49.866Z</time>
      </trkpt>
      <trkpt lat="43.48346" lon="1.50314">
        <ele>313.8</ele>
        <time>2013-09-28T13:26:52.901Z</time>
      </trkpt>
      <trkpt lat="43.48349" lon="1.50314">
        <ele>313.8</ele>
        <time>2013-09-28T13:26:53.980Z</time>
      </trkpt>
      <trkpt lat="43.48356" lon="1.50311">
        <ele>314.1</ele>
        <time>2013-09-28T13:26:58.417Z</time>
      </trkpt>
      <trkpt lat="43.48359" lon="1.5031">
        <ele>312.8</ele>
        <time>2013-09-28T13:26:58.916Z</time>
      </trkpt>
      <trkpt lat="43.48366" lon="1.50306">
        <ele>312.5</ele>
        <time>2013-09-28T13:27:01.844Z</time>
      </trkpt>
      <trkpt lat="43.48369" lon="1.50304">
        <ele>312.5</ele>
        <time>2013-09-28T13:27:02.853Z</time>
      </trkpt>
      <trkpt lat="43.48376" lon="1.50299">
        <ele>310.5</ele>
        <time>2013-09-28T13:27:05.871Z</time>
      </trkpt>
      <trkpt lat="43.48377" lon="1.50295">
        <ele>309.3</ele>
        <time>2013-09-28T13:27:06.906Z</time>
      </trkpt>
      <trkpt lat="43.48385" lon="1.50291">
        <ele>310.8</ele>
        <time>2013-09-28T13:27:10.988Z</time>
      </trkpt>
      <trkpt lat="43.48387" lon="1.5029">
        <ele>310</ele>
        <time>2013-09-28T13:27:11.908Z</time>
      </trkpt>
      <trkpt lat="43.48392" lon="1.50284">
        <ele>310.2</ele>
        <time>2013-09-28T13:27:15.266Z</time>
      </trkpt>
      <trkpt lat="43.48394" lon="1.50283">
        <ele>310.5</ele>
        <time>2013-09-28T13:27:15.867Z</time>
      </trkpt>
      <trkpt lat="43.48403" lon="1.50281">
        <ele>309.7</ele>
        <time>2013-09-28T13:27:19.897Z</time>
      </trkpt>
      <trkpt lat="43.48404" lon="1.50278">
        <ele>309.5</ele>
        <time>2013-09-28T13:27:20.899Z</time>
      </trkpt>
      <trkpt lat="43.48408" lon="1.50273">
        <ele>307.8</ele>
        <time>2013-09-28T13:27:22.924Z</time>
      </trkpt>
      <trkpt lat="43.48411" lon="1.50268">
        <ele>309.6</ele>
        <time>2013-09-28T13:27:23.967Z</time>
      </trkpt>
      <trkpt lat="43.48416" lon="1.50261">
        <ele>309.9</ele>
        <time>2013-09-28T13:27:25.866Z</time>
      </trkpt>
      <trkpt lat="43.4842" lon="1.50259">
        <ele>311.1</ele>
        <time>2013-09-28T13:27:26.911Z</time>
      </trkpt>
      <trkpt lat="43.48427" lon="1.50255">
        <ele>311.5</ele>
        <time>2013-09-28T13:27:29.955Z</time>
      </trkpt>
      <trkpt lat="43.48429" lon="1.50254">
        <ele>312.3</ele>
        <time>2013-09-28T13:27:30.850Z</time>
      </trkpt>
      <trkpt lat="43.48435" lon="1.50252">
        <ele>309.6</ele>
        <time>2013-09-28T13:27:34.978Z</time>
      </trkpt>
      <trkpt lat="43.48438" lon="1.50251">
        <ele>311.9</ele>
        <time>2013-09-28T13:27:35.215Z</time>
      </trkpt>
      <trkpt lat="43.48446" lon="1.50248">
        <ele>313.1</ele>
        <time>2013-09-28T13:27:39.868Z</time>
      </trkpt>
      <trkpt lat="43.48447" lon="1.50248">
        <ele>314.1</ele>
        <time>2013-09-28T13:27:39.979Z</time>
      </trkpt>
      <trkpt lat="43.48456" lon="1.50245">
        <ele>314.9</ele>
        <time>2013-09-28T13:27:42.886Z</time>
      </trkpt>
      <trkpt lat="43.48458" lon="1.50243">
        <ele>312.5</ele>
        <time>2013-09-28T13:27:43.861Z</time>
      </trkpt>
      <trkpt lat="43.48466" lon="1.50239">
        <ele>310.8</ele>
        <time>2013-09-28T13:27:46.936Z</time>
      </trkpt>
      <trkpt lat="43.48468" lon="1.50238">
        <ele>311</ele>
        <time>2013-09-28T13:27:47.898Z</time>
      </trkpt>
      <trkpt lat="43.48474" lon="1.50234">
        <ele>310.9</ele>
        <time>2013-09-28T13:27:50.853Z</time>
      </trkpt>
      <trkpt lat="43.48477" lon="1.50233">
        <ele>311.8</ele>
        <time>2013-09-28T13:27:51.868Z</time>
      </trkpt>
      <trkpt lat="43.48483" lon="1.50228">
        <ele>312.1</ele>
        <time>2013-09-28T13:27:54.939Z</time>
      </trkpt>
      <trkpt lat="43.48485" lon="1.50226">
        <ele>312.6</ele>
        <time>2013-09-28T13:27:55.859Z</time>
      </trkpt>
      <trkpt lat="43.48493" lon="1.50223">
        <ele>312</ele>
        <time>2013-09-28T13:27:59.885Z</time>
      </trkpt>
      <trkpt lat="43.48495" lon="1.50221">
        <ele>313.4</ele>
        <time>2013-09-28T13:28:00.891Z</time>
      </trkpt>
      <trkpt lat="43.48503" lon="1.50215">
        <ele>314.9</ele>
        <time>2013-09-28T13:28:05.020Z</time>
      </trkpt>
      <trkpt lat="43.48505" lon="1.50214">
        <ele>315.5</ele>
        <time>2013-09-28T13:28:05.871Z</time>
      </trkpt>
      <trkpt lat="43.48513" lon="1.50213">
        <ele>313.6</ele>
        <time>2013-09-28T13:28:08.977Z</time>
      </trkpt>
      <trkpt lat="43.48515" lon="1.50213">
        <ele>312.4</ele>
        <time>2013-09-28T13:28:09.871Z</time>
      </trkpt>
      <trkpt lat="43.48522" lon="1.5021">
        <ele>313.1</ele>
        <time>2013-09-28T13:28:12.857Z</time>
      </trkpt>
      <trkpt lat="43.48525" lon="1.50208">
        <ele>313</ele>
        <time>2013-09-28T13:28:13.850Z</time>
      </trkpt>
      <trkpt lat="43.48533" lon="1.50204">
        <ele>311.9</ele>
        <time>2013-09-28T13:28:16.878Z</time>
      </trkpt>
      <trkpt lat="43.48535" lon="1.50203">
        <ele>312.7</ele>
        <time>2013-09-28T13:28:17.940Z</time>
      </trkpt>
      <trkpt lat="43.48542" lon="1.50199">
        <ele>313</ele>
        <time>2013-09-28T13:28:21.892Z</time>
      </trkpt>
      <trkpt lat="43.48544" lon="1.50198">
        <ele>312.4</ele>
        <time>2013-09-28T13:28:22.861Z</time>
      </trkpt>
      <trkpt lat="43.48551" lon="1.50194">
        <ele>316</ele>
        <time>2013-09-28T13:28:26.853Z</time>
      </trkpt>
      <trkpt lat="43.48553" lon="1.50192">
        <ele>316.8</ele>
        <time>2013-09-28T13:28:27.849Z</time>
      </trkpt>
      <trkpt lat="43.4856" lon="1.50188">
        <ele>316.6</ele>
        <time>2013-09-28T13:28:30.861Z</time>
      </trkpt>
      <trkpt lat="43.48562" lon="1.50186">
        <ele>317.1</ele>
        <time>2013-09-28T13:28:31.917Z</time>
      </trkpt>
      <trkpt lat="43.48569" lon="1.50181">
        <ele>317.1</ele>
        <time>2013-09-28T13:28:34.980Z</time>
      </trkpt>
      <trkpt lat="43.48572" lon="1.5018">
        <ele>315.7</ele>
        <time>2013-09-28T13:28:35.914Z</time>
      </trkpt>
      <trkpt lat="43.48579" lon="1.50174">
        <ele>316</ele>
        <time>2013-09-28T13:28:40.094Z</time>
      </trkpt>
      <trkpt lat="43.48581" lon="1.50171">
        <ele>316.8</ele>
        <time>2013-09-28T13:28:41.021Z</time>
      </trkpt>
      <trkpt lat="43.48588" lon="1.50165">
        <ele>319.4</ele>
        <time>2013-09-28T13:28:45.197Z</time>
      </trkpt>
      <trkpt lat="43.4859" lon="1.50163">
        <ele>318.9</ele>
        <time>2013-09-28T13:28:45.902Z</time>
      </trkpt>
      <trkpt lat="43.48596" lon="1.50159">
        <ele>316.7</ele>
        <time>2013-09-28T13:28:49.872Z</time>
      </trkpt>
      <trkpt lat="43.48598" lon="1.50156">
        <ele>316</ele>
        <time>2013-09-28T13:28:50.911Z</time>
      </trkpt>
      <trkpt lat="43.48605" lon="1.50153">
        <ele>315.8</ele>
        <time>2013-09-28T13:28:54.907Z</time>
      </trkpt>
      <trkpt lat="43.48607" lon="1.50152">
        <ele>316.4</ele>
        <time>2013-09-28T13:28:55.917Z</time>
      </trkpt>
      <trkpt lat="43.48614" lon="1.50151">
        <ele>313</ele>
        <time>2013-09-28T13:29:00.909Z</time>
      </trkpt>
      <trkpt lat="43.48616" lon="1.5015">
        <ele>310.6</ele>
        <time>2013-09-28T13:29:01.871Z</time>
      </trkpt>
      <trkpt lat="43.48622" lon="1.50143">
        <ele>313.1</ele>
        <time>2013-09-28T13:29:04.837Z</time>
      </trkpt>
      <trkpt lat="43.48624" lon="1.50141">
        <ele>312.7</ele>
        <time>2013-09-28T13:29:05.862Z</time>
      </trkpt>
      <trkpt lat="43.4863" lon="1.50134">
        <ele>314</ele>
        <time>2013-09-28T13:29:09.639Z</time>
      </trkpt>
      <trkpt lat="43.48632" lon="1.50132">
        <ele>313.1</ele>
        <time>2013-09-28T13:29:09.873Z</time>
      </trkpt>
      <trkpt lat="43.4864" lon="1.50128">
        <ele>312</ele>
        <time>2013-09-28T13:29:12.871Z</time>
      </trkpt>
      <trkpt lat="43.48642" lon="1.50127">
        <ele>311.9</ele>
        <time>2013-09-28T13:29:13.952Z</time>
      </trkpt>
      <trkpt lat="43.4865" lon="1.50122">
        <ele>311.7</ele>
        <time>2013-09-28T13:29:17.933Z</time>
      </trkpt>
      <trkpt lat="43.48652" lon="1.5012">
        <ele>311.1</ele>
        <time>2013-09-28T13:29:18.988Z</time>
      </trkpt>
      <trkpt lat="43.4866" lon="1.50115">
        <ele>310.2</ele>
        <time>2013-09-28T13:29:21.928Z</time>
      </trkpt>
      <trkpt lat="43.48663" lon="1.50112">
        <ele>309.9</ele>
        <time>2013-09-28T13:29:22.898Z</time>
      </trkpt>
      <trkpt lat="43.4867" lon="1.50106">
        <ele>308</ele>
        <time>2013-09-28T13:29:25.891Z</time>
      </trkpt>
      <trkpt lat="43.48672" lon="1.50103">
        <ele>307.5</ele>
        <time>2013-09-28T13:29:26.935Z</time>
      </trkpt>
      <trkpt lat="43.48678" lon="1.50097">
        <ele>310.5</ele>
        <time>2013-09-28T13:29:29.917Z</time>
      </trkpt>
      <trkpt lat="43.4868" lon="1.50095">
        <ele>310.8</ele>
        <time>2013-09-28T13:29:30.873Z</time>
      </trkpt>
      <trkpt lat="43.48689" lon="1.50092">
        <ele>310</ele>
        <time>2013-09-28T13:29:34.848Z</time>
      </trkpt>
      <trkpt lat="43.48691" lon="1.50091">
        <ele>310.7</ele>
        <time>2013-09-28T13:29:35.860Z</time>
      </trkpt>
      <trkpt lat="43.48697" lon="1.50085">
        <ele>311.1</ele>
        <time>2013-09-28T13:29:39.795Z</time>
      </trkpt>
      <trkpt lat="43.487" lon="1.50084">
        <ele>312.1</ele>
        <time>2013-09-28T13:29:39.917Z</time>
      </trkpt>
      <trkpt lat="43.48706" lon="1.50078">
        <ele>312.5</ele>
        <time>2013-09-28T13:29:42.866Z</time>
      </trkpt>
      <trkpt lat="43.48709" lon="1.50076">
        <ele>313.2</ele>
        <time>2013-09-28T13:29:43.863Z</time>
      </trkpt>
      <trkpt lat="43.48714" lon="1.50074">
        <ele>313.2</ele>
        <time>2013-09-28T13:29:45.845Z</time>
      </trkpt>
      <trkpt lat="43.48718" lon="1.50073">
        <ele>312.5</ele>
        <time>2013-09-28T13:29:46.839Z</time>
      </trkpt>
      <trkpt lat="43.48725" lon="1.50071">
        <ele>312.4</ele>
        <time>2013-09-28T13:29:49.511Z</time>
      </trkpt>
      <trkpt lat="43.48729" lon="1.5007">
        <ele>311.9</ele>
        <time>2013-09-28T13:29:49.868Z</time>
      </trkpt>
      <trkpt lat="43.48736" lon="1.50063">
        <ele>311.3</ele>
        <time>2013-09-28T13:29:54.534Z</time>
      </trkpt>
      <trkpt lat="43.48739" lon="1.50062">
        <ele>311</ele>
        <time>2013-09-28T13:29:54.831Z</time>
      </trkpt>
      <trkpt lat="43.48743" lon="1.50055">
        <ele>312.2</ele>
        <time>2013-09-28T13:29:59.619Z</time>
      </trkpt>
      <trkpt lat="43.48746" lon="1.50053">
        <ele>313.1</ele>
        <time>2013-09-28T13:29:59.946Z</time>
      </trkpt>
      <trkpt lat="43.48753" lon="1.50047">
        <ele>314.8</ele>
        <time>2013-09-28T13:30:02.969Z</time>
      </trkpt>
      <trkpt lat="43.48754" lon="1.50046">
        <ele>314.8</ele>
        <time>2013-09-28T13:30:03.880Z</time>
      </trkpt>
      <trkpt lat="43.48762" lon="1.50041">
        <ele>313.4</ele>
        <time>2013-09-28T13:30:06.866Z</time>
      </trkpt>
      <trkpt lat="43.48765" lon="1.50039">
        <ele>314.5</ele>
        <time>2013-09-28T13:30:07.854Z</time>
      </trkpt>
      <trkpt lat="43.48772" lon="1.50033">
        <ele>316.5</ele>
        <time>2013-09-28T13:30:10.836Z</time>
      </trkpt>
      <trkpt lat="43.48775" lon="1.50032">
        <ele>316.7</ele>
        <time>2013-09-28T13:30:11.985Z</time>
      </trkpt>
      <trkpt lat="43.48781" lon="1.50027">
        <ele>314</ele>
        <time>2013-09-28T13:30:14.858Z</time>
      </trkpt>
      <trkpt lat="43.48784" lon="1.50025">
        <ele>316.1</ele>
        <time>2013-09-28T13:30:15.882Z</time>
      </trkpt>
      <trkpt lat="43.48789" lon="1.50019">
        <ele>316.6</ele>
        <time>2013-09-28T13:30:17.909Z</time>
      </trkpt>
      <trkpt lat="43.48792" lon="1.50017">
        <ele>317.9</ele>
        <time>2013-09-28T13:30:18.976Z</time>
      </trkpt>
      <trkpt lat="43.48798" lon="1.50013">
        <ele>317.9</ele>
        <time>2013-09-28T13:30:22.833Z</time>
      </trkpt>
      <trkpt lat="43.488" lon="1.50011">
        <ele>317.5</ele>
        <time>2013-09-28T13:30:24.105Z</time>
      </trkpt>
      <trkpt lat="43.48807" lon="1.50008">
        <ele>314.8</ele>
        <time>2013-09-28T13:30:26.845Z</time>
      </trkpt>
      <trkpt lat="43.48809" lon="1.50007">
        <ele>314.9</ele>
        <time>2013-09-28T13:30:27.847Z</time>
      </trkpt>
      <trkpt lat="43.48817" lon="1.50005">
        <ele>313.1</ele>
        <time>2013-09-28T13:30:31.870Z</time>
      </trkpt>
      <trkpt lat="43.48819" lon="1.50004">
        <ele>313.1</ele>
        <time>2013-09-28T13:30:32.938Z</time>
      </trkpt>
      <trkpt lat="43.48826" lon="1.49999">
        <ele>311.4</ele>
        <time>2013-09-28T13:30:35.924Z</time>
      </trkpt>
      <trkpt lat="43.48828" lon="1.49997">
        <ele>312.2</ele>
        <time>2013-09-28T13:30:36.870Z</time>
      </trkpt>
      <trkpt lat="43.48835" lon="1.49991">
        <ele>313.4</ele>
        <time>2013-09-28T13:30:39.981Z</time>
      </trkpt>
      <trkpt lat="43.48837" lon="1.4999">
        <ele>313.2</ele>
        <time>2013-09-28T13:30:40.994Z</time>
      </trkpt>
      <trkpt lat="43.48844" lon="1.49986">
        <ele>318.4</ele>
        <time>2013-09-28T13:30:43.845Z</time>
      </trkpt>
      <trkpt lat="43.48846" lon="1.49984">
        <ele>320.6</ele>
        <time>2013-09-28T13:30:44.866Z</time>
      </trkpt>
      <trkpt lat="43.48853" lon="1.4998">
        <ele>317.4</ele>
        <time>2013-09-28T13:30:47.952Z</time>
      </trkpt>
      <trkpt lat="43.48855" lon="1.49981">
        <ele>317.8</ele>
        <time>2013-09-28T13:30:48.997Z</time>
      </trkpt>
      <trkpt lat="43.48864" lon="1.49978">
        <ele>318.8</ele>
        <time>2013-09-28T13:30:55.723Z</time>
      </trkpt>
      <trkpt lat="43.48866" lon="1.49977">
        <ele>318.4</ele>
        <time>2013-09-28T13:30:55.842Z</time>
      </trkpt>
      <trkpt lat="43.48874" lon="1.49975">
        <ele>316.4</ele>
        <time>2013-09-28T13:30:59.929Z</time>
      </trkpt>
      <trkpt lat="43.48877" lon="1.49975">
        <ele>316.2</ele>
        <time>2013-09-28T13:31:00.281Z</time>
      </trkpt>
      <trkpt lat="43.48884" lon="1.49972">
        <ele>318.4</ele>
        <time>2013-09-28T13:31:02.881Z</time>
      </trkpt>
      <trkpt lat="43.48886" lon="1.4997">
        <ele>317.8</ele>
        <time>2013-09-28T13:31:03.898Z</time>
      </trkpt>
      <trkpt lat="43.48893" lon="1.49965">
        <ele>318.7</ele>
        <time>2013-09-28T13:31:07.528Z</time>
      </trkpt>
      <trkpt lat="43.48895" lon="1.49963">
        <ele>319.6</ele>
        <time>2013-09-28T13:31:07.863Z</time>
      </trkpt>
      <trkpt lat="43.48903" lon="1.49958">
        <ele>321.2</ele>
        <time>2013-09-28T13:31:11.849Z</time>
      </trkpt>
      <trkpt lat="43.48905" lon="1.49957">
        <ele>321.3</ele>
        <time>2013-09-28T13:31:12.956Z</time>
      </trkpt>
      <trkpt lat="43.48911" lon="1.49953">
        <ele>321.8</ele>
        <time>2013-09-28T13:31:15.892Z</time>
      </trkpt>
      <trkpt lat="43.48913" lon="1.49952">
        <ele>319.9</ele>
        <time>2013-09-28T13:31:16.878Z</time>
      </trkpt>
      <trkpt lat="43.4892" lon="1.49947">
        <ele>320.6</ele>
        <time>2013-09-28T13:31:20.135Z</time>
      </trkpt>
      <trkpt lat="43.48922" lon="1.49945">
        <ele>321.3</ele>
        <time>2013-09-28T13:31:20.918Z</time>
      </trkpt>
      <trkpt lat="43.48925" lon="1.49937">
        <ele>317.9</ele>
        <time>2013-09-28T13:31:23.900Z</time>
      </trkpt>
      <trkpt lat="43.48925" lon="1.49934">
        <ele>318.7</ele>
        <time>2013-09-28T13:31:24.880Z</time>
      </trkpt>
      <trkpt lat="43.48924" lon="1.49924">
        <ele>319</ele>
        <time>2013-09-28T13:31:27.891Z</time>
      </trkpt>
      <trkpt lat="43.48924" lon="1.49921">
        <ele>319.3</ele>
        <time>2013-09-28T13:31:28.903Z</time>
      </trkpt>
      <trkpt lat="43.48921" lon="1.49912">
        <ele>321.7</ele>
        <time>2013-09-28T13:31:31.901Z</time>
      </trkpt>
      <trkpt lat="43.4892" lon="1.49909">
        <ele>321.1</ele>
        <time>2013-09-28T13:31:32.870Z</time>
      </trkpt>
      <trkpt lat="43.48918" lon="1.49899">
        <ele>321.9</ele>
        <time>2013-09-28T13:31:36.778Z</time>
      </trkpt>
      <trkpt lat="43.48917" lon="1.49896">
        <ele>322</ele>
        <time>2013-09-28T13:31:37.115Z</time>
      </trkpt>
      <trkpt lat="43.48915" lon="1.49886">
        <ele>321.8</ele>
        <time>2013-09-28T13:31:40.728Z</time>
      </trkpt>
      <trkpt lat="43.48914" lon="1.49883">
        <ele>321.8</ele>
        <time>2013-09-28T13:31:40.842Z</time>
      </trkpt>
      <trkpt lat="43.48913" lon="1.49872">
        <ele>319.9</ele>
        <time>2013-09-28T13:31:43.862Z</time>
      </trkpt>
      <trkpt lat="43.48912" lon="1.49869">
        <ele>320.4</ele>
        <time>2013-09-28T13:31:44.834Z</time>
      </trkpt>
      <trkpt lat="43.48909" lon="1.49858">
        <ele>321</ele>
        <time>2013-09-28T13:31:47.838Z</time>
      </trkpt>
      <trkpt lat="43.48907" lon="1.49855">
        <ele>320.1</ele>
        <time>2013-09-28T13:31:48.924Z</time>
      </trkpt>
      <trkpt lat="43.48905" lon="1.49845">
        <ele>318.8</ele>
        <time>2013-09-28T13:31:51.882Z</time>
      </trkpt>
      <trkpt lat="43.48904" lon="1.49842">
        <ele>319.9</ele>
        <time>2013-09-28T13:31:52.902Z</time>
      </trkpt>
      <trkpt lat="43.48902" lon="1.49832">
        <ele>322.4</ele>
        <time>2013-09-28T13:31:55.907Z</time>
      </trkpt>
      <trkpt lat="43.489" lon="1.49829">
        <ele>321.8</ele>
        <time>2013-09-28T13:31:56.912Z</time>
      </trkpt>
      <trkpt lat="43.48897" lon="1.49818">
        <ele>322.3</ele>
        <time>2013-09-28T13:32:01.008Z</time>
      </trkpt>
      <trkpt lat="43.48897" lon="1.49817">
        <ele>323.8</ele>
        <time>2013-09-28T13:32:01.929Z</time>
      </trkpt>
      <trkpt lat="43.48892" lon="1.49808">
        <ele>327.1</ele>
        <time>2013-09-28T13:32:05.862Z</time>
      </trkpt>
      <trkpt lat="43.48891" lon="1.49806">
        <ele>327.7</ele>
        <time>2013-09-28T13:32:06.897Z</time>
      </trkpt>
      <trkpt lat="43.48885" lon="1.49796">
        <ele>328.4</ele>
        <time>2013-09-28T13:32:10.925Z</time>
      </trkpt>
      <trkpt lat="43.48884" lon="1.49794">
        <ele>329.1</ele>
        <time>2013-09-28T13:32:11.932Z</time>
      </trkpt>
      <trkpt lat="43.4888" lon="1.49784">
        <ele>328.8</ele>
        <time>2013-09-28T13:32:14.900Z</time>
      </trkpt>
      <trkpt lat="43.48879" lon="1.4978">
        <ele>328.6</ele>
        <time>2013-09-28T13:32:15.898Z</time>
      </trkpt>
      <trkpt lat="43.48876" lon="1.4977">
        <ele>330.5</ele>
        <time>2013-09-28T13:32:19.887Z</time>
      </trkpt>
      <trkpt lat="43.48875" lon="1.49767">
        <ele>330.8</ele>
        <time>2013-09-28T13:32:19.966Z</time>
      </trkpt>
      <trkpt lat="43.48871" lon="1.49758">
        <ele>330.3</ele>
        <time>2013-09-28T13:32:22.843Z</time>
      </trkpt>
      <trkpt lat="43.48871" lon="1.49754">
        <ele>328.4</ele>
        <time>2013-09-28T13:32:23.838Z</time>
      </trkpt>
      <trkpt lat="43.48867" lon="1.49743">
        <ele>326.8</ele>
        <time>2013-09-28T13:32:27.013Z</time>
      </trkpt>
      <trkpt lat="43.48866" lon="1.4974">
        <ele>326.9</ele>
        <time>2013-09-28T13:32:28.016Z</time>
      </trkpt>
      <trkpt lat="43.48863" lon="1.49731">
        <ele>324.6</ele>
        <time>2013-09-28T13:32:31.477Z</time>
      </trkpt>
      <trkpt lat="43.48862" lon="1.49728">
        <ele>324.1</ele>
        <time>2013-09-28T13:32:31.869Z</time>
      </trkpt>
      <trkpt lat="43.48858" lon="1.49717">
        <ele>322.9</ele>
        <time>2013-09-28T13:32:34.837Z</time>
      </trkpt>
      <trkpt lat="43.48856" lon="1.49713">
        <ele>322.3</ele>
        <time>2013-09-28T13:32:35.839Z</time>
      </trkpt>
      <trkpt lat="43.48854" lon="1.49705">
        <ele>321</ele>
        <time>2013-09-28T13:32:37.850Z</time>
      </trkpt>
      <trkpt lat="43.48853" lon="1.49701">
        <ele>322.2</ele>
        <time>2013-09-28T13:32:38.850Z</time>
      </trkpt>
      <trkpt lat="43.48849" lon="1.49692">
        <ele>321.8</ele>
        <time>2013-09-28T13:32:41.923Z</time>
      </trkpt>
      <trkpt lat="43.48847" lon="1.4969">
        <ele>322.4</ele>
        <time>2013-09-28T13:32:42.915Z</time>
      </trkpt>
      <trkpt lat="43.48843" lon="1.49682">
        <ele>323.7</ele>
        <time>2013-09-28T13:32:45.950Z</time>
      </trkpt>
      <trkpt lat="43.48842" lon="1.49679">
        <ele>324.8</ele>
        <time>2013-09-28T13:32:46.955Z</time>
      </trkpt>
      <trkpt lat="43.48837" lon="1.49669">
        <ele>323.3</ele>
        <time>2013-09-28T13:32:50.845Z</time>
      </trkpt>
      <trkpt lat="43.48836" lon="1.49666">
        <ele>323.4</ele>
        <time>2013-09-28T13:32:52.013Z</time>
      </trkpt>
      <trkpt lat="43.48834" lon="1.49657">
        <ele>324.2</ele>
        <time>2013-09-28T13:32:54.848Z</time>
      </trkpt>
      <trkpt lat="43.48833" lon="1.49654">
        <ele>324.4</ele>
        <time>2013-09-28T13:32:55.930Z</time>
      </trkpt>
      <trkpt lat="43.48829" lon="1.49644">
        <ele>324.1</ele>
        <time>2013-09-28T13:32:59.627Z</time>
      </trkpt>
      <trkpt lat="43.48828" lon="1.49641">
        <ele>323.6</ele>
        <time>2013-09-28T13:32:59.867Z</time>
      </trkpt>
      <trkpt lat="43.48824" lon="1.49632">
        <ele>324.8</ele>
        <time>2013-09-28T13:33:02.929Z</time>
      </trkpt>
      <trkpt lat="43.48823" lon="1.4963">
        <ele>325.6</ele>
        <time>2013-09-28T13:33:04.024Z</time>
      </trkpt>
      <trkpt lat="43.48818" lon="1.4962">
        <ele>325.9</ele>
        <time>2013-09-28T13:33:09.668Z</time>
      </trkpt>
      <trkpt lat="43.48817" lon="1.49617">
        <ele>326.3</ele>
        <time>2013-09-28T13:33:09.940Z</time>
      </trkpt>
      <trkpt lat="43.48814" lon="1.49608">
        <ele>325.7</ele>
        <time>2013-09-28T13:33:12.880Z</time>
      </trkpt>
      <trkpt lat="43.48812" lon="1.49604">
        <ele>326.2</ele>
        <time>2013-09-28T13:33:13.971Z</time>
      </trkpt>
      <trkpt lat="43.4881" lon="1.49595">
        <ele>327.5</ele>
        <time>2013-09-28T13:33:16.876Z</time>
      </trkpt>
      <trkpt lat="43.48809" lon="1.49591">
        <ele>327.4</ele>
        <time>2013-09-28T13:33:17.908Z</time>
      </trkpt>
      <trkpt lat="43.48804" lon="1.4958">
        <ele>326.2</ele>
        <time>2013-09-28T13:33:20.851Z</time>
      </trkpt>
      <trkpt lat="43.48802" lon="1.49577">
        <ele>326</ele>
        <time>2013-09-28T13:33:21.914Z</time>
      </trkpt>
      <trkpt lat="43.488" lon="1.49566">
        <ele>325.2</ele>
        <time>2013-09-28T13:33:25.974Z</time>
      </trkpt>
      <trkpt lat="43.48798" lon="1.49564">
        <ele>325.8</ele>
        <time>2013-09-28T13:33:27.123Z</time>
      </trkpt>
      <trkpt lat="43.48794" lon="1.49554">
        <ele>324</ele>
        <time>2013-09-28T13:33:30.084Z</time>
      </trkpt>
      <trkpt lat="43.48793" lon="1.49551">
        <ele>324</ele>
        <time>2013-09-28T13:33:30.863Z</time>
      </trkpt>
      <trkpt lat="43.48791" lon="1.4954">
        <ele>323.5</ele>
        <time>2013-09-28T13:33:34.768Z</time>
      </trkpt>
      <trkpt lat="43.4879" lon="1.49537">
        <ele>323.8</ele>
        <time>2013-09-28T13:33:34.868Z</time>
      </trkpt>
      <trkpt lat="43.48786" lon="1.49529">
        <ele>324.2</ele>
        <time>2013-09-28T13:33:37.954Z</time>
      </trkpt>
      <trkpt lat="43.48785" lon="1.49526">
        <ele>324.3</ele>
        <time>2013-09-28T13:33:38.901Z</time>
      </trkpt>
      <trkpt lat="43.48781" lon="1.49517">
        <ele>324.4</ele>
        <time>2013-09-28T13:33:41.933Z</time>
      </trkpt>
      <trkpt lat="43.4878" lon="1.49514">
        <ele>325.1</ele>
        <time>2013-09-28T13:33:42.889Z</time>
      </trkpt>
      <trkpt lat="43.48776" lon="1.49505">
        <ele>325.6</ele>
        <time>2013-09-28T13:33:45.966Z</time>
      </trkpt>
      <trkpt lat="43.48775" lon="1.49502">
        <ele>325.2</ele>
        <time>2013-09-28T13:33:46.888Z</time>
      </trkpt>
      <trkpt lat="43.48774" lon="1.4949">
        <ele>320.2</ele>
        <time>2013-09-28T13:33:49.922Z</time>
      </trkpt>
      <trkpt lat="43.48773" lon="1.49487">
        <ele>320.2</ele>
        <time>2013-09-28T13:33:50.942Z</time>
      </trkpt>
      <trkpt lat="43.48768" lon="1.49478">
        <ele>322.8</ele>
        <time>2013-09-28T13:33:54.895Z</time>
      </trkpt>
      <trkpt lat="43.48767" lon="1.49476">
        <ele>323.6</ele>
        <time>2013-09-28T13:33:55.923Z</time>
      </trkpt>
      <trkpt lat="43.48765" lon="1.49467">
        <ele>324.4</ele>
        <time>2013-09-28T13:33:59.706Z</time>
      </trkpt>
      <trkpt lat="43.48764" lon="1.49462">
        <ele>324.1</ele>
        <time>2013-09-28T13:33:59.941Z</time>
      </trkpt>
      <trkpt lat="43.48761" lon="1.49452">
        <ele>323.1</ele>
        <time>2013-09-28T13:34:02.902Z</time>
      </trkpt>
      <trkpt lat="43.48761" lon="1.49449">
        <ele>323.7</ele>
        <time>2013-09-28T13:34:03.910Z</time>
      </trkpt>
      <trkpt lat="43.48757" lon="1.4944">
        <ele>324.2</ele>
        <time>2013-09-28T13:34:06.881Z</time>
      </trkpt>
      <trkpt lat="43.48756" lon="1.49437">
        <ele>325.2</ele>
        <time>2013-09-28T13:34:07.879Z</time>
      </trkpt>
      <trkpt lat="43.48754" lon="1.49427">
        <ele>326.7</ele>
        <time>2013-09-28T13:34:10.997Z</time>
      </trkpt>
      <trkpt lat="43.48752" lon="1.49424">
        <ele>325</ele>
        <time>2013-09-28T13:34:12.069Z</time>
      </trkpt>
      <trkpt lat="43.48751" lon="1.49414">
        <ele>325</ele>
        <time>2013-09-28T13:34:14.863Z</time>
      </trkpt>
      <trkpt lat="43.4875" lon="1.4941">
        <ele>324.4</ele>
        <time>2013-09-28T13:34:15.961Z</time>
      </trkpt>
      <trkpt lat="43.48748" lon="1.494">
        <ele>324.9</ele>
        <time>2013-09-28T13:34:19.865Z</time>
      </trkpt>
      <trkpt lat="43.48748" lon="1.49396">
        <ele>324.7</ele>
        <time>2013-09-28T13:34:20.852Z</time>
      </trkpt>
      <trkpt lat="43.48748" lon="1.49384">
        <ele>324.7</ele>
        <time>2013-09-28T13:34:23.897Z</time>
      </trkpt>
      <trkpt lat="43.48748" lon="1.49382">
        <ele>325.3</ele>
        <time>2013-09-28T13:34:24.876Z</time>
      </trkpt>
      <trkpt lat="43.48745" lon="1.49372">
        <ele>326</ele>
        <time>2013-09-28T13:34:28.886Z</time>
      </trkpt>
      <trkpt lat="43.48745" lon="1.49368">
        <ele>325.9</ele>
        <time>2013-09-28T13:34:29.844Z</time>
      </trkpt>
      <trkpt lat="43.48744" lon="1.49358">
        <ele>324.4</ele>
        <time>2013-09-28T13:34:32.898Z</time>
      </trkpt>
      <trkpt lat="43.48744" lon="1.49355">
        <ele>324.1</ele>
        <time>2013-09-28T13:34:33.955Z</time>
      </trkpt>
      <trkpt lat="43.48742" lon="1.49344">
        <ele>323.4</ele>
        <time>2013-09-28T13:34:36.881Z</time>
      </trkpt>
      <trkpt lat="43.48742" lon="1.49341">
        <ele>323.4</ele>
        <time>2013-09-28T13:34:37.916Z</time>
      </trkpt>
      <trkpt lat="43.48742" lon="1.4933">
        <ele>323.8</ele>
        <time>2013-09-28T13:34:41.965Z</time>
      </trkpt>
      <trkpt lat="43.48741" lon="1.49327">
        <ele>323</ele>
        <time>2013-09-28T13:34:42.874Z</time>
      </trkpt>
      <trkpt lat="43.48739" lon="1.49317">
        <ele>323.1</ele>
        <time>2013-09-28T13:34:45.920Z</time>
      </trkpt>
      <trkpt lat="43.48739" lon="1.49314">
        <ele>322.7</ele>
        <time>2013-09-28T13:34:46.899Z</time>
      </trkpt>
      <trkpt lat="43.48739" lon="1.49305">
        <ele>320.6</ele>
        <time>2013-09-28T13:34:49.962Z</time>
      </trkpt>
      <trkpt lat="43.48739" lon="1.49301">
        <ele>320.4</ele>
        <time>2013-09-28T13:34:50.923Z</time>
      </trkpt>
      <trkpt lat="43.48738" lon="1.4929">
        <ele>320.8</ele>
        <time>2013-09-28T13:34:53.897Z</time>
      </trkpt>
      <trkpt lat="43.48738" lon="1.49287">
        <ele>321</ele>
        <time>2013-09-28T13:34:54.856Z</time>
      </trkpt>
      <trkpt lat="43.48736" lon="1.49278">
        <ele>322.3</ele>
        <time>2013-09-28T13:34:57.896Z</time>
      </trkpt>
      <trkpt lat="43.48737" lon="1.49272">
        <ele>318.7</ele>
        <time>2013-09-28T13:34:58.905Z</time>
      </trkpt>
      <trkpt lat="43.48738" lon="1.49262">
        <ele>316</ele>
        <time>2013-09-28T13:35:00.971Z</time>
      </trkpt>
      <trkpt lat="43.48737" lon="1.49259">
        <ele>314.7</ele>
        <time>2013-09-28T13:35:01.897Z</time>
      </trkpt>
      <trkpt lat="43.48735" lon="1.49249">
        <ele>314</ele>
        <time>2013-09-28T13:35:04.925Z</time>
      </trkpt>
      <trkpt lat="43.48735" lon="1.49246">
        <ele>315.9</ele>
        <time>2013-09-28T13:35:05.866Z</time>
      </trkpt>
      <trkpt lat="43.48737" lon="1.49234">
        <ele>315.4</ele>
        <time>2013-09-28T13:35:09.592Z</time>
      </trkpt>
      <trkpt lat="43.48739" lon="1.4923">
        <ele>315.2</ele>
        <time>2013-09-28T13:35:10.033Z</time>
      </trkpt>
      <trkpt lat="43.48741" lon="1.49221">
        <ele>315</ele>
        <time>2013-09-28T13:35:12.872Z</time>
      </trkpt>
      <trkpt lat="43.48741" lon="1.49217">
        <ele>314.9</ele>
        <time>2013-09-28T13:35:13.926Z</time>
      </trkpt>
      <trkpt lat="43.48743" lon="1.49206">
        <ele>314.6</ele>
        <time>2013-09-28T13:35:16.969Z</time>
      </trkpt>
      <trkpt lat="43.48744" lon="1.49202">
        <ele>314.9</ele>
        <time>2013-09-28T13:35:17.918Z</time>
      </trkpt>
      <trkpt lat="43.48745" lon="1.49191">
        <ele>315.5</ele>
        <time>2013-09-28T13:35:21.886Z</time>
      </trkpt>
      <trkpt lat="43.48743" lon="1.49189">
        <ele>314.5</ele>
        <time>2013-09-28T13:35:22.903Z</time>
      </trkpt>
      <trkpt lat="43.48744" lon="1.49179">
        <ele>314.5</ele>
        <time>2013-09-28T13:35:28.003Z</time>
      </trkpt>
      <trkpt lat="43.48745" lon="1.49176">
        <ele>313.2</ele>
        <time>2013-09-28T13:35:28.938Z</time>
      </trkpt>
      <trkpt lat="43.48747" lon="1.49166">
        <ele>310.4</ele>
        <time>2013-09-28T13:35:31.920Z</time>
      </trkpt>
      <trkpt lat="43.48748" lon="1.49163">
        <ele>310.4</ele>
        <time>2013-09-28T13:35:32.910Z</time>
      </trkpt>
      <trkpt lat="43.48748" lon="1.49153">
        <ele>311.8</ele>
        <time>2013-09-28T13:35:35.992Z</time>
      </trkpt>
      <trkpt lat="43.48747" lon="1.4915">
        <ele>313.8</ele>
        <time>2013-09-28T13:35:36.875Z</time>
      </trkpt>
      <trkpt lat="43.48745" lon="1.49138">
        <ele>317.2</ele>
        <time>2013-09-28T13:35:40.905Z</time>
      </trkpt>
      <trkpt lat="43.48745" lon="1.49135">
        <ele>317.3</ele>
        <time>2013-09-28T13:35:41.886Z</time>
      </trkpt>
      <trkpt lat="43.48747" lon="1.49124">
        <ele>313.4</ele>
        <time>2013-09-28T13:35:45.174Z</time>
      </trkpt>
      <trkpt lat="43.48748" lon="1.4912">
        <ele>313</ele>
        <time>2013-09-28T13:35:45.918Z</time>
      </trkpt>
      <trkpt lat="43.48751" lon="1.49109">
        <ele>312.4</ele>
        <time>2013-09-28T13:35:49.631Z</time>
      </trkpt>
      <trkpt lat="43.48752" lon="1.49106">
        <ele>312.7</ele>
        <time>2013-09-28T13:35:49.885Z</time>
      </trkpt>
      <trkpt lat="43.48753" lon="1.49097">
        <ele>313.5</ele>
        <time>2013-09-28T13:35:54.534Z</time>
      </trkpt>
      <trkpt lat="43.48752" lon="1.49093">
        <ele>313.7</ele>
        <time>2013-09-28T13:35:54.869Z</time>
      </trkpt>
      <trkpt lat="43.48753" lon="1.49081">
        <ele>315.5</ele>
        <time>2013-09-28T13:35:57.896Z</time>
      </trkpt>
      <trkpt lat="43.48753" lon="1.49077">
        <ele>316.7</ele>
        <time>2013-09-28T13:35:58.844Z</time>
      </trkpt>
      <trkpt lat="43.48753" lon="1.49066">
        <ele>317.8</ele>
        <time>2013-09-28T13:36:01.914Z</time>
      </trkpt>
      <trkpt lat="43.48754" lon="1.49062">
        <ele>317.2</ele>
        <time>2013-09-28T13:36:02.874Z</time>
      </trkpt>
      <trkpt lat="43.48755" lon="1.4905">
        <ele>315.4</ele>
        <time>2013-09-28T13:36:05.972Z</time>
      </trkpt>
      <trkpt lat="43.48754" lon="1.49048">
        <ele>314.6</ele>
        <time>2013-09-28T13:36:06.864Z</time>
      </trkpt>
      <trkpt lat="43.48755" lon="1.49036">
        <ele>313.4</ele>
        <time>2013-09-28T13:36:09.985Z</time>
      </trkpt>
      <trkpt lat="43.48755" lon="1.49033">
        <ele>312.4</ele>
        <time>2013-09-28T13:36:10.862Z</time>
      </trkpt>
      <trkpt lat="43.48757" lon="1.49021">
        <ele>312.7</ele>
        <time>2013-09-28T13:36:14.668Z</time>
      </trkpt>
      <trkpt lat="43.48756" lon="1.49018">
        <ele>312.6</ele>
        <time>2013-09-28T13:36:14.877Z</time>
      </trkpt>
      <trkpt lat="43.48755" lon="1.49007">
        <ele>311.4</ele>
        <time>2013-09-28T13:36:17.959Z</time>
      </trkpt>
      <trkpt lat="43.48755" lon="1.49003">
        <ele>309.9</ele>
        <time>2013-09-28T13:36:18.974Z</time>
      </trkpt>
      <trkpt lat="43.48755" lon="1.48993">
        <ele>306.5</ele>
        <time>2013-09-28T13:36:21.984Z</time>
      </trkpt>
      <trkpt lat="43.48755" lon="1.4899">
        <ele>305.5</ele>
        <time>2013-09-28T13:36:22.874Z</time>
      </trkpt>
      <trkpt lat="43.48754" lon="1.48979">
        <ele>305.9</ele>
        <time>2013-09-28T13:36:25.895Z</time>
      </trkpt>
      <trkpt lat="43.48754" lon="1.48976">
        <ele>306.5</ele>
        <time>2013-09-28T13:36:26.985Z</time>
      </trkpt>
      <trkpt lat="43.48752" lon="1.48966">
        <ele>308.5</ele>
        <time>2013-09-28T13:36:29.912Z</time>
      </trkpt>
      <trkpt lat="43.48752" lon="1.48963">
        <ele>308.1</ele>
        <time>2013-09-28T13:36:30.875Z</time>
      </trkpt>
      <trkpt lat="43.48752" lon="1.48952">
        <ele>308.9</ele>
        <time>2013-09-28T13:36:34.792Z</time>
      </trkpt>
      <trkpt lat="43.48751" lon="1.4895">
        <ele>310.1</ele>
        <time>2013-09-28T13:36:34.903Z</time>
      </trkpt>
      <trkpt lat="43.48749" lon="1.48941">
        <ele>311.3</ele>
        <time>2013-09-28T13:36:37.898Z</time>
      </trkpt>
      <trkpt lat="43.48749" lon="1.48937">
        <ele>311.7</ele>
        <time>2013-09-28T13:36:39.128Z</time>
      </trkpt>
      <trkpt lat="43.48747" lon="1.48928">
        <ele>311.8</ele>
        <time>2013-09-28T13:36:41.874Z</time>
      </trkpt>
      <trkpt lat="43.48746" lon="1.48924">
        <ele>311.8</ele>
        <time>2013-09-28T13:36:42.854Z</time>
      </trkpt>
      <trkpt lat="43.48744" lon="1.48913">
        <ele>310.4</ele>
        <time>2013-09-28T13:36:45.909Z</time>
      </trkpt>
      <trkpt lat="43.48743" lon="1.48909">
        <ele>310.3</ele>
        <time>2013-09-28T13:36:46.860Z</time>
      </trkpt>
      <trkpt lat="43.48741" lon="1.489">
        <ele>311.4</ele>
        <time>2013-09-28T13:36:49.519Z</time>
      </trkpt>
      <trkpt lat="43.4874" lon="1.48897">
        <ele>311.5</ele>
        <time>2013-09-28T13:36:49.970Z</time>
      </trkpt>
      <trkpt lat="43.48736" lon="1.48887">
        <ele>311.8</ele>
        <time>2013-09-28T13:36:54.518Z</time>
      </trkpt>
      <trkpt lat="43.48735" lon="1.48884">
        <ele>311.7</ele>
        <time>2013-09-28T13:36:54.854Z</time>
      </trkpt>
      <trkpt lat="43.48732" lon="1.48874">
        <ele>310.5</ele>
        <time>2013-09-28T13:36:57.919Z</time>
      </trkpt>
      <trkpt lat="43.48731" lon="1.48871">
        <ele>311</ele>
        <time>2013-09-28T13:36:58.850Z</time>
      </trkpt>
      <trkpt lat="43.48728" lon="1.4886">
        <ele>312.6</ele>
        <time>2013-09-28T13:37:02.883Z</time>
      </trkpt>
      <trkpt lat="43.48728" lon="1.48857">
        <ele>312.8</ele>
        <time>2013-09-28T13:37:03.886Z</time>
      </trkpt>
      <trkpt lat="43.48727" lon="1.48845">
        <ele>315.1</ele>
        <time>2013-09-28T13:37:07.955Z</time>
      </trkpt>
      <trkpt lat="43.48727" lon="1.48841">
        <ele>315.1</ele>
        <time>2013-09-28T13:37:08.902Z</time>
      </trkpt>
      <trkpt lat="43.48725" lon="1.4883">
        <ele>316.3</ele>
        <time>2013-09-28T13:37:11.968Z</time>
      </trkpt>
      <trkpt lat="43.48725" lon="1.48827">
        <ele>315.8</ele>
        <time>2013-09-28T13:37:12.876Z</time>
      </trkpt>
      <trkpt lat="43.48725" lon="1.48817">
        <ele>316</ele>
        <time>2013-09-28T13:37:15.886Z</time>
      </trkpt>
      <trkpt lat="43.48724" lon="1.48813">
        <ele>316.7</ele>
        <time>2013-09-28T13:37:17.009Z</time>
      </trkpt>
      <trkpt lat="43.48722" lon="1.48803">
        <ele>313.7</ele>
        <time>2013-09-28T13:37:20.871Z</time>
      </trkpt>
      <trkpt lat="43.48721" lon="1.488">
        <ele>314.4</ele>
        <time>2013-09-28T13:37:21.866Z</time>
      </trkpt>
      <trkpt lat="43.48721" lon="1.4879">
        <ele>316</ele>
        <time>2013-09-28T13:37:24.888Z</time>
      </trkpt>
      <trkpt lat="43.48722" lon="1.48787">
        <ele>316.3</ele>
        <time>2013-09-28T13:37:25.923Z</time>
      </trkpt>
      <trkpt lat="43.48722" lon="1.48777">
        <ele>317.3</ele>
        <time>2013-09-28T13:37:29.801Z</time>
      </trkpt>
      <trkpt lat="43.48722" lon="1.48773">
        <ele>317.7</ele>
        <time>2013-09-28T13:37:29.890Z</time>
      </trkpt>
      <trkpt lat="43.48722" lon="1.48762">
        <ele>317.5</ele>
        <time>2013-09-28T13:37:34.782Z</time>
      </trkpt>
      <trkpt lat="43.48722" lon="1.48759">
        <ele>316.9</ele>
        <time>2013-09-28T13:37:34.881Z</time>
      </trkpt>
      <trkpt lat="43.48723" lon="1.48747">
        <ele>318.7</ele>
        <time>2013-09-28T13:37:38.854Z</time>
      </trkpt>
      <trkpt lat="43.48723" lon="1.48743">
        <ele>318.6</ele>
        <time>2013-09-28T13:37:39.865Z</time>
      </trkpt>
      <trkpt lat="43.48723" lon="1.48732">
        <ele>318.9</ele>
        <time>2013-09-28T13:37:42.870Z</time>
      </trkpt>
      <trkpt lat="43.48724" lon="1.48728">
        <ele>318.8</ele>
        <time>2013-09-28T13:37:43.993Z</time>
      </trkpt>
      <trkpt lat="43.48724" lon="1.48717">
        <ele>319</ele>
        <time>2013-09-28T13:37:46.938Z</time>
      </trkpt>
      <trkpt lat="43.48724" lon="1.48714">
        <ele>318.3</ele>
        <time>2013-09-28T13:37:47.877Z</time>
      </trkpt>
      <trkpt lat="43.48725" lon="1.48702">
        <ele>319.1</ele>
        <time>2013-09-28T13:37:50.858Z</time>
      </trkpt>
      <trkpt lat="43.48725" lon="1.48699">
        <ele>319.2</ele>
        <time>2013-09-28T13:37:51.869Z</time>
      </trkpt>
      <trkpt lat="43.48727" lon="1.48687">
        <ele>318.8</ele>
        <time>2013-09-28T13:37:55.055Z</time>
      </trkpt>
      <trkpt lat="43.48727" lon="1.48683">
        <ele>319.4</ele>
        <time>2013-09-28T13:37:55.879Z</time>
      </trkpt>
      <trkpt lat="43.48728" lon="1.48675">
        <ele>317.6</ele>
        <time>2013-09-28T13:37:57.862Z</time>
      </trkpt>
      <trkpt lat="43.48728" lon="1.4867">
        <ele>318</ele>
        <time>2013-09-28T13:37:58.939Z</time>
      </trkpt>
      <trkpt lat="43.48728" lon="1.4866">
        <ele>317.6</ele>
        <time>2013-09-28T13:38:01.890Z</time>
      </trkpt>
      <trkpt lat="43.48728" lon="1.48656">
        <ele>317.7</ele>
        <time>2013-09-28T13:38:02.848Z</time>
      </trkpt>
      <trkpt lat="43.48727" lon="1.48646">
        <ele>318.4</ele>
        <time>2013-09-28T13:38:05.872Z</time>
      </trkpt>
      <trkpt lat="43.48727" lon="1.48643">
        <ele>318.7</ele>
        <time>2013-09-28T13:38:06.865Z</time>
      </trkpt>
      <trkpt lat="43.48727" lon="1.48633">
        <ele>319.2</ele>
        <time>2013-09-28T13:38:09.894Z</time>
      </trkpt>
      <trkpt lat="43.48727" lon="1.4863">
        <ele>319.4</ele>
        <time>2013-09-28T13:38:10.884Z</time>
      </trkpt>
      <trkpt lat="43.48723" lon="1.4862">
        <ele>319.8</ele>
        <time>2013-09-28T13:38:13.882Z</time>
      </trkpt>
      <trkpt lat="43.48721" lon="1.48617">
        <ele>320.4</ele>
        <time>2013-09-28T13:38:14.903Z</time>
      </trkpt>
      <trkpt lat="43.48717" lon="1.48608">
        <ele>321.1</ele>
        <time>2013-09-28T13:38:17.882Z</time>
      </trkpt>
      <trkpt lat="43.48715" lon="1.48605">
        <ele>321.6</ele>
        <time>2013-09-28T13:38:18.916Z</time>
      </trkpt>
      <trkpt lat="43.48711" lon="1.48597">
        <ele>322.8</ele>
        <time>2013-09-28T13:38:21.870Z</time>
      </trkpt>
      <trkpt lat="43.48709" lon="1.48594">
        <ele>323.1</ele>
        <time>2013-09-28T13:38:22.864Z</time>
      </trkpt>
      <trkpt lat="43.48707" lon="1.48586">
        <ele>324</ele>
        <time>2013-09-28T13:38:25.863Z</time>
      </trkpt>
      <trkpt lat="43.48705" lon="1.48583">
        <ele>324</ele>
        <time>2013-09-28T13:38:26.877Z</time>
      </trkpt>
      <trkpt lat="43.48699" lon="1.48575">
        <ele>322.4</ele>
        <time>2013-09-28T13:38:30.132Z</time>
      </trkpt>
      <trkpt lat="43.48698" lon="1.48572">
        <ele>322.6</ele>
        <time>2013-09-28T13:38:30.863Z</time>
      </trkpt>
      <trkpt lat="43.48694" lon="1.48564">
        <ele>322.5</ele>
        <time>2013-09-28T13:38:33.864Z</time>
      </trkpt>
      <trkpt lat="43.48693" lon="1.48561">
        <ele>321.9</ele>
        <time>2013-09-28T13:38:34.856Z</time>
      </trkpt>
      <trkpt lat="43.4869" lon="1.4855">
        <ele>321.6</ele>
        <time>2013-09-28T13:38:38.889Z</time>
      </trkpt>
      <trkpt lat="43.4869" lon="1.48547">
        <ele>321.6</ele>
        <time>2013-09-28T13:38:39.862Z</time>
      </trkpt>
      <trkpt lat="43.48694" lon="1.48541">
        <ele>322.9</ele>
        <time>2013-09-28T13:38:42.877Z</time>
      </trkpt>
      <trkpt lat="43.48696" lon="1.48539">
        <ele>323.3</ele>
        <time>2013-09-28T13:38:43.936Z</time>
      </trkpt>
      <trkpt lat="43.48703" lon="1.48531">
        <ele>326.3</ele>
        <time>2013-09-28T13:38:49.549Z</time>
      </trkpt>
      <trkpt lat="43.48705" lon="1.48528">
        <ele>325.5</ele>
        <time>2013-09-28T13:38:49.934Z</time>
      </trkpt>
      <trkpt lat="43.48709" lon="1.48519">
        <ele>327.3</ele>
        <time>2013-09-28T13:38:52.842Z</time>
      </trkpt>
      <trkpt lat="43.48712" lon="1.48516">
        <ele>327</ele>
        <time>2013-09-28T13:38:53.830Z</time>
      </trkpt>
      <trkpt lat="43.48717" lon="1.48506">
        <ele>327.2</ele>
        <time>2013-09-28T13:38:56.836Z</time>
      </trkpt>
      <trkpt lat="43.48718" lon="1.48503">
        <ele>326</ele>
        <time>2013-09-28T13:38:57.848Z</time>
      </trkpt>
      <trkpt lat="43.48723" lon="1.48495">
        <ele>328.6</ele>
        <time>2013-09-28T13:39:00.980Z</time>
      </trkpt>
      <trkpt lat="43.48725" lon="1.48493">
        <ele>328.9</ele>
        <time>2013-09-28T13:39:01.961Z</time>
      </trkpt>
      <trkpt lat="43.4873" lon="1.48483">
        <ele>326.1</ele>
        <time>2013-09-28T13:39:06.886Z</time>
      </trkpt>
      <trkpt lat="43.48732" lon="1.48482">
        <ele>326.1</ele>
        <time>2013-09-28T13:39:07.949Z</time>
      </trkpt>
      <trkpt lat="43.48736" lon="1.48473">
        <ele>330.6</ele>
        <time>2013-09-28T13:39:10.852Z</time>
      </trkpt>
      <trkpt lat="43.48738" lon="1.4847">
        <ele>332.9</ele>
        <time>2013-09-28T13:39:11.971Z</time>
      </trkpt>
      <trkpt lat="43.48742" lon="1.48464">
        <ele>330.5</ele>
        <time>2013-09-28T13:39:15.872Z</time>
      </trkpt>
      <trkpt lat="43.48744" lon="1.48461">
        <ele>330.7</ele>
        <time>2013-09-28T13:39:17.446Z</time>
      </trkpt>
      <trkpt lat="43.48748" lon="1.48451">
        <ele>330.8</ele>
        <time>2013-09-28T13:39:21.589Z</time>
      </trkpt>
      <trkpt lat="43.48748" lon="1.48449">
        <ele>331.3</ele>
        <time>2013-09-28T13:39:21.908Z</time>
      </trkpt>
      <trkpt lat="43.48751" lon="1.48438">
        <ele>329.7</ele>
        <time>2013-09-28T13:39:25.113Z</time>
      </trkpt>
      <trkpt lat="43.48753" lon="1.48434">
        <ele>329.6</ele>
        <time>2013-09-28T13:39:25.975Z</time>
      </trkpt>
      <trkpt lat="43.48757" lon="1.48425">
        <ele>331</ele>
        <time>2013-09-28T13:39:30.251Z</time>
      </trkpt>
      <trkpt lat="43.48757" lon="1.48422">
        <ele>329.1</ele>
        <time>2013-09-28T13:39:30.466Z</time>
      </trkpt>
      <trkpt lat="43.4876" lon="1.48412">
        <ele>324.4</ele>
        <time>2013-09-28T13:39:35.213Z</time>
      </trkpt>
      <trkpt lat="43.4876" lon="1.48409">
        <ele>322.4</ele>
        <time>2013-09-28T13:39:35.920Z</time>
      </trkpt>
      <trkpt lat="43.48763" lon="1.48399">
        <ele>328.6</ele>
        <time>2013-09-28T13:39:40.203Z</time>
      </trkpt>
      <trkpt lat="43.48765" lon="1.48397">
        <ele>330</ele>
        <time>2013-09-28T13:39:40.940Z</time>
      </trkpt>
      <trkpt lat="43.48767" lon="1.48388">
        <ele>328.9</ele>
        <time>2013-09-28T13:39:43.894Z</time>
      </trkpt>
      <trkpt lat="43.48769" lon="1.48382">
        <ele>326.5</ele>
        <time>2013-09-28T13:39:44.949Z</time>
      </trkpt>
      <trkpt lat="43.48772" lon="1.48373">
        <ele>327</ele>
        <time>2013-09-28T13:39:46.953Z</time>
      </trkpt>
      <trkpt lat="43.48774" lon="1.48369">
        <ele>327.4</ele>
        <time>2013-09-28T13:39:47.981Z</time>
      </trkpt>
      <trkpt lat="43.48777" lon="1.48359">
        <ele>328</ele>
        <time>2013-09-28T13:39:50.885Z</time>
      </trkpt>
      <trkpt lat="43.48778" lon="1.48357">
        <ele>327.4</ele>
        <time>2013-09-28T13:39:51.902Z</time>
      </trkpt>
      <trkpt lat="43.48782" lon="1.48347">
        <ele>325.6</ele>
        <time>2013-09-28T13:39:54.878Z</time>
      </trkpt>
      <trkpt lat="43.48783" lon="1.48344">
        <ele>326.7</ele>
        <time>2013-09-28T13:39:55.986Z</time>
      </trkpt>
      <trkpt lat="43.48785" lon="1.48335">
        <ele>327.1</ele>
        <time>2013-09-28T13:39:59.639Z</time>
      </trkpt>
      <trkpt lat="43.48786" lon="1.48332">
        <ele>326.9</ele>
        <time>2013-09-28T13:39:59.870Z</time>
      </trkpt>
      <trkpt lat="43.48788" lon="1.4832">
        <ele>328.5</ele>
        <time>2013-09-28T13:40:03.848Z</time>
      </trkpt>
      <trkpt lat="43.48788" lon="1.48318">
        <ele>328.4</ele>
        <time>2013-09-28T13:40:04.888Z</time>
      </trkpt>
      <trkpt lat="43.48792" lon="1.48309">
        <ele>326.8</ele>
        <time>2013-09-28T13:40:07.938Z</time>
      </trkpt>
      <trkpt lat="43.48794" lon="1.48307">
        <ele>327.6</ele>
        <time>2013-09-28T13:40:08.878Z</time>
      </trkpt>
      <trkpt lat="43.48796" lon="1.48298">
        <ele>326.7</ele>
        <time>2013-09-28T13:40:11.855Z</time>
      </trkpt>
      <trkpt lat="43.48797" lon="1.48294">
        <ele>327.6</ele>
        <time>2013-09-28T13:40:12.856Z</time>
      </trkpt>
      <trkpt lat="43.48801" lon="1.48286">
        <ele>328</ele>
        <time>2013-09-28T13:40:15.960Z</time>
      </trkpt>
      <trkpt lat="43.48803" lon="1.48283">
        <ele>326.7</ele>
        <time>2013-09-28T13:40:16.880Z</time>
      </trkpt>
      <trkpt lat="43.48807" lon="1.48274">
        <ele>325.1</ele>
        <time>2013-09-28T13:40:22.923Z</time>
      </trkpt>
      <trkpt lat="43.48807" lon="1.48272">
        <ele>323.4</ele>
        <time>2013-09-28T13:40:23.921Z</time>
      </trkpt>
      <trkpt lat="43.48808" lon="1.48262">
        <ele>324.1</ele>
        <time>2013-09-28T13:40:28.939Z</time>
      </trkpt>
      <trkpt lat="43.48809" lon="1.48258">
        <ele>324.9</ele>
        <time>2013-09-28T13:40:30.054Z</time>
      </trkpt>
      <trkpt lat="43.48815" lon="1.48249">
        <ele>331.2</ele>
        <time>2013-09-28T13:40:33.926Z</time>
      </trkpt>
      <trkpt lat="43.48816" lon="1.48248">
        <ele>332.7</ele>
        <time>2013-09-28T13:40:34.080Z</time>
      </trkpt>
      <trkpt lat="43.48818" lon="1.4824">
        <ele>332.1</ele>
        <time>2013-09-28T13:40:36.841Z</time>
      </trkpt>
      <trkpt lat="43.48819" lon="1.48235">
        <ele>332.4</ele>
        <time>2013-09-28T13:40:38.103Z</time>
      </trkpt>
      <trkpt lat="43.48821" lon="1.48227">
        <ele>331.7</ele>
        <time>2013-09-28T13:40:40.049Z</time>
      </trkpt>
      <trkpt lat="43.48823" lon="1.48223">
        <ele>330.6</ele>
        <time>2013-09-28T13:40:40.927Z</time>
      </trkpt>
      <trkpt lat="43.48828" lon="1.48215">
        <ele>329.9</ele>
        <time>2013-09-28T13:40:45.162Z</time>
      </trkpt>
      <trkpt lat="43.48829" lon="1.48213">
        <ele>329.7</ele>
        <time>2013-09-28T13:40:45.954Z</time>
      </trkpt>
      <trkpt lat="43.48834" lon="1.48202">
        <ele>326.8</ele>
        <time>2013-09-28T13:40:47.959Z</time>
      </trkpt>
      <trkpt lat="43.48836" lon="1.48198">
        <ele>328.1</ele>
        <time>2013-09-28T13:40:48.945Z</time>
      </trkpt>
      <trkpt lat="43.48841" lon="1.4819">
        <ele>328.9</ele>
        <time>2013-09-28T13:40:51.990Z</time>
      </trkpt>
      <trkpt lat="43.48843" lon="1.48188">
        <ele>328.6</ele>
        <time>2013-09-28T13:40:52.947Z</time>
      </trkpt>
      <trkpt lat="43.48849" lon="1.48182">
        <ele>327</ele>
        <time>2013-09-28T13:40:56.963Z</time>
      </trkpt>
      <trkpt lat="43.48851" lon="1.4818">
        <ele>329.5</ele>
        <time>2013-09-28T13:40:57.951Z</time>
      </trkpt>
      <trkpt lat="43.48854" lon="1.48172">
        <ele>327.6</ele>
        <time>2013-09-28T13:40:59.902Z</time>
      </trkpt>
      <trkpt lat="43.48857" lon="1.48169">
        <ele>327.6</ele>
        <time>2013-09-28T13:41:00.904Z</time>
      </trkpt>
      <trkpt lat="43.48861" lon="1.48165">
        <ele>327.3</ele>
        <time>2013-09-28T13:41:06.005Z</time>
      </trkpt>
      <trkpt lat="43.48864" lon="1.48161">
        <ele>324.8</ele>
        <time>2013-09-28T13:41:06.846Z</time>
      </trkpt>
      <trkpt lat="43.4887" lon="1.48156">
        <ele>321.9</ele>
        <time>2013-09-28T13:41:08.886Z</time>
      </trkpt>
      <trkpt lat="43.48873" lon="1.48154">
        <ele>320.1</ele>
        <time>2013-09-28T13:41:09.922Z</time>
      </trkpt>
      <trkpt lat="43.4888" lon="1.48148">
        <ele>316.5</ele>
        <time>2013-09-28T13:41:11.955Z</time>
      </trkpt>
      <trkpt lat="43.48883" lon="1.48144">
        <ele>319.2</ele>
        <time>2013-09-28T13:41:12.887Z</time>
      </trkpt>
      <trkpt lat="43.4889" lon="1.48137">
        <ele>322.7</ele>
        <time>2013-09-28T13:41:15.843Z</time>
      </trkpt>
      <trkpt lat="43.48893" lon="1.48135">
        <ele>322.8</ele>
        <time>2013-09-28T13:41:16.875Z</time>
      </trkpt>
      <trkpt lat="43.48897" lon="1.4813">
        <ele>324.8</ele>
        <time>2013-09-28T13:41:19.823Z</time>
      </trkpt>
      <trkpt lat="43.489" lon="1.48127">
        <ele>322.6</ele>
        <time>2013-09-28T13:41:20.930Z</time>
      </trkpt>
      <trkpt lat="43.48907" lon="1.4812">
        <ele>321.4</ele>
        <time>2013-09-28T13:41:23.915Z</time>
      </trkpt>
      <trkpt lat="43.48908" lon="1.48119">
        <ele>322</ele>
        <time>2013-09-28T13:41:24.891Z</time>
      </trkpt>
      <trkpt lat="43.48913" lon="1.48113">
        <ele>324.3</ele>
        <time>2013-09-28T13:41:28.910Z</time>
      </trkpt>
      <trkpt lat="43.48914" lon="1.48111">
        <ele>325.1</ele>
        <time>2013-09-28T13:41:29.855Z</time>
      </trkpt>
      <trkpt lat="43.48917" lon="1.48102">
        <ele>323</ele>
        <time>2013-09-28T13:41:31.871Z</time>
      </trkpt>
      <trkpt lat="43.48918" lon="1.48099">
        <ele>323.5</ele>
        <time>2013-09-28T13:41:32.851Z</time>
      </trkpt>
      <trkpt lat="43.48922" lon="1.48089">
        <ele>324.9</ele>
        <time>2013-09-28T13:41:35.921Z</time>
      </trkpt>
      <trkpt lat="43.48923" lon="1.48087">
        <ele>325.3</ele>
        <time>2013-09-28T13:41:36.885Z</time>
      </trkpt>
      <trkpt lat="43.48926" lon="1.48075">
        <ele>322.6</ele>
        <time>2013-09-28T13:41:39.994Z</time>
      </trkpt>
      <trkpt lat="43.48926" lon="1.48071">
        <ele>323.5</ele>
        <time>2013-09-28T13:41:41.043Z</time>
      </trkpt>
      <trkpt lat="43.48928" lon="1.4806">
        <ele>327.1</ele>
        <time>2013-09-28T13:41:44.839Z</time>
      </trkpt>
      <trkpt lat="43.48929" lon="1.48058">
        <ele>327.1</ele>
        <time>2013-09-28T13:41:45.898Z</time>
      </trkpt>
      <trkpt lat="43.48933" lon="1.48048">
        <ele>326.3</ele>
        <time>2013-09-28T13:41:49.814Z</time>
      </trkpt>
      <trkpt lat="43.48934" lon="1.48045">
        <ele>325.8</ele>
        <time>2013-09-28T13:41:50.915Z</time>
      </trkpt>
      <trkpt lat="43.48938" lon="1.48035">
        <ele>325.4</ele>
        <time>2013-09-28T13:41:54.569Z</time>
      </trkpt>
      <trkpt lat="43.48939" lon="1.48032">
        <ele>325.4</ele>
        <time>2013-09-28T13:41:54.881Z</time>
      </trkpt>
      <trkpt lat="43.4894" lon="1.4802">
        <ele>325.3</ele>
        <time>2013-09-28T13:41:59.728Z</time>
      </trkpt>
      <trkpt lat="43.48941" lon="1.48016">
        <ele>324.3</ele>
        <time>2013-09-28T13:41:59.844Z</time>
      </trkpt>
      <trkpt lat="43.48944" lon="1.48005">
        <ele>324.5</ele>
        <time>2013-09-28T13:42:02.925Z</time>
      </trkpt>
      <trkpt lat="43.48944" lon="1.48003">
        <ele>325.1</ele>
        <time>2013-09-28T13:42:03.924Z</time>
      </trkpt>
      <trkpt lat="43.48948" lon="1.47992">
        <ele>328.1</ele>
        <time>2013-09-28T13:42:11.910Z</time>
      </trkpt>
      <trkpt lat="43.48948" lon="1.47992">
        <ele>328.6</ele>
        <time>2013-09-28T13:42:12.853Z</time>
      </trkpt>
      <trkpt lat="43.48954" lon="1.47987">
        <ele>328.5</ele>
        <time>2013-09-28T13:42:18.880Z</time>
      </trkpt>
      <trkpt lat="43.48961" lon="1.47974">
        <ele>326.9</ele>
        <time>2013-09-28T13:42:19.908Z</time>
      </trkpt>
      <trkpt lat="43.48969" lon="1.47961">
        <ele>326</ele>
        <time>2013-09-28T13:42:21.042Z</time>
      </trkpt>
      <trkpt lat="43.48974" lon="1.47953">
        <ele>327.1</ele>
        <time>2013-09-28T13:42:22.238Z</time>
      </trkpt>
      <trkpt lat="43.48976" lon="1.47951">
        <ele>326.6</ele>
        <time>2013-09-28T13:42:22.852Z</time>
      </trkpt>
      <trkpt lat="43.48981" lon="1.47943">
        <ele>326.8</ele>
        <time>2013-09-28T13:42:25.189Z</time>
      </trkpt>
      <trkpt lat="43.48984" lon="1.47941">
        <ele>326.7</ele>
        <time>2013-09-28T13:42:25.859Z</time>
      </trkpt>
      <trkpt lat="43.4899" lon="1.47939">
        <ele>326.4</ele>
        <time>2013-09-28T13:42:28.934Z</time>
      </trkpt>
      <trkpt lat="43.48993" lon="1.47937">
        <ele>327</ele>
        <time>2013-09-28T13:42:29.899Z</time>
      </trkpt>
      <trkpt lat="43.49" lon="1.47929">
        <ele>329.1</ele>
        <time>2013-09-28T13:42:32.845Z</time>
      </trkpt>
      <trkpt lat="43.49001" lon="1.47927">
        <ele>329.6</ele>
        <time>2013-09-28T13:42:33.859Z</time>
      </trkpt>
      <trkpt lat="43.49005" lon="1.47921">
        <ele>327.2</ele>
        <time>2013-09-28T13:42:36.863Z</time>
      </trkpt>
      <trkpt lat="43.49008" lon="1.47919">
        <ele>325.7</ele>
        <time>2013-09-28T13:42:38.136Z</time>
      </trkpt>
      <trkpt lat="43.49015" lon="1.47913">
        <ele>321.2</ele>
        <time>2013-09-28T13:42:42.262Z</time>
      </trkpt>
      <trkpt lat="43.49016" lon="1.47912">
        <ele>320.7</ele>
        <time>2013-09-28T13:42:42.840Z</time>
      </trkpt>
      <trkpt lat="43.4902" lon="1.47905">
        <ele>321.3</ele>
        <time>2013-09-28T13:42:45.859Z</time>
      </trkpt>
      <trkpt lat="43.49022" lon="1.47902">
        <ele>320.2</ele>
        <time>2013-09-28T13:42:46.941Z</time>
      </trkpt>
      <trkpt lat="43.49026" lon="1.47892">
        <ele>317.9</ele>
        <time>2013-09-28T13:42:49.873Z</time>
      </trkpt>
      <trkpt lat="43.49026" lon="1.47889">
        <ele>317.8</ele>
        <time>2013-09-28T13:42:50.859Z</time>
      </trkpt>
      <trkpt lat="43.49029" lon="1.47878">
        <ele>321.1</ele>
        <time>2013-09-28T13:42:54.586Z</time>
      </trkpt>
      <trkpt lat="43.49029" lon="1.47874">
        <ele>320.9</ele>
        <time>2013-09-28T13:42:54.830Z</time>
      </trkpt>
      <trkpt lat="43.49028" lon="1.47863">
        <ele>322</ele>
        <time>2013-09-28T13:42:59.575Z</time>
      </trkpt>
      <trkpt lat="43.49029" lon="1.47859">
        <ele>321.5</ele>
        <time>2013-09-28T13:42:59.832Z</time>
      </trkpt>
      <trkpt lat="43.49031" lon="1.47849">
        <ele>325.6</ele>
        <time>2013-09-28T13:43:02.884Z</time>
      </trkpt>
      <trkpt lat="43.49032" lon="1.47846">
        <ele>324.8</ele>
        <time>2013-09-28T13:43:03.888Z</time>
      </trkpt>
      <trkpt lat="43.49036" lon="1.47835">
        <ele>326.3</ele>
        <time>2013-09-28T13:43:07.835Z</time>
      </trkpt>
      <trkpt lat="43.49037" lon="1.47831">
        <ele>325.3</ele>
        <time>2013-09-28T13:43:09.019Z</time>
      </trkpt>
      <trkpt lat="43.49039" lon="1.4782">
        <ele>324.1</ele>
        <time>2013-09-28T13:43:13.116Z</time>
      </trkpt>
      <trkpt lat="43.49039" lon="1.47816">
        <ele>323.6</ele>
        <time>2013-09-28T13:43:14.047Z</time>
      </trkpt>
      <trkpt lat="43.49041" lon="1.47804">
        <ele>322.5</ele>
        <time>2013-09-28T13:43:18.075Z</time>
      </trkpt>
      <trkpt lat="43.49042" lon="1.47801">
        <ele>321.6</ele>
        <time>2013-09-28T13:43:19.152Z</time>
      </trkpt>
      <trkpt lat="43.49045" lon="1.4779">
        <ele>319</ele>
        <time>2013-09-28T13:43:22.054Z</time>
      </trkpt>
      <trkpt lat="43.49047" lon="1.47786">
        <ele>319.6</ele>
        <time>2013-09-28T13:43:23.037Z</time>
      </trkpt>
      <trkpt lat="43.4905" lon="1.47779">
        <ele>319.1</ele>
        <time>2013-09-28T13:43:26.004Z</time>
      </trkpt>
      <trkpt lat="43.49051" lon="1.47775">
        <ele>319.2</ele>
        <time>2013-09-28T13:43:26.162Z</time>
      </trkpt>
      <trkpt lat="43.49053" lon="1.47766">
        <ele>314.5</ele>
        <time>2013-09-28T13:43:29.071Z</time>
      </trkpt>
      <trkpt lat="43.49053" lon="1.47761">
        <ele>314.5</ele>
        <time>2013-09-28T13:43:30.105Z</time>
      </trkpt>
      <trkpt lat="43.49049" lon="1.47752">
        <ele>314.4</ele>
        <time>2013-09-28T13:43:33.028Z</time>
      </trkpt>
      <trkpt lat="43.49046" lon="1.47751">
        <ele>315</ele>
        <time>2013-09-28T13:43:34.047Z</time>
      </trkpt>
      <trkpt lat="43.49038" lon="1.47747">
        <ele>315.2</ele>
        <time>2013-09-28T13:43:37.044Z</time>
      </trkpt>
      <trkpt lat="43.49036" lon="1.47746">
        <ele>315</ele>
        <time>2013-09-28T13:43:38.055Z</time>
      </trkpt>
      <trkpt lat="43.49031" lon="1.47741">
        <ele>313.8</ele>
        <time>2013-09-28T13:43:40.164Z</time>
      </trkpt>
      <trkpt lat="43.49029" lon="1.47737">
        <ele>312.6</ele>
        <time>2013-09-28T13:43:41.037Z</time>
      </trkpt>
      <trkpt lat="43.49023" lon="1.47731">
        <ele>311.8</ele>
        <time>2013-09-28T13:43:43.047Z</time>
      </trkpt>
      <trkpt lat="43.49021" lon="1.47729">
        <ele>311.4</ele>
        <time>2013-09-28T13:43:44.050Z</time>
      </trkpt>
      <trkpt lat="43.49013" lon="1.47723">
        <ele>311.3</ele>
        <time>2013-09-28T13:43:47.045Z</time>
      </trkpt>
      <trkpt lat="43.4901" lon="1.47721">
        <ele>310.1</ele>
        <time>2013-09-28T13:43:48.044Z</time>
      </trkpt>
      <trkpt lat="43.49003" lon="1.47717">
        <ele>308.5</ele>
        <time>2013-09-28T13:43:50.164Z</time>
      </trkpt>
      <trkpt lat="43.49" lon="1.47715">
        <ele>307.6</ele>
        <time>2013-09-28T13:43:51.245Z</time>
      </trkpt>
      <trkpt lat="43.48993" lon="1.47708">
        <ele>306.7</ele>
        <time>2013-09-28T13:43:54.396Z</time>
      </trkpt>
      <trkpt lat="43.48989" lon="1.47706">
        <ele>306.6</ele>
        <time>2013-09-28T13:43:54.589Z</time>
      </trkpt>
      <trkpt lat="43.48984" lon="1.47701">
        <ele>307.3</ele>
        <time>2013-09-28T13:43:56.386Z</time>
      </trkpt>
      <trkpt lat="43.48981" lon="1.47699">
        <ele>306.8</ele>
        <time>2013-09-28T13:43:57.404Z</time>
      </trkpt>
      <trkpt lat="43.48975" lon="1.47696">
        <ele>306</ele>
        <time>2013-09-28T13:44:00.229Z</time>
      </trkpt>
      <trkpt lat="43.48972" lon="1.47695">
        <ele>307</ele>
        <time>2013-09-28T13:44:00.405Z</time>
      </trkpt>
      <trkpt lat="43.48964" lon="1.47691">
        <ele>308.6</ele>
        <time>2013-09-28T13:44:03.401Z</time>
      </trkpt>
      <trkpt lat="43.48961" lon="1.4769">
        <ele>308.7</ele>
        <time>2013-09-28T13:44:04.507Z</time>
      </trkpt>
      <trkpt lat="43.48953" lon="1.47685">
        <ele>309.7</ele>
        <time>2013-09-28T13:44:07.446Z</time>
      </trkpt>
      <trkpt lat="43.48951" lon="1.47684">
        <ele>309.4</ele>
        <time>2013-09-28T13:44:08.441Z</time>
      </trkpt>
      <trkpt lat="43.48945" lon="1.47677">
        <ele>308.6</ele>
        <time>2013-09-28T13:44:11.442Z</time>
      </trkpt>
      <trkpt lat="43.48942" lon="1.47676">
        <ele>308.1</ele>
        <time>2013-09-28T13:44:12.462Z</time>
      </trkpt>
      <trkpt lat="43.48935" lon="1.47668">
        <ele>305.5</ele>
        <time>2013-09-28T13:44:15.472Z</time>
      </trkpt>
      <trkpt lat="43.48936" lon="1.47665">
        <ele>305.3</ele>
        <time>2013-09-28T13:44:16.407Z</time>
      </trkpt>
      <trkpt lat="43.4894" lon="1.47656">
        <ele>303.3</ele>
        <time>2013-09-28T13:44:20.440Z</time>
      </trkpt>
      <trkpt lat="43.48941" lon="1.47653">
        <ele>303.4</ele>
        <time>2013-09-28T13:44:20.529Z</time>
      </trkpt>
      <trkpt lat="43.48944" lon="1.47643">
        <ele>302</ele>
        <time>2013-09-28T13:44:23.421Z</time>
      </trkpt>
      <trkpt lat="43.48944" lon="1.4764">
        <ele>302.2</ele>
        <time>2013-09-28T13:44:24.457Z</time>
      </trkpt>
      <trkpt lat="43.48948" lon="1.4763">
        <ele>304</ele>
        <time>2013-09-28T13:44:29.407Z</time>
      </trkpt>
      <trkpt lat="43.48948" lon="1.47628">
        <ele>303.9</ele>
        <time>2013-09-28T13:44:30.399Z</time>
      </trkpt>
      <trkpt lat="43.4895" lon="1.47618">
        <ele>300.8</ele>
        <time>2013-09-28T13:44:33.433Z</time>
      </trkpt>
      <trkpt lat="43.4895" lon="1.47615">
        <ele>299.9</ele>
        <time>2013-09-28T13:44:34.487Z</time>
      </trkpt>
      <trkpt lat="43.48948" lon="1.47605">
        <ele>299.6</ele>
        <time>2013-09-28T13:44:39.489Z</time>
      </trkpt>
      <trkpt lat="43.48948" lon="1.47601">
        <ele>299.1</ele>
        <time>2013-09-28T13:44:40.449Z</time>
      </trkpt>
      <trkpt lat="43.48949" lon="1.47593">
        <ele>301.4</ele>
        <time>2013-09-28T13:44:44.458Z</time>
      </trkpt>
      <trkpt lat="43.48951" lon="1.47585">
        <ele>301.1</ele>
        <time>2013-09-28T13:44:45.418Z</time>
      </trkpt>
      <trkpt lat="43.48952" lon="1.47574">
        <ele>301.7</ele>
        <time>2013-09-28T13:44:47.654Z</time>
      </trkpt>
      <trkpt lat="43.48952" lon="1.47571">
        <ele>302</ele>
        <time>2013-09-28T13:44:48.424Z</time>
      </trkpt>
      <trkpt lat="43.4895" lon="1.47563">
        <ele>302.1</ele>
        <time>2013-09-28T13:44:51.418Z</time>
      </trkpt>
      <trkpt lat="43.4895" lon="1.47559">
        <ele>301.5</ele>
        <time>2013-09-28T13:44:52.561Z</time>
      </trkpt>
      <trkpt lat="43.48953" lon="1.47549">
        <ele>297</ele>
        <time>2013-09-28T13:44:55.608Z</time>
      </trkpt>
      <trkpt lat="43.48954" lon="1.47546">
        <ele>296.3</ele>
        <time>2013-09-28T13:44:56.448Z</time>
      </trkpt>
      <trkpt lat="43.48954" lon="1.47534">
        <ele>298.4</ele>
        <time>2013-09-28T13:45:03.391Z</time>
      </trkpt>
      <trkpt lat="43.48955" lon="1.4753">
        <ele>297.7</ele>
        <time>2013-09-28T13:45:04.430Z</time>
      </trkpt>
      <trkpt lat="43.48959" lon="1.47518">
        <ele>298.7</ele>
        <time>2013-09-28T13:45:06.502Z</time>
      </trkpt>
      <trkpt lat="43.48961" lon="1.47515">
        <ele>297.3</ele>
        <time>2013-09-28T13:45:07.437Z</time>
      </trkpt>
      <trkpt lat="43.48965" lon="1.47507">
        <ele>297.8</ele>
        <time>2013-09-28T13:45:10.385Z</time>
      </trkpt>
      <trkpt lat="43.48966" lon="1.47501">
        <ele>296.8</ele>
        <time>2013-09-28T13:45:10.601Z</time>
      </trkpt>
      <trkpt lat="43.48968" lon="1.47497">
        <ele>296.4</ele>
        <time>2013-09-28T13:45:11.509Z</time>
      </trkpt>
      <trkpt lat="43.48971" lon="1.4749">
        <ele>294.2</ele>
        <time>2013-09-28T13:45:12.498Z</time>
      </trkpt>
      <trkpt lat="43.48975" lon="1.4748">
        <ele>298.1</ele>
        <time>2013-09-28T13:45:17.433Z</time>
      </trkpt>
      <trkpt lat="43.48974" lon="1.47477">
        <ele>296.8</ele>
        <time>2013-09-28T13:45:18.500Z</time>
      </trkpt>
      <trkpt lat="43.48974" lon="1.47468">
        <ele>297</ele>
        <time>2013-09-28T13:45:20.498Z</time>
      </trkpt>
      <trkpt lat="43.48974" lon="1.47463">
        <ele>297.9</ele>
        <time>2013-09-28T13:45:21.584Z</time>
      </trkpt>
      <trkpt lat="43.48975" lon="1.47451">
        <ele>299.4</ele>
        <time>2013-09-28T13:45:24.400Z</time>
      </trkpt>
      <trkpt lat="43.48975" lon="1.47448">
        <ele>300.6</ele>
        <time>2013-09-28T13:45:25.405Z</time>
      </trkpt>
      <trkpt lat="43.4898" lon="1.47441">
        <ele>298.3</ele>
        <time>2013-09-28T13:45:30.370Z</time>
      </trkpt>
      <trkpt lat="43.48982" lon="1.47438">
        <ele>297.5</ele>
        <time>2013-09-28T13:45:31.529Z</time>
      </trkpt>
      <trkpt lat="43.48984" lon="1.4743">
        <ele>294.4</ele>
        <time>2013-09-28T13:45:35.546Z</time>
      </trkpt>
      <trkpt lat="43.48985" lon="1.47426">
        <ele>294.4</ele>
        <time>2013-09-28T13:45:36.639Z</time>
      </trkpt>
      <trkpt lat="43.48988" lon="1.47415">
        <ele>292.3</ele>
        <time>2013-09-28T13:45:38.464Z</time>
      </trkpt>
      <trkpt lat="43.48989" lon="1.47411">
        <ele>291.3</ele>
        <time>2013-09-28T13:45:39.531Z</time>
      </trkpt>
      <trkpt lat="43.48994" lon="1.47401">
        <ele>289.9</ele>
        <time>2013-09-28T13:45:42.456Z</time>
      </trkpt>
      <trkpt lat="43.48996" lon="1.47396">
        <ele>287.3</ele>
        <time>2013-09-28T13:45:43.419Z</time>
      </trkpt>
      <trkpt lat="43.49" lon="1.47387">
        <ele>286.4</ele>
        <time>2013-09-28T13:45:46.504Z</time>
      </trkpt>
      <trkpt lat="43.49001" lon="1.47384">
        <ele>285</ele>
        <time>2013-09-28T13:45:47.445Z</time>
      </trkpt>
      <trkpt lat="43.49005" lon="1.47377">
        <ele>284.2</ele>
        <time>2013-09-28T13:45:50.227Z</time>
      </trkpt>
      <trkpt lat="43.49007" lon="1.47373">
        <ele>284.8</ele>
        <time>2013-09-28T13:45:50.446Z</time>
      </trkpt>
      <trkpt lat="43.49011" lon="1.47366">
        <ele>282.2</ele>
        <time>2013-09-28T13:45:52.539Z</time>
      </trkpt>
      <trkpt lat="43.49013" lon="1.47362">
        <ele>281.6</ele>
        <time>2013-09-28T13:45:53.450Z</time>
      </trkpt>
      <trkpt lat="43.49018" lon="1.47356">
        <ele>281</ele>
        <time>2013-09-28T13:45:55.427Z</time>
      </trkpt>
      <trkpt lat="43.4902" lon="1.47353">
        <ele>280.8</ele>
        <time>2013-09-28T13:45:56.460Z</time>
      </trkpt>
      <trkpt lat="43.49024" lon="1.47344">
        <ele>280.6</ele>
        <time>2013-09-28T13:46:00.262Z</time>
      </trkpt>
      <trkpt lat="43.49025" lon="1.47341">
        <ele>281.2</ele>
        <time>2013-09-28T13:46:00.486Z</time>
      </trkpt>
      <trkpt lat="43.49031" lon="1.47335">
        <ele>274.7</ele>
        <time>2013-09-28T13:46:05.406Z</time>
      </trkpt>
      <trkpt lat="43.49033" lon="1.47334">
        <ele>272.4</ele>
        <time>2013-09-28T13:46:06.402Z</time>
      </trkpt>
      <trkpt lat="43.49038" lon="1.47327">
        <ele>265.9</ele>
        <time>2013-09-28T13:46:10.317Z</time>
      </trkpt>
      <trkpt lat="43.49039" lon="1.47323">
        <ele>264.3</ele>
        <time>2013-09-28T13:46:10.540Z</time>
      </trkpt>
      <trkpt lat="43.49043" lon="1.47318">
        <ele>264.5</ele>
        <time>2013-09-28T13:46:12.446Z</time>
      </trkpt>
      <trkpt lat="43.49047" lon="1.47315">
        <ele>265.6</ele>
        <time>2013-09-28T13:46:13.430Z</time>
      </trkpt>
      <trkpt lat="43.49055" lon="1.47314">
        <ele>266.9</ele>
        <time>2013-09-28T13:46:15.469Z</time>
      </trkpt>
      <trkpt lat="43.49059" lon="1.47313">
        <ele>267.4</ele>
        <time>2013-09-28T13:46:16.416Z</time>
      </trkpt>
      <trkpt lat="43.49067" lon="1.47312">
        <ele>267.9</ele>
        <time>2013-09-28T13:46:18.448Z</time>
      </trkpt>
      <trkpt lat="43.49071" lon="1.4731">
        <ele>269.3</ele>
        <time>2013-09-28T13:46:19.485Z</time>
      </trkpt>
      <trkpt lat="43.49079" lon="1.47308">
        <ele>271</ele>
        <time>2013-09-28T13:46:21.402Z</time>
      </trkpt>
      <trkpt lat="43.49083" lon="1.47308">
        <ele>271.6</ele>
        <time>2013-09-28T13:46:22.466Z</time>
      </trkpt>
      <trkpt lat="43.49091" lon="1.47307">
        <ele>273.9</ele>
        <time>2013-09-28T13:46:25.651Z</time>
      </trkpt>
      <trkpt lat="43.49094" lon="1.47307">
        <ele>274.6</ele>
        <time>2013-09-28T13:46:26.455Z</time>
      </trkpt>
      <trkpt lat="43.491" lon="1.47304">
        <ele>276.9</ele>
        <time>2013-09-28T13:46:28.422Z</time>
      </trkpt>
      <trkpt lat="43.49103" lon="1.47301">
        <ele>277.4</ele>
        <time>2013-09-28T13:46:29.547Z</time>
      </trkpt>
      <trkpt lat="43.49107" lon="1.47295">
        <ele>279.6</ele>
        <time>2013-09-28T13:46:31.474Z</time>
      </trkpt>
      <trkpt lat="43.49111" lon="1.47292">
        <ele>280.4</ele>
        <time>2013-09-28T13:46:32.439Z</time>
      </trkpt>
      <trkpt lat="43.49118" lon="1.47291">
        <ele>283.2</ele>
        <time>2013-09-28T13:46:35.409Z</time>
      </trkpt>
      <trkpt lat="43.49121" lon="1.47292">
        <ele>283.2</ele>
        <time>2013-09-28T13:46:36.457Z</time>
      </trkpt>
      <trkpt lat="43.49128" lon="1.4729">
        <ele>279</ele>
        <time>2013-09-28T13:46:40.442Z</time>
      </trkpt>
      <trkpt lat="43.49129" lon="1.47288">
        <ele>278.2</ele>
        <time>2013-09-28T13:46:41.407Z</time>
      </trkpt>
      <trkpt lat="43.49136" lon="1.47282">
        <ele>280.1</ele>
        <time>2013-09-28T13:46:45.460Z</time>
      </trkpt>
      <trkpt lat="43.49137" lon="1.4728">
        <ele>281.2</ele>
        <time>2013-09-28T13:46:46.382Z</time>
      </trkpt>
      <trkpt lat="43.49145" lon="1.47279">
        <ele>278</ele>
        <time>2013-09-28T13:46:52.473Z</time>
      </trkpt>
      <trkpt lat="43.49148" lon="1.47279">
        <ele>278.4</ele>
        <time>2013-09-28T13:46:53.450Z</time>
      </trkpt>
      <trkpt lat="43.49152" lon="1.47271">
        <ele>285.4</ele>
        <time>2013-09-28T13:46:56.446Z</time>
      </trkpt>
      <trkpt lat="43.49152" lon="1.47267">
        <ele>289.1</ele>
        <time>2013-09-28T13:46:57.438Z</time>
      </trkpt>
      <trkpt lat="43.49154" lon="1.47259">
        <ele>288.9</ele>
        <time>2013-09-28T13:47:01.403Z</time>
      </trkpt>
      <trkpt lat="43.49155" lon="1.47255">
        <ele>288.5</ele>
        <time>2013-09-28T13:47:02.429Z</time>
      </trkpt>
      <trkpt lat="43.49158" lon="1.47247">
        <ele>290.3</ele>
        <time>2013-09-28T13:47:05.158Z</time>
      </trkpt>
      <trkpt lat="43.49161" lon="1.47245">
        <ele>288.3</ele>
        <time>2013-09-28T13:47:05.419Z</time>
      </trkpt>
      <trkpt lat="43.49166" lon="1.47246">
        <ele>287.3</ele>
        <time>2013-09-28T13:47:06.441Z</time>
      </trkpt>
      <trkpt lat="43.4917" lon="1.47244">
        <ele>287</ele>
        <time>2013-09-28T13:47:07.424Z</time>
      </trkpt>
      <trkpt lat="43.49174" lon="1.47235">
        <ele>284.5</ele>
        <time>2013-09-28T13:47:10.188Z</time>
      </trkpt>
      <trkpt lat="43.49176" lon="1.4723">
        <ele>281.3</ele>
        <time>2013-09-28T13:47:10.430Z</time>
      </trkpt>
      <trkpt lat="43.4918" lon="1.47219">
        <ele>278.1</ele>
        <time>2013-09-28T13:47:13.420Z</time>
      </trkpt>
      <trkpt lat="43.49183" lon="1.47216">
        <ele>276.2</ele>
        <time>2013-09-28T13:47:14.520Z</time>
      </trkpt>
      <trkpt lat="43.49189" lon="1.47211">
        <ele>274.8</ele>
        <time>2013-09-28T13:47:16.418Z</time>
      </trkpt>
      <trkpt lat="43.49191" lon="1.47209">
        <ele>273.7</ele>
        <time>2013-09-28T13:47:17.465Z</time>
      </trkpt>
      <trkpt lat="43.49195" lon="1.47203">
        <ele>273.3</ele>
        <time>2013-09-28T13:47:20.421Z</time>
      </trkpt>
      <trkpt lat="43.49196" lon="1.47197">
        <ele>273.8</ele>
        <time>2013-09-28T13:47:21.493Z</time>
      </trkpt>
      <trkpt lat="43.49201" lon="1.47191">
        <ele>273.8</ele>
        <time>2013-09-28T13:47:23.440Z</time>
      </trkpt>
      <trkpt lat="43.49204" lon="1.47189">
        <ele>274.1</ele>
        <time>2013-09-28T13:47:24.501Z</time>
      </trkpt>
      <trkpt lat="43.4921" lon="1.4718">
        <ele>269.7</ele>
        <time>2013-09-28T13:47:28.412Z</time>
      </trkpt>
      <trkpt lat="43.49212" lon="1.47178">
        <ele>270.5</ele>
        <time>2013-09-28T13:47:29.517Z</time>
      </trkpt>
      <trkpt lat="43.49218" lon="1.4717">
        <ele>268.4</ele>
        <time>2013-09-28T13:47:33.430Z</time>
      </trkpt>
      <trkpt lat="43.4922" lon="1.47166">
        <ele>268.5</ele>
        <time>2013-09-28T13:47:34.504Z</time>
      </trkpt>
      <trkpt lat="43.49224" lon="1.4716">
        <ele>268.4</ele>
        <time>2013-09-28T13:47:36.391Z</time>
      </trkpt>
      <trkpt lat="43.49227" lon="1.47156">
        <ele>268</ele>
        <time>2013-09-28T13:47:37.493Z</time>
      </trkpt>
      <trkpt lat="43.49233" lon="1.47148">
        <ele>270.3</ele>
        <time>2013-09-28T13:47:40.413Z</time>
      </trkpt>
      <trkpt lat="43.49234" lon="1.47146">
        <ele>271.1</ele>
        <time>2013-09-28T13:47:41.391Z</time>
      </trkpt>
      <trkpt lat="43.49238" lon="1.47137">
        <ele>267.2</ele>
        <time>2013-09-28T13:47:45.360Z</time>
      </trkpt>
      <trkpt lat="43.4924" lon="1.47134">
        <ele>266.3</ele>
        <time>2013-09-28T13:47:45.449Z</time>
      </trkpt>
      <trkpt lat="43.49246" lon="1.47127">
        <ele>272.4</ele>
        <time>2013-09-28T13:47:50.070Z</time>
      </trkpt>
      <trkpt lat="43.49248" lon="1.47125">
        <ele>274.1</ele>
        <time>2013-09-28T13:47:50.388Z</time>
      </trkpt>
      <trkpt lat="43.49253" lon="1.4712">
        <ele>274.4</ele>
        <time>2013-09-28T13:47:52.459Z</time>
      </trkpt>
      <trkpt lat="43.49254" lon="1.47116">
        <ele>275.6</ele>
        <time>2013-09-28T13:47:53.466Z</time>
      </trkpt>
      <trkpt lat="43.49261" lon="1.47109">
        <ele>273.2</ele>
        <time>2013-09-28T13:47:55.594Z</time>
      </trkpt>
      <trkpt lat="43.49263" lon="1.47108">
        <ele>269.2</ele>
        <time>2013-09-28T13:47:56.399Z</time>
      </trkpt>
      <trkpt lat="43.49269" lon="1.47104">
        <ele>268.9</ele>
        <time>2013-09-28T13:48:01.434Z</time>
      </trkpt>
      <trkpt lat="43.49272" lon="1.47104">
        <ele>268</ele>
        <time>2013-09-28T13:48:02.398Z</time>
      </trkpt>
      <trkpt lat="43.49279" lon="1.47101">
        <ele>259.7</ele>
        <time>2013-09-28T13:48:05.379Z</time>
      </trkpt>
      <trkpt lat="43.49281" lon="1.47098">
        <ele>257.3</ele>
        <time>2013-09-28T13:48:06.521Z</time>
      </trkpt>
      <trkpt lat="43.49283" lon="1.47089">
        <ele>261.3</ele>
        <time>2013-09-28T13:48:08.390Z</time>
      </trkpt>
      <trkpt lat="43.49285" lon="1.47083">
        <ele>264</ele>
        <time>2013-09-28T13:48:09.449Z</time>
      </trkpt>
      <trkpt lat="43.49287" lon="1.47074">
        <ele>264.3</ele>
        <time>2013-09-28T13:48:11.513Z</time>
      </trkpt>
      <trkpt lat="43.49288" lon="1.47071">
        <ele>264.9</ele>
        <time>2013-09-28T13:48:12.438Z</time>
      </trkpt>
      <trkpt lat="43.49294" lon="1.47066">
        <ele>268</ele>
        <time>2013-09-28T13:48:15.458Z</time>
      </trkpt>
      <trkpt lat="43.49296" lon="1.47064">
        <ele>268.5</ele>
        <time>2013-09-28T13:48:16.411Z</time>
      </trkpt>
      <trkpt lat="43.49304" lon="1.47058">
        <ele>271.5</ele>
        <time>2013-09-28T13:48:20.240Z</time>
      </trkpt>
      <trkpt lat="43.49307" lon="1.47057">
        <ele>273.7</ele>
        <time>2013-09-28T13:48:20.452Z</time>
      </trkpt>
      <trkpt lat="43.49314" lon="1.4705">
        <ele>271.6</ele>
        <time>2013-09-28T13:48:25.264Z</time>
      </trkpt>
      <trkpt lat="43.49316" lon="1.47048">
        <ele>272.4</ele>
        <time>2013-09-28T13:48:25.399Z</time>
      </trkpt>
      <trkpt lat="43.49322" lon="1.47042">
        <ele>271.2</ele>
        <time>2013-09-28T13:48:28.445Z</time>
      </trkpt>
      <trkpt lat="43.49324" lon="1.47039">
        <ele>271.6</ele>
        <time>2013-09-28T13:48:29.407Z</time>
      </trkpt>
      <trkpt lat="43.49329" lon="1.47031">
        <ele>272.4</ele>
        <time>2013-09-28T13:48:31.447Z</time>
      </trkpt>
      <trkpt lat="43.49332" lon="1.47026">
        <ele>272.9</ele>
        <time>2013-09-28T13:48:32.477Z</time>
      </trkpt>
      <trkpt lat="43.49337" lon="1.47018">
        <ele>275.4</ele>
        <time>2013-09-28T13:48:35.395Z</time>
      </trkpt>
      <trkpt lat="43.49339" lon="1.47015">
        <ele>275.2</ele>
        <time>2013-09-28T13:48:36.471Z</time>
      </trkpt>
      <trkpt lat="43.49344" lon="1.47008">
        <ele>275.9</ele>
        <time>2013-09-28T13:48:40.295Z</time>
      </trkpt>
      <trkpt lat="43.49346" lon="1.47006">
        <ele>276.3</ele>
        <time>2013-09-28T13:48:40.438Z</time>
      </trkpt>
      <trkpt lat="43.49353" lon="1.47001">
        <ele>275.3</ele>
        <time>2013-09-28T13:48:43.448Z</time>
      </trkpt>
      <trkpt lat="43.49354" lon="1.46999">
        <ele>275.4</ele>
        <time>2013-09-28T13:48:44.421Z</time>
      </trkpt>
      <trkpt lat="43.49361" lon="1.46992">
        <ele>274.6</ele>
        <time>2013-09-28T13:48:48.441Z</time>
      </trkpt>
      <trkpt lat="43.49363" lon="1.46989">
        <ele>273.3</ele>
        <time>2013-09-28T13:48:49.500Z</time>
      </trkpt>
      <trkpt lat="43.4937" lon="1.46983">
        <ele>272.6</ele>
        <time>2013-09-28T13:48:52.444Z</time>
      </trkpt>
      <trkpt lat="43.49373" lon="1.4698">
        <ele>271.4</ele>
        <time>2013-09-28T13:48:53.484Z</time>
      </trkpt>
      <trkpt lat="43.49377" lon="1.46974">
        <ele>275.7</ele>
        <time>2013-09-28T13:49:00.110Z</time>
      </trkpt>
      <trkpt lat="43.49379" lon="1.46971">
        <ele>274</ele>
        <time>2013-09-28T13:49:00.430Z</time>
      </trkpt>
      <trkpt lat="43.49384" lon="1.46964">
        <ele>274.7</ele>
        <time>2013-09-28T13:49:02.490Z</time>
      </trkpt>
      <trkpt lat="43.49386" lon="1.4696">
        <ele>273.8</ele>
        <time>2013-09-28T13:49:03.511Z</time>
      </trkpt>
      <trkpt lat="43.49393" lon="1.46955">
        <ele>274.2</ele>
        <time>2013-09-28T13:49:05.401Z</time>
      </trkpt>
      <trkpt lat="43.49396" lon="1.46952">
        <ele>273.5</ele>
        <time>2013-09-28T13:49:06.402Z</time>
      </trkpt>
      <trkpt lat="43.49404" lon="1.46949">
        <ele>271.2</ele>
        <time>2013-09-28T13:49:08.411Z</time>
      </trkpt>
      <trkpt lat="43.49406" lon="1.46946">
        <ele>269.4</ele>
        <time>2013-09-28T13:49:09.504Z</time>
      </trkpt>
      <trkpt lat="43.49413" lon="1.4694">
        <ele>266</ele>
        <time>2013-09-28T13:49:12.453Z</time>
      </trkpt>
      <trkpt lat="43.49416" lon="1.46937">
        <ele>265.2</ele>
        <time>2013-09-28T13:49:13.435Z</time>
      </trkpt>
      <trkpt lat="43.49422" lon="1.46928">
        <ele>264.8</ele>
        <time>2013-09-28T13:49:16.398Z</time>
      </trkpt>
      <trkpt lat="43.49423" lon="1.46925">
        <ele>265.2</ele>
        <time>2013-09-28T13:49:17.433Z</time>
      </trkpt>
      <trkpt lat="43.49427" lon="1.46915">
        <ele>263.2</ele>
        <time>2013-09-28T13:49:23.493Z</time>
      </trkpt>
      <trkpt lat="43.49429" lon="1.46911">
        <ele>263.2</ele>
        <time>2013-09-28T13:49:24.441Z</time>
      </trkpt>
      <trkpt lat="43.49436" lon="1.46903">
        <ele>264.6</ele>
        <time>2013-09-28T13:49:28.470Z</time>
      </trkpt>
      <trkpt lat="43.49438" lon="1.46901">
        <ele>266.7</ele>
        <time>2013-09-28T13:49:29.470Z</time>
      </trkpt>
      <trkpt lat="43.49445" lon="1.46895">
        <ele>266.1</ele>
        <time>2013-09-28T13:49:33.585Z</time>
      </trkpt>
      <trkpt lat="43.49447" lon="1.46893">
        <ele>265.9</ele>
        <time>2013-09-28T13:49:34.418Z</time>
      </trkpt>
      <trkpt lat="43.49451" lon="1.46889">
        <ele>265.6</ele>
        <time>2013-09-28T13:49:36.821Z</time>
      </trkpt>
      <trkpt lat="43.49454" lon="1.46884">
        <ele>266.2</ele>
        <time>2013-09-28T13:49:37.402Z</time>
      </trkpt>
      <trkpt lat="43.4946" lon="1.46879">
        <ele>266.8</ele>
        <time>2013-09-28T13:49:39.402Z</time>
      </trkpt>
      <trkpt lat="43.49463" lon="1.46878">
        <ele>265.1</ele>
        <time>2013-09-28T13:49:40.519Z</time>
      </trkpt>
      <trkpt lat="43.49468" lon="1.46876">
        <ele>264.7</ele>
        <time>2013-09-28T13:49:42.464Z</time>
      </trkpt>
      <trkpt lat="43.49472" lon="1.46876">
        <ele>264</ele>
        <time>2013-09-28T13:49:43.465Z</time>
      </trkpt>
      <trkpt lat="43.49477" lon="1.4687">
        <ele>262.1</ele>
        <time>2013-09-28T13:49:46.466Z</time>
      </trkpt>
      <trkpt lat="43.49475" lon="1.46864">
        <ele>262.5</ele>
        <time>2013-09-28T13:49:47.466Z</time>
      </trkpt>
      <trkpt lat="43.49481" lon="1.46858">
        <ele>260.8</ele>
        <time>2013-09-28T13:49:50.548Z</time>
      </trkpt>
      <trkpt lat="43.49483" lon="1.46857">
        <ele>262.4</ele>
        <time>2013-09-28T13:49:51.605Z</time>
      </trkpt>
      <trkpt lat="43.49491" lon="1.46852">
        <ele>263.4</ele>
        <time>2013-09-28T13:49:56.419Z</time>
      </trkpt>
      <trkpt lat="43.49492" lon="1.4685">
        <ele>259.5</ele>
        <time>2013-09-28T13:49:57.469Z</time>
      </trkpt>
      <trkpt lat="43.49498" lon="1.46843">
        <ele>256.7</ele>
        <time>2013-09-28T13:50:00.459Z</time>
      </trkpt>
      <trkpt lat="43.49501" lon="1.46839">
        <ele>256.8</ele>
        <time>2013-09-28T13:50:01.452Z</time>
      </trkpt>
      <trkpt lat="43.49506" lon="1.46832">
        <ele>256.5</ele>
        <time>2013-09-28T13:50:03.545Z</time>
      </trkpt>
      <trkpt lat="43.49509" lon="1.46828">
        <ele>259.2</ele>
        <time>2013-09-28T13:50:04.421Z</time>
      </trkpt>
      <trkpt lat="43.49514" lon="1.46823">
        <ele>262.3</ele>
        <time>2013-09-28T13:50:05.379Z</time>
      </trkpt>
      <trkpt lat="43.49518" lon="1.46817">
        <ele>263.8</ele>
        <time>2013-09-28T13:50:06.394Z</time>
      </trkpt>
      <trkpt lat="43.4952" lon="1.46807">
        <ele>266.3</ele>
        <time>2013-09-28T13:50:10.117Z</time>
      </trkpt>
      <trkpt lat="43.4952" lon="1.46804">
        <ele>265.3</ele>
        <time>2013-09-28T13:50:10.389Z</time>
      </trkpt>
      <trkpt lat="43.49526" lon="1.46796">
        <ele>264.6</ele>
        <time>2013-09-28T13:50:13.547Z</time>
      </trkpt>
      <trkpt lat="43.49528" lon="1.46794">
        <ele>265.6</ele>
        <time>2013-09-28T13:50:14.466Z</time>
      </trkpt>
      <trkpt lat="43.49536" lon="1.46789">
        <ele>263.7</ele>
        <time>2013-09-28T13:50:17.448Z</time>
      </trkpt>
      <trkpt lat="43.49539" lon="1.46787">
        <ele>262.9</ele>
        <time>2013-09-28T13:50:18.460Z</time>
      </trkpt>
      <trkpt lat="43.49544" lon="1.46779">
        <ele>266.6</ele>
        <time>2013-09-28T13:50:20.444Z</time>
      </trkpt>
      <trkpt lat="43.49545" lon="1.46774">
        <ele>267.7</ele>
        <time>2013-09-28T13:50:21.471Z</time>
      </trkpt>
      <trkpt lat="43.49552" lon="1.4677">
        <ele>265.4</ele>
        <time>2013-09-28T13:50:27.464Z</time>
      </trkpt>
      <trkpt lat="43.49555" lon="1.4677">
        <ele>264.7</ele>
        <time>2013-09-28T13:50:28.464Z</time>
      </trkpt>
      <trkpt lat="43.4956" lon="1.46765">
        <ele>264.8</ele>
        <time>2013-09-28T13:50:31.443Z</time>
      </trkpt>
      <trkpt lat="43.49562" lon="1.46761">
        <ele>264.8</ele>
        <time>2013-09-28T13:50:32.479Z</time>
      </trkpt>
      <trkpt lat="43.49567" lon="1.46755">
        <ele>264.3</ele>
        <time>2013-09-28T13:50:35.292Z</time>
      </trkpt>
      <trkpt lat="43.4957" lon="1.46753">
        <ele>260.7</ele>
        <time>2013-09-28T13:50:36.477Z</time>
      </trkpt>
      <trkpt lat="43.49577" lon="1.46748">
        <ele>261.6</ele>
        <time>2013-09-28T13:50:40.396Z</time>
      </trkpt>
      <trkpt lat="43.49578" lon="1.46746">
        <ele>262.9</ele>
        <time>2013-09-28T13:50:41.473Z</time>
      </trkpt>
      <trkpt lat="43.49585" lon="1.46742">
        <ele>255.5</ele>
        <time>2013-09-28T13:50:45.311Z</time>
      </trkpt>
      <trkpt lat="43.49586" lon="1.4674">
        <ele>254.9</ele>
        <time>2013-09-28T13:50:45.428Z</time>
      </trkpt>
      <trkpt lat="43.49593" lon="1.46734">
        <ele>256.2</ele>
        <time>2013-09-28T13:50:48.466Z</time>
      </trkpt>
      <trkpt lat="43.49596" lon="1.46733">
        <ele>256.7</ele>
        <time>2013-09-28T13:50:49.477Z</time>
      </trkpt>
      <trkpt lat="43.49598" lon="1.46722">
        <ele>257.7</ele>
        <time>2013-09-28T13:50:55.083Z</time>
      </trkpt>
      <trkpt lat="43.49599" lon="1.4672">
        <ele>256.9</ele>
        <time>2013-09-28T13:50:55.395Z</time>
      </trkpt>
      <trkpt lat="43.49607" lon="1.46717">
        <ele>250.9</ele>
        <time>2013-09-28T13:51:00.148Z</time>
      </trkpt>
      <trkpt lat="43.49609" lon="1.46714">
        <ele>252</ele>
        <time>2013-09-28T13:51:00.369Z</time>
      </trkpt>
      <trkpt lat="43.49616" lon="1.46707">
        <ele>253</ele>
        <time>2013-09-28T13:51:02.418Z</time>
      </trkpt>
      <trkpt lat="43.49619" lon="1.46704">
        <ele>253.1</ele>
        <time>2013-09-28T13:51:03.443Z</time>
      </trkpt>
      <trkpt lat="43.49625" lon="1.46698">
        <ele>253.3</ele>
        <time>2013-09-28T13:51:05.493Z</time>
      </trkpt>
      <trkpt lat="43.49627" lon="1.46694">
        <ele>255.8</ele>
        <time>2013-09-28T13:51:06.419Z</time>
      </trkpt>
      <trkpt lat="43.49632" lon="1.46688">
        <ele>257.9</ele>
        <time>2013-09-28T13:51:08.424Z</time>
      </trkpt>
      <trkpt lat="43.49634" lon="1.46686">
        <ele>257.6</ele>
        <time>2013-09-28T13:51:09.449Z</time>
      </trkpt>
      <trkpt lat="43.4964" lon="1.46682">
        <ele>258.2</ele>
        <time>2013-09-28T13:51:11.504Z</time>
      </trkpt>
      <trkpt lat="43.49643" lon="1.46681">
        <ele>258.4</ele>
        <time>2013-09-28T13:51:12.473Z</time>
      </trkpt>
      <trkpt lat="43.4965" lon="1.46682">
        <ele>258.8</ele>
        <time>2013-09-28T13:51:15.221Z</time>
      </trkpt>
      <trkpt lat="43.49653" lon="1.46683">
        <ele>259.5</ele>
        <time>2013-09-28T13:51:15.439Z</time>
      </trkpt>
      <trkpt lat="43.49658" lon="1.4668">
        <ele>260</ele>
        <time>2013-09-28T13:51:17.500Z</time>
      </trkpt>
      <trkpt lat="43.49662" lon="1.46679">
        <ele>259.8</ele>
        <time>2013-09-28T13:51:18.530Z</time>
      </trkpt>
      <trkpt lat="43.4967" lon="1.46676">
        <ele>259.1</ele>
        <time>2013-09-28T13:51:20.483Z</time>
      </trkpt>
      <trkpt lat="43.49675" lon="1.46674">
        <ele>259.5</ele>
        <time>2013-09-28T13:51:22.196Z</time>
      </trkpt>
      <trkpt lat="43.4968" lon="1.46673">
        <ele>260.8</ele>
        <time>2013-09-28T13:51:24.438Z</time>
      </trkpt>
      <trkpt lat="43.49683" lon="1.46671">
        <ele>260.4</ele>
        <time>2013-09-28T13:51:24.537Z</time>
      </trkpt>
      <trkpt lat="43.49689" lon="1.46665">
        <ele>258.7</ele>
        <time>2013-09-28T13:51:27.553Z</time>
      </trkpt>
      <trkpt lat="43.4969" lon="1.46663">
        <ele>259.4</ele>
        <time>2013-09-28T13:51:28.533Z</time>
      </trkpt>
      <trkpt lat="43.49696" lon="1.46654">
        <ele>260.4</ele>
        <time>2013-09-28T13:51:32.454Z</time>
      </trkpt>
      <trkpt lat="43.497" lon="1.46648">
        <ele>258.4</ele>
        <time>2013-09-28T13:51:33.532Z</time>
      </trkpt>
      <trkpt lat="43.49705" lon="1.46643">
        <ele>257.1</ele>
        <time>2013-09-28T13:51:35.296Z</time>
      </trkpt>
      <trkpt lat="43.49708" lon="1.46639">
        <ele>255.9</ele>
        <time>2013-09-28T13:51:35.389Z</time>
      </trkpt>
      <trkpt lat="43.49716" lon="1.46635">
        <ele>254.8</ele>
        <time>2013-09-28T13:51:40.320Z</time>
      </trkpt>
      <trkpt lat="43.49717" lon="1.46634">
        <ele>254.4</ele>
        <time>2013-09-28T13:51:40.405Z</time>
      </trkpt>
      <trkpt lat="43.49724" lon="1.46625">
        <ele>255.8</ele>
        <time>2013-09-28T13:51:45.394Z</time>
      </trkpt>
      <trkpt lat="43.49725" lon="1.46625">
        <ele>256.3</ele>
        <time>2013-09-28T13:51:45.476Z</time>
      </trkpt>
      <trkpt lat="43.49733" lon="1.46621">
        <ele>259.8</ele>
        <time>2013-09-28T13:51:50.463Z</time>
      </trkpt>
      <trkpt lat="43.49734" lon="1.46621">
        <ele>261.5</ele>
        <time>2013-09-28T13:51:51.499Z</time>
      </trkpt>
      <trkpt lat="43.49739" lon="1.46614">
        <ele>259.9</ele>
        <time>2013-09-28T13:51:53.479Z</time>
      </trkpt>
      <trkpt lat="43.49741" lon="1.4661">
        <ele>259.2</ele>
        <time>2013-09-28T13:51:54.452Z</time>
      </trkpt>
      <trkpt lat="43.49746" lon="1.46604">
        <ele>260.1</ele>
        <time>2013-09-28T13:51:56.481Z</time>
      </trkpt>
      <trkpt lat="43.49749" lon="1.46601">
        <ele>260.6</ele>
        <time>2013-09-28T13:51:57.479Z</time>
      </trkpt>
      <trkpt lat="43.49756" lon="1.46598">
        <ele>257.7</ele>
        <time>2013-09-28T13:52:00.107Z</time>
      </trkpt>
      <trkpt lat="43.49759" lon="1.46595">
        <ele>257.9</ele>
        <time>2013-09-28T13:52:00.480Z</time>
      </trkpt>
      <trkpt lat="43.49767" lon="1.46596">
        <ele>251.5</ele>
        <time>2013-09-28T13:52:05.140Z</time>
      </trkpt>
      <trkpt lat="43.49768" lon="1.46596">
        <ele>250.5</ele>
        <time>2013-09-28T13:52:05.392Z</time>
      </trkpt>
      <trkpt lat="43.49773" lon="1.46587">
        <ele>250.1</ele>
        <time>2013-09-28T13:52:08.535Z</time>
      </trkpt>
      <trkpt lat="43.49774" lon="1.46585">
        <ele>250.2</ele>
        <time>2013-09-28T13:52:09.428Z</time>
      </trkpt>
      <trkpt lat="43.49778" lon="1.4658">
        <ele>247.5</ele>
        <time>2013-09-28T13:52:12.403Z</time>
      </trkpt>
      <trkpt lat="43.4978" lon="1.46576">
        <ele>245.5</ele>
        <time>2013-09-28T13:52:13.395Z</time>
      </trkpt>
      <trkpt lat="43.49786" lon="1.46569">
        <ele>244.4</ele>
        <time>2013-09-28T13:52:15.382Z</time>
      </trkpt>
      <trkpt lat="43.49789" lon="1.46567">
        <ele>243.6</ele>
        <time>2013-09-28T13:52:16.412Z</time>
      </trkpt>
      <trkpt lat="43.49795" lon="1.46562">
        <ele>245.6</ele>
        <time>2013-09-28T13:52:20.395Z</time>
      </trkpt>
      <trkpt lat="43.49797" lon="1.46561">
        <ele>246.7</ele>
        <time>2013-09-28T13:52:21.397Z</time>
      </trkpt>
      <trkpt lat="43.49802" lon="1.46553">
        <ele>247.5</ele>
        <time>2013-09-28T13:52:24.399Z</time>
      </trkpt>
      <trkpt lat="43.49803" lon="1.46549">
        <ele>245.4</ele>
        <time>2013-09-28T13:52:25.591Z</time>
      </trkpt>
      <trkpt lat="43.49809" lon="1.46542">
        <ele>239.9</ele>
        <time>2013-09-28T13:52:29.434Z</time>
      </trkpt>
      <trkpt lat="43.49811" lon="1.46539">
        <ele>241.3</ele>
        <time>2013-09-28T13:52:29.586Z</time>
      </trkpt>
      <trkpt lat="43.49815" lon="1.46535">
        <ele>241.9</ele>
        <time>2013-09-28T13:52:30.403Z</time>
      </trkpt>
      <trkpt lat="43.49819" lon="1.46531">
        <ele>244.2</ele>
        <time>2013-09-28T13:52:31.397Z</time>
      </trkpt>
      <trkpt lat="43.49823" lon="1.46523">
        <ele>244.5</ele>
        <time>2013-09-28T13:52:34.471Z</time>
      </trkpt>
      <trkpt lat="43.49825" lon="1.46519">
        <ele>244</ele>
        <time>2013-09-28T13:52:35.466Z</time>
      </trkpt>
      <trkpt lat="43.49831" lon="1.4651">
        <ele>245.2</ele>
        <time>2013-09-28T13:52:39.499Z</time>
      </trkpt>
      <trkpt lat="43.49834" lon="1.46508">
        <ele>246.7</ele>
        <time>2013-09-28T13:52:40.472Z</time>
      </trkpt>
      <trkpt lat="43.4984" lon="1.46499">
        <ele>253.6</ele>
        <time>2013-09-28T13:52:43.424Z</time>
      </trkpt>
      <trkpt lat="43.49841" lon="1.46496">
        <ele>257.2</ele>
        <time>2013-09-28T13:52:44.448Z</time>
      </trkpt>
      <trkpt lat="43.49842" lon="1.46508">
        <ele>252.9</ele>
        <time>2013-09-28T13:52:58.437Z</time>
      </trkpt>
      <trkpt lat="43.49843" lon="1.46507">
        <ele>253.4</ele>
        <time>2013-09-28T13:52:59.411Z</time>
      </trkpt>
      <trkpt lat="43.49843" lon="1.46507">
        <ele>253.4</ele>
        <time>2013-09-28T13:53:00.131Z</time>
      </trkpt>
      <trkpt lat="43.49843" lon="1.46506">
        <ele>253.3</ele>
        <time>2013-09-28T13:53:00.389Z</time>
      </trkpt>
      <trkpt lat="43.49847" lon="1.46514">
        <ele>254</ele>
        <time>2013-09-28T13:53:10.416Z</time>
      </trkpt>
      <trkpt lat="43.49848" lon="1.46517">
        <ele>253.5</ele>
        <time>2013-09-28T13:53:11.500Z</time>
      </trkpt>
      <trkpt lat="43.49848" lon="1.46529">
        <ele>252.5</ele>
        <time>2013-09-28T13:53:16.535Z</time>
      </trkpt>
      <trkpt lat="43.49849" lon="1.46535">
        <ele>256.8</ele>
        <time>2013-09-28T13:53:17.470Z</time>
      </trkpt>
      <trkpt lat="43.49852" lon="1.46545">
        <ele>257.3</ele>
        <time>2013-09-28T13:53:20.210Z</time>
      </trkpt>
      <trkpt lat="43.49852" lon="1.46549">
        <ele>257.9</ele>
        <time>2013-09-28T13:53:20.458Z</time>
      </trkpt>
      <trkpt lat="43.49854" lon="1.46559">
        <ele>257.1</ele>
        <time>2013-09-28T13:53:22.483Z</time>
      </trkpt>
      <trkpt lat="43.49854" lon="1.46564">
        <ele>256</ele>
        <time>2013-09-28T13:53:23.474Z</time>
      </trkpt>
      <trkpt lat="43.49854" lon="1.46575">
        <ele>255</ele>
        <time>2013-09-28T13:53:26.456Z</time>
      </trkpt>
      <trkpt lat="43.49853" lon="1.46578">
        <ele>255.6</ele>
        <time>2013-09-28T13:53:27.498Z</time>
      </trkpt>
      <trkpt lat="43.49852" lon="1.46589">
        <ele>257.5</ele>
        <time>2013-09-28T13:53:31.403Z</time>
      </trkpt>
      <trkpt lat="43.49852" lon="1.46591">
        <ele>257.6</ele>
        <time>2013-09-28T13:53:32.493Z</time>
      </trkpt>
      <trkpt lat="43.49854" lon="1.46602">
        <ele>259.6</ele>
        <time>2013-09-28T13:53:35.551Z</time>
      </trkpt>
      <trkpt lat="43.49854" lon="1.46607">
        <ele>259</ele>
        <time>2013-09-28T13:53:36.483Z</time>
      </trkpt>
      <trkpt lat="43.49852" lon="1.46618">
        <ele>264.5</ele>
        <time>2013-09-28T13:53:43.499Z</time>
      </trkpt>
      <trkpt lat="43.49852" lon="1.4662">
        <ele>265.5</ele>
        <time>2013-09-28T13:53:44.482Z</time>
      </trkpt>
      <trkpt lat="43.49852" lon="1.4663">
        <ele>269.5</ele>
        <time>2013-09-28T13:53:48.492Z</time>
      </trkpt>
      <trkpt lat="43.49852" lon="1.46633">
        <ele>270.1</ele>
        <time>2013-09-28T13:53:49.471Z</time>
      </trkpt>
      <trkpt lat="43.49853" lon="1.46644">
        <ele>273.1</ele>
        <time>2013-09-28T13:53:52.443Z</time>
      </trkpt>
      <trkpt lat="43.49855" lon="1.46648">
        <ele>273.8</ele>
        <time>2013-09-28T13:53:53.463Z</time>
      </trkpt>
      <trkpt lat="43.49858" lon="1.46657">
        <ele>273.3</ele>
        <time>2013-09-28T13:53:56.450Z</time>
      </trkpt>
      <trkpt lat="43.49858" lon="1.46659">
        <ele>276.1</ele>
        <time>2013-09-28T13:53:57.496Z</time>
      </trkpt>
      <trkpt lat="43.49857" lon="1.46669">
        <ele>278.4</ele>
        <time>2013-09-28T13:54:02.472Z</time>
      </trkpt>
      <trkpt lat="43.49858" lon="1.46674">
        <ele>278.6</ele>
        <time>2013-09-28T13:54:03.469Z</time>
      </trkpt>
      <trkpt lat="43.4986" lon="1.46683">
        <ele>278.1</ele>
        <time>2013-09-28T13:54:05.438Z</time>
      </trkpt>
      <trkpt lat="43.49861" lon="1.46689">
        <ele>277.9</ele>
        <time>2013-09-28T13:54:06.527Z</time>
      </trkpt>
      <trkpt lat="43.49861" lon="1.467">
        <ele>277.6</ele>
        <time>2013-09-28T13:54:10.202Z</time>
      </trkpt>
      <trkpt lat="43.4986" lon="1.46703">
        <ele>277.3</ele>
        <time>2013-09-28T13:54:10.444Z</time>
      </trkpt>
      <trkpt lat="43.49862" lon="1.46708">
        <ele>275.7</ele>
        <time>2013-09-28T13:54:12.464Z</time>
      </trkpt>
      <trkpt lat="43.49866" lon="1.46714">
        <ele>272</ele>
        <time>2013-09-28T13:54:13.510Z</time>
      </trkpt>
      <trkpt lat="43.49869" lon="1.46717">
        <ele>271.4</ele>
        <time>2013-09-28T13:54:15.233Z</time>
      </trkpt>
      <trkpt lat="43.49873" lon="1.46723">
        <ele>270</ele>
        <time>2013-09-28T13:54:15.473Z</time>
      </trkpt>
      <trkpt lat="43.49875" lon="1.46733">
        <ele>274.7</ele>
        <time>2013-09-28T13:54:20.209Z</time>
      </trkpt>
      <trkpt lat="43.49875" lon="1.46735">
        <ele>274.3</ele>
        <time>2013-09-28T13:54:20.460Z</time>
      </trkpt>
      <trkpt lat="43.49872" lon="1.46741">
        <ele>275.5</ele>
        <time>2013-09-28T13:54:22.481Z</time>
      </trkpt>
      <trkpt lat="43.49869" lon="1.46745">
        <ele>276</ele>
        <time>2013-09-28T13:54:23.510Z</time>
      </trkpt>
      <trkpt lat="43.49868" lon="1.46752">
        <ele>272.8</ele>
        <time>2013-09-28T13:54:25.230Z</time>
      </trkpt>
      <trkpt lat="43.49868" lon="1.46759">
        <ele>272.1</ele>
        <time>2013-09-28T13:54:25.423Z</time>
      </trkpt>
      <trkpt lat="43.4987" lon="1.46769">
        <ele>268.3</ele>
        <time>2013-09-28T13:54:27.467Z</time>
      </trkpt>
      <trkpt lat="43.49871" lon="1.46771">
        <ele>268.9</ele>
        <time>2013-09-28T13:54:28.466Z</time>
      </trkpt>
      <trkpt lat="43.49872" lon="1.46783">
        <ele>270.5</ele>
        <time>2013-09-28T13:54:32.486Z</time>
      </trkpt>
      <trkpt lat="43.49873" lon="1.46787">
        <ele>270</ele>
        <time>2013-09-28T13:54:33.461Z</time>
      </trkpt>
      <trkpt lat="43.49874" lon="1.46799">
        <ele>272.9</ele>
        <time>2013-09-28T13:54:38.467Z</time>
      </trkpt>
      <trkpt lat="43.49875" lon="1.46801">
        <ele>273.7</ele>
        <time>2013-09-28T13:54:39.516Z</time>
      </trkpt>
      <trkpt lat="43.49878" lon="1.46812">
        <ele>271.2</ele>
        <time>2013-09-28T13:54:42.468Z</time>
      </trkpt>
      <trkpt lat="43.4988" lon="1.46815">
        <ele>273.9</ele>
        <time>2013-09-28T13:54:44.556Z</time>
      </trkpt>
      <trkpt lat="43.49878" lon="1.46825">
        <ele>280.2</ele>
        <time>2013-09-28T13:54:51.458Z</time>
      </trkpt>
      <trkpt lat="43.49878" lon="1.46827">
        <ele>280.5</ele>
        <time>2013-09-28T13:54:52.509Z</time>
      </trkpt>
      <trkpt lat="43.49882" lon="1.46838">
        <ele>280.4</ele>
        <time>2013-09-28T13:54:56.508Z</time>
      </trkpt>
      <trkpt lat="43.49884" lon="1.4684">
        <ele>280.3</ele>
        <time>2013-09-28T13:54:57.463Z</time>
      </trkpt>
      <trkpt lat="43.49889" lon="1.46847">
        <ele>280.5</ele>
        <time>2013-09-28T13:55:00.115Z</time>
      </trkpt>
      <trkpt lat="43.49892" lon="1.4685">
        <ele>279.4</ele>
        <time>2013-09-28T13:55:00.368Z</time>
      </trkpt>
      <trkpt lat="43.49896" lon="1.46859">
        <ele>278.2</ele>
        <time>2013-09-28T13:55:03.460Z</time>
      </trkpt>
      <trkpt lat="43.49898" lon="1.46862">
        <ele>274</ele>
        <time>2013-09-28T13:55:04.426Z</time>
      </trkpt>
      <trkpt lat="43.49904" lon="1.4687">
        <ele>273.4</ele>
        <time>2013-09-28T13:55:07.430Z</time>
      </trkpt>
      <trkpt lat="43.49906" lon="1.46873">
        <ele>272.6</ele>
        <time>2013-09-28T13:55:08.485Z</time>
      </trkpt>
      <trkpt lat="43.49913" lon="1.46878">
        <ele>272.5</ele>
        <time>2013-09-28T13:55:15.218Z</time>
      </trkpt>
      <trkpt lat="43.49914" lon="1.46879">
        <ele>275.6</ele>
        <time>2013-09-28T13:55:16.424Z</time>
      </trkpt>
      <trkpt lat="43.49918" lon="1.46886">
        <ele>270.8</ele>
        <time>2013-09-28T13:55:20.404Z</time>
      </trkpt>
      <trkpt lat="43.49922" lon="1.46892">
        <ele>265.7</ele>
        <time>2013-09-28T13:55:21.374Z</time>
      </trkpt>
      <trkpt lat="43.49925" lon="1.46898">
        <ele>268.1</ele>
        <time>2013-09-28T13:55:22.471Z</time>
      </trkpt>
      <trkpt lat="43.49928" lon="1.46905">
        <ele>266.2</ele>
        <time>2013-09-28T13:55:23.405Z</time>
      </trkpt>
      <trkpt lat="43.49932" lon="1.46912">
        <ele>263.2</ele>
        <time>2013-09-28T13:55:24.655Z</time>
      </trkpt>
      <trkpt lat="43.49934" lon="1.46916">
        <ele>262.3</ele>
        <time>2013-09-28T13:55:25.476Z</time>
      </trkpt>
      <trkpt lat="43.49941" lon="1.46923">
        <ele>270.2</ele>
        <time>2013-09-28T13:55:34.570Z</time>
      </trkpt>
      <trkpt lat="43.49943" lon="1.46927">
        <ele>268.3</ele>
        <time>2013-09-28T13:55:35.502Z</time>
      </trkpt>
      <trkpt lat="43.4995" lon="1.46924">
        <ele>266.6</ele>
        <time>2013-09-28T13:55:38.502Z</time>
      </trkpt>
      <trkpt lat="43.49952" lon="1.46923">
        <ele>267.1</ele>
        <time>2013-09-28T13:55:39.585Z</time>
      </trkpt>
      <trkpt lat="43.49958" lon="1.46929">
        <ele>285.2</ele>
        <time>2013-09-28T13:55:50.399Z</time>
      </trkpt>
      <trkpt lat="43.4996" lon="1.46931">
        <ele>285.4</ele>
        <time>2013-09-28T13:55:51.389Z</time>
      </trkpt>
      <trkpt lat="43.49966" lon="1.46937">
        <ele>280.5</ele>
        <time>2013-09-28T13:55:53.422Z</time>
      </trkpt>
      <trkpt lat="43.49969" lon="1.46941">
        <ele>279.3</ele>
        <time>2013-09-28T13:55:54.375Z</time>
      </trkpt>
      <trkpt lat="43.49974" lon="1.46951">
        <ele>285.3</ele>
        <time>2013-09-28T13:55:56.435Z</time>
      </trkpt>
      <trkpt lat="43.49975" lon="1.46952">
        <ele>287.6</ele>
        <time>2013-09-28T13:55:57.466Z</time>
      </trkpt>
      <trkpt lat="43.49979" lon="1.46958">
        <ele>291.6</ele>
        <time>2013-09-28T13:56:00.443Z</time>
      </trkpt>
      <trkpt lat="43.49982" lon="1.46961">
        <ele>290.4</ele>
        <time>2013-09-28T13:56:01.442Z</time>
      </trkpt>
      <trkpt lat="43.49988" lon="1.46965">
        <ele>295.7</ele>
        <time>2013-09-28T13:56:08.498Z</time>
      </trkpt>
      <trkpt lat="43.49991" lon="1.46967">
        <ele>296.3</ele>
        <time>2013-09-28T13:56:09.432Z</time>
      </trkpt>
      <trkpt lat="43.49999" lon="1.46972">
        <ele>298.5</ele>
        <time>2013-09-28T13:56:13.416Z</time>
      </trkpt>
      <trkpt lat="43.5" lon="1.46973">
        <ele>296.8</ele>
        <time>2013-09-28T13:56:14.479Z</time>
      </trkpt>
      <trkpt lat="43.50007" lon="1.46977">
        <ele>300.7</ele>
        <time>2013-09-28T13:56:18.468Z</time>
      </trkpt>
      <trkpt lat="43.50009" lon="1.46976">
        <ele>301.7</ele>
        <time>2013-09-28T13:56:19.551Z</time>
      </trkpt>
      <trkpt lat="43.50016" lon="1.46983">
        <ele>295.8</ele>
        <time>2013-09-28T13:56:21.521Z</time>
      </trkpt>
      <trkpt lat="43.5002" lon="1.46986">
        <ele>298</ele>
        <time>2013-09-28T13:56:22.465Z</time>
      </trkpt>
      <trkpt lat="43.50026" lon="1.4699">
        <ele>296.5</ele>
        <time>2013-09-28T13:56:23.552Z</time>
      </trkpt>
      <trkpt lat="43.5003" lon="1.46992">
        <ele>298.1</ele>
        <time>2013-09-28T13:56:24.563Z</time>
      </trkpt>
      <trkpt lat="43.50038" lon="1.46996">
        <ele>297.8</ele>
        <time>2013-09-28T13:56:27.473Z</time>
      </trkpt>
      <trkpt lat="43.50039" lon="1.46997">
        <ele>298.2</ele>
        <time>2013-09-28T13:56:28.492Z</time>
      </trkpt>
      <trkpt lat="43.50043" lon="1.47007">
        <ele>297.1</ele>
        <time>2013-09-28T13:56:35.377Z</time>
      </trkpt>
      <trkpt lat="43.50044" lon="1.47011">
        <ele>297.2</ele>
        <time>2013-09-28T13:56:35.476Z</time>
      </trkpt>
      <trkpt lat="43.50048" lon="1.47018">
        <ele>299.7</ele>
        <time>2013-09-28T13:56:38.456Z</time>
      </trkpt>
      <trkpt lat="43.50049" lon="1.47022">
        <ele>298.3</ele>
        <time>2013-09-28T13:56:39.515Z</time>
      </trkpt>
      <trkpt lat="43.50053" lon="1.47031">
        <ele>298.7</ele>
        <time>2013-09-28T13:56:41.519Z</time>
      </trkpt>
      <trkpt lat="43.50054" lon="1.47033">
        <ele>299.4</ele>
        <time>2013-09-28T13:56:42.465Z</time>
      </trkpt>
      <trkpt lat="43.50063" lon="1.47037">
        <ele>298.6</ele>
        <time>2013-09-28T13:56:46.538Z</time>
      </trkpt>
      <trkpt lat="43.50065" lon="1.47039">
        <ele>297.6</ele>
        <time>2013-09-28T13:56:47.541Z</time>
      </trkpt>
      <trkpt lat="43.50069" lon="1.47046">
        <ele>296.2</ele>
        <time>2013-09-28T13:56:50.086Z</time>
      </trkpt>
      <trkpt lat="43.50071" lon="1.47049">
        <ele>297.1</ele>
        <time>2013-09-28T13:56:50.460Z</time>
      </trkpt>
      <trkpt lat="43.50074" lon="1.47059">
        <ele>298.6</ele>
        <time>2013-09-28T13:56:56.486Z</time>
      </trkpt>
      <trkpt lat="43.50076" lon="1.47063">
        <ele>299.3</ele>
        <time>2013-09-28T13:56:57.455Z</time>
      </trkpt>
      <trkpt lat="43.50079" lon="1.47071">
        <ele>306.6</ele>
        <time>2013-09-28T13:57:01.413Z</time>
      </trkpt>
      <trkpt lat="43.50081" lon="1.47074">
        <ele>306.5</ele>
        <time>2013-09-28T13:57:02.493Z</time>
      </trkpt>
      <trkpt lat="43.50084" lon="1.47085">
        <ele>309.1</ele>
        <time>2013-09-28T13:57:07.429Z</time>
      </trkpt>
      <trkpt lat="43.50085" lon="1.47088">
        <ele>309.8</ele>
        <time>2013-09-28T13:57:08.496Z</time>
      </trkpt>
      <trkpt lat="43.5008" lon="1.4709">
        <ele>320.5</ele>
        <time>2013-09-28T13:57:17.414Z</time>
      </trkpt>
      <trkpt lat="43.50081" lon="1.4709">
        <ele>323</ele>
        <time>2013-09-28T13:57:18.531Z</time>
      </trkpt>
      <trkpt lat="43.50081" lon="1.47092">
        <ele>323.3</ele>
        <time>2013-09-28T13:57:19.571Z</time>
      </trkpt>
      <trkpt lat="43.5008" lon="1.47104">
        <ele>322.1</ele>
        <time>2013-09-28T13:57:25.381Z</time>
      </trkpt>
      <trkpt lat="43.5008" lon="1.47105">
        <ele>321.9</ele>
        <time>2013-09-28T13:57:25.530Z</time>
      </trkpt>
      <trkpt lat="43.50084" lon="1.47114">
        <ele>320</ele>
        <time>2013-09-28T13:57:30.537Z</time>
      </trkpt>
      <trkpt lat="43.50085" lon="1.47117">
        <ele>319.5</ele>
        <time>2013-09-28T13:57:31.458Z</time>
      </trkpt>
      <trkpt lat="43.50087" lon="1.47127">
        <ele>316.2</ele>
        <time>2013-09-28T13:57:35.515Z</time>
      </trkpt>
      <trkpt lat="43.50088" lon="1.4713">
        <ele>315.9</ele>
        <time>2013-09-28T13:57:36.397Z</time>
      </trkpt>
      <trkpt lat="43.50093" lon="1.47139">
        <ele>312.7</ele>
        <time>2013-09-28T13:57:41.429Z</time>
      </trkpt>
      <trkpt lat="43.50094" lon="1.47141">
        <ele>313.3</ele>
        <time>2013-09-28T13:57:42.446Z</time>
      </trkpt>
      <trkpt lat="43.50091" lon="1.47149">
        <ele>315.5</ele>
        <time>2013-09-28T13:57:45.696Z</time>
      </trkpt>
      <trkpt lat="43.50091" lon="1.47153">
        <ele>316</ele>
        <time>2013-09-28T13:57:46.408Z</time>
      </trkpt>
      <trkpt lat="43.50092" lon="1.47163">
        <ele>316.7</ele>
        <time>2013-09-28T13:57:50.066Z</time>
      </trkpt>
      <trkpt lat="43.50093" lon="1.47167">
        <ele>314.4</ele>
        <time>2013-09-28T13:57:50.507Z</time>
      </trkpt>
      <trkpt lat="43.50094" lon="1.47179">
        <ele>319.4</ele>
        <time>2013-09-28T13:57:56.497Z</time>
      </trkpt>
      <trkpt lat="43.50094" lon="1.47179">
        <ele>319.2</ele>
        <time>2013-09-28T13:57:57.480Z</time>
      </trkpt>
      <trkpt lat="43.501" lon="1.47187">
        <ele>317</ele>
        <time>2013-09-28T13:58:05.148Z</time>
      </trkpt>
      <trkpt lat="43.501" lon="1.47189">
        <ele>316.1</ele>
        <time>2013-09-28T13:58:05.420Z</time>
      </trkpt>
      <trkpt lat="43.50103" lon="1.472">
        <ele>312.4</ele>
        <time>2013-09-28T13:58:15.250Z</time>
      </trkpt>
      <trkpt lat="43.50103" lon="1.47202">
        <ele>311.8</ele>
        <time>2013-09-28T13:58:15.458Z</time>
      </trkpt>
      <trkpt lat="43.50106" lon="1.47212">
        <ele>311.5</ele>
        <time>2013-09-28T13:58:21.425Z</time>
      </trkpt>
      <trkpt lat="43.50107" lon="1.47214">
        <ele>311.1</ele>
        <time>2013-09-28T13:58:22.548Z</time>
      </trkpt>
      <trkpt lat="43.50112" lon="1.47222">
        <ele>313.2</ele>
        <time>2013-09-28T13:58:30.670Z</time>
      </trkpt>
      <trkpt lat="43.50113" lon="1.47223">
        <ele>312.7</ele>
        <time>2013-09-28T13:58:31.442Z</time>
      </trkpt>
      <trkpt lat="43.50113" lon="1.47235">
        <ele>315</ele>
        <time>2013-09-28T13:58:40.681Z</time>
      </trkpt>
      <trkpt lat="43.50113" lon="1.47236">
        <ele>312.9</ele>
        <time>2013-09-28T13:58:41.441Z</time>
      </trkpt>
      <trkpt lat="43.50119" lon="1.47245">
        <ele>301.1</ele>
        <time>2013-09-28T13:58:45.568Z</time>
      </trkpt>
      <trkpt lat="43.50119" lon="1.47246">
        <ele>301.1</ele>
        <time>2013-09-28T13:58:46.765Z</time>
      </trkpt>
      <trkpt lat="43.50123" lon="1.47256">
        <ele>301.8</ele>
        <time>2013-09-28T13:58:52.425Z</time>
      </trkpt>
      <trkpt lat="43.50125" lon="1.47259">
        <ele>300.5</ele>
        <time>2013-09-28T13:58:53.446Z</time>
      </trkpt>
      <trkpt lat="43.50129" lon="1.47263">
        <ele>297.9</ele>
        <time>2013-09-28T13:58:55.448Z</time>
      </trkpt>
      <trkpt lat="43.50131" lon="1.47267">
        <ele>299.1</ele>
        <time>2013-09-28T13:58:56.461Z</time>
      </trkpt>
      <trkpt lat="43.50134" lon="1.47276">
        <ele>301.7</ele>
        <time>2013-09-28T13:59:00.438Z</time>
      </trkpt>
      <trkpt lat="43.50135" lon="1.47279">
        <ele>301.1</ele>
        <time>2013-09-28T13:59:00.586Z</time>
      </trkpt>
      <trkpt lat="43.50139" lon="1.47284">
        <ele>299.7</ele>
        <time>2013-09-28T13:59:02.429Z</time>
      </trkpt>
      <trkpt lat="43.50141" lon="1.47288">
        <ele>298.7</ele>
        <time>2013-09-28T13:59:03.424Z</time>
      </trkpt>
      <trkpt lat="43.50139" lon="1.47277">
        <ele>293.5</ele>
        <time>2013-09-28T13:59:10.463Z</time>
      </trkpt>
      <trkpt lat="43.50137" lon="1.47276">
        <ele>293.3</ele>
        <time>2013-09-28T13:59:11.406Z</time>
      </trkpt>
      <trkpt lat="43.5013" lon="1.4727">
        <ele>294.9</ele>
        <time>2013-09-28T13:59:20.504Z</time>
      </trkpt>
      <trkpt lat="43.50128" lon="1.47269">
        <ele>294</ele>
        <time>2013-09-28T13:59:21.442Z</time>
      </trkpt>
      <trkpt lat="43.50125" lon="1.4726">
        <ele>295.1</ele>
        <time>2013-09-28T13:59:26.533Z</time>
      </trkpt>
      <trkpt lat="43.50124" lon="1.47257">
        <ele>295.9</ele>
        <time>2013-09-28T13:59:27.531Z</time>
      </trkpt>
      <trkpt lat="43.50121" lon="1.47246">
        <ele>295.3</ele>
        <time>2013-09-28T13:59:30.520Z</time>
      </trkpt>
      <trkpt lat="43.50119" lon="1.47244">
        <ele>295.9</ele>
        <time>2013-09-28T13:59:31.424Z</time>
      </trkpt>
      <trkpt lat="43.50115" lon="1.47233">
        <ele>293.4</ele>
        <time>2013-09-28T13:59:35.693Z</time>
      </trkpt>
      <trkpt lat="43.50115" lon="1.47231">
        <ele>294</ele>
        <time>2013-09-28T13:59:36.446Z</time>
      </trkpt>
      <trkpt lat="43.50114" lon="1.47219">
        <ele>293.5</ele>
        <time>2013-09-28T13:59:40.299Z</time>
      </trkpt>
      <trkpt lat="43.50115" lon="1.47215">
        <ele>292.6</ele>
        <time>2013-09-28T13:59:40.412Z</time>
      </trkpt>
      <trkpt lat="43.50118" lon="1.47204">
        <ele>292</ele>
        <time>2013-09-28T13:59:43.498Z</time>
      </trkpt>
      <trkpt lat="43.50118" lon="1.47202">
        <ele>292.1</ele>
        <time>2013-09-28T13:59:44.410Z</time>
      </trkpt>
      <trkpt lat="43.50116" lon="1.4719">
        <ele>297.8</ele>
        <time>2013-09-28T13:59:51.477Z</time>
      </trkpt>
      <trkpt lat="43.50119" lon="1.47185">
        <ele>294.9</ele>
        <time>2013-09-28T13:59:52.542Z</time>
      </trkpt>
      <trkpt lat="43.50123" lon="1.47178">
        <ele>294.3</ele>
        <time>2013-09-28T13:59:55.121Z</time>
      </trkpt>
      <trkpt lat="43.50125" lon="1.47174">
        <ele>294.1</ele>
        <time>2013-09-28T13:59:55.400Z</time>
      </trkpt>
      <trkpt lat="43.5013" lon="1.47164">
        <ele>295.8</ele>
        <time>2013-09-28T14:00:00.174Z</time>
      </trkpt>
      <trkpt lat="43.50131" lon="1.47161">
        <ele>295.4</ele>
        <time>2013-09-28T14:00:00.411Z</time>
      </trkpt>
      <trkpt lat="43.50132" lon="1.4715">
        <ele>296.5</ele>
        <time>2013-09-28T14:00:05.190Z</time>
      </trkpt>
      <trkpt lat="43.50133" lon="1.47146">
        <ele>296.6</ele>
        <time>2013-09-28T14:00:05.567Z</time>
      </trkpt>
      <trkpt lat="43.50135" lon="1.4714">
        <ele>295.7</ele>
        <time>2013-09-28T14:00:06.446Z</time>
      </trkpt>
      <trkpt lat="43.50137" lon="1.47135">
        <ele>295.3</ele>
        <time>2013-09-28T14:00:07.432Z</time>
      </trkpt>
      <trkpt lat="43.50141" lon="1.47126">
        <ele>296.9</ele>
        <time>2013-09-28T14:00:10.241Z</time>
      </trkpt>
      <trkpt lat="43.50142" lon="1.47121">
        <ele>296.7</ele>
        <time>2013-09-28T14:00:10.503Z</time>
      </trkpt>
      <trkpt lat="43.50147" lon="1.47113">
        <ele>297.8</ele>
        <time>2013-09-28T14:00:13.401Z</time>
      </trkpt>
      <trkpt lat="43.50148" lon="1.47111">
        <ele>298.1</ele>
        <time>2013-09-28T14:00:14.488Z</time>
      </trkpt>
      <trkpt lat="43.50151" lon="1.47101">
        <ele>295.9</ele>
        <time>2013-09-28T14:00:17.438Z</time>
      </trkpt>
      <trkpt lat="43.50151" lon="1.47094">
        <ele>295</ele>
        <time>2013-09-28T14:00:18.496Z</time>
      </trkpt>
      <trkpt lat="43.50153" lon="1.47086">
        <ele>296.1</ele>
        <time>2013-09-28T14:00:25.247Z</time>
      </trkpt>
      <trkpt lat="43.50157" lon="1.47083">
        <ele>293.8</ele>
        <time>2013-09-28T14:00:25.370Z</time>
      </trkpt>
      <trkpt lat="43.50161" lon="1.47079">
        <ele>291.8</ele>
        <time>2013-09-28T14:00:27.423Z</time>
      </trkpt>
      <trkpt lat="43.50163" lon="1.47074">
        <ele>291.1</ele>
        <time>2013-09-28T14:00:28.443Z</time>
      </trkpt>
      <trkpt lat="43.50166" lon="1.47063">
        <ele>289.8</ele>
        <time>2013-09-28T14:00:30.697Z</time>
      </trkpt>
      <trkpt lat="43.50168" lon="1.47059">
        <ele>290.7</ele>
        <time>2013-09-28T14:00:31.452Z</time>
      </trkpt>
      <trkpt lat="43.50172" lon="1.47048">
        <ele>291.3</ele>
        <time>2013-09-28T14:00:33.432Z</time>
      </trkpt>
      <trkpt lat="43.50175" lon="1.47041">
        <ele>291.8</ele>
        <time>2013-09-28T14:00:34.527Z</time>
      </trkpt>
      <trkpt lat="43.50176" lon="1.47035">
        <ele>292.1</ele>
        <time>2013-09-28T14:00:35.442Z</time>
      </trkpt>
      <trkpt lat="43.50178" lon="1.47028">
        <ele>292.6</ele>
        <time>2013-09-28T14:00:36.480Z</time>
      </trkpt>
      <trkpt lat="43.50181" lon="1.47017">
        <ele>289.4</ele>
        <time>2013-09-28T14:00:42.423Z</time>
      </trkpt>
      <trkpt lat="43.50182" lon="1.47015">
        <ele>289</ele>
        <time>2013-09-28T14:00:43.386Z</time>
      </trkpt>
      <trkpt lat="43.50187" lon="1.47006">
        <ele>287.1</ele>
        <time>2013-09-28T14:00:45.640Z</time>
      </trkpt>
      <trkpt lat="43.50187" lon="1.47003">
        <ele>285.3</ele>
        <time>2013-09-28T14:00:46.386Z</time>
      </trkpt>
      <trkpt lat="43.50192" lon="1.4701">
        <ele>291.3</ele>
        <time>2013-09-28T14:00:51.386Z</time>
      </trkpt>
      <trkpt lat="43.50195" lon="1.47011">
        <ele>291.1</ele>
        <time>2013-09-28T14:00:52.580Z</time>
      </trkpt>
      <trkpt lat="43.50202" lon="1.47014">
        <ele>295.2</ele>
        <time>2013-09-28T14:00:57.445Z</time>
      </trkpt>
      <trkpt lat="43.50205" lon="1.47016">
        <ele>295.2</ele>
        <time>2013-09-28T14:00:58.440Z</time>
      </trkpt>
      <trkpt lat="43.50213" lon="1.47021">
        <ele>295.6</ele>
        <time>2013-09-28T14:01:02.225Z</time>
      </trkpt>
      <trkpt lat="43.50215" lon="1.47022">
        <ele>295.1</ele>
        <time>2013-09-28T14:01:02.433Z</time>
      </trkpt>
      <trkpt lat="43.50222" lon="1.47021">
        <ele>295.5</ele>
        <time>2013-09-28T14:01:05.385Z</time>
      </trkpt>
      <trkpt lat="43.50225" lon="1.4702">
        <ele>296.8</ele>
        <time>2013-09-28T14:01:06.470Z</time>
      </trkpt>
      <trkpt lat="43.50231" lon="1.47023">
        <ele>294.5</ele>
        <time>2013-09-28T14:01:08.453Z</time>
      </trkpt>
      <trkpt lat="43.50235" lon="1.47028">
        <ele>293.4</ele>
        <time>2013-09-28T14:01:09.535Z</time>
      </trkpt>
      <trkpt lat="43.50241" lon="1.47034">
        <ele>290.5</ele>
        <time>2013-09-28T14:01:11.462Z</time>
      </trkpt>
      <trkpt lat="43.50243" lon="1.47035">
        <ele>291.1</ele>
        <time>2013-09-28T14:01:12.436Z</time>
      </trkpt>
      <trkpt lat="43.50251" lon="1.47034">
        <ele>293.9</ele>
        <time>2013-09-28T14:01:16.467Z</time>
      </trkpt>
      <trkpt lat="43.50252" lon="1.47034">
        <ele>294.8</ele>
        <time>2013-09-28T14:01:17.454Z</time>
      </trkpt>
      <trkpt lat="43.50256" lon="1.47043">
        <ele>293.7</ele>
        <time>2013-09-28T14:01:20.289Z</time>
      </trkpt>
      <trkpt lat="43.50258" lon="1.47046">
        <ele>293.4</ele>
        <time>2013-09-28T14:01:20.483Z</time>
      </trkpt>
      <trkpt lat="43.50262" lon="1.47053">
        <ele>293.7</ele>
        <time>2013-09-28T14:01:23.440Z</time>
      </trkpt>
      <trkpt lat="43.50263" lon="1.47057">
        <ele>294.4</ele>
        <time>2013-09-28T14:01:24.535Z</time>
      </trkpt>
      <trkpt lat="43.50265" lon="1.47065">
        <ele>293.4</ele>
        <time>2013-09-28T14:01:26.442Z</time>
      </trkpt>
      <trkpt lat="43.50267" lon="1.47068">
        <ele>293.8</ele>
        <time>2013-09-28T14:01:27.448Z</time>
      </trkpt>
      <trkpt lat="43.50272" lon="1.47075">
        <ele>294</ele>
        <time>2013-09-28T14:01:30.494Z</time>
      </trkpt>
      <trkpt lat="43.50273" lon="1.47079">
        <ele>293.6</ele>
        <time>2013-09-28T14:01:31.448Z</time>
      </trkpt>
      <trkpt lat="43.50277" lon="1.47086">
        <ele>292.3</ele>
        <time>2013-09-28T14:01:33.473Z</time>
      </trkpt>
      <trkpt lat="43.50279" lon="1.4709">
        <ele>293</ele>
        <time>2013-09-28T14:01:34.520Z</time>
      </trkpt>
      <trkpt lat="43.50285" lon="1.47099">
        <ele>293.4</ele>
        <time>2013-09-28T14:01:37.449Z</time>
      </trkpt>
      <trkpt lat="43.50287" lon="1.47102">
        <ele>293.8</ele>
        <time>2013-09-28T14:01:38.461Z</time>
      </trkpt>
      <trkpt lat="43.50292" lon="1.4711">
        <ele>293.4</ele>
        <time>2013-09-28T14:01:41.476Z</time>
      </trkpt>
      <trkpt lat="43.50293" lon="1.47112">
        <ele>295.1</ele>
        <time>2013-09-28T14:01:42.471Z</time>
      </trkpt>
      <trkpt lat="43.50297" lon="1.47119">
        <ele>294.5</ele>
        <time>2013-09-28T14:01:45.381Z</time>
      </trkpt>
      <trkpt lat="43.50299" lon="1.47122">
        <ele>295</ele>
        <time>2013-09-28T14:01:46.532Z</time>
      </trkpt>
      <trkpt lat="43.50302" lon="1.47131">
        <ele>295.5</ele>
        <time>2013-09-28T14:01:50.171Z</time>
      </trkpt>
      <trkpt lat="43.50303" lon="1.47136">
        <ele>294.4</ele>
        <time>2013-09-28T14:01:50.394Z</time>
      </trkpt>
      <trkpt lat="43.50304" lon="1.47145">
        <ele>294.7</ele>
        <time>2013-09-28T14:01:52.616Z</time>
      </trkpt>
      <trkpt lat="43.50303" lon="1.47149">
        <ele>295.1</ele>
        <time>2013-09-28T14:01:53.473Z</time>
      </trkpt>
      <trkpt lat="43.50301" lon="1.47157">
        <ele>294.5</ele>
        <time>2013-09-28T14:01:55.446Z</time>
      </trkpt>
      <trkpt lat="43.503" lon="1.47161">
        <ele>294.1</ele>
        <time>2013-09-28T14:01:56.483Z</time>
      </trkpt>
      <trkpt lat="43.50299" lon="1.47172">
        <ele>295.3</ele>
        <time>2013-09-28T14:02:00.101Z</time>
      </trkpt>
      <trkpt lat="43.50298" lon="1.47175">
        <ele>294.3</ele>
        <time>2013-09-28T14:02:00.412Z</time>
      </trkpt>
      <trkpt lat="43.50295" lon="1.47186">
        <ele>296.9</ele>
        <time>2013-09-28T14:02:05.159Z</time>
      </trkpt>
      <trkpt lat="43.50294" lon="1.4719">
        <ele>298</ele>
        <time>2013-09-28T14:02:05.427Z</time>
      </trkpt>
      <trkpt lat="43.50291" lon="1.472">
        <ele>298</ele>
        <time>2013-09-28T14:02:08.470Z</time>
      </trkpt>
      <trkpt lat="43.50291" lon="1.47204">
        <ele>298.2</ele>
        <time>2013-09-28T14:02:09.501Z</time>
      </trkpt>
      <trkpt lat="43.50288" lon="1.47213">
        <ele>299.5</ele>
        <time>2013-09-28T14:02:12.459Z</time>
      </trkpt>
      <trkpt lat="43.50288" lon="1.47216">
        <ele>300.1</ele>
        <time>2013-09-28T14:02:13.425Z</time>
      </trkpt>
      <trkpt lat="43.50286" lon="1.47225">
        <ele>299.6</ele>
        <time>2013-09-28T14:02:16.437Z</time>
      </trkpt>
      <trkpt lat="43.50285" lon="1.47229">
        <ele>299.6</ele>
        <time>2013-09-28T14:02:17.429Z</time>
      </trkpt>
      <trkpt lat="43.50283" lon="1.47238">
        <ele>299.5</ele>
        <time>2013-09-28T14:02:20.551Z</time>
      </trkpt>
      <trkpt lat="43.50282" lon="1.4724">
        <ele>299.7</ele>
        <time>2013-09-28T14:02:21.581Z</time>
      </trkpt>
      <trkpt lat="43.5028" lon="1.47252">
        <ele>301.7</ele>
        <time>2013-09-28T14:02:25.974Z</time>
      </trkpt>
      <trkpt lat="43.5028" lon="1.47254">
        <ele>301.4</ele>
        <time>2013-09-28T14:02:26.386Z</time>
      </trkpt>
      <trkpt lat="43.5028" lon="1.47264">
        <ele>300.8</ele>
        <time>2013-09-28T14:02:30.553Z</time>
      </trkpt>
      <trkpt lat="43.5028" lon="1.47267">
        <ele>300.4</ele>
        <time>2013-09-28T14:02:30.758Z</time>
      </trkpt>
      <trkpt lat="43.50282" lon="1.47277">
        <ele>301.9</ele>
        <time>2013-09-28T14:02:35.621Z</time>
      </trkpt>
      <trkpt lat="43.50284" lon="1.47279">
        <ele>302.5</ele>
        <time>2013-09-28T14:02:36.502Z</time>
      </trkpt>
      <trkpt lat="43.50291" lon="1.47282">
        <ele>308</ele>
        <time>2013-09-28T14:02:40.595Z</time>
      </trkpt>
      <trkpt lat="43.50293" lon="1.47283">
        <ele>308.9</ele>
        <time>2013-09-28T14:02:41.482Z</time>
      </trkpt>
      <trkpt lat="43.50301" lon="1.47289">
        <ele>310.9</ele>
        <time>2013-09-28T14:02:45.668Z</time>
      </trkpt>
      <trkpt lat="43.50303" lon="1.4729">
        <ele>311.5</ele>
        <time>2013-09-28T14:02:46.466Z</time>
      </trkpt>
      <trkpt lat="43.5031" lon="1.47294">
        <ele>312</ele>
        <time>2013-09-28T14:02:50.231Z</time>
      </trkpt>
      <trkpt lat="43.50314" lon="1.47297">
        <ele>312.8</ele>
        <time>2013-09-28T14:02:51.448Z</time>
      </trkpt>
      <trkpt lat="43.50318" lon="1.47302">
        <ele>311.7</ele>
        <time>2013-09-28T14:02:53.464Z</time>
      </trkpt>
      <trkpt lat="43.50321" lon="1.47305">
        <ele>311.5</ele>
        <time>2013-09-28T14:02:54.403Z</time>
      </trkpt>
      <trkpt lat="43.50327" lon="1.4731">
        <ele>313.2</ele>
        <time>2013-09-28T14:02:57.463Z</time>
      </trkpt>
      <trkpt lat="43.50329" lon="1.47311">
        <ele>312.3</ele>
        <time>2013-09-28T14:02:58.469Z</time>
      </trkpt>
      <trkpt lat="43.50336" lon="1.47316">
        <ele>311.5</ele>
        <time>2013-09-28T14:03:01.811Z</time>
      </trkpt>
      <trkpt lat="43.50337" lon="1.47317">
        <ele>312.2</ele>
        <time>2013-09-28T14:03:02.431Z</time>
      </trkpt>
      <trkpt lat="43.50343" lon="1.47323">
        <ele>312.8</ele>
        <time>2013-09-28T14:03:05.401Z</time>
      </trkpt>
      <trkpt lat="43.50345" lon="1.47325">
        <ele>312.7</ele>
        <time>2013-09-28T14:03:06.454Z</time>
      </trkpt>
      <trkpt lat="43.50351" lon="1.47333">
        <ele>307.7</ele>
        <time>2013-09-28T14:03:08.470Z</time>
      </trkpt>
      <trkpt lat="43.50354" lon="1.47335">
        <ele>307</ele>
        <time>2013-09-28T14:03:09.452Z</time>
      </trkpt>
      <trkpt lat="43.50361" lon="1.47341">
        <ele>304.3</ele>
        <time>2013-09-28T14:03:12.421Z</time>
      </trkpt>
      <trkpt lat="43.50363" lon="1.47344">
        <ele>303.8</ele>
        <time>2013-09-28T14:03:13.393Z</time>
      </trkpt>
      <trkpt lat="43.50369" lon="1.47352">
        <ele>301.4</ele>
        <time>2013-09-28T14:03:17.390Z</time>
      </trkpt>
      <trkpt lat="43.50371" lon="1.47355">
        <ele>301.6</ele>
        <time>2013-09-28T14:03:18.451Z</time>
      </trkpt>
      <trkpt lat="43.50377" lon="1.47361">
        <ele>300.2</ele>
        <time>2013-09-28T14:03:21.453Z</time>
      </trkpt>
      <trkpt lat="43.5038" lon="1.47363">
        <ele>301.2</ele>
        <time>2013-09-28T14:03:22.486Z</time>
      </trkpt>
      <trkpt lat="43.50387" lon="1.4737">
        <ele>300.8</ele>
        <time>2013-09-28T14:03:25.533Z</time>
      </trkpt>
      <trkpt lat="43.50389" lon="1.47372">
        <ele>300.1</ele>
        <time>2013-09-28T14:03:26.490Z</time>
      </trkpt>
      <trkpt lat="43.50395" lon="1.47378">
        <ele>301.4</ele>
        <time>2013-09-28T14:03:30.588Z</time>
      </trkpt>
      <trkpt lat="43.50397" lon="1.4738">
        <ele>301.5</ele>
        <time>2013-09-28T14:03:31.406Z</time>
      </trkpt>
      <trkpt lat="43.50404" lon="1.47386">
        <ele>302</ele>
        <time>2013-09-28T14:03:35.403Z</time>
      </trkpt>
      <trkpt lat="43.50408" lon="1.47391">
        <ele>301.3</ele>
        <time>2013-09-28T14:03:36.420Z</time>
      </trkpt>
      <trkpt lat="43.50413" lon="1.474">
        <ele>299.8</ele>
        <time>2013-09-28T14:03:38.475Z</time>
      </trkpt>
      <trkpt lat="43.50415" lon="1.47401">
        <ele>301.8</ele>
        <time>2013-09-28T14:03:39.467Z</time>
      </trkpt>
      <trkpt lat="43.50423" lon="1.47405">
        <ele>302.3</ele>
        <time>2013-09-28T14:03:43.491Z</time>
      </trkpt>
      <trkpt lat="43.50425" lon="1.47407">
        <ele>302.2</ele>
        <time>2013-09-28T14:03:44.467Z</time>
      </trkpt>
      <trkpt lat="43.50433" lon="1.47413">
        <ele>302.7</ele>
        <time>2013-09-28T14:03:47.464Z</time>
      </trkpt>
      <trkpt lat="43.50435" lon="1.47415">
        <ele>303.8</ele>
        <time>2013-09-28T14:03:48.465Z</time>
      </trkpt>
      <trkpt lat="43.50441" lon="1.47421">
        <ele>306.1</ele>
        <time>2013-09-28T14:03:51.468Z</time>
      </trkpt>
      <trkpt lat="43.50443" lon="1.47423">
        <ele>306.8</ele>
        <time>2013-09-28T14:03:52.467Z</time>
      </trkpt>
      <trkpt lat="43.50449" lon="1.47429">
        <ele>307.9</ele>
        <time>2013-09-28T14:03:56.473Z</time>
      </trkpt>
      <trkpt lat="43.50451" lon="1.47431">
        <ele>307.8</ele>
        <time>2013-09-28T14:03:57.464Z</time>
      </trkpt>
      <trkpt lat="43.50457" lon="1.47436">
        <ele>311.2</ele>
        <time>2013-09-28T14:04:01.426Z</time>
      </trkpt>
      <trkpt lat="43.5046" lon="1.47437">
        <ele>312.5</ele>
        <time>2013-09-28T14:04:03.466Z</time>
      </trkpt>
      <trkpt lat="43.50467" lon="1.47443">
        <ele>312.6</ele>
        <time>2013-09-28T14:04:07.485Z</time>
      </trkpt>
      <trkpt lat="43.50469" lon="1.47444">
        <ele>312.6</ele>
        <time>2013-09-28T14:04:08.466Z</time>
      </trkpt>
      <trkpt lat="43.50478" lon="1.47447">
        <ele>312.2</ele>
        <time>2013-09-28T14:04:13.461Z</time>
      </trkpt>
      <trkpt lat="43.5048" lon="1.47447">
        <ele>312.9</ele>
        <time>2013-09-28T14:04:14.578Z</time>
      </trkpt>
      <trkpt lat="43.50486" lon="1.47455">
        <ele>315.8</ele>
        <time>2013-09-28T14:04:22.466Z</time>
      </trkpt>
      <trkpt lat="43.50486" lon="1.47457">
        <ele>315.6</ele>
        <time>2013-09-28T14:04:23.503Z</time>
      </trkpt>
      <trkpt lat="43.50487" lon="1.47455">
        <ele>314.6</ele>
        <time>2013-09-28T14:04:33.518Z</time>
      </trkpt>
      <trkpt lat="43.50487" lon="1.47455">
        <ele>314.4</ele>
        <time>2013-09-28T14:04:34.460Z</time>
      </trkpt>
      <trkpt lat="43.50488" lon="1.47455">
        <ele>313.9</ele>
        <time>2013-09-28T14:04:35.671Z</time>
      </trkpt>
      <trkpt lat="43.50488" lon="1.47455">
        <ele>313.8</ele>
        <time>2013-09-28T14:04:36.465Z</time>
      </trkpt>
      <trkpt lat="43.50489" lon="1.47455">
        <ele>313.6</ele>
        <time>2013-09-28T14:04:39.423Z</time>
      </trkpt>
      <trkpt lat="43.50489" lon="1.47455">
        <ele>313.6</ele>
        <time>2013-09-28T14:04:40.551Z</time>
      </trkpt>
      <trkpt lat="43.50489" lon="1.47455">
        <ele>313.6</ele>
        <time>2013-09-28T14:04:45.830Z</time>
      </trkpt>
      <trkpt lat="43.50489" lon="1.47454">
        <ele>314.8</ele>
        <time>2013-09-28T14:04:46.527Z</time>
      </trkpt>
      <trkpt lat="43.50497" lon="1.47455">
        <ele>314.1</ele>
        <time>2013-09-28T14:04:48.468Z</time>
      </trkpt>
      <trkpt lat="43.505" lon="1.47454">
        <ele>313.7</ele>
        <time>2013-09-28T14:04:49.622Z</time>
      </trkpt>
      <trkpt lat="43.50507" lon="1.47455">
        <ele>312.3</ele>
        <time>2013-09-28T14:04:52.410Z</time>
      </trkpt>
      <trkpt lat="43.5051" lon="1.47455">
        <ele>312</ele>
        <time>2013-09-28T14:04:53.401Z</time>
      </trkpt>
      <trkpt lat="43.50516" lon="1.47458">
        <ele>309.5</ele>
        <time>2013-09-28T14:04:55.528Z</time>
      </trkpt>
      <trkpt lat="43.50519" lon="1.47459">
        <ele>308.9</ele>
        <time>2013-09-28T14:04:56.380Z</time>
      </trkpt>
      <trkpt lat="43.50526" lon="1.47465">
        <ele>308.3</ele>
        <time>2013-09-28T14:04:58.420Z</time>
      </trkpt>
      <trkpt lat="43.5053" lon="1.47468">
        <ele>308</ele>
        <time>2013-09-28T14:04:59.437Z</time>
      </trkpt>
      <trkpt lat="43.50536" lon="1.47472">
        <ele>308.3</ele>
        <time>2013-09-28T14:05:01.421Z</time>
      </trkpt>
      <trkpt lat="43.50539" lon="1.47473">
        <ele>309.1</ele>
        <time>2013-09-28T14:05:02.557Z</time>
      </trkpt>
      <trkpt lat="43.50548" lon="1.47474">
        <ele>310.6</ele>
        <time>2013-09-28T14:05:07.193Z</time>
      </trkpt>
      <trkpt lat="43.50549" lon="1.47474">
        <ele>311</ele>
        <time>2013-09-28T14:05:07.453Z</time>
      </trkpt>
      <trkpt lat="43.50558" lon="1.47476">
        <ele>313.3</ele>
        <time>2013-09-28T14:05:12.456Z</time>
      </trkpt>
      <trkpt lat="43.50559" lon="1.47477">
        <ele>314.3</ele>
        <time>2013-09-28T14:05:13.471Z</time>
      </trkpt>
      <trkpt lat="43.50565" lon="1.47483">
        <ele>312.8</ele>
        <time>2013-09-28T14:05:16.506Z</time>
      </trkpt>
      <trkpt lat="43.50568" lon="1.47483">
        <ele>312.1</ele>
        <time>2013-09-28T14:05:17.473Z</time>
      </trkpt>
      <trkpt lat="43.50575" lon="1.47482">
        <ele>311.9</ele>
        <time>2013-09-28T14:05:20.685Z</time>
      </trkpt>
      <trkpt lat="43.50578" lon="1.47483">
        <ele>311.8</ele>
        <time>2013-09-28T14:05:21.472Z</time>
      </trkpt>
      <trkpt lat="43.50586" lon="1.47485">
        <ele>315.8</ele>
        <time>2013-09-28T14:05:25.644Z</time>
      </trkpt>
      <trkpt lat="43.50588" lon="1.47486">
        <ele>315.5</ele>
        <time>2013-09-28T14:05:26.459Z</time>
      </trkpt>
      <trkpt lat="43.50595" lon="1.47489">
        <ele>316.1</ele>
        <time>2013-09-28T14:05:29.478Z</time>
      </trkpt>
      <trkpt lat="43.50598" lon="1.4749">
        <ele>316</ele>
        <time>2013-09-28T14:05:30.470Z</time>
      </trkpt>
      <trkpt lat="43.50605" lon="1.47492">
        <ele>316.4</ele>
        <time>2013-09-28T14:05:33.470Z</time>
      </trkpt>
      <trkpt lat="43.50607" lon="1.47494">
        <ele>316.8</ele>
        <time>2013-09-28T14:05:34.533Z</time>
      </trkpt>
      <trkpt lat="43.50616" lon="1.47493">
        <ele>319.1</ele>
        <time>2013-09-28T14:05:38.468Z</time>
      </trkpt>
      <trkpt lat="43.50618" lon="1.47492">
        <ele>321</ele>
        <time>2013-09-28T14:05:39.472Z</time>
      </trkpt>
      <trkpt lat="43.50626" lon="1.4749">
        <ele>323</ele>
        <time>2013-09-28T14:05:43.478Z</time>
      </trkpt>
      <trkpt lat="43.50629" lon="1.4749">
        <ele>322.2</ele>
        <time>2013-09-28T14:05:44.488Z</time>
      </trkpt>
      <trkpt lat="43.50636" lon="1.47488">
        <ele>320.3</ele>
        <time>2013-09-28T14:05:47.478Z</time>
      </trkpt>
      <trkpt lat="43.50638" lon="1.47486">
        <ele>320.7</ele>
        <time>2013-09-28T14:05:48.516Z</time>
      </trkpt>
      <trkpt lat="43.50644" lon="1.47486">
        <ele>317.7</ele>
        <time>2013-09-28T14:05:50.391Z</time>
      </trkpt>
      <trkpt lat="43.50648" lon="1.47485">
        <ele>316.5</ele>
        <time>2013-09-28T14:05:51.450Z</time>
      </trkpt>
      <trkpt lat="43.50655" lon="1.47484">
        <ele>315.2</ele>
        <time>2013-09-28T14:05:55.102Z</time>
      </trkpt>
      <trkpt lat="43.50658" lon="1.47485">
        <ele>314.7</ele>
        <time>2013-09-28T14:05:55.503Z</time>
      </trkpt>
      <trkpt lat="43.50665" lon="1.47482">
        <ele>314.8</ele>
        <time>2013-09-28T14:06:00.257Z</time>
      </trkpt>
      <trkpt lat="43.50667" lon="1.47482">
        <ele>315.2</ele>
        <time>2013-09-28T14:06:00.372Z</time>
      </trkpt>
      <trkpt lat="43.50674" lon="1.47479">
        <ele>317.5</ele>
        <time>2013-09-28T14:06:03.542Z</time>
      </trkpt>
      <trkpt lat="43.50676" lon="1.47478">
        <ele>317.2</ele>
        <time>2013-09-28T14:06:04.411Z</time>
      </trkpt>
      <trkpt lat="43.50684" lon="1.47474">
        <ele>320.1</ele>
        <time>2013-09-28T14:06:10.282Z</time>
      </trkpt>
      <trkpt lat="43.50686" lon="1.47473">
        <ele>319.8</ele>
        <time>2013-09-28T14:06:10.388Z</time>
      </trkpt>
      <trkpt lat="43.50694" lon="1.47468">
        <ele>318.5</ele>
        <time>2013-09-28T14:06:15.403Z</time>
      </trkpt>
      <trkpt lat="43.50696" lon="1.47467">
        <ele>319</ele>
        <time>2013-09-28T14:06:15.612Z</time>
      </trkpt>
      <trkpt lat="43.50703" lon="1.47463">
        <ele>320.3</ele>
        <time>2013-09-28T14:06:20.370Z</time>
      </trkpt>
      <trkpt lat="43.50706" lon="1.47462">
        <ele>320.1</ele>
        <time>2013-09-28T14:06:20.473Z</time>
      </trkpt>
      <trkpt lat="43.50714" lon="1.47458">
        <ele>322.2</ele>
        <time>2013-09-28T14:06:25.479Z</time>
      </trkpt>
      <trkpt lat="43.50716" lon="1.47456">
        <ele>322.5</ele>
        <time>2013-09-28T14:06:25.680Z</time>
      </trkpt>
      <trkpt lat="43.50723" lon="1.4745">
        <ele>323.5</ele>
        <time>2013-09-28T14:06:30.434Z</time>
      </trkpt>
      <trkpt lat="43.50725" lon="1.47449">
        <ele>323.4</ele>
        <time>2013-09-28T14:06:30.532Z</time>
      </trkpt>
      <trkpt lat="43.50732" lon="1.47446">
        <ele>323.8</ele>
        <time>2013-09-28T14:06:35.446Z</time>
      </trkpt>
      <trkpt lat="43.50734" lon="1.47444">
        <ele>323.6</ele>
        <time>2013-09-28T14:06:35.623Z</time>
      </trkpt>
      <trkpt lat="43.50739" lon="1.47437">
        <ele>323.2</ele>
        <time>2013-09-28T14:06:40.337Z</time>
      </trkpt>
      <trkpt lat="43.50741" lon="1.47435">
        <ele>322.8</ele>
        <time>2013-09-28T14:06:40.447Z</time>
      </trkpt>
      <trkpt lat="43.50746" lon="1.47428">
        <ele>323</ele>
        <time>2013-09-28T14:06:43.489Z</time>
      </trkpt>
      <trkpt lat="43.50748" lon="1.47426">
        <ele>323.1</ele>
        <time>2013-09-28T14:06:44.448Z</time>
      </trkpt>
      <trkpt lat="43.50754" lon="1.47418">
        <ele>324.1</ele>
        <time>2013-09-28T14:06:48.489Z</time>
      </trkpt>
      <trkpt lat="43.50756" lon="1.47416">
        <ele>323.9</ele>
        <time>2013-09-28T14:06:49.515Z</time>
      </trkpt>
      <trkpt lat="43.50761" lon="1.47409">
        <ele>323.2</ele>
        <time>2013-09-28T14:06:52.493Z</time>
      </trkpt>
      <trkpt lat="43.50763" lon="1.47407">
        <ele>323.5</ele>
        <time>2013-09-28T14:06:53.472Z</time>
      </trkpt>
      <trkpt lat="43.50769" lon="1.47399">
        <ele>324.5</ele>
        <time>2013-09-28T14:06:57.423Z</time>
      </trkpt>
      <trkpt lat="43.50771" lon="1.47397">
        <ele>324.9</ele>
        <time>2013-09-28T14:06:58.376Z</time>
      </trkpt>
      <trkpt lat="43.50778" lon="1.47392">
        <ele>327.4</ele>
        <time>2013-09-28T14:07:02.419Z</time>
      </trkpt>
      <trkpt lat="43.5078" lon="1.47392">
        <ele>327.5</ele>
        <time>2013-09-28T14:07:03.426Z</time>
      </trkpt>
      <trkpt lat="43.50786" lon="1.47391">
        <ele>332.5</ele>
        <time>2013-09-28T14:07:06.420Z</time>
      </trkpt>
      <trkpt lat="43.50789" lon="1.47392">
        <ele>332.5</ele>
        <time>2013-09-28T14:07:07.606Z</time>
      </trkpt>
      <trkpt lat="43.50797" lon="1.47396">
        <ele>333.8</ele>
        <time>2013-09-28T14:07:10.690Z</time>
      </trkpt>
      <trkpt lat="43.50799" lon="1.47397">
        <ele>334.7</ele>
        <time>2013-09-28T14:07:11.457Z</time>
      </trkpt>
      <trkpt lat="43.50806" lon="1.474">
        <ele>335.6</ele>
        <time>2013-09-28T14:07:15.351Z</time>
      </trkpt>
      <trkpt lat="43.50809" lon="1.47401">
        <ele>336.7</ele>
        <time>2013-09-28T14:07:15.516Z</time>
      </trkpt>
      <trkpt lat="43.50817" lon="1.47405">
        <ele>335.1</ele>
        <time>2013-09-28T14:07:18.473Z</time>
      </trkpt>
      <trkpt lat="43.5082" lon="1.47407">
        <ele>335.6</ele>
        <time>2013-09-28T14:07:19.491Z</time>
      </trkpt>
      <trkpt lat="43.50827" lon="1.47408">
        <ele>336.9</ele>
        <time>2013-09-28T14:07:22.471Z</time>
      </trkpt>
      <trkpt lat="43.50829" lon="1.47409">
        <ele>336.5</ele>
        <time>2013-09-28T14:07:23.464Z</time>
      </trkpt>
      <trkpt lat="43.50838" lon="1.47411">
        <ele>335.4</ele>
        <time>2013-09-28T14:07:27.476Z</time>
      </trkpt>
      <trkpt lat="43.5084" lon="1.47411">
        <ele>334.6</ele>
        <time>2013-09-28T14:07:28.467Z</time>
      </trkpt>
      <trkpt lat="43.50849" lon="1.47413">
        <ele>337.5</ele>
        <time>2013-09-28T14:07:32.431Z</time>
      </trkpt>
      <trkpt lat="43.50851" lon="1.47413">
        <ele>339.2</ele>
        <time>2013-09-28T14:07:33.387Z</time>
      </trkpt>
      <trkpt lat="43.50858" lon="1.47413">
        <ele>337.5</ele>
        <time>2013-09-28T14:07:36.467Z</time>
      </trkpt>
      <trkpt lat="43.50861" lon="1.47414">
        <ele>336.5</ele>
        <time>2013-09-28T14:07:37.451Z</time>
      </trkpt>
      <trkpt lat="43.50868" lon="1.4742">
        <ele>335.2</ele>
        <time>2013-09-28T14:07:40.462Z</time>
      </trkpt>
      <trkpt lat="43.50871" lon="1.47424">
        <ele>334.8</ele>
        <time>2013-09-28T14:07:40.657Z</time>
      </trkpt>
      <trkpt lat="43.50877" lon="1.47428">
        <ele>335.6</ele>
        <time>2013-09-28T14:07:42.528Z</time>
      </trkpt>
      <trkpt lat="43.5088" lon="1.47429">
        <ele>335.5</ele>
        <time>2013-09-28T14:07:43.467Z</time>
      </trkpt>
      <trkpt lat="43.50887" lon="1.47428">
        <ele>334.2</ele>
        <time>2013-09-28T14:07:46.457Z</time>
      </trkpt>
      <trkpt lat="43.50889" lon="1.47427">
        <ele>334.1</ele>
        <time>2013-09-28T14:07:47.471Z</time>
      </trkpt>
      <trkpt lat="43.50897" lon="1.47427">
        <ele>334.6</ele>
        <time>2013-09-28T14:07:51.848Z</time>
      </trkpt>
      <trkpt lat="43.50898" lon="1.47428">
        <ele>335.3</ele>
        <time>2013-09-28T14:07:52.427Z</time>
      </trkpt>
      <trkpt lat="43.50905" lon="1.47427">
        <ele>336.4</ele>
        <time>2013-09-28T14:07:55.427Z</time>
      </trkpt>
      <trkpt lat="43.50908" lon="1.47425">
        <ele>335.9</ele>
        <time>2013-09-28T14:07:56.592Z</time>
      </trkpt>
      <trkpt lat="43.50914" lon="1.47426">
        <ele>331.9</ele>
        <time>2013-09-28T14:07:58.503Z</time>
      </trkpt>
      <trkpt lat="43.50919" lon="1.47429">
        <ele>329.6</ele>
        <time>2013-09-28T14:07:59.418Z</time>
      </trkpt>
      <trkpt lat="43.50926" lon="1.47435">
        <ele>328.1</ele>
        <time>2013-09-28T14:08:03.463Z</time>
      </trkpt>
      <trkpt lat="43.50927" lon="1.47438">
        <ele>329.6</ele>
        <time>2013-09-28T14:08:04.484Z</time>
      </trkpt>
      <trkpt lat="43.50932" lon="1.47436">
        <ele>328.1</ele>
        <time>2013-09-28T14:08:10.442Z</time>
      </trkpt>
      <trkpt lat="43.50936" lon="1.47433">
        <ele>328.7</ele>
        <time>2013-09-28T14:08:10.628Z</time>
      </trkpt>
      <trkpt lat="43.50943" lon="1.47429">
        <ele>330.2</ele>
        <time>2013-09-28T14:08:13.445Z</time>
      </trkpt>
      <trkpt lat="43.50945" lon="1.47428">
        <ele>331.1</ele>
        <time>2013-09-28T14:08:14.469Z</time>
      </trkpt>
      <trkpt lat="43.50951" lon="1.47423">
        <ele>330.2</ele>
        <time>2013-09-28T14:08:17.458Z</time>
      </trkpt>
      <trkpt lat="43.50952" lon="1.4742">
        <ele>330.2</ele>
        <time>2013-09-28T14:08:18.368Z</time>
      </trkpt>
      <trkpt lat="43.50957" lon="1.47411">
        <ele>327</ele>
        <time>2013-09-28T14:08:20.871Z</time>
      </trkpt>
      <trkpt lat="43.50959" lon="1.47408">
        <ele>325.3</ele>
        <time>2013-09-28T14:08:21.396Z</time>
      </trkpt>
      <trkpt lat="43.50965" lon="1.47404">
        <ele>326.6</ele>
        <time>2013-09-28T14:08:23.389Z</time>
      </trkpt>
      <trkpt lat="43.50967" lon="1.47402">
        <ele>328</ele>
        <time>2013-09-28T14:08:24.648Z</time>
      </trkpt>
      <trkpt lat="43.50973" lon="1.47393">
        <ele>327.4</ele>
        <time>2013-09-28T14:08:27.463Z</time>
      </trkpt>
      <trkpt lat="43.50975" lon="1.4739">
        <ele>327.5</ele>
        <time>2013-09-28T14:08:28.466Z</time>
      </trkpt>
      <trkpt lat="43.50982" lon="1.47388">
        <ele>326.8</ele>
        <time>2013-09-28T14:08:33.490Z</time>
      </trkpt>
      <trkpt lat="43.50985" lon="1.47389">
        <ele>325.9</ele>
        <time>2013-09-28T14:08:34.459Z</time>
      </trkpt>
      <trkpt lat="43.50991" lon="1.47383">
        <ele>323.2</ele>
        <time>2013-09-28T14:08:37.470Z</time>
      </trkpt>
      <trkpt lat="43.50992" lon="1.47378">
        <ele>323.1</ele>
        <time>2013-09-28T14:08:38.486Z</time>
      </trkpt>
      <trkpt lat="43.51" lon="1.47372">
        <ele>323.5</ele>
        <time>2013-09-28T14:08:40.721Z</time>
      </trkpt>
      <trkpt lat="43.51002" lon="1.47372">
        <ele>325.3</ele>
        <time>2013-09-28T14:08:41.445Z</time>
      </trkpt>
      <trkpt lat="43.5101" lon="1.47369">
        <ele>327</ele>
        <time>2013-09-28T14:08:44.393Z</time>
      </trkpt>
      <trkpt lat="43.51012" lon="1.47366">
        <ele>327.8</ele>
        <time>2013-09-28T14:08:45.403Z</time>
      </trkpt>
      <trkpt lat="43.51014" lon="1.47355">
        <ele>329.8</ele>
        <time>2013-09-28T14:08:50.059Z</time>
      </trkpt>
      <trkpt lat="43.51015" lon="1.47352">
        <ele>330.8</ele>
        <time>2013-09-28T14:08:50.400Z</time>
      </trkpt>
      <trkpt lat="43.51018" lon="1.47344">
        <ele>328.8</ele>
        <time>2013-09-28T14:08:53.426Z</time>
      </trkpt>
      <trkpt lat="43.5102" lon="1.47342">
        <ele>329</ele>
        <time>2013-09-28T14:08:54.387Z</time>
      </trkpt>
      <trkpt lat="43.51026" lon="1.47334">
        <ele>329.6</ele>
        <time>2013-09-28T14:08:57.457Z</time>
      </trkpt>
      <trkpt lat="43.51027" lon="1.47332">
        <ele>329.4</ele>
        <time>2013-09-28T14:08:58.442Z</time>
      </trkpt>
      <trkpt lat="43.51033" lon="1.47323">
        <ele>327.6</ele>
        <time>2013-09-28T14:09:02.536Z</time>
      </trkpt>
      <trkpt lat="43.51035" lon="1.47321">
        <ele>326.5</ele>
        <time>2013-09-28T14:09:03.483Z</time>
      </trkpt>
      <trkpt lat="43.5104" lon="1.47315">
        <ele>324.3</ele>
        <time>2013-09-28T14:09:07.433Z</time>
      </trkpt>
      <trkpt lat="43.51042" lon="1.47312">
        <ele>323.8</ele>
        <time>2013-09-28T14:09:08.413Z</time>
      </trkpt>
      <trkpt lat="43.51047" lon="1.47305">
        <ele>321.4</ele>
        <time>2013-09-28T14:09:11.436Z</time>
      </trkpt>
      <trkpt lat="43.51048" lon="1.47302">
        <ele>322</ele>
        <time>2013-09-28T14:09:12.456Z</time>
      </trkpt>
      <trkpt lat="43.51052" lon="1.47295">
        <ele>321.9</ele>
        <time>2013-09-28T14:09:15.212Z</time>
      </trkpt>
      <trkpt lat="43.51054" lon="1.47291">
        <ele>322</ele>
        <time>2013-09-28T14:09:15.529Z</time>
      </trkpt>
      <trkpt lat="43.51059" lon="1.47282">
        <ele>323</ele>
        <time>2013-09-28T14:09:18.506Z</time>
      </trkpt>
      <trkpt lat="43.51061" lon="1.47279">
        <ele>324.3</ele>
        <time>2013-09-28T14:09:19.547Z</time>
      </trkpt>
      <trkpt lat="43.51066" lon="1.47269">
        <ele>324.2</ele>
        <time>2013-09-28T14:09:23.540Z</time>
      </trkpt>
      <trkpt lat="43.51067" lon="1.47265">
        <ele>324.8</ele>
        <time>2013-09-28T14:09:24.518Z</time>
      </trkpt>
      <trkpt lat="43.51072" lon="1.47256">
        <ele>326.3</ele>
        <time>2013-09-28T14:09:26.480Z</time>
      </trkpt>
      <trkpt lat="43.51074" lon="1.47254">
        <ele>325.2</ele>
        <time>2013-09-28T14:09:27.477Z</time>
      </trkpt>
      <trkpt lat="43.51078" lon="1.47249">
        <ele>325.2</ele>
        <time>2013-09-28T14:09:30.412Z</time>
      </trkpt>
      <trkpt lat="43.5108" lon="1.47244">
        <ele>328</ele>
        <time>2013-09-28T14:09:31.473Z</time>
      </trkpt>
      <trkpt lat="43.51082" lon="1.47235">
        <ele>329.7</ele>
        <time>2013-09-28T14:09:33.418Z</time>
      </trkpt>
      <trkpt lat="43.51082" lon="1.47231">
        <ele>330.5</ele>
        <time>2013-09-28T14:09:34.412Z</time>
      </trkpt>
      <trkpt lat="43.51086" lon="1.4722">
        <ele>327</ele>
        <time>2013-09-28T14:09:37.447Z</time>
      </trkpt>
      <trkpt lat="43.5109" lon="1.47217">
        <ele>325.4</ele>
        <time>2013-09-28T14:09:38.492Z</time>
      </trkpt>
      <trkpt lat="43.51097" lon="1.47212">
        <ele>321.8</ele>
        <time>2013-09-28T14:09:42.408Z</time>
      </trkpt>
      <trkpt lat="43.51098" lon="1.47211">
        <ele>321.9</ele>
        <time>2013-09-28T14:09:43.441Z</time>
      </trkpt>
      <trkpt lat="43.51102" lon="1.47201">
        <ele>324.1</ele>
        <time>2013-09-28T14:09:46.435Z</time>
      </trkpt>
      <trkpt lat="43.51103" lon="1.47199">
        <ele>323.5</ele>
        <time>2013-09-28T14:09:47.433Z</time>
      </trkpt>
      <trkpt lat="43.51107" lon="1.4719">
        <ele>323.2</ele>
        <time>2013-09-28T14:09:50.487Z</time>
      </trkpt>
      <trkpt lat="43.51108" lon="1.47187">
        <ele>324.4</ele>
        <time>2013-09-28T14:09:51.513Z</time>
      </trkpt>
      <trkpt lat="43.51112" lon="1.47178">
        <ele>325</ele>
        <time>2013-09-28T14:09:55.255Z</time>
      </trkpt>
      <trkpt lat="43.51114" lon="1.47175">
        <ele>325.9</ele>
        <time>2013-09-28T14:09:55.463Z</time>
      </trkpt>
      <trkpt lat="43.51117" lon="1.4717">
        <ele>326.9</ele>
        <time>2013-09-28T14:09:57.458Z</time>
      </trkpt>
      <trkpt lat="43.5112" lon="1.47165">
        <ele>325.9</ele>
        <time>2013-09-28T14:09:58.427Z</time>
      </trkpt>
      <trkpt lat="43.51124" lon="1.47155">
        <ele>326.6</ele>
        <time>2013-09-28T14:10:01.395Z</time>
      </trkpt>
      <trkpt lat="43.51125" lon="1.47152">
        <ele>327.1</ele>
        <time>2013-09-28T14:10:02.442Z</time>
      </trkpt>
      <trkpt lat="43.51129" lon="1.47145">
        <ele>327</ele>
        <time>2013-09-28T14:10:05.531Z</time>
      </trkpt>
      <trkpt lat="43.5113" lon="1.47141">
        <ele>326.3</ele>
        <time>2013-09-28T14:10:06.440Z</time>
      </trkpt>
      <trkpt lat="43.51134" lon="1.47134">
        <ele>326.3</ele>
        <time>2013-09-28T14:10:08.467Z</time>
      </trkpt>
      <trkpt lat="43.51136" lon="1.47132">
        <ele>325.8</ele>
        <time>2013-09-28T14:10:09.559Z</time>
      </trkpt>
      <trkpt lat="43.51141" lon="1.47123">
        <ele>327.1</ele>
        <time>2013-09-28T14:10:12.412Z</time>
      </trkpt>
      <trkpt lat="43.51143" lon="1.47119">
        <ele>327.5</ele>
        <time>2013-09-28T14:10:13.425Z</time>
      </trkpt>
      <trkpt lat="43.51147" lon="1.4711">
        <ele>329</ele>
        <time>2013-09-28T14:10:16.446Z</time>
      </trkpt>
      <trkpt lat="43.51149" lon="1.47106">
        <ele>329</ele>
        <time>2013-09-28T14:10:17.445Z</time>
      </trkpt>
      <trkpt lat="43.51154" lon="1.47099">
        <ele>328.5</ele>
        <time>2013-09-28T14:10:20.873Z</time>
      </trkpt>
      <trkpt lat="43.51156" lon="1.47097">
        <ele>329.3</ele>
        <time>2013-09-28T14:10:21.411Z</time>
      </trkpt>
      <trkpt lat="43.51162" lon="1.47089">
        <ele>328.3</ele>
        <time>2013-09-28T14:10:26.440Z</time>
      </trkpt>
      <trkpt lat="43.51163" lon="1.47087">
        <ele>328</ele>
        <time>2013-09-28T14:10:27.436Z</time>
      </trkpt>
      <trkpt lat="43.51166" lon="1.4708">
        <ele>325.4</ele>
        <time>2013-09-28T14:10:30.472Z</time>
      </trkpt>
      <trkpt lat="43.51168" lon="1.47076">
        <ele>325.6</ele>
        <time>2013-09-28T14:10:31.455Z</time>
      </trkpt>
      <trkpt lat="43.51172" lon="1.47065">
        <ele>325.9</ele>
        <time>2013-09-28T14:10:33.438Z</time>
      </trkpt>
      <trkpt lat="43.51174" lon="1.47061">
        <ele>326</ele>
        <time>2013-09-28T14:10:34.420Z</time>
      </trkpt>
      <trkpt lat="43.51182" lon="1.47065">
        <ele>327.1</ele>
        <time>2013-09-28T14:10:38.408Z</time>
      </trkpt>
      <trkpt lat="43.51182" lon="1.47065">
        <ele>328</ele>
        <time>2013-09-28T14:10:39.383Z</time>
      </trkpt>
      <trkpt lat="43.51184" lon="1.47075">
        <ele>327.3</ele>
        <time>2013-09-28T14:10:45.795Z</time>
      </trkpt>
      <trkpt lat="43.51184" lon="1.47078">
        <ele>327.2</ele>
        <time>2013-09-28T14:10:46.462Z</time>
      </trkpt>
      <trkpt lat="43.51185" lon="1.47086">
        <ele>327.8</ele>
        <time>2013-09-28T14:10:48.447Z</time>
      </trkpt>
      <trkpt lat="43.51186" lon="1.47091">
        <ele>328.8</ele>
        <time>2013-09-28T14:10:49.478Z</time>
      </trkpt>
      <trkpt lat="43.5119" lon="1.471">
        <ele>332</ele>
        <time>2013-09-28T14:10:52.455Z</time>
      </trkpt>
      <trkpt lat="43.51192" lon="1.47101">
        <ele>332.4</ele>
        <time>2013-09-28T14:10:53.473Z</time>
      </trkpt>
      <trkpt lat="43.51195" lon="1.4711">
        <ele>334</ele>
        <time>2013-09-28T14:10:59.477Z</time>
      </trkpt>
      <trkpt lat="43.51195" lon="1.47114">
        <ele>335.4</ele>
        <time>2013-09-28T14:11:00.497Z</time>
      </trkpt>
      <trkpt lat="43.51196" lon="1.47121">
        <ele>336.1</ele>
        <time>2013-09-28T14:11:02.428Z</time>
      </trkpt>
      <trkpt lat="43.51197" lon="1.47126">
        <ele>336.4</ele>
        <time>2013-09-28T14:11:03.472Z</time>
      </trkpt>
      <trkpt lat="43.51201" lon="1.47134">
        <ele>347</ele>
        <time>2013-09-28T14:11:13.522Z</time>
      </trkpt>
      <trkpt lat="43.51202" lon="1.47137">
        <ele>347.1</ele>
        <time>2013-09-28T14:11:14.515Z</time>
      </trkpt>
      <trkpt lat="43.51202" lon="1.47145">
        <ele>351.8</ele>
        <time>2013-09-28T14:11:18.400Z</time>
      </trkpt>
      <trkpt lat="43.51204" lon="1.4715">
        <ele>349.4</ele>
        <time>2013-09-28T14:11:19.500Z</time>
      </trkpt>
      <trkpt lat="43.51209" lon="1.47157">
        <ele>348.8</ele>
        <time>2013-09-28T14:11:21.447Z</time>
      </trkpt>
      <trkpt lat="43.51213" lon="1.47161">
        <ele>347.5</ele>
        <time>2013-09-28T14:11:22.489Z</time>
      </trkpt>
      <trkpt lat="43.51217" lon="1.47166">
        <ele>347.8</ele>
        <time>2013-09-28T14:11:23.472Z</time>
      </trkpt>
      <trkpt lat="43.51222" lon="1.47169">
        <ele>345.8</ele>
        <time>2013-09-28T14:11:24.508Z</time>
      </trkpt>
      <trkpt lat="43.51225" lon="1.47174">
        <ele>344.7</ele>
        <time>2013-09-28T14:11:25.706Z</time>
      </trkpt>
      <trkpt lat="43.51228" lon="1.4718">
        <ele>343.4</ele>
        <time>2013-09-28T14:11:26.527Z</time>
      </trkpt>
      <trkpt lat="43.51233" lon="1.47189">
        <ele>342.2</ele>
        <time>2013-09-28T14:11:28.462Z</time>
      </trkpt>
      <trkpt lat="43.51233" lon="1.47191">
        <ele>341.4</ele>
        <time>2013-09-28T14:11:29.527Z</time>
      </trkpt>
      <trkpt lat="43.51241" lon="1.47191">
        <ele>346.3</ele>
        <time>2013-09-28T14:11:35.400Z</time>
      </trkpt>
      <trkpt lat="43.51243" lon="1.4719">
        <ele>347.3</ele>
        <time>2013-09-28T14:11:35.598Z</time>
      </trkpt>
      <trkpt lat="43.51249" lon="1.47195">
        <ele>349.3</ele>
        <time>2013-09-28T14:11:40.454Z</time>
      </trkpt>
      <trkpt lat="43.5125" lon="1.47199">
        <ele>350.4</ele>
        <time>2013-09-28T14:11:40.760Z</time>
      </trkpt>
      <trkpt lat="43.51252" lon="1.47208">
        <ele>351</ele>
        <time>2013-09-28T14:11:42.396Z</time>
      </trkpt>
      <trkpt lat="43.51255" lon="1.47216">
        <ele>350</ele>
        <time>2013-09-28T14:11:43.659Z</time>
      </trkpt>
      <trkpt lat="43.5126" lon="1.47221">
        <ele>341.4</ele>
        <time>2013-09-28T14:11:46.486Z</time>
      </trkpt>
      <trkpt lat="43.51263" lon="1.47222">
        <ele>339.5</ele>
        <time>2013-09-28T14:11:47.427Z</time>
      </trkpt>
      <trkpt lat="43.5127" lon="1.47222">
        <ele>336.2</ele>
        <time>2013-09-28T14:11:50.476Z</time>
      </trkpt>
      <trkpt lat="43.51272" lon="1.47222">
        <ele>332.5</ele>
        <time>2013-09-28T14:11:51.442Z</time>
      </trkpt>
      <trkpt lat="43.51275" lon="1.47226">
        <ele>332.5</ele>
        <time>2013-09-28T14:11:52.454Z</time>
      </trkpt>
      <trkpt lat="43.51278" lon="1.47232">
        <ele>331.9</ele>
        <time>2013-09-28T14:11:53.501Z</time>
      </trkpt>
      <trkpt lat="43.51281" lon="1.47237">
        <ele>331.2</ele>
        <time>2013-09-28T14:11:55.131Z</time>
      </trkpt>
      <trkpt lat="43.51285" lon="1.47243">
        <ele>329.1</ele>
        <time>2013-09-28T14:11:55.432Z</time>
      </trkpt>
      <trkpt lat="43.51289" lon="1.47252">
        <ele>329.3</ele>
        <time>2013-09-28T14:11:57.506Z</time>
      </trkpt>
      <trkpt lat="43.51291" lon="1.47255">
        <ele>328.7</ele>
        <time>2013-09-28T14:11:58.428Z</time>
      </trkpt>
      <trkpt lat="43.51295" lon="1.47261">
        <ele>326.9</ele>
        <time>2013-09-28T14:12:00.425Z</time>
      </trkpt>
      <trkpt lat="43.51298" lon="1.47263">
        <ele>327.9</ele>
        <time>2013-09-28T14:12:01.400Z</time>
      </trkpt>
      <trkpt lat="43.51303" lon="1.47271">
        <ele>324.8</ele>
        <time>2013-09-28T14:12:05.363Z</time>
      </trkpt>
      <trkpt lat="43.51306" lon="1.47274">
        <ele>324.6</ele>
        <time>2013-09-28T14:12:05.638Z</time>
      </trkpt>
      <trkpt lat="43.5131" lon="1.47282">
        <ele>324.5</ele>
        <time>2013-09-28T14:12:08.498Z</time>
      </trkpt>
      <trkpt lat="43.51312" lon="1.47285">
        <ele>325.2</ele>
        <time>2013-09-28T14:12:09.483Z</time>
      </trkpt>
      <trkpt lat="43.51319" lon="1.47293">
        <ele>324.7</ele>
        <time>2013-09-28T14:12:12.520Z</time>
      </trkpt>
      <trkpt lat="43.51321" lon="1.47297">
        <ele>324.8</ele>
        <time>2013-09-28T14:12:13.426Z</time>
      </trkpt>
      <trkpt lat="43.51324" lon="1.47305">
        <ele>322.2</ele>
        <time>2013-09-28T14:12:15.663Z</time>
      </trkpt>
      <trkpt lat="43.51326" lon="1.47308">
        <ele>322.1</ele>
        <time>2013-09-28T14:12:16.420Z</time>
      </trkpt>
      <trkpt lat="43.51331" lon="1.47318">
        <ele>321.2</ele>
        <time>2013-09-28T14:12:20.392Z</time>
      </trkpt>
      <trkpt lat="43.51333" lon="1.47321">
        <ele>321.4</ele>
        <time>2013-09-28T14:12:20.507Z</time>
      </trkpt>
      <trkpt lat="43.51339" lon="1.47328">
        <ele>320.3</ele>
        <time>2013-09-28T14:12:23.456Z</time>
      </trkpt>
      <trkpt lat="43.51342" lon="1.47331">
        <ele>320.8</ele>
        <time>2013-09-28T14:12:24.542Z</time>
      </trkpt>
      <trkpt lat="43.51346" lon="1.47341">
        <ele>321.3</ele>
        <time>2013-09-28T14:12:27.419Z</time>
      </trkpt>
      <trkpt lat="43.51348" lon="1.47344">
        <ele>321.8</ele>
        <time>2013-09-28T14:12:28.397Z</time>
      </trkpt>
      <trkpt lat="43.51351" lon="1.47351">
        <ele>321.9</ele>
        <time>2013-09-28T14:12:30.543Z</time>
      </trkpt>
      <trkpt lat="43.51354" lon="1.47355">
        <ele>319.7</ele>
        <time>2013-09-28T14:12:31.470Z</time>
      </trkpt>
      <trkpt lat="43.51358" lon="1.47363">
        <ele>319.3</ele>
        <time>2013-09-28T14:12:33.418Z</time>
      </trkpt>
      <trkpt lat="43.5136" lon="1.47366">
        <ele>320.4</ele>
        <time>2013-09-28T14:12:34.545Z</time>
      </trkpt>
      <trkpt lat="43.51365" lon="1.47376">
        <ele>322.4</ele>
        <time>2013-09-28T14:12:38.402Z</time>
      </trkpt>
      <trkpt lat="43.51367" lon="1.47379">
        <ele>322</ele>
        <time>2013-09-28T14:12:39.446Z</time>
      </trkpt>
      <trkpt lat="43.51371" lon="1.47386">
        <ele>322</ele>
        <time>2013-09-28T14:12:42.442Z</time>
      </trkpt>
      <trkpt lat="43.51373" lon="1.47389">
        <ele>322.7</ele>
        <time>2013-09-28T14:12:43.428Z</time>
      </trkpt>
      <trkpt lat="43.51378" lon="1.47396">
        <ele>323.2</ele>
        <time>2013-09-28T14:12:46.497Z</time>
      </trkpt>
      <trkpt lat="43.5138" lon="1.47399">
        <ele>322.8</ele>
        <time>2013-09-28T14:12:47.517Z</time>
      </trkpt>
      <trkpt lat="43.51386" lon="1.47408">
        <ele>323.1</ele>
        <time>2013-09-28T14:12:51.447Z</time>
      </trkpt>
      <trkpt lat="43.51387" lon="1.4741">
        <ele>323.6</ele>
        <time>2013-09-28T14:12:52.441Z</time>
      </trkpt>
      <trkpt lat="43.51392" lon="1.4742">
        <ele>325.2</ele>
        <time>2013-09-28T14:12:58.416Z</time>
      </trkpt>
      <trkpt lat="43.51393" lon="1.47421">
        <ele>325.3</ele>
        <time>2013-09-28T14:12:59.445Z</time>
      </trkpt>
      <trkpt lat="43.51396" lon="1.47432">
        <ele>324.9</ele>
        <time>2013-09-28T14:13:07.563Z</time>
      </trkpt>
      <trkpt lat="43.51397" lon="1.47433">
        <ele>323.8</ele>
        <time>2013-09-28T14:13:08.433Z</time>
      </trkpt>
      <trkpt lat="43.514" lon="1.47438">
        <ele>322.8</ele>
        <time>2013-09-28T14:13:26.408Z</time>
      </trkpt>
      <trkpt lat="43.514" lon="1.47438">
        <ele>322.4</ele>
        <time>2013-09-28T14:13:27.529Z</time>
      </trkpt>
      <trkpt lat="43.51399" lon="1.47439">
        <ele>322</ele>
        <time>2013-09-28T14:13:30.390Z</time>
      </trkpt>
      <trkpt lat="43.51399" lon="1.4744">
        <ele>322.2</ele>
        <time>2013-09-28T14:13:31.500Z</time>
      </trkpt>
      <trkpt lat="43.51398" lon="1.47442">
        <ele>321.4</ele>
        <time>2013-09-28T14:13:36.419Z</time>
      </trkpt>
      <trkpt lat="43.51398" lon="1.47442">
        <ele>321.6</ele>
        <time>2013-09-28T14:13:37.403Z</time>
      </trkpt>
      <trkpt lat="43.51399" lon="1.47442">
        <ele>320.6</ele>
        <time>2013-09-28T14:13:55.433Z</time>
      </trkpt>
      <trkpt lat="43.51398" lon="1.47441">
        <ele>320.6</ele>
        <time>2013-09-28T14:13:56.459Z</time>
      </trkpt>
      <trkpt lat="43.51399" lon="1.47438">
        <ele>321</ele>
        <time>2013-09-28T14:14:01.422Z</time>
      </trkpt>
      <trkpt lat="43.51399" lon="1.47438">
        <ele>320.7</ele>
        <time>2013-09-28T14:14:02.462Z</time>
      </trkpt>
      <trkpt lat="43.51398" lon="1.47437">
        <ele>321.3</ele>
        <time>2013-09-28T14:14:10.347Z</time>
      </trkpt>
      <trkpt lat="43.51399" lon="1.47437">
        <ele>321.2</ele>
        <time>2013-09-28T14:14:10.605Z</time>
      </trkpt>
      <trkpt lat="43.51399" lon="1.47437">
        <ele>321.1</ele>
        <time>2013-09-28T14:14:11.442Z</time>
      </trkpt>
      <trkpt lat="43.51399" lon="1.47437">
        <ele>321.1</ele>
        <time>2013-09-28T14:14:12.409Z</time>
      </trkpt>
      <trkpt lat="43.51399" lon="1.47437">
        <ele>321.1</ele>
        <time>2013-09-28T14:14:13.493Z</time>
      </trkpt>
      <trkpt lat="43.514" lon="1.47437">
        <ele>321.3</ele>
        <time>2013-09-28T14:14:14.621Z</time>
      </trkpt>
      <trkpt lat="43.514" lon="1.47436">
        <ele>320.8</ele>
        <time>2013-09-28T14:14:16.440Z</time>
      </trkpt>
      <trkpt lat="43.51399" lon="1.47436">
        <ele>320.8</ele>
        <time>2013-09-28T14:14:17.443Z</time>
      </trkpt>
      <trkpt lat="43.51399" lon="1.47435">
        <ele>320.5</ele>
        <time>2013-09-28T14:14:19.488Z</time>
      </trkpt>
      <trkpt lat="43.514" lon="1.47435">
        <ele>320.1</ele>
        <time>2013-09-28T14:14:20.428Z</time>
      </trkpt>
      <trkpt lat="43.51401" lon="1.47434">
        <ele>320</ele>
        <time>2013-09-28T14:14:24.421Z</time>
      </trkpt>
      <trkpt lat="43.51401" lon="1.47435">
        <ele>319.7</ele>
        <time>2013-09-28T14:14:25.436Z</time>
      </trkpt>
      <trkpt lat="43.51401" lon="1.47435">
        <ele>319.7</ele>
        <time>2013-09-28T14:14:25.531Z</time>
      </trkpt>
      <trkpt lat="43.51401" lon="1.47435">
        <ele>320</ele>
        <time>2013-09-28T14:14:26.382Z</time>
      </trkpt>
      <trkpt lat="43.51401" lon="1.47435">
        <ele>320.3</ele>
        <time>2013-09-28T14:14:27.413Z</time>
      </trkpt>
      <trkpt lat="43.51401" lon="1.47435">
        <ele>320.4</ele>
        <time>2013-09-28T14:14:28.411Z</time>
      </trkpt>
      <trkpt lat="43.51401" lon="1.47435">
        <ele>320.3</ele>
        <time>2013-09-28T14:14:37.425Z</time>
      </trkpt>
      <trkpt lat="43.51402" lon="1.47435">
        <ele>320</ele>
        <time>2013-09-28T14:14:38.527Z</time>
      </trkpt>
      <trkpt lat="43.51407" lon="1.47425">
        <ele>319.7</ele>
        <time>2013-09-28T14:14:46.437Z</time>
      </trkpt>
      <trkpt lat="43.51407" lon="1.47423">
        <ele>320.4</ele>
        <time>2013-09-28T14:14:47.702Z</time>
      </trkpt>
      <trkpt lat="43.5141" lon="1.47412">
        <ele>317</ele>
        <time>2013-09-28T14:14:57.467Z</time>
      </trkpt>
      <trkpt lat="43.51411" lon="1.4741">
        <ele>314.9</ele>
        <time>2013-09-28T14:14:58.431Z</time>
      </trkpt>
      <trkpt lat="43.51413" lon="1.47399">
        <ele>314.5</ele>
        <time>2013-09-28T14:15:05.208Z</time>
      </trkpt>
      <trkpt lat="43.51413" lon="1.47397">
        <ele>314</ele>
        <time>2013-09-28T14:15:05.501Z</time>
      </trkpt>
      <trkpt lat="43.51418" lon="1.47388">
        <ele>316.7</ele>
        <time>2013-09-28T14:15:15.378Z</time>
      </trkpt>
      <trkpt lat="43.51419" lon="1.47386">
        <ele>317.7</ele>
        <time>2013-09-28T14:15:16.408Z</time>
      </trkpt>
      <trkpt lat="43.51424" lon="1.47376">
        <ele>318.2</ele>
        <time>2013-09-28T14:15:23.426Z</time>
      </trkpt>
      <trkpt lat="43.51424" lon="1.47375">
        <ele>318.2</ele>
        <time>2013-09-28T14:15:24.417Z</time>
      </trkpt>
      <trkpt lat="43.51429" lon="1.47365">
        <ele>317.7</ele>
        <time>2013-09-28T14:15:31.408Z</time>
      </trkpt>
      <trkpt lat="43.51429" lon="1.47362">
        <ele>316.6</ele>
        <time>2013-09-28T14:15:32.451Z</time>
      </trkpt>
      <trkpt lat="43.51432" lon="1.47353">
        <ele>317.3</ele>
        <time>2013-09-28T14:15:35.486Z</time>
      </trkpt>
      <trkpt lat="43.51432" lon="1.4735">
        <ele>317.9</ele>
        <time>2013-09-28T14:15:36.429Z</time>
      </trkpt>
      <trkpt lat="43.51433" lon="1.47339">
        <ele>317.1</ele>
        <time>2013-09-28T14:15:40.372Z</time>
      </trkpt>
      <trkpt lat="43.51434" lon="1.47336">
        <ele>316.2</ele>
        <time>2013-09-28T14:15:40.476Z</time>
      </trkpt>
      <trkpt lat="43.51438" lon="1.47326">
        <ele>315.5</ele>
        <time>2013-09-28T14:15:43.426Z</time>
      </trkpt>
      <trkpt lat="43.51438" lon="1.47323">
        <ele>316.7</ele>
        <time>2013-09-28T14:15:44.587Z</time>
      </trkpt>
      <trkpt lat="43.51446" lon="1.47318">
        <ele>319.9</ele>
        <time>2013-09-28T14:15:52.092Z</time>
      </trkpt>
      <trkpt lat="43.51447" lon="1.47319">
        <ele>320.8</ele>
        <time>2013-09-28T14:15:52.428Z</time>
      </trkpt>
      <trkpt lat="43.51455" lon="1.4732">
        <ele>320.3</ele>
        <time>2013-09-28T14:15:55.411Z</time>
      </trkpt>
      <trkpt lat="43.51459" lon="1.47319">
        <ele>320.5</ele>
        <time>2013-09-28T14:15:56.464Z</time>
      </trkpt>
      <trkpt lat="43.51466" lon="1.47319">
        <ele>319.9</ele>
        <time>2013-09-28T14:16:00.260Z</time>
      </trkpt>
      <trkpt lat="43.51468" lon="1.47319">
        <ele>320.3</ele>
        <time>2013-09-28T14:16:00.471Z</time>
      </trkpt>
      <trkpt lat="43.51475" lon="1.47316">
        <ele>319.5</ele>
        <time>2013-09-28T14:16:03.427Z</time>
      </trkpt>
      <trkpt lat="43.51477" lon="1.47315">
        <ele>319.7</ele>
        <time>2013-09-28T14:16:04.499Z</time>
      </trkpt>
      <trkpt lat="43.51484" lon="1.47308">
        <ele>322.1</ele>
        <time>2013-09-28T14:16:07.417Z</time>
      </trkpt>
      <trkpt lat="43.51487" lon="1.47304">
        <ele>322.8</ele>
        <time>2013-09-28T14:16:08.408Z</time>
      </trkpt>
      <trkpt lat="43.51492" lon="1.47295">
        <ele>331.5</ele>
        <time>2013-09-28T14:16:10.699Z</time>
      </trkpt>
      <trkpt lat="43.51494" lon="1.47292">
        <ele>333.7</ele>
        <time>2013-09-28T14:16:11.421Z</time>
      </trkpt>
      <trkpt lat="43.51499" lon="1.47288">
        <ele>331.9</ele>
        <time>2013-09-28T14:16:13.443Z</time>
      </trkpt>
      <trkpt lat="43.51502" lon="1.47287">
        <ele>333.8</ele>
        <time>2013-09-28T14:16:14.418Z</time>
      </trkpt>
      <trkpt lat="43.51509" lon="1.47284">
        <ele>332.3</ele>
        <time>2013-09-28T14:16:16.456Z</time>
      </trkpt>
      <trkpt lat="43.51512" lon="1.47283">
        <ele>333</ele>
        <time>2013-09-28T14:16:17.426Z</time>
      </trkpt>
      <trkpt lat="43.51519" lon="1.47282">
        <ele>335.5</ele>
        <time>2013-09-28T14:16:20.520Z</time>
      </trkpt>
      <trkpt lat="43.51522" lon="1.47281">
        <ele>336.1</ele>
        <time>2013-09-28T14:16:20.725Z</time>
      </trkpt>
      <trkpt lat="43.51529" lon="1.47284">
        <ele>333.6</ele>
        <time>2013-09-28T14:16:22.684Z</time>
      </trkpt>
      <trkpt lat="43.51531" lon="1.47286">
        <ele>333.4</ele>
        <time>2013-09-28T14:16:23.527Z</time>
      </trkpt>
      <trkpt lat="43.51537" lon="1.47292">
        <ele>332.7</ele>
        <time>2013-09-28T14:16:25.641Z</time>
      </trkpt>
      <trkpt lat="43.51539" lon="1.47292">
        <ele>333.9</ele>
        <time>2013-09-28T14:16:26.422Z</time>
      </trkpt>
      <trkpt lat="43.51545" lon="1.47289">
        <ele>331.2</ele>
        <time>2013-09-28T14:16:28.408Z</time>
      </trkpt>
      <trkpt lat="43.51548" lon="1.47288">
        <ele>330.7</ele>
        <time>2013-09-28T14:16:29.475Z</time>
      </trkpt>
      <trkpt lat="43.51555" lon="1.47285">
        <ele>331</ele>
        <time>2013-09-28T14:16:32.506Z</time>
      </trkpt>
      <trkpt lat="43.51557" lon="1.47283">
        <ele>331</ele>
        <time>2013-09-28T14:16:33.404Z</time>
      </trkpt>
      <trkpt lat="43.51564" lon="1.47279">
        <ele>330.5</ele>
        <time>2013-09-28T14:16:36.602Z</time>
      </trkpt>
      <trkpt lat="43.51568" lon="1.47278">
        <ele>330</ele>
        <time>2013-09-28T14:16:37.526Z</time>
      </trkpt>
      <trkpt lat="43.51573" lon="1.47276">
        <ele>328.6</ele>
        <time>2013-09-28T14:16:38.411Z</time>
      </trkpt>
      <trkpt lat="43.51579" lon="1.47272">
        <ele>330</ele>
        <time>2013-09-28T14:16:39.444Z</time>
      </trkpt>
      <trkpt lat="43.51587" lon="1.47267">
        <ele>328.5</ele>
        <time>2013-09-28T14:16:41.478Z</time>
      </trkpt>
      <trkpt lat="43.5159" lon="1.47266">
        <ele>326.8</ele>
        <time>2013-09-28T14:16:42.443Z</time>
      </trkpt>
      <trkpt lat="43.51597" lon="1.47263">
        <ele>326</ele>
        <time>2013-09-28T14:16:45.782Z</time>
      </trkpt>
      <trkpt lat="43.51599" lon="1.47263">
        <ele>325.9</ele>
        <time>2013-09-28T14:16:46.546Z</time>
      </trkpt>
      <trkpt lat="43.51606" lon="1.47258">
        <ele>322.3</ele>
        <time>2013-09-28T14:16:50.448Z</time>
      </trkpt>
      <trkpt lat="43.51609" lon="1.4726">
        <ele>322.1</ele>
        <time>2013-09-28T14:16:51.472Z</time>
      </trkpt>
      <trkpt lat="43.51615" lon="1.47257">
        <ele>321.9</ele>
        <time>2013-09-28T14:16:55.258Z</time>
      </trkpt>
      <trkpt lat="43.51618" lon="1.47257">
        <ele>321.6</ele>
        <time>2013-09-28T14:16:55.474Z</time>
      </trkpt>
      <trkpt lat="43.51625" lon="1.47256">
        <ele>321.7</ele>
        <time>2013-09-28T14:16:57.471Z</time>
      </trkpt>
      <trkpt lat="43.51628" lon="1.47255">
        <ele>322</ele>
        <time>2013-09-28T14:16:58.443Z</time>
      </trkpt>
      <trkpt lat="43.51634" lon="1.47251">
        <ele>323.9</ele>
        <time>2013-09-28T14:17:00.463Z</time>
      </trkpt>
      <trkpt lat="43.51636" lon="1.4725">
        <ele>324.1</ele>
        <time>2013-09-28T14:17:01.415Z</time>
      </trkpt>
      <trkpt lat="43.51645" lon="1.47248">
        <ele>321.9</ele>
        <time>2013-09-28T14:17:05.207Z</time>
      </trkpt>
      <trkpt lat="43.51648" lon="1.47246">
        <ele>322.7</ele>
        <time>2013-09-28T14:17:05.429Z</time>
      </trkpt>
      <trkpt lat="43.51656" lon="1.47242">
        <ele>321.2</ele>
        <time>2013-09-28T14:17:08.458Z</time>
      </trkpt>
      <trkpt lat="43.51659" lon="1.47242">
        <ele>320.7</ele>
        <time>2013-09-28T14:17:09.492Z</time>
      </trkpt>
      <trkpt lat="43.51664" lon="1.47239">
        <ele>319.4</ele>
        <time>2013-09-28T14:17:11.412Z</time>
      </trkpt>
      <trkpt lat="43.51667" lon="1.47237">
        <ele>318.7</ele>
        <time>2013-09-28T14:17:12.429Z</time>
      </trkpt>
      <trkpt lat="43.51674" lon="1.47235">
        <ele>320.7</ele>
        <time>2013-09-28T14:17:15.387Z</time>
      </trkpt>
      <trkpt lat="43.51677" lon="1.47236">
        <ele>321.2</ele>
        <time>2013-09-28T14:17:15.639Z</time>
      </trkpt>
      <trkpt lat="43.51685" lon="1.47235">
        <ele>323</ele>
        <time>2013-09-28T14:17:20.371Z</time>
      </trkpt>
      <trkpt lat="43.51688" lon="1.47234">
        <ele>323.7</ele>
        <time>2013-09-28T14:17:20.477Z</time>
      </trkpt>
      <trkpt lat="43.51694" lon="1.47228">
        <ele>327.3</ele>
        <time>2013-09-28T14:17:23.485Z</time>
      </trkpt>
      <trkpt lat="43.51695" lon="1.47225">
        <ele>328.4</ele>
        <time>2013-09-28T14:17:24.427Z</time>
      </trkpt>
      <trkpt lat="43.517" lon="1.47221">
        <ele>329.5</ele>
        <time>2013-09-28T14:17:26.456Z</time>
      </trkpt>
      <trkpt lat="43.51703" lon="1.47218">
        <ele>330.8</ele>
        <time>2013-09-28T14:17:27.455Z</time>
      </trkpt>
      <trkpt lat="43.5171" lon="1.47216">
        <ele>331.4</ele>
        <time>2013-09-28T14:17:30.525Z</time>
      </trkpt>
      <trkpt lat="43.51713" lon="1.47213">
        <ele>332.5</ele>
        <time>2013-09-28T14:17:31.403Z</time>
      </trkpt>
      <trkpt lat="43.51721" lon="1.47214">
        <ele>333.6</ele>
        <time>2013-09-28T14:17:35.436Z</time>
      </trkpt>
      <trkpt lat="43.51724" lon="1.47216">
        <ele>334</ele>
        <time>2013-09-28T14:17:35.817Z</time>
      </trkpt>
      <trkpt lat="43.51732" lon="1.47216">
        <ele>334.7</ele>
        <time>2013-09-28T14:17:40.342Z</time>
      </trkpt>
      <trkpt lat="43.51734" lon="1.47214">
        <ele>335.2</ele>
        <time>2013-09-28T14:17:40.457Z</time>
      </trkpt>
      <trkpt lat="43.51741" lon="1.47211">
        <ele>333.6</ele>
        <time>2013-09-28T14:17:42.435Z</time>
      </trkpt>
      <trkpt lat="43.51747" lon="1.47213">
        <ele>330.1</ele>
        <time>2013-09-28T14:17:43.444Z</time>
      </trkpt>
      <trkpt lat="43.51754" lon="1.47217">
        <ele>330.1</ele>
        <time>2013-09-28T14:17:45.606Z</time>
      </trkpt>
      <trkpt lat="43.51756" lon="1.47217">
        <ele>330</ele>
        <time>2013-09-28T14:17:46.498Z</time>
      </trkpt>
      <trkpt lat="43.51764" lon="1.47216">
        <ele>330.6</ele>
        <time>2013-09-28T14:17:50.106Z</time>
      </trkpt>
      <trkpt lat="43.51766" lon="1.47214">
        <ele>331.1</ele>
        <time>2013-09-28T14:17:50.394Z</time>
      </trkpt>
      <trkpt lat="43.51771" lon="1.47213">
        <ele>332.9</ele>
        <time>2013-09-28T14:17:52.467Z</time>
      </trkpt>
      <trkpt lat="43.51775" lon="1.47211">
        <ele>330.1</ele>
        <time>2013-09-28T14:17:53.452Z</time>
      </trkpt>
      <trkpt lat="43.51782" lon="1.47214">
        <ele>326.6</ele>
        <time>2013-09-28T14:17:55.423Z</time>
      </trkpt>
      <trkpt lat="43.51786" lon="1.47213">
        <ele>326.4</ele>
        <time>2013-09-28T14:17:56.426Z</time>
      </trkpt>
      <trkpt lat="43.51793" lon="1.47208">
        <ele>333.6</ele>
        <time>2013-09-28T14:18:00.447Z</time>
      </trkpt>
      <trkpt lat="43.51796" lon="1.47211">
        <ele>333.1</ele>
        <time>2013-09-28T14:18:01.406Z</time>
      </trkpt>
      <trkpt lat="43.51802" lon="1.47213">
        <ele>331.4</ele>
        <time>2013-09-28T14:18:03.443Z</time>
      </trkpt>
      <trkpt lat="43.51805" lon="1.47213">
        <ele>331.8</ele>
        <time>2013-09-28T14:18:04.621Z</time>
      </trkpt>
      <trkpt lat="43.51813" lon="1.47213">
        <ele>329.6</ele>
        <time>2013-09-28T14:18:08.426Z</time>
      </trkpt>
      <trkpt lat="43.51815" lon="1.47214">
        <ele>329.6</ele>
        <time>2013-09-28T14:18:09.633Z</time>
      </trkpt>
      <trkpt lat="43.51823" lon="1.47212">
        <ele>333.9</ele>
        <time>2013-09-28T14:18:13.416Z</time>
      </trkpt>
      <trkpt lat="43.51824" lon="1.47212">
        <ele>336</ele>
        <time>2013-09-28T14:18:14.393Z</time>
      </trkpt>
      <trkpt lat="43.5183" lon="1.47212">
        <ele>330.7</ele>
        <time>2013-09-28T14:18:17.469Z</time>
      </trkpt>
      <trkpt lat="43.51833" lon="1.47213">
        <ele>329.9</ele>
        <time>2013-09-28T14:18:18.472Z</time>
      </trkpt>
      <trkpt lat="43.51842" lon="1.47212">
        <ele>329</ele>
        <time>2013-09-28T14:18:20.469Z</time>
      </trkpt>
      <trkpt lat="43.51847" lon="1.47212">
        <ele>329.9</ele>
        <time>2013-09-28T14:18:21.537Z</time>
      </trkpt>
      <trkpt lat="43.51854" lon="1.47209">
        <ele>330.9</ele>
        <time>2013-09-28T14:18:23.393Z</time>
      </trkpt>
      <trkpt lat="43.51856" lon="1.47208">
        <ele>331.8</ele>
        <time>2013-09-28T14:18:24.427Z</time>
      </trkpt>
      <trkpt lat="43.51863" lon="1.47206">
        <ele>331.8</ele>
        <time>2013-09-28T14:18:27.714Z</time>
      </trkpt>
      <trkpt lat="43.51866" lon="1.47206">
        <ele>330.7</ele>
        <time>2013-09-28T14:18:28.431Z</time>
      </trkpt>
      <trkpt lat="43.51873" lon="1.47209">
        <ele>325.6</ele>
        <time>2013-09-28T14:18:31.453Z</time>
      </trkpt>
      <trkpt lat="43.51876" lon="1.47209">
        <ele>325.3</ele>
        <time>2013-09-28T14:18:32.448Z</time>
      </trkpt>
      <trkpt lat="43.51883" lon="1.47209">
        <ele>317.6</ele>
        <time>2013-09-28T14:18:35.828Z</time>
      </trkpt>
      <trkpt lat="43.51885" lon="1.47211">
        <ele>316.3</ele>
        <time>2013-09-28T14:18:36.428Z</time>
      </trkpt>
      <trkpt lat="43.51891" lon="1.47217">
        <ele>312.2</ele>
        <time>2013-09-28T14:18:40.923Z</time>
      </trkpt>
      <trkpt lat="43.51892" lon="1.47218">
        <ele>311.9</ele>
        <time>2013-09-28T14:18:41.473Z</time>
      </trkpt>
      <trkpt lat="43.51897" lon="1.47213">
        <ele>311.3</ele>
        <time>2013-09-28T14:18:42.422Z</time>
      </trkpt>
      <trkpt lat="43.519" lon="1.47207">
        <ele>311</ele>
        <time>2013-09-28T14:18:43.437Z</time>
      </trkpt>
      <trkpt lat="43.51906" lon="1.47201">
        <ele>311.6</ele>
        <time>2013-09-28T14:18:45.866Z</time>
      </trkpt>
      <trkpt lat="43.51908" lon="1.47198">
        <ele>314.4</ele>
        <time>2013-09-28T14:18:46.421Z</time>
      </trkpt>
      <trkpt lat="43.51915" lon="1.47195">
        <ele>315.9</ele>
        <time>2013-09-28T14:18:50.390Z</time>
      </trkpt>
      <trkpt lat="43.51916" lon="1.47194">
        <ele>315.5</ele>
        <time>2013-09-28T14:18:51.452Z</time>
      </trkpt>
      <trkpt lat="43.51921" lon="1.47187">
        <ele>313.7</ele>
        <time>2013-09-28T14:18:58.433Z</time>
      </trkpt>
      <trkpt lat="43.51922" lon="1.47184">
        <ele>313.2</ele>
        <time>2013-09-28T14:18:59.459Z</time>
      </trkpt>
      <trkpt lat="43.51928" lon="1.47175">
        <ele>318.1</ele>
        <time>2013-09-28T14:19:05.220Z</time>
      </trkpt>
      <trkpt lat="43.5193" lon="1.47174">
        <ele>318.2</ele>
        <time>2013-09-28T14:19:05.456Z</time>
      </trkpt>
      <trkpt lat="43.51937" lon="1.47167">
        <ele>319.1</ele>
        <time>2013-09-28T14:19:07.442Z</time>
      </trkpt>
      <trkpt lat="43.5194" lon="1.47163">
        <ele>321.7</ele>
        <time>2013-09-28T14:19:08.434Z</time>
      </trkpt>
      <trkpt lat="43.51944" lon="1.47161">
        <ele>323.5</ele>
        <time>2013-09-28T14:19:10.395Z</time>
      </trkpt>
      <trkpt lat="43.51949" lon="1.47155">
        <ele>322.4</ele>
        <time>2013-09-28T14:19:10.558Z</time>
      </trkpt>
      <trkpt lat="43.51953" lon="1.47151">
        <ele>323.2</ele>
        <time>2013-09-28T14:19:11.411Z</time>
      </trkpt>
      <trkpt lat="43.51958" lon="1.47148">
        <ele>323.8</ele>
        <time>2013-09-28T14:19:12.438Z</time>
      </trkpt>
      <trkpt lat="43.51962" lon="1.47145">
        <ele>324.2</ele>
        <time>2013-09-28T14:19:13.420Z</time>
      </trkpt>
      <trkpt lat="43.51967" lon="1.47142">
        <ele>324.2</ele>
        <time>2013-09-28T14:19:14.537Z</time>
      </trkpt>
      <trkpt lat="43.51976" lon="1.47142">
        <ele>328.4</ele>
        <time>2013-09-28T14:19:18.413Z</time>
      </trkpt>
      <trkpt lat="43.51978" lon="1.47143">
        <ele>329.3</ele>
        <time>2013-09-28T14:19:19.420Z</time>
      </trkpt>
      <trkpt lat="43.51985" lon="1.47145">
        <ele>326.7</ele>
        <time>2013-09-28T14:19:21.383Z</time>
      </trkpt>
      <trkpt lat="43.51988" lon="1.47146">
        <ele>325.6</ele>
        <time>2013-09-28T14:19:22.397Z</time>
      </trkpt>
      <trkpt lat="43.51995" lon="1.47147">
        <ele>321.6</ele>
        <time>2013-09-28T14:19:25.521Z</time>
      </trkpt>
      <trkpt lat="43.51998" lon="1.47149">
        <ele>322.3</ele>
        <time>2013-09-28T14:19:25.735Z</time>
      </trkpt>
      <trkpt lat="43.52004" lon="1.47153">
        <ele>322.7</ele>
        <time>2013-09-28T14:19:28.440Z</time>
      </trkpt>
      <trkpt lat="43.52006" lon="1.47155">
        <ele>322.3</ele>
        <time>2013-09-28T14:19:29.421Z</time>
      </trkpt>
      <trkpt lat="43.52014" lon="1.4716">
        <ele>326.2</ele>
        <time>2013-09-28T14:19:35.362Z</time>
      </trkpt>
      <trkpt lat="43.52016" lon="1.47161">
        <ele>327.2</ele>
        <time>2013-09-28T14:19:35.481Z</time>
      </trkpt>
      <trkpt lat="43.52022" lon="1.47165">
        <ele>326.7</ele>
        <time>2013-09-28T14:19:38.441Z</time>
      </trkpt>
      <trkpt lat="43.52024" lon="1.47166">
        <ele>327.1</ele>
        <time>2013-09-28T14:19:39.401Z</time>
      </trkpt>
      <trkpt lat="43.52033" lon="1.47169">
        <ele>328.3</ele>
        <time>2013-09-28T14:19:42.431Z</time>
      </trkpt>
      <trkpt lat="43.52035" lon="1.47169">
        <ele>327.2</ele>
        <time>2013-09-28T14:19:43.418Z</time>
      </trkpt>
      <trkpt lat="43.52043" lon="1.47174">
        <ele>326.5</ele>
        <time>2013-09-28T14:19:47.449Z</time>
      </trkpt>
      <trkpt lat="43.52045" lon="1.47175">
        <ele>327.4</ele>
        <time>2013-09-28T14:19:48.443Z</time>
      </trkpt>
      <trkpt lat="43.52053" lon="1.47176">
        <ele>327</ele>
        <time>2013-09-28T14:19:51.477Z</time>
      </trkpt>
      <trkpt lat="43.52055" lon="1.47176">
        <ele>327.5</ele>
        <time>2013-09-28T14:19:52.432Z</time>
      </trkpt>
      <trkpt lat="43.52062" lon="1.47174">
        <ele>327.7</ele>
        <time>2013-09-28T14:19:55.435Z</time>
      </trkpt>
      <trkpt lat="43.52064" lon="1.47175">
        <ele>327.4</ele>
        <time>2013-09-28T14:19:56.424Z</time>
      </trkpt>
      <trkpt lat="43.52072" lon="1.47179">
        <ele>326.2</ele>
        <time>2013-09-28T14:20:00.378Z</time>
      </trkpt>
      <trkpt lat="43.52075" lon="1.47179">
        <ele>326.4</ele>
        <time>2013-09-28T14:20:01.408Z</time>
      </trkpt>
      <trkpt lat="43.52082" lon="1.4718">
        <ele>325.2</ele>
        <time>2013-09-28T14:20:03.451Z</time>
      </trkpt>
      <trkpt lat="43.52085" lon="1.47179">
        <ele>324.9</ele>
        <time>2013-09-28T14:20:04.483Z</time>
      </trkpt>
      <trkpt lat="43.52093" lon="1.47178">
        <ele>330.1</ele>
        <time>2013-09-28T14:20:08.434Z</time>
      </trkpt>
      <trkpt lat="43.52094" lon="1.47179">
        <ele>331.1</ele>
        <time>2013-09-28T14:20:09.492Z</time>
      </trkpt>
      <trkpt lat="43.521" lon="1.47181">
        <ele>332.6</ele>
        <time>2013-09-28T14:20:11.391Z</time>
      </trkpt>
      <trkpt lat="43.52103" lon="1.47182">
        <ele>333.4</ele>
        <time>2013-09-28T14:20:12.529Z</time>
      </trkpt>
      <trkpt lat="43.5211" lon="1.47187">
        <ele>331.7</ele>
        <time>2013-09-28T14:20:17.451Z</time>
      </trkpt>
      <trkpt lat="43.5211" lon="1.47189">
        <ele>330.6</ele>
        <time>2013-09-28T14:20:18.479Z</time>
      </trkpt>
      <trkpt lat="43.52115" lon="1.47195">
        <ele>328.8</ele>
        <time>2013-09-28T14:20:21.454Z</time>
      </trkpt>
      <trkpt lat="43.52119" lon="1.47199">
        <ele>326.9</ele>
        <time>2013-09-28T14:20:22.413Z</time>
      </trkpt>
      <trkpt lat="43.52124" lon="1.47202">
        <ele>324.8</ele>
        <time>2013-09-28T14:20:23.476Z</time>
      </trkpt>
      <trkpt lat="43.52129" lon="1.47205">
        <ele>322.1</ele>
        <time>2013-09-28T14:20:24.496Z</time>
      </trkpt>
      <trkpt lat="43.52136" lon="1.47212">
        <ele>321.8</ele>
        <time>2013-09-28T14:20:26.438Z</time>
      </trkpt>
      <trkpt lat="43.52138" lon="1.47215">
        <ele>321.3</ele>
        <time>2013-09-28T14:20:27.487Z</time>
      </trkpt>
      <trkpt lat="43.52143" lon="1.47221">
        <ele>322.7</ele>
        <time>2013-09-28T14:20:30.268Z</time>
      </trkpt>
      <trkpt lat="43.52146" lon="1.47223">
        <ele>322.3</ele>
        <time>2013-09-28T14:20:30.465Z</time>
      </trkpt>
      <trkpt lat="43.52153" lon="1.47227">
        <ele>322.1</ele>
        <time>2013-09-28T14:20:33.455Z</time>
      </trkpt>
      <trkpt lat="43.52155" lon="1.4723">
        <ele>322.3</ele>
        <time>2013-09-28T14:20:34.422Z</time>
      </trkpt>
      <trkpt lat="43.52161" lon="1.47234">
        <ele>326.6</ele>
        <time>2013-09-28T14:20:37.401Z</time>
      </trkpt>
      <trkpt lat="43.52163" lon="1.47235">
        <ele>326.6</ele>
        <time>2013-09-28T14:20:38.406Z</time>
      </trkpt>
      <trkpt lat="43.5217" lon="1.47239">
        <ele>326</ele>
        <time>2013-09-28T14:20:40.444Z</time>
      </trkpt>
      <trkpt lat="43.52173" lon="1.47242">
        <ele>326.7</ele>
        <time>2013-09-28T14:20:41.514Z</time>
      </trkpt>
      <trkpt lat="43.52179" lon="1.47248">
        <ele>324.2</ele>
        <time>2013-09-28T14:20:43.469Z</time>
      </trkpt>
      <trkpt lat="43.52182" lon="1.47251">
        <ele>323.4</ele>
        <time>2013-09-28T14:20:44.582Z</time>
      </trkpt>
      <trkpt lat="43.52188" lon="1.47258">
        <ele>318.4</ele>
        <time>2013-09-28T14:20:46.487Z</time>
      </trkpt>
      <trkpt lat="43.5219" lon="1.47261">
        <ele>318.2</ele>
        <time>2013-09-28T14:20:47.499Z</time>
      </trkpt>
      <trkpt lat="43.52197" lon="1.47268">
        <ele>319.1</ele>
        <time>2013-09-28T14:20:52.490Z</time>
      </trkpt>
      <trkpt lat="43.52199" lon="1.47271">
        <ele>318.2</ele>
        <time>2013-09-28T14:20:53.444Z</time>
      </trkpt>
      <trkpt lat="43.52204" lon="1.47281">
        <ele>318.5</ele>
        <time>2013-09-28T14:20:56.389Z</time>
      </trkpt>
      <trkpt lat="43.52206" lon="1.47284">
        <ele>318.5</ele>
        <time>2013-09-28T14:20:57.482Z</time>
      </trkpt>
      <trkpt lat="43.5221" lon="1.47286">
        <ele>314.9</ele>
        <time>2013-09-28T14:20:58.482Z</time>
      </trkpt>
      <trkpt lat="43.52215" lon="1.4729">
        <ele>308.3</ele>
        <time>2013-09-28T14:20:59.451Z</time>
      </trkpt>
      <trkpt lat="43.52223" lon="1.47297">
        <ele>307.5</ele>
        <time>2013-09-28T14:21:01.491Z</time>
      </trkpt>
      <trkpt lat="43.52226" lon="1.47301">
        <ele>305.3</ele>
        <time>2013-09-28T14:21:02.501Z</time>
      </trkpt>
      <trkpt lat="43.52231" lon="1.47309">
        <ele>305.5</ele>
        <time>2013-09-28T14:21:05.197Z</time>
      </trkpt>
      <trkpt lat="43.52234" lon="1.47313">
        <ele>305.3</ele>
        <time>2013-09-28T14:21:05.437Z</time>
      </trkpt>
      <trkpt lat="43.52237" lon="1.47321">
        <ele>303.9</ele>
        <time>2013-09-28T14:21:07.518Z</time>
      </trkpt>
      <trkpt lat="43.52238" lon="1.47324">
        <ele>302.8</ele>
        <time>2013-09-28T14:21:08.477Z</time>
      </trkpt>
      <trkpt lat="43.52246" lon="1.47328">
        <ele>301.7</ele>
        <time>2013-09-28T14:21:11.489Z</time>
      </trkpt>
      <trkpt lat="43.52247" lon="1.47329">
        <ele>302.3</ele>
        <time>2013-09-28T14:21:12.480Z</time>
      </trkpt>
      <trkpt lat="43.52252" lon="1.47337">
        <ele>305.7</ele>
        <time>2013-09-28T14:21:17.482Z</time>
      </trkpt>
      <trkpt lat="43.52253" lon="1.47339">
        <ele>307.3</ele>
        <time>2013-09-28T14:21:18.490Z</time>
      </trkpt>
      <trkpt lat="43.5226" lon="1.47336">
        <ele>307.2</ele>
        <time>2013-09-28T14:21:20.381Z</time>
      </trkpt>
      <trkpt lat="43.52263" lon="1.47334">
        <ele>306.4</ele>
        <time>2013-09-28T14:21:21.463Z</time>
      </trkpt>
      <trkpt lat="43.5227" lon="1.47328">
        <ele>303.9</ele>
        <time>2013-09-28T14:21:23.467Z</time>
      </trkpt>
      <trkpt lat="43.52273" lon="1.47324">
        <ele>303.4</ele>
        <time>2013-09-28T14:21:24.680Z</time>
      </trkpt>
      <trkpt lat="43.52276" lon="1.47317">
        <ele>302.2</ele>
        <time>2013-09-28T14:21:26.380Z</time>
      </trkpt>
      <trkpt lat="43.52278" lon="1.47312">
        <ele>302.4</ele>
        <time>2013-09-28T14:21:27.477Z</time>
      </trkpt>
      <trkpt lat="43.52285" lon="1.47306">
        <ele>300.6</ele>
        <time>2013-09-28T14:21:30.433Z</time>
      </trkpt>
      <trkpt lat="43.52287" lon="1.47303">
        <ele>300.8</ele>
        <time>2013-09-28T14:21:31.491Z</time>
      </trkpt>
      <trkpt lat="43.52293" lon="1.47296">
        <ele>301.3</ele>
        <time>2013-09-28T14:21:35.350Z</time>
      </trkpt>
      <trkpt lat="43.52295" lon="1.47294">
        <ele>301.5</ele>
        <time>2013-09-28T14:21:35.440Z</time>
      </trkpt>
      <trkpt lat="43.52299" lon="1.47288">
        <ele>302.9</ele>
        <time>2013-09-28T14:21:37.423Z</time>
      </trkpt>
      <trkpt lat="43.523" lon="1.47284">
        <ele>301.3</ele>
        <time>2013-09-28T14:21:38.388Z</time>
      </trkpt>
      <trkpt lat="43.52304" lon="1.47275">
        <ele>300.4</ele>
        <time>2013-09-28T14:21:40.501Z</time>
      </trkpt>
      <trkpt lat="43.52306" lon="1.47271">
        <ele>300.9</ele>
        <time>2013-09-28T14:21:41.595Z</time>
      </trkpt>
      <trkpt lat="43.52312" lon="1.47262">
        <ele>298.9</ele>
        <time>2013-09-28T14:21:44.393Z</time>
      </trkpt>
      <trkpt lat="43.52315" lon="1.47259">
        <ele>298.7</ele>
        <time>2013-09-28T14:21:45.391Z</time>
      </trkpt>
      <trkpt lat="43.52321" lon="1.47254">
        <ele>299</ele>
        <time>2013-09-28T14:21:47.393Z</time>
      </trkpt>
      <trkpt lat="43.52324" lon="1.47252">
        <ele>300.1</ele>
        <time>2013-09-28T14:21:48.390Z</time>
      </trkpt>
      <trkpt lat="43.5233" lon="1.47246">
        <ele>299.8</ele>
        <time>2013-09-28T14:21:51.607Z</time>
      </trkpt>
      <trkpt lat="43.52332" lon="1.47245">
        <ele>299.7</ele>
        <time>2013-09-28T14:21:52.493Z</time>
      </trkpt>
      <trkpt lat="43.5234" lon="1.47242">
        <ele>298.3</ele>
        <time>2013-09-28T14:21:55.513Z</time>
      </trkpt>
      <trkpt lat="43.52342" lon="1.4724">
        <ele>298.1</ele>
        <time>2013-09-28T14:21:56.531Z</time>
      </trkpt>
      <trkpt lat="43.52348" lon="1.47232">
        <ele>300.6</ele>
        <time>2013-09-28T14:22:00.403Z</time>
      </trkpt>
      <trkpt lat="43.5235" lon="1.47229">
        <ele>299.4</ele>
        <time>2013-09-28T14:22:01.398Z</time>
      </trkpt>
      <trkpt lat="43.52355" lon="1.47221">
        <ele>298.2</ele>
        <time>2013-09-28T14:22:03.406Z</time>
      </trkpt>
      <trkpt lat="43.52358" lon="1.47216">
        <ele>297.1</ele>
        <time>2013-09-28T14:22:04.444Z</time>
      </trkpt>
      <trkpt lat="43.52364" lon="1.4721">
        <ele>293.8</ele>
        <time>2013-09-28T14:22:06.457Z</time>
      </trkpt>
      <trkpt lat="43.52366" lon="1.47206">
        <ele>293.8</ele>
        <time>2013-09-28T14:22:07.527Z</time>
      </trkpt>
      <trkpt lat="43.5237" lon="1.47195">
        <ele>295</ele>
        <time>2013-09-28T14:22:10.759Z</time>
      </trkpt>
      <trkpt lat="43.52371" lon="1.47192">
        <ele>295.4</ele>
        <time>2013-09-28T14:22:11.405Z</time>
      </trkpt>
      <trkpt lat="43.52374" lon="1.47184">
        <ele>295.1</ele>
        <time>2013-09-28T14:22:13.401Z</time>
      </trkpt>
      <trkpt lat="43.52375" lon="1.4718">
        <ele>295.6</ele>
        <time>2013-09-28T14:22:14.377Z</time>
      </trkpt>
      <trkpt lat="43.52379" lon="1.47173">
        <ele>293.1</ele>
        <time>2013-09-28T14:22:16.593Z</time>
      </trkpt>
      <trkpt lat="43.52381" lon="1.47169">
        <ele>291.9</ele>
        <time>2013-09-28T14:22:17.572Z</time>
      </trkpt>
      <trkpt lat="43.52383" lon="1.47162">
        <ele>291.8</ele>
        <time>2013-09-28T14:22:20.377Z</time>
      </trkpt>
      <trkpt lat="43.52385" lon="1.47158">
        <ele>291.8</ele>
        <time>2013-09-28T14:22:20.454Z</time>
      </trkpt>
      <trkpt lat="43.52389" lon="1.4715">
        <ele>292</ele>
        <time>2013-09-28T14:22:22.398Z</time>
      </trkpt>
      <trkpt lat="43.52391" lon="1.47146">
        <ele>291</ele>
        <time>2013-09-28T14:22:23.403Z</time>
      </trkpt>
      <trkpt lat="43.52397" lon="1.47137">
        <ele>291.4</ele>
        <time>2013-09-28T14:22:26.498Z</time>
      </trkpt>
      <trkpt lat="43.52399" lon="1.47135">
        <ele>291.4</ele>
        <time>2013-09-28T14:22:27.475Z</time>
      </trkpt>
      <trkpt lat="43.52404" lon="1.47127">
        <ele>286.9</ele>
        <time>2013-09-28T14:22:30.436Z</time>
      </trkpt>
      <trkpt lat="43.52406" lon="1.47124">
        <ele>286.3</ele>
        <time>2013-09-28T14:22:30.583Z</time>
      </trkpt>
      <trkpt lat="43.52409" lon="1.47114">
        <ele>287.7</ele>
        <time>2013-09-28T14:22:33.531Z</time>
      </trkpt>
      <trkpt lat="43.52411" lon="1.47111">
        <ele>286.5</ele>
        <time>2013-09-28T14:22:34.541Z</time>
      </trkpt>
      <trkpt lat="43.52415" lon="1.47104">
        <ele>286.5</ele>
        <time>2013-09-28T14:22:37.459Z</time>
      </trkpt>
      <trkpt lat="43.52416" lon="1.47101">
        <ele>286.1</ele>
        <time>2013-09-28T14:22:38.412Z</time>
      </trkpt>
      <trkpt lat="43.52422" lon="1.47093">
        <ele>286</ele>
        <time>2013-09-28T14:22:41.562Z</time>
      </trkpt>
      <trkpt lat="43.52425" lon="1.4709">
        <ele>286</ele>
        <time>2013-09-28T14:22:42.529Z</time>
      </trkpt>
      <trkpt lat="43.52429" lon="1.47084">
        <ele>284.9</ele>
        <time>2013-09-28T14:22:45.501Z</time>
      </trkpt>
      <trkpt lat="43.52432" lon="1.47081">
        <ele>284</ele>
        <time>2013-09-28T14:22:45.571Z</time>
      </trkpt>
      <trkpt lat="43.52439" lon="1.47074">
        <ele>283.7</ele>
        <time>2013-09-28T14:22:48.486Z</time>
      </trkpt>
      <trkpt lat="43.52441" lon="1.47073">
        <ele>285.3</ele>
        <time>2013-09-28T14:22:49.399Z</time>
      </trkpt>
      <trkpt lat="43.52446" lon="1.4707">
        <ele>284.5</ele>
        <time>2013-09-28T14:22:51.454Z</time>
      </trkpt>
      <trkpt lat="43.52449" lon="1.47069">
        <ele>284</ele>
        <time>2013-09-28T14:22:52.507Z</time>
      </trkpt>
      <trkpt lat="43.52458" lon="1.47068">
        <ele>287.1</ele>
        <time>2013-09-28T14:22:56.472Z</time>
      </trkpt>
      <trkpt lat="43.52459" lon="1.47068">
        <ele>286.9</ele>
        <time>2013-09-28T14:22:57.497Z</time>
      </trkpt>
      <trkpt lat="43.52467" lon="1.47072">
        <ele>285.4</ele>
        <time>2013-09-28T14:23:00.439Z</time>
      </trkpt>
      <trkpt lat="43.52469" lon="1.47075">
        <ele>285.9</ele>
        <time>2013-09-28T14:23:01.474Z</time>
      </trkpt>
      <trkpt lat="43.52477" lon="1.47081">
        <ele>284.6</ele>
        <time>2013-09-28T14:23:05.255Z</time>
      </trkpt>
      <trkpt lat="43.52479" lon="1.47083">
        <ele>283.6</ele>
        <time>2013-09-28T14:23:05.377Z</time>
      </trkpt>
      <trkpt lat="43.52487" lon="1.47088">
        <ele>285.5</ele>
        <time>2013-09-28T14:23:08.483Z</time>
      </trkpt>
      <trkpt lat="43.52488" lon="1.47089">
        <ele>287.2</ele>
        <time>2013-09-28T14:23:09.546Z</time>
      </trkpt>
      <trkpt lat="43.52495" lon="1.47096">
        <ele>287.2</ele>
        <time>2013-09-28T14:23:13.442Z</time>
      </trkpt>
      <trkpt lat="43.52497" lon="1.47098">
        <ele>286.9</ele>
        <time>2013-09-28T14:23:14.467Z</time>
      </trkpt>
      <trkpt lat="43.52504" lon="1.47103">
        <ele>286.7</ele>
        <time>2013-09-28T14:23:17.512Z</time>
      </trkpt>
      <trkpt lat="43.52506" lon="1.47105">
        <ele>287.5</ele>
        <time>2013-09-28T14:23:18.593Z</time>
      </trkpt>
      <trkpt lat="43.52512" lon="1.47112">
        <ele>287.6</ele>
        <time>2013-09-28T14:23:21.386Z</time>
      </trkpt>
      <trkpt lat="43.52514" lon="1.47114">
        <ele>287.1</ele>
        <time>2013-09-28T14:23:22.406Z</time>
      </trkpt>
      <trkpt lat="43.5252" lon="1.47118">
        <ele>289.2</ele>
        <time>2013-09-28T14:23:25.530Z</time>
      </trkpt>
      <trkpt lat="43.52523" lon="1.47121">
        <ele>288.6</ele>
        <time>2013-09-28T14:23:26.493Z</time>
      </trkpt>
      <trkpt lat="43.52528" lon="1.47129">
        <ele>294.9</ele>
        <time>2013-09-28T14:23:31.411Z</time>
      </trkpt>
      <trkpt lat="43.52529" lon="1.4713">
        <ele>297.2</ele>
        <time>2013-09-28T14:23:32.434Z</time>
      </trkpt>
      <trkpt lat="43.52534" lon="1.47138">
        <ele>299</ele>
        <time>2013-09-28T14:23:37.440Z</time>
      </trkpt>
      <trkpt lat="43.52535" lon="1.47143">
        <ele>299</ele>
        <time>2013-09-28T14:23:38.450Z</time>
      </trkpt>
      <trkpt lat="43.52539" lon="1.4715">
        <ele>299.5</ele>
        <time>2013-09-28T14:23:40.718Z</time>
      </trkpt>
      <trkpt lat="43.52541" lon="1.47154">
        <ele>299.6</ele>
        <time>2013-09-28T14:23:41.439Z</time>
      </trkpt>
      <trkpt lat="43.52545" lon="1.4716">
        <ele>299.3</ele>
        <time>2013-09-28T14:23:43.476Z</time>
      </trkpt>
      <trkpt lat="43.52548" lon="1.47162">
        <ele>299.6</ele>
        <time>2013-09-28T14:23:44.436Z</time>
      </trkpt>
      <trkpt lat="43.52549" lon="1.47172">
        <ele>297.9</ele>
        <time>2013-09-28T14:23:48.419Z</time>
      </trkpt>
      <trkpt lat="43.5255" lon="1.47175">
        <ele>298.7</ele>
        <time>2013-09-28T14:23:49.445Z</time>
      </trkpt>
      <trkpt lat="43.5255" lon="1.47185">
        <ele>298.7</ele>
        <time>2013-09-28T14:23:51.436Z</time>
      </trkpt>
      <trkpt lat="43.5255" lon="1.47192">
        <ele>297.8</ele>
        <time>2013-09-28T14:23:52.433Z</time>
      </trkpt>
      <trkpt lat="43.52551" lon="1.47203">
        <ele>294</ele>
        <time>2013-09-28T14:23:55.149Z</time>
      </trkpt>
      <trkpt lat="43.52551" lon="1.47208">
        <ele>293.5</ele>
        <time>2013-09-28T14:23:55.461Z</time>
      </trkpt>
      <trkpt lat="43.52546" lon="1.47217">
        <ele>298</ele>
        <time>2013-09-28T14:24:00.171Z</time>
      </trkpt>
      <trkpt lat="43.52542" lon="1.47216">
        <ele>297.9</ele>
        <time>2013-09-28T14:24:00.424Z</time>
      </trkpt>
      <trkpt lat="43.5254" lon="1.47226">
        <ele>296.4</ele>
        <time>2013-09-28T14:24:03.418Z</time>
      </trkpt>
      <trkpt lat="43.52543" lon="1.47229">
        <ele>298.1</ele>
        <time>2013-09-28T14:24:04.477Z</time>
      </trkpt>
      <trkpt lat="43.52546" lon="1.4724">
        <ele>296.8</ele>
        <time>2013-09-28T14:24:08.433Z</time>
      </trkpt>
      <trkpt lat="43.52547" lon="1.47242">
        <ele>297.1</ele>
        <time>2013-09-28T14:24:09.494Z</time>
      </trkpt>
      <trkpt lat="43.52549" lon="1.4725">
        <ele>296.5</ele>
        <time>2013-09-28T14:24:12.448Z</time>
      </trkpt>
      <trkpt lat="43.5255" lon="1.47255">
        <ele>295.9</ele>
        <time>2013-09-28T14:24:13.429Z</time>
      </trkpt>
      <trkpt lat="43.52551" lon="1.47261">
        <ele>296.3</ele>
        <time>2013-09-28T14:24:15.263Z</time>
      </trkpt>
      <trkpt lat="43.52554" lon="1.47266">
        <ele>295.9</ele>
        <time>2013-09-28T14:24:15.673Z</time>
      </trkpt>
      <trkpt lat="43.52555" lon="1.47275">
        <ele>295.8</ele>
        <time>2013-09-28T14:24:17.522Z</time>
      </trkpt>
      <trkpt lat="43.52554" lon="1.4728">
        <ele>295.9</ele>
        <time>2013-09-28T14:24:18.448Z</time>
      </trkpt>
      <trkpt lat="43.52548" lon="1.47287">
        <ele>294.3</ele>
        <time>2013-09-28T14:24:20.284Z</time>
      </trkpt>
      <trkpt lat="43.52547" lon="1.47292">
        <ele>292.6</ele>
        <time>2013-09-28T14:24:20.403Z</time>
      </trkpt>
      <trkpt lat="43.52549" lon="1.47302">
        <ele>292.4</ele>
        <time>2013-09-28T14:24:23.446Z</time>
      </trkpt>
      <trkpt lat="43.52552" lon="1.47305">
        <ele>289.7</ele>
        <time>2013-09-28T14:24:24.441Z</time>
      </trkpt>
      <trkpt lat="43.52556" lon="1.47315">
        <ele>287.8</ele>
        <time>2013-09-28T14:24:27.442Z</time>
      </trkpt>
      <trkpt lat="43.52557" lon="1.4732">
        <ele>286.3</ele>
        <time>2013-09-28T14:24:28.438Z</time>
      </trkpt>
      <trkpt lat="43.5256" lon="1.47329">
        <ele>287.5</ele>
        <time>2013-09-28T14:24:31.425Z</time>
      </trkpt>
      <trkpt lat="43.52563" lon="1.47332">
        <ele>285.9</ele>
        <time>2013-09-28T14:24:32.453Z</time>
      </trkpt>
      <trkpt lat="43.5256" lon="1.47344">
        <ele>295.8</ele>
        <time>2013-09-28T14:24:36.484Z</time>
      </trkpt>
      <trkpt lat="43.52559" lon="1.47348">
        <ele>296.1</ele>
        <time>2013-09-28T14:24:37.489Z</time>
      </trkpt>
      <trkpt lat="43.52557" lon="1.4736">
        <ele>296.7</ele>
        <time>2013-09-28T14:24:40.492Z</time>
      </trkpt>
      <trkpt lat="43.52556" lon="1.47363">
        <ele>298.6</ele>
        <time>2013-09-28T14:24:41.392Z</time>
      </trkpt>
      <trkpt lat="43.52563" lon="1.4737">
        <ele>299.7</ele>
        <time>2013-09-28T14:24:43.493Z</time>
      </trkpt>
      <trkpt lat="43.52567" lon="1.47374">
        <ele>299.9</ele>
        <time>2013-09-28T14:24:44.392Z</time>
      </trkpt>
      <trkpt lat="43.52569" lon="1.47384">
        <ele>296.4</ele>
        <time>2013-09-28T14:24:47.426Z</time>
      </trkpt>
      <trkpt lat="43.52569" lon="1.47388">
        <ele>297.1</ele>
        <time>2013-09-28T14:24:48.437Z</time>
      </trkpt>
      <trkpt lat="43.5257" lon="1.47397">
        <ele>295.8</ele>
        <time>2013-09-28T14:24:50.371Z</time>
      </trkpt>
      <trkpt lat="43.52576" lon="1.47402">
        <ele>291.4</ele>
        <time>2013-09-28T14:24:51.406Z</time>
      </trkpt>
      <trkpt lat="43.52579" lon="1.47414">
        <ele>292.5</ele>
        <time>2013-09-28T14:24:53.487Z</time>
      </trkpt>
      <trkpt lat="43.52578" lon="1.47419">
        <ele>293</ele>
        <time>2013-09-28T14:24:54.435Z</time>
      </trkpt>
      <trkpt lat="43.52575" lon="1.47429">
        <ele>292.3</ele>
        <time>2013-09-28T14:24:56.441Z</time>
      </trkpt>
      <trkpt lat="43.52573" lon="1.47436">
        <ele>291.2</ele>
        <time>2013-09-28T14:24:57.448Z</time>
      </trkpt>
      <trkpt lat="43.52571" lon="1.47446">
        <ele>290.6</ele>
        <time>2013-09-28T14:25:00.179Z</time>
      </trkpt>
      <trkpt lat="43.5257" lon="1.47449">
        <ele>290.4</ele>
        <time>2013-09-28T14:25:00.417Z</time>
      </trkpt>
      <trkpt lat="43.52568" lon="1.4746">
        <ele>285.2</ele>
        <time>2013-09-28T14:25:03.411Z</time>
      </trkpt>
      <trkpt lat="43.52569" lon="1.47465">
        <ele>285</ele>
        <time>2013-09-28T14:25:04.485Z</time>
      </trkpt>
      <trkpt lat="43.52573" lon="1.47475">
        <ele>282.2</ele>
        <time>2013-09-28T14:25:06.443Z</time>
      </trkpt>
      <trkpt lat="43.52573" lon="1.47479">
        <ele>282</ele>
        <time>2013-09-28T14:25:07.430Z</time>
      </trkpt>
      <trkpt lat="43.52571" lon="1.47489">
        <ele>282.9</ele>
        <time>2013-09-28T14:25:10.489Z</time>
      </trkpt>
      <trkpt lat="43.5257" lon="1.47492">
        <ele>282.2</ele>
        <time>2013-09-28T14:25:11.483Z</time>
      </trkpt>
      <trkpt lat="43.52571" lon="1.47502">
        <ele>282.3</ele>
        <time>2013-09-28T14:25:15.258Z</time>
      </trkpt>
      <trkpt lat="43.52573" lon="1.47505">
        <ele>282.6</ele>
        <time>2013-09-28T14:25:15.431Z</time>
      </trkpt>
      <trkpt lat="43.52575" lon="1.47509">
        <ele>282.4</ele>
        <time>2013-09-28T14:25:16.411Z</time>
      </trkpt>
      <trkpt lat="43.52573" lon="1.47518">
        <ele>278.5</ele>
        <time>2013-09-28T14:25:17.421Z</time>
      </trkpt>
      <trkpt lat="43.52572" lon="1.47525">
        <ele>277.2</ele>
        <time>2013-09-28T14:25:18.493Z</time>
      </trkpt>
      <trkpt lat="43.52573" lon="1.4753">
        <ele>277.8</ele>
        <time>2013-09-28T14:25:19.507Z</time>
      </trkpt>
      <trkpt lat="43.52577" lon="1.47541">
        <ele>277.4</ele>
        <time>2013-09-28T14:25:22.419Z</time>
      </trkpt>
      <trkpt lat="43.52579" lon="1.47544">
        <ele>277.4</ele>
        <time>2013-09-28T14:25:23.434Z</time>
      </trkpt>
      <trkpt lat="43.52581" lon="1.47553">
        <ele>275.9</ele>
        <time>2013-09-28T14:25:26.467Z</time>
      </trkpt>
      <trkpt lat="43.52582" lon="1.47556">
        <ele>275.3</ele>
        <time>2013-09-28T14:25:27.425Z</time>
      </trkpt>
      <trkpt lat="43.52586" lon="1.47562">
        <ele>275.7</ele>
        <time>2013-09-28T14:25:30.359Z</time>
      </trkpt>
      <trkpt lat="43.52589" lon="1.47567">
        <ele>275.9</ele>
        <time>2013-09-28T14:25:30.451Z</time>
      </trkpt>
      <trkpt lat="43.52595" lon="1.47571">
        <ele>275</ele>
        <time>2013-09-28T14:25:32.417Z</time>
      </trkpt>
      <trkpt lat="43.52598" lon="1.47573">
        <ele>275.1</ele>
        <time>2013-09-28T14:25:33.447Z</time>
      </trkpt>
      <trkpt lat="43.52604" lon="1.47579">
        <ele>278.7</ele>
        <time>2013-09-28T14:25:37.401Z</time>
      </trkpt>
      <trkpt lat="43.52605" lon="1.47581">
        <ele>278.2</ele>
        <time>2013-09-28T14:25:38.381Z</time>
      </trkpt>
      <trkpt lat="43.52608" lon="1.4759">
        <ele>277</ele>
        <time>2013-09-28T14:25:41.463Z</time>
      </trkpt>
      <trkpt lat="43.5261" lon="1.47594">
        <ele>275.8</ele>
        <time>2013-09-28T14:25:42.448Z</time>
      </trkpt>
      <trkpt lat="43.52615" lon="1.47603">
        <ele>274</ele>
        <time>2013-09-28T14:25:44.441Z</time>
      </trkpt>
      <trkpt lat="43.52618" lon="1.47607">
        <ele>273.4</ele>
        <time>2013-09-28T14:25:45.436Z</time>
      </trkpt>
      <trkpt lat="43.52622" lon="1.47614">
        <ele>271</ele>
        <time>2013-09-28T14:25:47.377Z</time>
      </trkpt>
      <trkpt lat="43.52624" lon="1.47617">
        <ele>269.9</ele>
        <time>2013-09-28T14:25:48.529Z</time>
      </trkpt>
      <trkpt lat="43.52633" lon="1.4762">
        <ele>272.8</ele>
        <time>2013-09-28T14:25:55.186Z</time>
      </trkpt>
      <trkpt lat="43.52635" lon="1.47621">
        <ele>273</ele>
        <time>2013-09-28T14:25:55.425Z</time>
      </trkpt>
      <trkpt lat="43.52639" lon="1.47629">
        <ele>272.9</ele>
        <time>2013-09-28T14:25:58.476Z</time>
      </trkpt>
      <trkpt lat="43.5264" lon="1.47633">
        <ele>272.5</ele>
        <time>2013-09-28T14:25:59.479Z</time>
      </trkpt>
      <trkpt lat="43.52644" lon="1.47643">
        <ele>274.8</ele>
        <time>2013-09-28T14:26:05.204Z</time>
      </trkpt>
      <trkpt lat="43.52647" lon="1.47646">
        <ele>275.1</ele>
        <time>2013-09-28T14:26:05.460Z</time>
      </trkpt>
      <trkpt lat="43.52654" lon="1.47652">
        <ele>276.4</ele>
        <time>2013-09-28T14:26:08.407Z</time>
      </trkpt>
      <trkpt lat="43.52655" lon="1.47654">
        <ele>277.2</ele>
        <time>2013-09-28T14:26:09.468Z</time>
      </trkpt>
      <trkpt lat="43.5266" lon="1.47663">
        <ele>280.6</ele>
        <time>2013-09-28T14:26:13.412Z</time>
      </trkpt>
      <trkpt lat="43.52664" lon="1.47666">
        <ele>277.2</ele>
        <time>2013-09-28T14:26:14.540Z</time>
      </trkpt>
      <trkpt lat="43.5267" lon="1.4767">
        <ele>277.5</ele>
        <time>2013-09-28T14:26:16.477Z</time>
      </trkpt>
      <trkpt lat="43.52672" lon="1.47672">
        <ele>278.2</ele>
        <time>2013-09-28T14:26:17.443Z</time>
      </trkpt>
      <trkpt lat="43.52677" lon="1.47677">
        <ele>277.2</ele>
        <time>2013-09-28T14:26:20.304Z</time>
      </trkpt>
      <trkpt lat="43.52682" lon="1.47681">
        <ele>276.3</ele>
        <time>2013-09-28T14:26:21.385Z</time>
      </trkpt>
      <trkpt lat="43.52688" lon="1.47687">
        <ele>277.2</ele>
        <time>2013-09-28T14:26:25.310Z</time>
      </trkpt>
      <trkpt lat="43.52689" lon="1.47688">
        <ele>277.7</ele>
        <time>2013-09-28T14:26:25.439Z</time>
      </trkpt>
      <trkpt lat="43.52697" lon="1.47694">
        <ele>278.2</ele>
        <time>2013-09-28T14:26:28.427Z</time>
      </trkpt>
      <trkpt lat="43.527" lon="1.47696">
        <ele>279</ele>
        <time>2013-09-28T14:26:29.544Z</time>
      </trkpt>
      <trkpt lat="43.52706" lon="1.47702">
        <ele>280.2</ele>
        <time>2013-09-28T14:26:32.461Z</time>
      </trkpt>
      <trkpt lat="43.52708" lon="1.47702">
        <ele>282.4</ele>
        <time>2013-09-28T14:26:33.443Z</time>
      </trkpt>
      <trkpt lat="43.52716" lon="1.47704">
        <ele>292.3</ele>
        <time>2013-09-28T14:26:40.620Z</time>
      </trkpt>
      <trkpt lat="43.52718" lon="1.47705">
        <ele>292.8</ele>
        <time>2013-09-28T14:26:41.427Z</time>
      </trkpt>
      <trkpt lat="43.52725" lon="1.47712">
        <ele>286</ele>
        <time>2013-09-28T14:26:43.436Z</time>
      </trkpt>
      <trkpt lat="43.52727" lon="1.47714">
        <ele>287.3</ele>
        <time>2013-09-28T14:26:44.456Z</time>
      </trkpt>
      <trkpt lat="43.52731" lon="1.4772">
        <ele>285</ele>
        <time>2013-09-28T14:26:46.473Z</time>
      </trkpt>
      <trkpt lat="43.52733" lon="1.47724">
        <ele>282.6</ele>
        <time>2013-09-28T14:26:47.433Z</time>
      </trkpt>
      <trkpt lat="43.52734" lon="1.47734">
        <ele>279.3</ele>
        <time>2013-09-28T14:26:51.409Z</time>
      </trkpt>
      <trkpt lat="43.52733" lon="1.47737">
        <ele>278.6</ele>
        <time>2013-09-28T14:26:52.544Z</time>
      </trkpt>
      <trkpt lat="43.5273" lon="1.47748">
        <ele>274.5</ele>
        <time>2013-09-28T14:26:54.438Z</time>
      </trkpt>
      <trkpt lat="43.52729" lon="1.47752">
        <ele>274.8</ele>
        <time>2013-09-28T14:26:55.503Z</time>
      </trkpt>
      <trkpt lat="43.52723" lon="1.47761">
        <ele>278.1</ele>
        <time>2013-09-28T14:27:00.269Z</time>
      </trkpt>
      <trkpt lat="43.52722" lon="1.47763">
        <ele>277</ele>
        <time>2013-09-28T14:27:00.381Z</time>
      </trkpt>
      <trkpt lat="43.52718" lon="1.47774">
        <ele>278.6</ele>
        <time>2013-09-28T14:27:05.595Z</time>
      </trkpt>
      <trkpt lat="43.52719" lon="1.47776">
        <ele>279.3</ele>
        <time>2013-09-28T14:27:06.448Z</time>
      </trkpt>
      <trkpt lat="43.52719" lon="1.47788">
        <ele>280.2</ele>
        <time>2013-09-28T14:27:13.393Z</time>
      </trkpt>
      <trkpt lat="43.52718" lon="1.47791">
        <ele>280.3</ele>
        <time>2013-09-28T14:27:14.494Z</time>
      </trkpt>
      <trkpt lat="43.52713" lon="1.47796">
        <ele>280.5</ele>
        <time>2013-09-28T14:27:17.423Z</time>
      </trkpt>
      <trkpt lat="43.5271" lon="1.47799">
        <ele>281</ele>
        <time>2013-09-28T14:27:18.392Z</time>
      </trkpt>
      <trkpt lat="43.52703" lon="1.47804">
        <ele>284.2</ele>
        <time>2013-09-28T14:27:20.393Z</time>
      </trkpt>
      <trkpt lat="43.52702" lon="1.47806">
        <ele>283.8</ele>
        <time>2013-09-28T14:27:21.386Z</time>
      </trkpt>
      <trkpt lat="43.52702" lon="1.47813">
        <ele>281.6</ele>
        <time>2013-09-28T14:27:23.497Z</time>
      </trkpt>
      <trkpt lat="43.52699" lon="1.47819">
        <ele>278</ele>
        <time>2013-09-28T14:27:24.728Z</time>
      </trkpt>
      <trkpt lat="43.52702" lon="1.4783">
        <ele>272.1</ele>
        <time>2013-09-28T14:27:27.403Z</time>
      </trkpt>
      <trkpt lat="43.52704" lon="1.47833">
        <ele>272.2</ele>
        <time>2013-09-28T14:27:28.396Z</time>
      </trkpt>
      <trkpt lat="43.52705" lon="1.47843">
        <ele>268.6</ele>
        <time>2013-09-28T14:27:31.398Z</time>
      </trkpt>
      <trkpt lat="43.52706" lon="1.47847">
        <ele>265.9</ele>
        <time>2013-09-28T14:27:32.452Z</time>
      </trkpt>
      <trkpt lat="43.52712" lon="1.47854">
        <ele>266.9</ele>
        <time>2013-09-28T14:27:40.698Z</time>
      </trkpt>
      <trkpt lat="43.52713" lon="1.47856">
        <ele>265.3</ele>
        <time>2013-09-28T14:27:41.427Z</time>
      </trkpt>
      <trkpt lat="43.52708" lon="1.47864">
        <ele>262.2</ele>
        <time>2013-09-28T14:27:50.338Z</time>
      </trkpt>
      <trkpt lat="43.52705" lon="1.47871">
        <ele>262.4</ele>
        <time>2013-09-28T14:27:51.657Z</time>
      </trkpt>
      <trkpt lat="43.52697" lon="1.47877">
        <ele>262.1</ele>
        <time>2013-09-28T14:27:56.472Z</time>
      </trkpt>
      <trkpt lat="43.52697" lon="1.47878">
        <ele>262.5</ele>
        <time>2013-09-28T14:27:57.431Z</time>
      </trkpt>
      <trkpt lat="43.52691" lon="1.47886">
        <ele>263.7</ele>
        <time>2013-09-28T14:28:02.478Z</time>
      </trkpt>
      <trkpt lat="43.5269" lon="1.47888">
        <ele>263.3</ele>
        <time>2013-09-28T14:28:03.478Z</time>
      </trkpt>
      <trkpt lat="43.52687" lon="1.47893">
        <ele>265.9</ele>
        <time>2013-09-28T14:28:10.440Z</time>
      </trkpt>
      <trkpt lat="43.52687" lon="1.47893">
        <ele>265.9</ele>
        <time>2013-09-28T14:28:11.393Z</time>
      </trkpt>
      <trkpt lat="43.52687" lon="1.47893">
        <ele>264.3</ele>
        <time>2013-09-28T14:28:17.711Z</time>
      </trkpt>
      <trkpt lat="43.52687" lon="1.47894">
        <ele>262.8</ele>
        <time>2013-09-28T14:28:19.975Z</time>
      </trkpt>
      <trkpt lat="43.52679" lon="1.479">
        <ele>255.9</ele>
        <time>2013-09-28T14:28:33.401Z</time>
      </trkpt>
      <trkpt lat="43.52679" lon="1.47901">
        <ele>254.7</ele>
        <time>2013-09-28T14:28:34.465Z</time>
      </trkpt>
      <trkpt lat="43.52678" lon="1.47913">
        <ele>255.2</ele>
        <time>2013-09-28T14:28:41.387Z</time>
      </trkpt>
      <trkpt lat="43.52677" lon="1.47914">
        <ele>256.1</ele>
        <time>2013-09-28T14:28:42.386Z</time>
      </trkpt>
      <trkpt lat="43.52674" lon="1.47926">
        <ele>258.8</ele>
        <time>2013-09-28T14:28:50.419Z</time>
      </trkpt>
      <trkpt lat="43.52673" lon="1.47927">
        <ele>260.2</ele>
        <time>2013-09-28T14:28:51.410Z</time>
      </trkpt>
      <trkpt lat="43.52671" lon="1.4793">
        <ele>259.4</ele>
        <time>2013-09-28T14:28:56.392Z</time>
      </trkpt>
      <trkpt lat="43.52671" lon="1.47929">
        <ele>259.4</ele>
        <time>2013-09-28T14:28:58.785Z</time>
      </trkpt>
      <trkpt lat="43.52671" lon="1.4793">
        <ele>259.6</ele>
        <time>2013-09-28T14:29:02.565Z</time>
      </trkpt>
      <trkpt lat="43.5267" lon="1.47931">
        <ele>259.1</ele>
        <time>2013-09-28T14:29:03.645Z</time>
      </trkpt>
      <trkpt lat="43.52665" lon="1.4794">
        <ele>257.5</ele>
        <time>2013-09-28T14:29:13.467Z</time>
      </trkpt>
      <trkpt lat="43.52665" lon="1.4794">
        <ele>257.4</ele>
        <time>2013-09-28T14:29:14.487Z</time>
      </trkpt>
      <trkpt lat="43.52665" lon="1.4794">
        <ele>257.7</ele>
        <time>2013-09-28T14:29:15.467Z</time>
      </trkpt>
      <trkpt lat="43.52664" lon="1.4794">
        <ele>260.2</ele>
        <time>2013-09-28T14:29:20.405Z</time>
      </trkpt>
      <trkpt lat="43.52664" lon="1.47941">
        <ele>260.7</ele>
        <time>2013-09-28T14:29:21.391Z</time>
      </trkpt>
      <trkpt lat="43.52664" lon="1.47941">
        <ele>261.5</ele>
        <time>2013-09-28T14:29:22.382Z</time>
      </trkpt>
      <trkpt lat="43.52664" lon="1.47942">
        <ele>262</ele>
        <time>2013-09-28T14:29:23.482Z</time>
      </trkpt>
      <trkpt lat="43.52664" lon="1.47942">
        <ele>262.2</ele>
        <time>2013-09-28T14:29:24.482Z</time>
      </trkpt>
      <trkpt lat="43.52664" lon="1.47942">
        <ele>261.8</ele>
        <time>2013-09-28T14:29:25.501Z</time>
      </trkpt>
      <trkpt lat="43.52664" lon="1.47943">
        <ele>260.9</ele>
        <time>2013-09-28T14:29:29.489Z</time>
      </trkpt>
      <trkpt lat="43.52664" lon="1.47943">
        <ele>261.1</ele>
        <time>2013-09-28T14:29:30.468Z</time>
      </trkpt>
      <trkpt lat="43.52664" lon="1.47943">
        <ele>261.4</ele>
        <time>2013-09-28T14:29:47.463Z</time>
      </trkpt>
      <trkpt lat="43.52663" lon="1.47943">
        <ele>261.4</ele>
        <time>2013-09-28T14:29:48.462Z</time>
      </trkpt>
      <trkpt lat="43.52663" lon="1.47943">
        <ele>261.6</ele>
        <time>2013-09-28T14:29:49.461Z</time>
      </trkpt>
      <trkpt lat="43.52664" lon="1.47944">
        <ele>260.6</ele>
        <time>2013-09-28T14:29:55.377Z</time>
      </trkpt>
      <trkpt lat="43.52664" lon="1.47944">
        <ele>261</ele>
        <time>2013-09-28T14:29:55.594Z</time>
      </trkpt>
      <trkpt lat="43.52664" lon="1.47944">
        <ele>260.7</ele>
        <time>2013-09-28T14:29:56.488Z</time>
      </trkpt>
      <trkpt lat="43.52664" lon="1.47944">
        <ele>260.9</ele>
        <time>2013-09-28T14:29:57.472Z</time>
      </trkpt>
      <trkpt lat="43.52664" lon="1.47944">
        <ele>261.9</ele>
        <time>2013-09-28T14:30:02.467Z</time>
      </trkpt>
      <trkpt lat="43.52664" lon="1.47943">
        <ele>261.8</ele>
        <time>2013-09-28T14:30:03.388Z</time>
      </trkpt>
      <trkpt lat="43.52664" lon="1.47943">
        <ele>261.7</ele>
        <time>2013-09-28T14:30:04.388Z</time>
      </trkpt>
      <trkpt lat="43.52664" lon="1.47946">
        <ele>263.2</ele>
        <time>2013-09-28T14:30:26.565Z</time>
      </trkpt>
      <trkpt lat="43.52664" lon="1.47947">
        <ele>262.8</ele>
        <time>2013-09-28T14:30:27.464Z</time>
      </trkpt>
      <trkpt lat="43.52664" lon="1.47947">
        <ele>262.6</ele>
        <time>2013-09-28T14:30:29.435Z</time>
      </trkpt>
      <trkpt lat="43.52664" lon="1.47948">
        <ele>262.5</ele>
        <time>2013-09-28T14:30:30.407Z</time>
      </trkpt>
      <trkpt lat="43.52664" lon="1.47948">
        <ele>262.4</ele>
        <time>2013-09-28T14:30:32.414Z</time>
      </trkpt>
      <trkpt lat="43.52664" lon="1.47949">
        <ele>262.7</ele>
        <time>2013-09-28T14:30:33.411Z</time>
      </trkpt>
      <trkpt lat="43.52664" lon="1.47951">
        <ele>262.9</ele>
        <time>2013-09-28T14:30:38.447Z</time>
      </trkpt>
      <trkpt lat="43.52664" lon="1.47951">
        <ele>263</ele>
        <time>2013-09-28T14:30:39.463Z</time>
      </trkpt>
      <trkpt lat="43.52664" lon="1.47952">
        <ele>262.8</ele>
        <time>2013-09-28T14:30:50.251Z</time>
      </trkpt>
      <trkpt lat="43.52664" lon="1.47953">
        <ele>262.7</ele>
        <time>2013-09-28T14:30:50.384Z</time>
      </trkpt>
      <trkpt lat="43.52662" lon="1.47964">
        <ele>261.1</ele>
        <time>2013-09-28T14:31:00.589Z</time>
      </trkpt>
      <trkpt lat="43.52661" lon="1.47965">
        <ele>260.9</ele>
        <time>2013-09-28T14:31:01.421Z</time>
      </trkpt>
      <trkpt lat="43.52656" lon="1.47972">
        <ele>261.2</ele>
        <time>2013-09-28T14:31:12.614Z</time>
      </trkpt>
      <trkpt lat="43.52656" lon="1.47972">
        <ele>261</ele>
        <time>2013-09-28T14:31:13.472Z</time>
      </trkpt>
      <trkpt lat="43.52656" lon="1.47972">
        <ele>260.1</ele>
        <time>2013-09-28T14:31:14.492Z</time>
      </trkpt>
      <trkpt lat="43.52652" lon="1.47979">
        <ele>263.4</ele>
        <time>2013-09-28T14:31:23.469Z</time>
      </trkpt>
      <trkpt lat="43.5265" lon="1.47983">
        <ele>264.4</ele>
        <time>2013-09-28T14:31:24.526Z</time>
      </trkpt>
      <trkpt lat="43.52644" lon="1.47982">
        <ele>267.5</ele>
        <time>2013-09-28T14:31:31.699Z</time>
      </trkpt>
      <trkpt lat="43.52641" lon="1.47981">
        <ele>267.6</ele>
        <time>2013-09-28T14:31:32.539Z</time>
      </trkpt>
      <trkpt lat="43.52641" lon="1.47993">
        <ele>272.1</ele>
        <time>2013-09-28T14:31:41.483Z</time>
      </trkpt>
      <trkpt lat="43.52641" lon="1.47996">
        <ele>272</ele>
        <time>2013-09-28T14:31:42.471Z</time>
      </trkpt>
      <trkpt lat="43.52636" lon="1.48005">
        <ele>271.5</ele>
        <time>2013-09-28T14:31:50.262Z</time>
      </trkpt>
      <trkpt lat="43.52635" lon="1.48005">
        <ele>272.8</ele>
        <time>2013-09-28T14:31:50.362Z</time>
      </trkpt>
      <trkpt lat="43.5263" lon="1.48013">
        <ele>290</ele>
        <time>2013-09-28T14:32:01.416Z</time>
      </trkpt>
      <trkpt lat="43.52629" lon="1.48015">
        <ele>293.2</ele>
        <time>2013-09-28T14:32:02.428Z</time>
      </trkpt>
      <trkpt lat="43.52633" lon="1.48025">
        <ele>287.9</ele>
        <time>2013-09-28T14:32:05.335Z</time>
      </trkpt>
      <trkpt lat="43.52635" lon="1.48029">
        <ele>287.7</ele>
        <time>2013-09-28T14:32:05.571Z</time>
      </trkpt>
      <trkpt lat="43.52637" lon="1.48041">
        <ele>286.1</ele>
        <time>2013-09-28T14:32:08.421Z</time>
      </trkpt>
      <trkpt lat="43.52638" lon="1.48045">
        <ele>286.3</ele>
        <time>2013-09-28T14:32:09.483Z</time>
      </trkpt>
      <trkpt lat="43.52639" lon="1.48056">
        <ele>288.3</ele>
        <time>2013-09-28T14:32:12.413Z</time>
      </trkpt>
      <trkpt lat="43.52638" lon="1.48059">
        <ele>289.1</ele>
        <time>2013-09-28T14:32:13.395Z</time>
      </trkpt>
      <trkpt lat="43.52637" lon="1.48069">
        <ele>288.7</ele>
        <time>2013-09-28T14:32:16.446Z</time>
      </trkpt>
      <trkpt lat="43.52637" lon="1.48073">
        <ele>288.3</ele>
        <time>2013-09-28T14:32:17.491Z</time>
      </trkpt>
      <trkpt lat="43.52636" lon="1.48083">
        <ele>287.7</ele>
        <time>2013-09-28T14:32:19.531Z</time>
      </trkpt>
      <trkpt lat="43.52636" lon="1.48087">
        <ele>287.6</ele>
        <time>2013-09-28T14:32:20.439Z</time>
      </trkpt>
      <trkpt lat="43.52636" lon="1.48098">
        <ele>288.6</ele>
        <time>2013-09-28T14:32:23.409Z</time>
      </trkpt>
      <trkpt lat="43.52637" lon="1.48102">
        <ele>288.7</ele>
        <time>2013-09-28T14:32:24.394Z</time>
      </trkpt>
      <trkpt lat="43.52639" lon="1.48109">
        <ele>285.9</ele>
        <time>2013-09-28T14:32:26.481Z</time>
      </trkpt>
      <trkpt lat="43.52639" lon="1.48116">
        <ele>282.9</ele>
        <time>2013-09-28T14:32:27.529Z</time>
      </trkpt>
      <trkpt lat="43.5264" lon="1.48122">
        <ele>280.2</ele>
        <time>2013-09-28T14:32:28.481Z</time>
      </trkpt>
      <trkpt lat="43.52642" lon="1.48129">
        <ele>278.5</ele>
        <time>2013-09-28T14:32:29.550Z</time>
      </trkpt>
      <trkpt lat="43.52643" lon="1.48137">
        <ele>278.1</ele>
        <time>2013-09-28T14:32:31.464Z</time>
      </trkpt>
      <trkpt lat="43.52643" lon="1.48142">
        <ele>277.4</ele>
        <time>2013-09-28T14:32:32.478Z</time>
      </trkpt>
      <trkpt lat="43.52638" lon="1.48152">
        <ele>275</ele>
        <time>2013-09-28T14:32:35.664Z</time>
      </trkpt>
      <trkpt lat="43.52637" lon="1.48153">
        <ele>276.1</ele>
        <time>2013-09-28T14:32:36.406Z</time>
      </trkpt>
      <trkpt lat="43.52638" lon="1.48165">
        <ele>275.8</ele>
        <time>2013-09-28T14:32:39.397Z</time>
      </trkpt>
      <trkpt lat="43.52639" lon="1.48171">
        <ele>274.9</ele>
        <time>2013-09-28T14:32:40.778Z</time>
      </trkpt>
      <trkpt lat="43.5264" lon="1.48182">
        <ele>275.7</ele>
        <time>2013-09-28T14:32:43.397Z</time>
      </trkpt>
      <trkpt lat="43.52639" lon="1.48186">
        <ele>275.8</ele>
        <time>2013-09-28T14:32:44.417Z</time>
      </trkpt>
      <trkpt lat="43.52635" lon="1.48196">
        <ele>279.1</ele>
        <time>2013-09-28T14:32:48.416Z</time>
      </trkpt>
      <trkpt lat="43.52634" lon="1.48198">
        <ele>279.1</ele>
        <time>2013-09-28T14:32:49.420Z</time>
      </trkpt>
      <trkpt lat="43.52633" lon="1.4821">
        <ele>273.2</ele>
        <time>2013-09-28T14:32:52.462Z</time>
      </trkpt>
      <trkpt lat="43.52634" lon="1.48213">
        <ele>275.7</ele>
        <time>2013-09-28T14:32:53.468Z</time>
      </trkpt>
      <trkpt lat="43.52635" lon="1.48224">
        <ele>273.3</ele>
        <time>2013-09-28T14:32:56.403Z</time>
      </trkpt>
      <trkpt lat="43.52634" lon="1.48228">
        <ele>273.5</ele>
        <time>2013-09-28T14:32:57.461Z</time>
      </trkpt>
      <trkpt lat="43.52632" lon="1.4824">
        <ele>271</ele>
        <time>2013-09-28T14:33:00.424Z</time>
      </trkpt>
      <trkpt lat="43.52632" lon="1.48244">
        <ele>270.6</ele>
        <time>2013-09-28T14:33:01.402Z</time>
      </trkpt>
      <trkpt lat="43.52631" lon="1.48254">
        <ele>270.7</ele>
        <time>2013-09-28T14:33:04.477Z</time>
      </trkpt>
      <trkpt lat="43.52631" lon="1.48257">
        <ele>273.1</ele>
        <time>2013-09-28T14:33:05.436Z</time>
      </trkpt>
      <trkpt lat="43.52629" lon="1.48265">
        <ele>278</ele>
        <time>2013-09-28T14:33:08.453Z</time>
      </trkpt>
      <trkpt lat="43.52627" lon="1.48269">
        <ele>277</ele>
        <time>2013-09-28T14:33:09.476Z</time>
      </trkpt>
      <trkpt lat="43.52626" lon="1.4828">
        <ele>277.8</ele>
        <time>2013-09-28T14:33:12.562Z</time>
      </trkpt>
      <trkpt lat="43.52626" lon="1.48284">
        <ele>277.5</ele>
        <time>2013-09-28T14:33:13.455Z</time>
      </trkpt>
      <trkpt lat="43.52625" lon="1.48295">
        <ele>275.7</ele>
        <time>2013-09-28T14:33:16.565Z</time>
      </trkpt>
      <trkpt lat="43.52625" lon="1.48298">
        <ele>275.3</ele>
        <time>2013-09-28T14:33:17.478Z</time>
      </trkpt>
      <trkpt lat="43.52627" lon="1.48306">
        <ele>271</ele>
        <time>2013-09-28T14:33:19.504Z</time>
      </trkpt>
      <trkpt lat="43.52628" lon="1.48311">
        <ele>270.8</ele>
        <time>2013-09-28T14:33:20.515Z</time>
      </trkpt>
      <trkpt lat="43.52627" lon="1.4832">
        <ele>271.7</ele>
        <time>2013-09-28T14:33:23.396Z</time>
      </trkpt>
      <trkpt lat="43.52626" lon="1.48324">
        <ele>271.7</ele>
        <time>2013-09-28T14:33:24.417Z</time>
      </trkpt>
      <trkpt lat="43.52628" lon="1.48331">
        <ele>267.9</ele>
        <time>2013-09-28T14:33:26.460Z</time>
      </trkpt>
      <trkpt lat="43.5263" lon="1.48336">
        <ele>265.5</ele>
        <time>2013-09-28T14:33:27.466Z</time>
      </trkpt>
      <trkpt lat="43.52633" lon="1.48345">
        <ele>261.4</ele>
        <time>2013-09-28T14:33:29.531Z</time>
      </trkpt>
      <trkpt lat="43.52636" lon="1.48348">
        <ele>262.4</ele>
        <time>2013-09-28T14:33:30.389Z</time>
      </trkpt>
      <trkpt lat="43.52641" lon="1.48357">
        <ele>258.7</ele>
        <time>2013-09-28T14:33:33.308Z</time>
      </trkpt>
      <trkpt lat="43.52642" lon="1.48361">
        <ele>258.3</ele>
        <time>2013-09-28T14:33:33.409Z</time>
      </trkpt>
      <trkpt lat="43.52641" lon="1.4837">
        <ele>259.4</ele>
        <time>2013-09-28T14:33:36.402Z</time>
      </trkpt>
      <trkpt lat="43.5264" lon="1.48373">
        <ele>259.4</ele>
        <time>2013-09-28T14:33:37.685Z</time>
      </trkpt>
      <trkpt lat="43.52635" lon="1.48379">
        <ele>252.1</ele>
        <time>2013-09-28T14:33:40.474Z</time>
      </trkpt>
      <trkpt lat="43.52631" lon="1.48383">
        <ele>249.6</ele>
        <time>2013-09-28T14:33:40.578Z</time>
      </trkpt>
      <trkpt lat="43.52629" lon="1.48393">
        <ele>249.1</ele>
        <time>2013-09-28T14:33:42.516Z</time>
      </trkpt>
      <trkpt lat="43.52629" lon="1.48398">
        <ele>248.7</ele>
        <time>2013-09-28T14:33:43.452Z</time>
      </trkpt>
      <trkpt lat="43.5263" lon="1.48409">
        <ele>249.8</ele>
        <time>2013-09-28T14:33:47.300Z</time>
      </trkpt>
      <trkpt lat="43.52629" lon="1.48412">
        <ele>250.1</ele>
        <time>2013-09-28T14:33:47.497Z</time>
      </trkpt>
      <trkpt lat="43.52628" lon="1.48422">
        <ele>251.5</ele>
        <time>2013-09-28T14:33:51.554Z</time>
      </trkpt>
      <trkpt lat="43.52628" lon="1.48426">
        <ele>250.3</ele>
        <time>2013-09-28T14:33:52.516Z</time>
      </trkpt>
      <trkpt lat="43.52626" lon="1.48436">
        <ele>247.8</ele>
        <time>2013-09-28T14:33:55.309Z</time>
      </trkpt>
      <trkpt lat="43.52625" lon="1.48441">
        <ele>248.1</ele>
        <time>2013-09-28T14:33:55.575Z</time>
      </trkpt>
      <trkpt lat="43.5262" lon="1.48449">
        <ele>247.4</ele>
        <time>2013-09-28T14:33:58.497Z</time>
      </trkpt>
      <trkpt lat="43.52619" lon="1.48452">
        <ele>248.2</ele>
        <time>2013-09-28T14:33:59.491Z</time>
      </trkpt>
      <trkpt lat="43.52617" lon="1.48463">
        <ele>246.8</ele>
        <time>2013-09-28T14:34:02.397Z</time>
      </trkpt>
      <trkpt lat="43.52616" lon="1.48466">
        <ele>247.7</ele>
        <time>2013-09-28T14:34:03.397Z</time>
      </trkpt>
      <trkpt lat="43.52613" lon="1.48477">
        <ele>245.9</ele>
        <time>2013-09-28T14:34:06.467Z</time>
      </trkpt>
      <trkpt lat="43.52613" lon="1.4848">
        <ele>246.7</ele>
        <time>2013-09-28T14:34:07.433Z</time>
      </trkpt>
      <trkpt lat="43.5261" lon="1.4849">
        <ele>247.6</ele>
        <time>2013-09-28T14:34:10.611Z</time>
      </trkpt>
      <trkpt lat="43.52609" lon="1.48492">
        <ele>248.3</ele>
        <time>2013-09-28T14:34:11.480Z</time>
      </trkpt>
      <trkpt lat="43.52604" lon="1.48502">
        <ele>241.2</ele>
        <time>2013-09-28T14:34:13.455Z</time>
      </trkpt>
      <trkpt lat="43.52602" lon="1.48507">
        <ele>239.3</ele>
        <time>2013-09-28T14:34:14.595Z</time>
      </trkpt>
      <trkpt lat="43.52597" lon="1.48516">
        <ele>239.5</ele>
        <time>2013-09-28T14:34:17.474Z</time>
      </trkpt>
      <trkpt lat="43.52597" lon="1.4852">
        <ele>240.1</ele>
        <time>2013-09-28T14:34:18.467Z</time>
      </trkpt>
      <trkpt lat="43.52595" lon="1.4853">
        <ele>244.1</ele>
        <time>2013-09-28T14:34:22.871Z</time>
      </trkpt>
      <trkpt lat="43.52596" lon="1.48532">
        <ele>246.4</ele>
        <time>2013-09-28T14:34:23.420Z</time>
      </trkpt>
      <trkpt lat="43.52598" lon="1.48542">
        <ele>250.6</ele>
        <time>2013-09-28T14:34:27.475Z</time>
      </trkpt>
      <trkpt lat="43.526" lon="1.48543">
        <ele>254.1</ele>
        <time>2013-09-28T14:34:28.463Z</time>
      </trkpt>
      <trkpt lat="43.52597" lon="1.48552">
        <ele>255.7</ele>
        <time>2013-09-28T14:34:33.461Z</time>
      </trkpt>
      <trkpt lat="43.52594" lon="1.48556">
        <ele>256.3</ele>
        <time>2013-09-28T14:34:34.459Z</time>
      </trkpt>
      <trkpt lat="43.5259" lon="1.48566">
        <ele>258.1</ele>
        <time>2013-09-28T14:34:37.451Z</time>
      </trkpt>
      <trkpt lat="43.52589" lon="1.48572">
        <ele>257.3</ele>
        <time>2013-09-28T14:34:38.496Z</time>
      </trkpt>
      <trkpt lat="43.52588" lon="1.48582">
        <ele>255.9</ele>
        <time>2013-09-28T14:34:41.467Z</time>
      </trkpt>
      <trkpt lat="43.52589" lon="1.48585">
        <ele>256.5</ele>
        <time>2013-09-28T14:34:42.467Z</time>
      </trkpt>
      <trkpt lat="43.52592" lon="1.48595">
        <ele>264.6</ele>
        <time>2013-09-28T14:34:47.691Z</time>
      </trkpt>
      <trkpt lat="43.52591" lon="1.48599">
        <ele>265.6</ele>
        <time>2013-09-28T14:34:48.411Z</time>
      </trkpt>
      <trkpt lat="43.52593" lon="1.48608">
        <ele>267</ele>
        <time>2013-09-28T14:34:51.473Z</time>
      </trkpt>
      <trkpt lat="43.52592" lon="1.48613">
        <ele>265.6</ele>
        <time>2013-09-28T14:34:52.480Z</time>
      </trkpt>
      <trkpt lat="43.52588" lon="1.48623">
        <ele>262.8</ele>
        <time>2013-09-28T14:34:54.429Z</time>
      </trkpt>
      <trkpt lat="43.52584" lon="1.48628">
        <ele>261.7</ele>
        <time>2013-09-28T14:34:55.404Z</time>
      </trkpt>
      <trkpt lat="43.5258" lon="1.48635">
        <ele>260.3</ele>
        <time>2013-09-28T14:34:56.527Z</time>
      </trkpt>
      <trkpt lat="43.52579" lon="1.4864">
        <ele>260.1</ele>
        <time>2013-09-28T14:34:57.540Z</time>
      </trkpt>
      <trkpt lat="43.52583" lon="1.48651">
        <ele>270</ele>
        <time>2013-09-28T14:35:02.453Z</time>
      </trkpt>
      <trkpt lat="43.52581" lon="1.48652">
        <ele>269.1</ele>
        <time>2013-09-28T14:35:03.464Z</time>
      </trkpt>
      <trkpt lat="43.52573" lon="1.48655">
        <ele>268.1</ele>
        <time>2013-09-28T14:35:06.890Z</time>
      </trkpt>
      <trkpt lat="43.5257" lon="1.48656">
        <ele>269.4</ele>
        <time>2013-09-28T14:35:07.451Z</time>
      </trkpt>
      <trkpt lat="43.52563" lon="1.48658">
        <ele>265.9</ele>
        <time>2013-09-28T14:35:10.310Z</time>
      </trkpt>
      <trkpt lat="43.52559" lon="1.48659">
        <ele>263.8</ele>
        <time>2013-09-28T14:35:10.422Z</time>
      </trkpt>
      <trkpt lat="43.52551" lon="1.48661">
        <ele>261.4</ele>
        <time>2013-09-28T14:35:12.503Z</time>
      </trkpt>
      <trkpt lat="43.52547" lon="1.48658">
        <ele>261.8</ele>
        <time>2013-09-28T14:35:13.502Z</time>
      </trkpt>
      <trkpt lat="43.52541" lon="1.48655">
        <ele>260.1</ele>
        <time>2013-09-28T14:35:15.437Z</time>
      </trkpt>
      <trkpt lat="43.52537" lon="1.48654">
        <ele>259.8</ele>
        <time>2013-09-28T14:35:16.498Z</time>
      </trkpt>
      <trkpt lat="43.52529" lon="1.48653">
        <ele>257.6</ele>
        <time>2013-09-28T14:35:19.531Z</time>
      </trkpt>
      <trkpt lat="43.52526" lon="1.48652">
        <ele>256.8</ele>
        <time>2013-09-28T14:35:20.536Z</time>
      </trkpt>
      <trkpt lat="43.52519" lon="1.48649">
        <ele>256.1</ele>
        <time>2013-09-28T14:35:23.394Z</time>
      </trkpt>
      <trkpt lat="43.52516" lon="1.48649">
        <ele>256.6</ele>
        <time>2013-09-28T14:35:24.402Z</time>
      </trkpt>
      <trkpt lat="43.52508" lon="1.48649">
        <ele>254.7</ele>
        <time>2013-09-28T14:35:27.401Z</time>
      </trkpt>
      <trkpt lat="43.52505" lon="1.48649">
        <ele>254.2</ele>
        <time>2013-09-28T14:35:28.393Z</time>
      </trkpt>
      <trkpt lat="43.52497" lon="1.48649">
        <ele>253</ele>
        <time>2013-09-28T14:35:32.216Z</time>
      </trkpt>
      <trkpt lat="43.52495" lon="1.48649">
        <ele>252.6</ele>
        <time>2013-09-28T14:35:32.715Z</time>
      </trkpt>
      <trkpt lat="43.52488" lon="1.4865">
        <ele>250.1</ele>
        <time>2013-09-28T14:35:36.047Z</time>
      </trkpt>
      <trkpt lat="43.52483" lon="1.48651">
        <ele>247.7</ele>
        <time>2013-09-28T14:35:37.634Z</time>
      </trkpt>
      <trkpt lat="43.52475" lon="1.48655">
        <ele>248</ele>
        <time>2013-09-28T14:35:40.609Z</time>
      </trkpt>
      <trkpt lat="43.52474" lon="1.48656">
        <ele>247.3</ele>
        <time>2013-09-28T14:35:41.404Z</time>
      </trkpt>
      <trkpt lat="43.52468" lon="1.4866">
        <ele>248.7</ele>
        <time>2013-09-28T14:35:45.563Z</time>
      </trkpt>
      <trkpt lat="43.52466" lon="1.48664">
        <ele>248</ele>
        <time>2013-09-28T14:35:45.757Z</time>
      </trkpt>
      <trkpt lat="43.52462" lon="1.48674">
        <ele>243.1</ele>
        <time>2013-09-28T14:35:48.547Z</time>
      </trkpt>
      <trkpt lat="43.52461" lon="1.48677">
        <ele>242.5</ele>
        <time>2013-09-28T14:35:49.435Z</time>
      </trkpt>
      <trkpt lat="43.52456" lon="1.48686">
        <ele>244.6</ele>
        <time>2013-09-28T14:35:52.420Z</time>
      </trkpt>
      <trkpt lat="43.52455" lon="1.48688">
        <ele>244.3</ele>
        <time>2013-09-28T14:35:53.403Z</time>
      </trkpt>
      <trkpt lat="43.52452" lon="1.48696">
        <ele>246</ele>
        <time>2013-09-28T14:35:56.410Z</time>
      </trkpt>
      <trkpt lat="43.52448" lon="1.48698">
        <ele>246.2</ele>
        <time>2013-09-28T14:35:57.481Z</time>
      </trkpt>
      <trkpt lat="43.52442" lon="1.48703">
        <ele>245.9</ele>
        <time>2013-09-28T14:36:00.449Z</time>
      </trkpt>
      <trkpt lat="43.52437" lon="1.4871">
        <ele>247</ele>
        <time>2013-09-28T14:36:01.468Z</time>
      </trkpt>
      <trkpt lat="43.52437" lon="1.48722">
        <ele>246.8</ele>
        <time>2013-09-28T14:36:05.821Z</time>
      </trkpt>
      <trkpt lat="43.52435" lon="1.48723">
        <ele>246.9</ele>
        <time>2013-09-28T14:36:06.411Z</time>
      </trkpt>
      <trkpt lat="43.52431" lon="1.4873">
        <ele>250.7</ele>
        <time>2013-09-28T14:36:10.447Z</time>
      </trkpt>
      <trkpt lat="43.52429" lon="1.48734">
        <ele>251.6</ele>
        <time>2013-09-28T14:36:10.589Z</time>
      </trkpt>
      <trkpt lat="43.52426" lon="1.48743">
        <ele>253.6</ele>
        <time>2013-09-28T14:36:15.419Z</time>
      </trkpt>
      <trkpt lat="43.52425" lon="1.48746">
        <ele>253.7</ele>
        <time>2013-09-28T14:36:15.768Z</time>
      </trkpt>
      <trkpt lat="43.52423" lon="1.48755">
        <ele>253.3</ele>
        <time>2013-09-28T14:36:18.504Z</time>
      </trkpt>
      <trkpt lat="43.52422" lon="1.48758">
        <ele>253</ele>
        <time>2013-09-28T14:36:19.552Z</time>
      </trkpt>
      <trkpt lat="43.52417" lon="1.48767">
        <ele>255.6</ele>
        <time>2013-09-28T14:36:23.463Z</time>
      </trkpt>
      <trkpt lat="43.52416" lon="1.4877">
        <ele>256</ele>
        <time>2013-09-28T14:36:24.543Z</time>
      </trkpt>
      <trkpt lat="43.52411" lon="1.4878">
        <ele>254.5</ele>
        <time>2013-09-28T14:36:27.445Z</time>
      </trkpt>
      <trkpt lat="43.52409" lon="1.48783">
        <ele>254.3</ele>
        <time>2013-09-28T14:36:28.460Z</time>
      </trkpt>
      <trkpt lat="43.52403" lon="1.48792">
        <ele>251.7</ele>
        <time>2013-09-28T14:36:32.448Z</time>
      </trkpt>
      <trkpt lat="43.52402" lon="1.48797">
        <ele>250.2</ele>
        <time>2013-09-28T14:36:33.416Z</time>
      </trkpt>
      <trkpt lat="43.524" lon="1.48805">
        <ele>250.6</ele>
        <time>2013-09-28T14:36:35.417Z</time>
      </trkpt>
      <trkpt lat="43.52398" lon="1.48808">
        <ele>252.3</ele>
        <time>2013-09-28T14:36:36.406Z</time>
      </trkpt>
      <trkpt lat="43.52393" lon="1.48814">
        <ele>252.4</ele>
        <time>2013-09-28T14:36:40.551Z</time>
      </trkpt>
      <trkpt lat="43.52392" lon="1.48818">
        <ele>252.9</ele>
        <time>2013-09-28T14:36:40.671Z</time>
      </trkpt>
      <trkpt lat="43.52391" lon="1.4883">
        <ele>249.7</ele>
        <time>2013-09-28T14:36:43.402Z</time>
      </trkpt>
      <trkpt lat="43.52391" lon="1.48833">
        <ele>249.9</ele>
        <time>2013-09-28T14:36:44.431Z</time>
      </trkpt>
      <trkpt lat="43.52391" lon="1.48843">
        <ele>248.9</ele>
        <time>2013-09-28T14:36:46.444Z</time>
      </trkpt>
      <trkpt lat="43.52393" lon="1.48846">
        <ele>247.1</ele>
        <time>2013-09-28T14:36:47.460Z</time>
      </trkpt>
      <trkpt lat="43.52387" lon="1.48853">
        <ele>247.4</ele>
        <time>2013-09-28T14:36:53.432Z</time>
      </trkpt>
      <trkpt lat="43.52383" lon="1.48861">
        <ele>247.6</ele>
        <time>2013-09-28T14:36:55.389Z</time>
      </trkpt>
      <trkpt lat="43.52376" lon="1.48867">
        <ele>246.6</ele>
        <time>2013-09-28T14:36:57.520Z</time>
      </trkpt>
      <trkpt lat="43.52373" lon="1.4887">
        <ele>246.5</ele>
        <time>2013-09-28T14:36:58.422Z</time>
      </trkpt>
      <trkpt lat="43.52366" lon="1.48876">
        <ele>247.6</ele>
        <time>2013-09-28T14:37:01.422Z</time>
      </trkpt>
      <trkpt lat="43.52363" lon="1.48877">
        <ele>247.4</ele>
        <time>2013-09-28T14:37:02.439Z</time>
      </trkpt>
      <trkpt lat="43.52357" lon="1.48885">
        <ele>246.4</ele>
        <time>2013-09-28T14:37:06.421Z</time>
      </trkpt>
      <trkpt lat="43.52355" lon="1.48889">
        <ele>246</ele>
        <time>2013-09-28T14:37:07.448Z</time>
      </trkpt>
      <trkpt lat="43.5235" lon="1.48895">
        <ele>244.6</ele>
        <time>2013-09-28T14:37:10.494Z</time>
      </trkpt>
      <trkpt lat="43.52347" lon="1.48899">
        <ele>244.7</ele>
        <time>2013-09-28T14:37:10.724Z</time>
      </trkpt>
      <trkpt lat="43.52341" lon="1.48905">
        <ele>247.4</ele>
        <time>2013-09-28T14:37:13.432Z</time>
      </trkpt>
      <trkpt lat="43.52338" lon="1.48907">
        <ele>247.5</ele>
        <time>2013-09-28T14:37:14.431Z</time>
      </trkpt>
      <trkpt lat="43.52332" lon="1.48912">
        <ele>246.4</ele>
        <time>2013-09-28T14:37:17.430Z</time>
      </trkpt>
      <trkpt lat="43.5233" lon="1.48915">
        <ele>246</ele>
        <time>2013-09-28T14:37:18.462Z</time>
      </trkpt>
      <trkpt lat="43.52325" lon="1.48924">
        <ele>251.1</ele>
        <time>2013-09-28T14:37:23.401Z</time>
      </trkpt>
      <trkpt lat="43.52323" lon="1.48927">
        <ele>249.6</ele>
        <time>2013-09-28T14:37:24.401Z</time>
      </trkpt>
      <trkpt lat="43.52316" lon="1.48935">
        <ele>249.9</ele>
        <time>2013-09-28T14:37:27.400Z</time>
      </trkpt>
      <trkpt lat="43.52314" lon="1.48937">
        <ele>250.4</ele>
        <time>2013-09-28T14:37:28.472Z</time>
      </trkpt>
      <trkpt lat="43.52308" lon="1.48944">
        <ele>249</ele>
        <time>2013-09-28T14:37:32.179Z</time>
      </trkpt>
      <trkpt lat="43.52306" lon="1.48947">
        <ele>248.5</ele>
        <time>2013-09-28T14:37:32.517Z</time>
      </trkpt>
      <trkpt lat="43.523" lon="1.48956">
        <ele>249.4</ele>
        <time>2013-09-28T14:37:36.725Z</time>
      </trkpt>
      <trkpt lat="43.52299" lon="1.48959">
        <ele>248.7</ele>
        <time>2013-09-28T14:37:37.416Z</time>
      </trkpt>
      <trkpt lat="43.52295" lon="1.48968">
        <ele>249.3</ele>
        <time>2013-09-28T14:37:40.497Z</time>
      </trkpt>
      <trkpt lat="43.52293" lon="1.48971">
        <ele>249.5</ele>
        <time>2013-09-28T14:37:41.538Z</time>
      </trkpt>
      <trkpt lat="43.52286" lon="1.48977">
        <ele>249.6</ele>
        <time>2013-09-28T14:37:44.437Z</time>
      </trkpt>
      <trkpt lat="43.52284" lon="1.48979">
        <ele>249</ele>
        <time>2013-09-28T14:37:45.398Z</time>
      </trkpt>
      <trkpt lat="43.52277" lon="1.48986">
        <ele>247.5</ele>
        <time>2013-09-28T14:37:49.428Z</time>
      </trkpt>
      <trkpt lat="43.52276" lon="1.48988">
        <ele>247</ele>
        <time>2013-09-28T14:37:50.448Z</time>
      </trkpt>
      <trkpt lat="43.52273" lon="1.48998">
        <ele>248</ele>
        <time>2013-09-28T14:37:55.418Z</time>
      </trkpt>
      <trkpt lat="43.52273" lon="1.49001">
        <ele>248.3</ele>
        <time>2013-09-28T14:37:55.682Z</time>
      </trkpt>
      <trkpt lat="43.52267" lon="1.4901">
        <ele>248.2</ele>
        <time>2013-09-28T14:38:00.839Z</time>
      </trkpt>
      <trkpt lat="43.52265" lon="1.49011">
        <ele>246.8</ele>
        <time>2013-09-28T14:38:01.420Z</time>
      </trkpt>
      <trkpt lat="43.52259" lon="1.49015">
        <ele>247</ele>
        <time>2013-09-28T14:38:03.528Z</time>
      </trkpt>
      <trkpt lat="43.52256" lon="1.49015">
        <ele>246.5</ele>
        <time>2013-09-28T14:38:04.543Z</time>
      </trkpt>
      <trkpt lat="43.52247" lon="1.49016">
        <ele>245.5</ele>
        <time>2013-09-28T14:38:07.590Z</time>
      </trkpt>
      <trkpt lat="43.52244" lon="1.49017">
        <ele>245.2</ele>
        <time>2013-09-28T14:38:08.439Z</time>
      </trkpt>
      <trkpt lat="43.52239" lon="1.49027">
        <ele>246.5</ele>
        <time>2013-09-28T14:38:14.393Z</time>
      </trkpt>
      <trkpt lat="43.52239" lon="1.49028">
        <ele>247.2</ele>
        <time>2013-09-28T14:38:15.378Z</time>
      </trkpt>
      <trkpt lat="43.52233" lon="1.49036">
        <ele>250.1</ele>
        <time>2013-09-28T14:38:20.401Z</time>
      </trkpt>
      <trkpt lat="43.52231" lon="1.49038">
        <ele>250.4</ele>
        <time>2013-09-28T14:38:20.676Z</time>
      </trkpt>
      <trkpt lat="43.52225" lon="1.4904">
        <ele>251</ele>
        <time>2013-09-28T14:38:22.400Z</time>
      </trkpt>
      <trkpt lat="43.52222" lon="1.49043">
        <ele>250.6</ele>
        <time>2013-09-28T14:38:23.394Z</time>
      </trkpt>
      <trkpt lat="43.52217" lon="1.49048">
        <ele>250.4</ele>
        <time>2013-09-28T14:38:25.417Z</time>
      </trkpt>
      <trkpt lat="43.52215" lon="1.49051">
        <ele>249.5</ele>
        <time>2013-09-28T14:38:26.613Z</time>
      </trkpt>
      <trkpt lat="43.5221" lon="1.4906">
        <ele>248.3</ele>
        <time>2013-09-28T14:38:29.024Z</time>
      </trkpt>
      <trkpt lat="43.52208" lon="1.49063">
        <ele>247.3</ele>
        <time>2013-09-28T14:38:29.401Z</time>
      </trkpt>
      <trkpt lat="43.52202" lon="1.49072">
        <ele>247.6</ele>
        <time>2013-09-28T14:38:32.396Z</time>
      </trkpt>
      <trkpt lat="43.52199" lon="1.49073">
        <ele>247.7</ele>
        <time>2013-09-28T14:38:33.445Z</time>
      </trkpt>
      <trkpt lat="43.52194" lon="1.49081">
        <ele>241.9</ele>
        <time>2013-09-28T14:38:36.439Z</time>
      </trkpt>
      <trkpt lat="43.52192" lon="1.49083">
        <ele>241</ele>
        <time>2013-09-28T14:38:37.457Z</time>
      </trkpt>
      <trkpt lat="43.52186" lon="1.4909">
        <ele>240.5</ele>
        <time>2013-09-28T14:38:40.581Z</time>
      </trkpt>
      <trkpt lat="43.52184" lon="1.49092">
        <ele>240.3</ele>
        <time>2013-09-28T14:38:41.457Z</time>
      </trkpt>
      <trkpt lat="43.52178" lon="1.491">
        <ele>240.6</ele>
        <time>2013-09-28T14:38:44.674Z</time>
      </trkpt>
      <trkpt lat="43.52178" lon="1.49102">
        <ele>243.4</ele>
        <time>2013-09-28T14:38:45.475Z</time>
      </trkpt>
      <trkpt lat="43.52176" lon="1.49111">
        <ele>245</ele>
        <time>2013-09-28T14:38:50.282Z</time>
      </trkpt>
      <trkpt lat="43.52172" lon="1.49113">
        <ele>245.2</ele>
        <time>2013-09-28T14:38:50.533Z</time>
      </trkpt>
      <trkpt lat="43.52167" lon="1.49119">
        <ele>244.2</ele>
        <time>2013-09-28T14:38:52.481Z</time>
      </trkpt>
      <trkpt lat="43.52165" lon="1.49122">
        <ele>244.7</ele>
        <time>2013-09-28T14:38:53.471Z</time>
      </trkpt>
      <trkpt lat="43.5216" lon="1.49129">
        <ele>242.9</ele>
        <time>2013-09-28T14:38:55.587Z</time>
      </trkpt>
      <trkpt lat="43.52158" lon="1.49132">
        <ele>242.1</ele>
        <time>2013-09-28T14:38:56.590Z</time>
      </trkpt>
      <trkpt lat="43.52152" lon="1.49141">
        <ele>245.3</ele>
        <time>2013-09-28T14:39:00.479Z</time>
      </trkpt>
      <trkpt lat="43.52151" lon="1.49142">
        <ele>245.9</ele>
        <time>2013-09-28T14:39:01.427Z</time>
      </trkpt>
      <trkpt lat="43.52145" lon="1.49149">
        <ele>246.5</ele>
        <time>2013-09-28T14:39:05.488Z</time>
      </trkpt>
      <trkpt lat="43.52143" lon="1.49151">
        <ele>246.5</ele>
        <time>2013-09-28T14:39:06.442Z</time>
      </trkpt>
      <trkpt lat="43.5214" lon="1.49157">
        <ele>243.9</ele>
        <time>2013-09-28T14:39:10.479Z</time>
      </trkpt>
      <trkpt lat="43.52136" lon="1.49163">
        <ele>244.4</ele>
        <time>2013-09-28T14:39:10.795Z</time>
      </trkpt>
      <trkpt lat="43.52132" lon="1.49172">
        <ele>241.5</ele>
        <time>2013-09-28T14:39:13.401Z</time>
      </trkpt>
      <trkpt lat="43.5213" lon="1.49175">
        <ele>242.5</ele>
        <time>2013-09-28T14:39:14.487Z</time>
      </trkpt>
      <trkpt lat="43.52123" lon="1.49182">
        <ele>241.5</ele>
        <time>2013-09-28T14:39:17.436Z</time>
      </trkpt>
      <trkpt lat="43.52122" lon="1.49185">
        <ele>241</ele>
        <time>2013-09-28T14:39:18.437Z</time>
      </trkpt>
      <trkpt lat="43.52117" lon="1.49193">
        <ele>239.9</ele>
        <time>2013-09-28T14:39:22.870Z</time>
      </trkpt>
      <trkpt lat="43.52114" lon="1.49197">
        <ele>240.1</ele>
        <time>2013-09-28T14:39:23.392Z</time>
      </trkpt>
      <trkpt lat="43.52111" lon="1.49205">
        <ele>238.8</ele>
        <time>2013-09-28T14:39:26.383Z</time>
      </trkpt>
      <trkpt lat="43.52109" lon="1.49208">
        <ele>239.2</ele>
        <time>2013-09-28T14:39:27.451Z</time>
      </trkpt>
      <trkpt lat="43.52106" lon="1.49217">
        <ele>238.8</ele>
        <time>2013-09-28T14:39:30.643Z</time>
      </trkpt>
      <trkpt lat="43.52105" lon="1.4922">
        <ele>237.6</ele>
        <time>2013-09-28T14:39:31.459Z</time>
      </trkpt>
      <trkpt lat="43.52101" lon="1.4923">
        <ele>237.2</ele>
        <time>2013-09-28T14:39:35.510Z</time>
      </trkpt>
      <trkpt lat="43.521" lon="1.49233">
        <ele>236.4</ele>
        <time>2013-09-28T14:39:35.626Z</time>
      </trkpt>
      <trkpt lat="43.52096" lon="1.4924">
        <ele>234.7</ele>
        <time>2013-09-28T14:39:38.550Z</time>
      </trkpt>
      <trkpt lat="43.52094" lon="1.49244">
        <ele>235.5</ele>
        <time>2013-09-28T14:39:39.477Z</time>
      </trkpt>
      <trkpt lat="43.5209" lon="1.49254">
        <ele>235.7</ele>
        <time>2013-09-28T14:39:43.468Z</time>
      </trkpt>
      <trkpt lat="43.52089" lon="1.49257">
        <ele>236.1</ele>
        <time>2013-09-28T14:39:44.439Z</time>
      </trkpt>
      <trkpt lat="43.52087" lon="1.49267">
        <ele>238</ele>
        <time>2013-09-28T14:39:47.420Z</time>
      </trkpt>
      <trkpt lat="43.52086" lon="1.49269">
        <ele>239.2</ele>
        <time>2013-09-28T14:39:48.385Z</time>
      </trkpt>
      <trkpt lat="43.52082" lon="1.49279">
        <ele>238.5</ele>
        <time>2013-09-28T14:39:52.427Z</time>
      </trkpt>
      <trkpt lat="43.5208" lon="1.49281">
        <ele>238</ele>
        <time>2013-09-28T14:39:53.436Z</time>
      </trkpt>
      <trkpt lat="43.52076" lon="1.49289">
        <ele>236.6</ele>
        <time>2013-09-28T14:39:56.490Z</time>
      </trkpt>
      <trkpt lat="43.52075" lon="1.49293">
        <ele>236.8</ele>
        <time>2013-09-28T14:39:57.924Z</time>
      </trkpt>
      <trkpt lat="43.52071" lon="1.49304">
        <ele>237.2</ele>
        <time>2013-09-28T14:40:01.428Z</time>
      </trkpt>
      <trkpt lat="43.5207" lon="1.49306">
        <ele>237.9</ele>
        <time>2013-09-28T14:40:02.476Z</time>
      </trkpt>
      <trkpt lat="43.52065" lon="1.49314">
        <ele>239.7</ele>
        <time>2013-09-28T14:40:06.455Z</time>
      </trkpt>
      <trkpt lat="43.52063" lon="1.49317">
        <ele>240.4</ele>
        <time>2013-09-28T14:40:07.427Z</time>
      </trkpt>
      <trkpt lat="43.52058" lon="1.49326">
        <ele>240.8</ele>
        <time>2013-09-28T14:40:10.644Z</time>
      </trkpt>
      <trkpt lat="43.52057" lon="1.49327">
        <ele>241.1</ele>
        <time>2013-09-28T14:40:11.481Z</time>
      </trkpt>
      <trkpt lat="43.52051" lon="1.49334">
        <ele>241.3</ele>
        <time>2013-09-28T14:40:15.554Z</time>
      </trkpt>
      <trkpt lat="43.5205" lon="1.49337">
        <ele>240.5</ele>
        <time>2013-09-28T14:40:15.632Z</time>
      </trkpt>
      <trkpt lat="43.52045" lon="1.49345">
        <ele>236.1</ele>
        <time>2013-09-28T14:40:20.606Z</time>
      </trkpt>
      <trkpt lat="43.52043" lon="1.49347">
        <ele>235</ele>
        <time>2013-09-28T14:40:20.681Z</time>
      </trkpt>
      <trkpt lat="43.52039" lon="1.49351">
        <ele>234.8</ele>
        <time>2013-09-28T14:40:22.469Z</time>
      </trkpt>
      <trkpt lat="43.52035" lon="1.49355">
        <ele>235.4</ele>
        <time>2013-09-28T14:40:23.556Z</time>
      </trkpt>
      <trkpt lat="43.52029" lon="1.49363">
        <ele>233.4</ele>
        <time>2013-09-28T14:40:27.232Z</time>
      </trkpt>
      <trkpt lat="43.52028" lon="1.49366">
        <ele>234.9</ele>
        <time>2013-09-28T14:40:27.375Z</time>
      </trkpt>
      <trkpt lat="43.52026" lon="1.49375">
        <ele>239.1</ele>
        <time>2013-09-28T14:40:32.399Z</time>
      </trkpt>
      <trkpt lat="43.52024" lon="1.49379">
        <ele>239.3</ele>
        <time>2013-09-28T14:40:33.400Z</time>
      </trkpt>
      <trkpt lat="43.52021" lon="1.49383">
        <ele>238.3</ele>
        <time>2013-09-28T14:40:34.429Z</time>
      </trkpt>
      <trkpt lat="43.52016" lon="1.49386">
        <ele>237.2</ele>
        <time>2013-09-28T14:40:35.496Z</time>
      </trkpt>
      <trkpt lat="43.5201" lon="1.49393">
        <ele>235.8</ele>
        <time>2013-09-28T14:40:39.480Z</time>
      </trkpt>
      <trkpt lat="43.52008" lon="1.49394">
        <ele>236.2</ele>
        <time>2013-09-28T14:40:40.425Z</time>
      </trkpt>
      <trkpt lat="43.52002" lon="1.49398">
        <ele>235.1</ele>
        <time>2013-09-28T14:40:43.402Z</time>
      </trkpt>
      <trkpt lat="43.51999" lon="1.494">
        <ele>235.2</ele>
        <time>2013-09-28T14:40:44.461Z</time>
      </trkpt>
      <trkpt lat="43.51994" lon="1.49407">
        <ele>236.8</ele>
        <time>2013-09-28T14:40:47.489Z</time>
      </trkpt>
      <trkpt lat="43.51993" lon="1.4941">
        <ele>237.8</ele>
        <time>2013-09-28T14:40:48.477Z</time>
      </trkpt>
      <trkpt lat="43.51986" lon="1.49417">
        <ele>240.6</ele>
        <time>2013-09-28T14:40:52.395Z</time>
      </trkpt>
      <trkpt lat="43.51986" lon="1.49418">
        <ele>241.1</ele>
        <time>2013-09-28T14:40:53.384Z</time>
      </trkpt>
      <trkpt lat="43.5198" lon="1.49424">
        <ele>239.7</ele>
        <time>2013-09-28T14:40:56.471Z</time>
      </trkpt>
      <trkpt lat="43.51978" lon="1.49427">
        <ele>238.8</ele>
        <time>2013-09-28T14:40:57.473Z</time>
      </trkpt>
      <trkpt lat="43.51972" lon="1.49436">
        <ele>240.2</ele>
        <time>2013-09-28T14:41:00.442Z</time>
      </trkpt>
      <trkpt lat="43.51971" lon="1.49438">
        <ele>240.8</ele>
        <time>2013-09-28T14:41:01.403Z</time>
      </trkpt>
      <trkpt lat="43.51963" lon="1.4944">
        <ele>238.3</ele>
        <time>2013-09-28T14:41:05.364Z</time>
      </trkpt>
      <trkpt lat="43.51961" lon="1.49442">
        <ele>238.3</ele>
        <time>2013-09-28T14:41:05.472Z</time>
      </trkpt>
      <trkpt lat="43.51954" lon="1.49445">
        <ele>237.4</ele>
        <time>2013-09-28T14:41:08.442Z</time>
      </trkpt>
      <trkpt lat="43.51952" lon="1.49447">
        <ele>236.9</ele>
        <time>2013-09-28T14:41:09.479Z</time>
      </trkpt>
      <trkpt lat="43.51945" lon="1.4945">
        <ele>234</ele>
        <time>2013-09-28T14:41:12.434Z</time>
      </trkpt>
      <trkpt lat="43.51943" lon="1.4945">
        <ele>232.5</ele>
        <time>2013-09-28T14:41:13.414Z</time>
      </trkpt>
      <trkpt lat="43.51937" lon="1.49456">
        <ele>237.6</ele>
        <time>2013-09-28T14:41:18.404Z</time>
      </trkpt>
      <trkpt lat="43.51933" lon="1.49455">
        <ele>233.9</ele>
        <time>2013-09-28T14:41:19.482Z</time>
      </trkpt>
      <trkpt lat="43.51926" lon="1.49457">
        <ele>230.8</ele>
        <time>2013-09-28T14:41:21.363Z</time>
      </trkpt>
      <trkpt lat="43.51921" lon="1.49459">
        <ele>229</ele>
        <time>2013-09-28T14:41:22.452Z</time>
      </trkpt>
      <trkpt lat="43.51913" lon="1.49461">
        <ele>226.1</ele>
        <time>2013-09-28T14:41:25.451Z</time>
      </trkpt>
      <trkpt lat="43.5191" lon="1.49462">
        <ele>224.4</ele>
        <time>2013-09-28T14:41:25.555Z</time>
      </trkpt>
      <trkpt lat="43.51904" lon="1.49469">
        <ele>229.7</ele>
        <time>2013-09-28T14:41:30.529Z</time>
      </trkpt>
      <trkpt lat="43.51902" lon="1.4947">
        <ele>229.9</ele>
        <time>2013-09-28T14:41:31.431Z</time>
      </trkpt>
      <trkpt lat="43.51896" lon="1.49472">
        <ele>231.3</ele>
        <time>2013-09-28T14:41:33.469Z</time>
      </trkpt>
      <trkpt lat="43.51892" lon="1.49473">
        <ele>231.8</ele>
        <time>2013-09-28T14:41:34.592Z</time>
      </trkpt>
      <trkpt lat="43.51885" lon="1.49477">
        <ele>234.5</ele>
        <time>2013-09-28T14:41:38.385Z</time>
      </trkpt>
      <trkpt lat="43.51883" lon="1.49476">
        <ele>234.8</ele>
        <time>2013-09-28T14:41:39.403Z</time>
      </trkpt>
      <trkpt lat="43.51878" lon="1.49485">
        <ele>233.3</ele>
        <time>2013-09-28T14:41:43.436Z</time>
      </trkpt>
      <trkpt lat="43.51875" lon="1.49487">
        <ele>232.5</ele>
        <time>2013-09-28T14:41:44.466Z</time>
      </trkpt>
      <trkpt lat="43.51867" lon="1.4949">
        <ele>231.6</ele>
        <time>2013-09-28T14:41:47.697Z</time>
      </trkpt>
      <trkpt lat="43.51865" lon="1.49492">
        <ele>232.2</ele>
        <time>2013-09-28T14:41:48.404Z</time>
      </trkpt>
      <trkpt lat="43.51859" lon="1.49499">
        <ele>232.2</ele>
        <time>2013-09-28T14:41:51.403Z</time>
      </trkpt>
      <trkpt lat="43.51857" lon="1.49501">
        <ele>232.3</ele>
        <time>2013-09-28T14:41:52.404Z</time>
      </trkpt>
      <trkpt lat="43.51849" lon="1.49508">
        <ele>235.9</ele>
        <time>2013-09-28T14:41:56.458Z</time>
      </trkpt>
      <trkpt lat="43.51847" lon="1.4951">
        <ele>237.1</ele>
        <time>2013-09-28T14:41:57.413Z</time>
      </trkpt>
      <trkpt lat="43.51841" lon="1.49519">
        <ele>238</ele>
        <time>2013-09-28T14:42:01.552Z</time>
      </trkpt>
      <trkpt lat="43.5184" lon="1.4952">
        <ele>238.6</ele>
        <time>2013-09-28T14:42:02.474Z</time>
      </trkpt>
      <trkpt lat="43.51833" lon="1.49526">
        <ele>239.2</ele>
        <time>2013-09-28T14:42:05.386Z</time>
      </trkpt>
      <trkpt lat="43.51832" lon="1.49527">
        <ele>240.4</ele>
        <time>2013-09-28T14:42:06.592Z</time>
      </trkpt>
      <trkpt lat="43.51825" lon="1.49534">
        <ele>240</ele>
        <time>2013-09-28T14:42:11.390Z</time>
      </trkpt>
      <trkpt lat="43.51823" lon="1.49536">
        <ele>240.6</ele>
        <time>2013-09-28T14:42:12.403Z</time>
      </trkpt>
      <trkpt lat="43.51817" lon="1.49543">
        <ele>239</ele>
        <time>2013-09-28T14:42:15.562Z</time>
      </trkpt>
      <trkpt lat="43.51815" lon="1.49546">
        <ele>238.3</ele>
        <time>2013-09-28T14:42:16.452Z</time>
      </trkpt>
      <trkpt lat="43.51809" lon="1.49551">
        <ele>236.9</ele>
        <time>2013-09-28T14:42:20.517Z</time>
      </trkpt>
      <trkpt lat="43.51807" lon="1.49552">
        <ele>237.7</ele>
        <time>2013-09-28T14:42:21.500Z</time>
      </trkpt>
      <trkpt lat="43.51801" lon="1.4956">
        <ele>237.7</ele>
        <time>2013-09-28T14:42:24.435Z</time>
      </trkpt>
      <trkpt lat="43.51798" lon="1.49563">
        <ele>238.8</ele>
        <time>2013-09-28T14:42:25.398Z</time>
      </trkpt>
      <trkpt lat="43.51791" lon="1.49569">
        <ele>237.4</ele>
        <time>2013-09-28T14:42:30.395Z</time>
      </trkpt>
      <trkpt lat="43.51789" lon="1.49569">
        <ele>236.9</ele>
        <time>2013-09-28T14:42:30.782Z</time>
      </trkpt>
      <trkpt lat="43.51781" lon="1.49572">
        <ele>234.8</ele>
        <time>2013-09-28T14:42:35.420Z</time>
      </trkpt>
      <trkpt lat="43.5178" lon="1.49574">
        <ele>234.5</ele>
        <time>2013-09-28T14:42:35.512Z</time>
      </trkpt>
      <trkpt lat="43.51772" lon="1.49579">
        <ele>235.1</ele>
        <time>2013-09-28T14:42:40.473Z</time>
      </trkpt>
      <trkpt lat="43.5177" lon="1.49579">
        <ele>236.1</ele>
        <time>2013-09-28T14:42:41.646Z</time>
      </trkpt>
      <trkpt lat="43.51763" lon="1.4958">
        <ele>240.5</ele>
        <time>2013-09-28T14:42:45.404Z</time>
      </trkpt>
      <trkpt lat="43.51761" lon="1.4958">
        <ele>241.7</ele>
        <time>2013-09-28T14:42:46.405Z</time>
      </trkpt>
      <trkpt lat="43.51754" lon="1.49578">
        <ele>238.9</ele>
        <time>2013-09-28T14:42:50.131Z</time>
      </trkpt>
      <trkpt lat="43.51751" lon="1.49579">
        <ele>240.4</ele>
        <time>2013-09-28T14:42:50.522Z</time>
      </trkpt>
      <trkpt lat="43.51742" lon="1.49577">
        <ele>237.6</ele>
        <time>2013-09-28T14:42:55.429Z</time>
      </trkpt>
      <trkpt lat="43.51741" lon="1.49575">
        <ele>235.5</ele>
        <time>2013-09-28T14:42:56.580Z</time>
      </trkpt>
      <trkpt lat="43.51732" lon="1.49575">
        <ele>234.6</ele>
        <time>2013-09-28T14:43:00.191Z</time>
      </trkpt>
      <trkpt lat="43.5173" lon="1.49575">
        <ele>235.2</ele>
        <time>2013-09-28T14:43:00.431Z</time>
      </trkpt>
      <trkpt lat="43.51725" lon="1.49573">
        <ele>236.9</ele>
        <time>2013-09-28T14:43:03.476Z</time>
      </trkpt>
      <trkpt lat="43.51721" lon="1.49572">
        <ele>235.3</ele>
        <time>2013-09-28T14:43:04.507Z</time>
      </trkpt>
      <trkpt lat="43.51715" lon="1.49568">
        <ele>234.4</ele>
        <time>2013-09-28T14:43:06.506Z</time>
      </trkpt>
      <trkpt lat="43.51713" lon="1.49566">
        <ele>234.9</ele>
        <time>2013-09-28T14:43:07.414Z</time>
      </trkpt>
      <trkpt lat="43.51705" lon="1.4956">
        <ele>235</ele>
        <time>2013-09-28T14:43:11.402Z</time>
      </trkpt>
      <trkpt lat="43.51704" lon="1.49559">
        <ele>235.7</ele>
        <time>2013-09-28T14:43:12.405Z</time>
      </trkpt>
      <trkpt lat="43.51698" lon="1.49551">
        <ele>239.6</ele>
        <time>2013-09-28T14:43:17.455Z</time>
      </trkpt>
      <trkpt lat="43.51698" lon="1.49548">
        <ele>239.9</ele>
        <time>2013-09-28T14:43:18.455Z</time>
      </trkpt>
      <trkpt lat="43.51693" lon="1.49542">
        <ele>243.4</ele>
        <time>2013-09-28T14:43:22.380Z</time>
      </trkpt>
      <trkpt lat="43.5169" lon="1.49541">
        <ele>244.7</ele>
        <time>2013-09-28T14:43:23.394Z</time>
      </trkpt>
      <trkpt lat="43.51683" lon="1.49536">
        <ele>244.7</ele>
        <time>2013-09-28T14:43:26.452Z</time>
      </trkpt>
      <trkpt lat="43.5168" lon="1.49534">
        <ele>244.2</ele>
        <time>2013-09-28T14:43:27.443Z</time>
      </trkpt>
      <trkpt lat="43.51672" lon="1.49533">
        <ele>239.6</ele>
        <time>2013-09-28T14:43:30.453Z</time>
      </trkpt>
      <trkpt lat="43.51669" lon="1.49531">
        <ele>238.6</ele>
        <time>2013-09-28T14:43:30.577Z</time>
      </trkpt>
      <trkpt lat="43.51662" lon="1.49523">
        <ele>239.6</ele>
        <time>2013-09-28T14:43:36.424Z</time>
      </trkpt>
      <trkpt lat="43.51662" lon="1.49521">
        <ele>240.8</ele>
        <time>2013-09-28T14:43:37.434Z</time>
      </trkpt>
      <trkpt lat="43.51654" lon="1.49521">
        <ele>232.1</ele>
        <time>2013-09-28T14:43:42.653Z</time>
      </trkpt>
      <trkpt lat="43.51653" lon="1.49522">
        <ele>232.3</ele>
        <time>2013-09-28T14:43:43.403Z</time>
      </trkpt>
      <trkpt lat="43.51646" lon="1.49514">
        <ele>228.7</ele>
        <time>2013-09-28T14:43:59.881Z</time>
      </trkpt>
      <trkpt lat="43.51645" lon="1.49514">
        <ele>228.7</ele>
        <time>2013-09-28T14:44:00.444Z</time>
      </trkpt>
      <trkpt lat="43.51645" lon="1.49514">
        <ele>228.7</ele>
        <time>2013-09-28T14:44:01.471Z</time>
      </trkpt>
      <trkpt lat="43.51645" lon="1.49515">
        <ele>228.4</ele>
        <time>2013-09-28T14:44:02.394Z</time>
      </trkpt>
      <trkpt lat="43.51645" lon="1.49515">
        <ele>228.3</ele>
        <time>2013-09-28T14:44:03.375Z</time>
      </trkpt>
      <trkpt lat="43.51645" lon="1.49516">
        <ele>228.3</ele>
        <time>2013-09-28T14:44:04.370Z</time>
      </trkpt>
      <trkpt lat="43.51645" lon="1.49516">
        <ele>228.3</ele>
        <time>2013-09-28T14:44:05.796Z</time>
      </trkpt>
      <trkpt lat="43.51645" lon="1.49516">
        <ele>228.3</ele>
        <time>2013-09-28T14:44:06.364Z</time>
      </trkpt>
      <trkpt lat="43.51645" lon="1.49516">
        <ele>228.2</ele>
        <time>2013-09-28T14:44:20.515Z</time>
      </trkpt>
      <trkpt lat="43.51649" lon="1.49519">
        <ele>226.6</ele>
        <time>2013-09-28T14:44:23.388Z</time>
      </trkpt>
      <trkpt lat="43.51651" lon="1.4951">
        <ele>225.5</ele>
        <time>2013-09-28T14:44:28.994Z</time>
      </trkpt>
      <trkpt lat="43.5164" lon="1.49484">
        <ele>178.6</ele>
        <time>2013-09-28T14:44:30.180Z</time>
      </trkpt>
      <trkpt lat="43.5164" lon="1.49484">
        <ele>178.6</ele>
        <time>2013-09-28T14:44:37.418Z</time>
      </trkpt>
      <trkpt lat="43.51647" lon="1.49509">
        <ele>224.8</ele>
        <time>2013-09-28T14:44:38.615Z</time>
      </trkpt>
      <trkpt lat="43.51644" lon="1.49516">
        <ele>225.5</ele>
        <time>2013-09-28T14:44:50.607Z</time>
      </trkpt>
      <trkpt lat="43.51644" lon="1.49515">
        <ele>225.8</ele>
        <time>2013-09-28T14:44:51.570Z</time>
      </trkpt>
      <trkpt lat="43.51644" lon="1.49515">
        <ele>226.1</ele>
        <time>2013-09-28T14:44:54.834Z</time>
      </trkpt>
      <trkpt lat="43.51643" lon="1.49516">
        <ele>226.4</ele>
        <time>2013-09-28T14:44:55.105Z</time>
      </trkpt>
      <trkpt lat="43.51643" lon="1.49517">
        <ele>226.1</ele>
        <time>2013-09-28T14:44:58.533Z</time>
      </trkpt>
      <trkpt lat="43.51643" lon="1.49517">
        <ele>226</ele>
        <time>2013-09-28T14:44:59.443Z</time>
      </trkpt>
      <trkpt lat="43.51643" lon="1.49517">
        <ele>226</ele>
        <time>2013-09-28T14:44:59.747Z</time>
      </trkpt>
      <trkpt lat="43.51644" lon="1.49515">
        <ele>226.1</ele>
        <time>2013-09-28T14:45:00.460Z</time>
      </trkpt>
      <trkpt lat="43.51643" lon="1.49514">
        <ele>228</ele>
        <time>2013-09-28T14:45:02.477Z</time>
      </trkpt>
      <trkpt lat="43.51643" lon="1.49514">
        <ele>228.2</ele>
        <time>2013-09-28T14:45:03.457Z</time>
      </trkpt>
      <trkpt lat="43.51643" lon="1.49515">
        <ele>228.2</ele>
        <time>2013-09-28T14:45:04.833Z</time>
      </trkpt>
      <trkpt lat="43.51643" lon="1.49516">
        <ele>228.2</ele>
        <time>2013-09-28T14:45:05.509Z</time>
      </trkpt>
      <trkpt lat="43.51638" lon="1.49515">
        <ele>233.7</ele>
        <time>2013-09-28T14:45:12.518Z</time>
      </trkpt>
      <trkpt lat="43.51633" lon="1.49517">
        <ele>233.5</ele>
        <time>2013-09-28T14:45:13.433Z</time>
      </trkpt>
      <trkpt lat="43.51626" lon="1.49519">
        <ele>234.6</ele>
        <time>2013-09-28T14:45:15.504Z</time>
      </trkpt>
      <trkpt lat="43.51624" lon="1.4952">
        <ele>233.7</ele>
        <time>2013-09-28T14:45:16.503Z</time>
      </trkpt>
      <trkpt lat="43.51618" lon="1.49525">
        <ele>234.3</ele>
        <time>2013-09-28T14:45:19.684Z</time>
      </trkpt>
      <trkpt lat="43.51616" lon="1.49527">
        <ele>233.1</ele>
        <time>2013-09-28T14:45:20.525Z</time>
      </trkpt>
      <trkpt lat="43.5161" lon="1.49532">
        <ele>233</ele>
        <time>2013-09-28T14:45:24.887Z</time>
      </trkpt>
      <trkpt lat="43.51608" lon="1.49533">
        <ele>234.2</ele>
        <time>2013-09-28T14:45:25.469Z</time>
      </trkpt>
      <trkpt lat="43.51601" lon="1.49534">
        <ele>241.9</ele>
        <time>2013-09-28T14:45:29.461Z</time>
      </trkpt>
      <trkpt lat="43.51599" lon="1.49534">
        <ele>243.5</ele>
        <time>2013-09-28T14:45:30.447Z</time>
      </trkpt>
      <trkpt lat="43.5159" lon="1.49534">
        <ele>246.5</ele>
        <time>2013-09-28T14:45:33.402Z</time>
      </trkpt>
      <trkpt lat="43.51589" lon="1.49536">
        <ele>247.7</ele>
        <time>2013-09-28T14:45:34.394Z</time>
      </trkpt>
      <trkpt lat="43.51581" lon="1.49542">
        <ele>248.3</ele>
        <time>2013-09-28T14:45:37.413Z</time>
      </trkpt>
      <trkpt lat="43.51579" lon="1.49544">
        <ele>248.5</ele>
        <time>2013-09-28T14:45:38.477Z</time>
      </trkpt>
      <trkpt lat="43.51572" lon="1.49548">
        <ele>245.4</ele>
        <time>2013-09-28T14:45:40.459Z</time>
      </trkpt>
      <trkpt lat="43.51567" lon="1.49549">
        <ele>244.7</ele>
        <time>2013-09-28T14:45:41.458Z</time>
      </trkpt>
      <trkpt lat="43.51562" lon="1.49554">
        <ele>240.2</ele>
        <time>2013-09-28T14:45:43.508Z</time>
      </trkpt>
      <trkpt lat="43.5156" lon="1.49556">
        <ele>239.7</ele>
        <time>2013-09-28T14:45:44.429Z</time>
      </trkpt>
      <trkpt lat="43.51552" lon="1.49562">
        <ele>241.6</ele>
        <time>2013-09-28T14:45:47.401Z</time>
      </trkpt>
      <trkpt lat="43.51551" lon="1.49563">
        <ele>241</ele>
        <time>2013-09-28T14:45:48.669Z</time>
      </trkpt>
      <trkpt lat="43.51546" lon="1.4957">
        <ele>236.6</ele>
        <time>2013-09-28T14:45:51.776Z</time>
      </trkpt>
      <trkpt lat="43.51545" lon="1.49573">
        <ele>236</ele>
        <time>2013-09-28T14:45:52.406Z</time>
      </trkpt>
      <trkpt lat="43.51539" lon="1.4958">
        <ele>232.5</ele>
        <time>2013-09-28T14:45:57.471Z</time>
      </trkpt>
      <trkpt lat="43.51537" lon="1.49581">
        <ele>232.1</ele>
        <time>2013-09-28T14:45:58.506Z</time>
      </trkpt>
      <trkpt lat="43.51531" lon="1.49582">
        <ele>232.4</ele>
        <time>2013-09-28T14:46:00.433Z</time>
      </trkpt>
      <trkpt lat="43.51527" lon="1.49583">
        <ele>232.5</ele>
        <time>2013-09-28T14:46:01.487Z</time>
      </trkpt>
      <trkpt lat="43.51529" lon="1.49594">
        <ele>241.3</ele>
        <time>2013-09-28T14:46:04.539Z</time>
      </trkpt>
      <trkpt lat="43.5153" lon="1.49596">
        <ele>244.5</ele>
        <time>2013-09-28T14:46:05.536Z</time>
      </trkpt>
      <trkpt lat="43.51525" lon="1.49601">
        <ele>247.4</ele>
        <time>2013-09-28T14:46:10.213Z</time>
      </trkpt>
      <trkpt lat="43.5152" lon="1.49602">
        <ele>248.1</ele>
        <time>2013-09-28T14:46:10.418Z</time>
      </trkpt>
      <trkpt lat="43.51514" lon="1.49599">
        <ele>246.8</ele>
        <time>2013-09-28T14:46:12.397Z</time>
      </trkpt>
      <trkpt lat="43.5151" lon="1.49597">
        <ele>246.7</ele>
        <time>2013-09-28T14:46:13.390Z</time>
      </trkpt>
      <trkpt lat="43.51504" lon="1.49591">
        <ele>244</ele>
        <time>2013-09-28T14:46:15.440Z</time>
      </trkpt>
      <trkpt lat="43.515" lon="1.49588">
        <ele>243.7</ele>
        <time>2013-09-28T14:46:16.459Z</time>
      </trkpt>
      <trkpt lat="43.51492" lon="1.49585">
        <ele>239.4</ele>
        <time>2013-09-28T14:46:18.492Z</time>
      </trkpt>
      <trkpt lat="43.51489" lon="1.49582">
        <ele>239.7</ele>
        <time>2013-09-28T14:46:19.454Z</time>
      </trkpt>
      <trkpt lat="43.51484" lon="1.49572">
        <ele>239.6</ele>
        <time>2013-09-28T14:46:22.466Z</time>
      </trkpt>
      <trkpt lat="43.51482" lon="1.4957">
        <ele>240.1</ele>
        <time>2013-09-28T14:46:23.486Z</time>
      </trkpt>
      <trkpt lat="43.51478" lon="1.49563">
        <ele>239.7</ele>
        <time>2013-09-28T14:46:25.620Z</time>
      </trkpt>
      <trkpt lat="43.51475" lon="1.4956">
        <ele>240.5</ele>
        <time>2013-09-28T14:46:26.715Z</time>
      </trkpt>
      <trkpt lat="43.5147" lon="1.49553">
        <ele>240.7</ele>
        <time>2013-09-28T14:46:30.080Z</time>
      </trkpt>
      <trkpt lat="43.51468" lon="1.49552">
        <ele>241.3</ele>
        <time>2013-09-28T14:46:30.397Z</time>
      </trkpt>
      <trkpt lat="43.51462" lon="1.49547">
        <ele>243.6</ele>
        <time>2013-09-28T14:46:33.459Z</time>
      </trkpt>
      <trkpt lat="43.5146" lon="1.49545">
        <ele>243.9</ele>
        <time>2013-09-28T14:46:34.477Z</time>
      </trkpt>
      <trkpt lat="43.51453" lon="1.49541">
        <ele>243.1</ele>
        <time>2013-09-28T14:46:37.425Z</time>
      </trkpt>
      <trkpt lat="43.51453" lon="1.49536">
        <ele>242.5</ele>
        <time>2013-09-28T14:46:38.452Z</time>
      </trkpt>
      <trkpt lat="43.5145" lon="1.49525">
        <ele>247.9</ele>
        <time>2013-09-28T14:46:42.212Z</time>
      </trkpt>
      <trkpt lat="43.51448" lon="1.49524">
        <ele>250.2</ele>
        <time>2013-09-28T14:46:42.432Z</time>
      </trkpt>
      <trkpt lat="43.51444" lon="1.49525">
        <ele>255.4</ele>
        <time>2013-09-28T14:46:45.382Z</time>
      </trkpt>
      <trkpt lat="43.51438" lon="1.49522">
        <ele>256.1</ele>
        <time>2013-09-28T14:46:47.435Z</time>
      </trkpt>
      <trkpt lat="43.51431" lon="1.4952">
        <ele>258.9</ele>
        <time>2013-09-28T14:46:50.307Z</time>
      </trkpt>
      <trkpt lat="43.51427" lon="1.49519">
        <ele>259.5</ele>
        <time>2013-09-28T14:46:50.412Z</time>
      </trkpt>
      <trkpt lat="43.51419" lon="1.49518">
        <ele>259.2</ele>
        <time>2013-09-28T14:46:52.504Z</time>
      </trkpt>
      <trkpt lat="43.51417" lon="1.49518">
        <ele>258.7</ele>
        <time>2013-09-28T14:46:53.465Z</time>
      </trkpt>
      <trkpt lat="43.51408" lon="1.49517">
        <ele>258.2</ele>
        <time>2013-09-28T14:46:58.457Z</time>
      </trkpt>
      <trkpt lat="43.51407" lon="1.49515">
        <ele>257.7</ele>
        <time>2013-09-28T14:46:59.496Z</time>
      </trkpt>
      <trkpt lat="43.514" lon="1.49515">
        <ele>258.3</ele>
        <time>2013-09-28T14:47:03.469Z</time>
      </trkpt>
      <trkpt lat="43.51397" lon="1.49515">
        <ele>257.6</ele>
        <time>2013-09-28T14:47:04.459Z</time>
      </trkpt>
      <trkpt lat="43.51389" lon="1.49516">
        <ele>255.7</ele>
        <time>2013-09-28T14:47:07.431Z</time>
      </trkpt>
      <trkpt lat="43.51387" lon="1.49515">
        <ele>256.3</ele>
        <time>2013-09-28T14:47:08.402Z</time>
      </trkpt>
      <trkpt lat="43.51381" lon="1.4951">
        <ele>254.6</ele>
        <time>2013-09-28T14:47:11.369Z</time>
      </trkpt>
      <trkpt lat="43.5138" lon="1.49506">
        <ele>252.8</ele>
        <time>2013-09-28T14:47:12.519Z</time>
      </trkpt>
      <trkpt lat="43.51375" lon="1.49498">
        <ele>250.2</ele>
        <time>2013-09-28T14:47:15.486Z</time>
      </trkpt>
      <trkpt lat="43.51373" lon="1.49497">
        <ele>249</ele>
        <time>2013-09-28T14:47:16.426Z</time>
      </trkpt>
      <trkpt lat="43.51367" lon="1.49489">
        <ele>249</ele>
        <time>2013-09-28T14:47:20.459Z</time>
      </trkpt>
      <trkpt lat="43.51366" lon="1.49486">
        <ele>249.7</ele>
        <time>2013-09-28T14:47:21.481Z</time>
      </trkpt>
      <trkpt lat="43.51364" lon="1.49476">
        <ele>255.5</ele>
        <time>2013-09-28T14:47:26.478Z</time>
      </trkpt>
      <trkpt lat="43.51362" lon="1.49473">
        <ele>255.2</ele>
        <time>2013-09-28T14:47:27.456Z</time>
      </trkpt>
      <trkpt lat="43.51357" lon="1.49465">
        <ele>257.5</ele>
        <time>2013-09-28T14:47:30.580Z</time>
      </trkpt>
      <trkpt lat="43.51356" lon="1.49463">
        <ele>255.4</ele>
        <time>2013-09-28T14:47:31.539Z</time>
      </trkpt>
      <trkpt lat="43.51349" lon="1.49457">
        <ele>253.3</ele>
        <time>2013-09-28T14:47:35.000Z</time>
      </trkpt>
      <trkpt lat="43.51347" lon="1.49454">
        <ele>252</ele>
        <time>2013-09-28T14:47:35.510Z</time>
      </trkpt>
      <trkpt lat="43.51342" lon="1.49444">
        <ele>245</ele>
        <time>2013-09-28T14:47:38.555Z</time>
      </trkpt>
      <trkpt lat="43.5134" lon="1.49442">
        <ele>245.2</ele>
        <time>2013-09-28T14:47:39.469Z</time>
      </trkpt>
      <trkpt lat="43.51332" lon="1.49438">
        <ele>244.2</ele>
        <time>2013-09-28T14:47:43.449Z</time>
      </trkpt>
      <trkpt lat="43.5133" lon="1.49438">
        <ele>244.2</ele>
        <time>2013-09-28T14:47:44.489Z</time>
      </trkpt>
      <trkpt lat="43.51322" lon="1.49437">
        <ele>247.1</ele>
        <time>2013-09-28T14:47:48.396Z</time>
      </trkpt>
      <trkpt lat="43.5132" lon="1.49434">
        <ele>246.3</ele>
        <time>2013-09-28T14:47:49.400Z</time>
      </trkpt>
      <trkpt lat="43.51312" lon="1.49431">
        <ele>246.4</ele>
        <time>2013-09-28T14:47:53.482Z</time>
      </trkpt>
      <trkpt lat="43.51309" lon="1.4943">
        <ele>245.5</ele>
        <time>2013-09-28T14:47:54.484Z</time>
      </trkpt>
      <trkpt lat="43.51303" lon="1.49436">
        <ele>248.2</ele>
        <time>2013-09-28T14:47:57.447Z</time>
      </trkpt>
      <trkpt lat="43.513" lon="1.49438">
        <ele>248.6</ele>
        <time>2013-09-28T14:47:58.475Z</time>
      </trkpt>
      <trkpt lat="43.51292" lon="1.49438">
        <ele>247.6</ele>
        <time>2013-09-28T14:48:01.439Z</time>
      </trkpt>
      <trkpt lat="43.51289" lon="1.49438">
        <ele>248.8</ele>
        <time>2013-09-28T14:48:02.507Z</time>
      </trkpt>
      <trkpt lat="43.51282" lon="1.49442">
        <ele>250</ele>
        <time>2013-09-28T14:48:06.489Z</time>
      </trkpt>
      <trkpt lat="43.5128" lon="1.49441">
        <ele>249.9</ele>
        <time>2013-09-28T14:48:07.422Z</time>
      </trkpt>
      <trkpt lat="43.51271" lon="1.4944">
        <ele>248.3</ele>
        <time>2013-09-28T14:48:11.458Z</time>
      </trkpt>
      <trkpt lat="43.51268" lon="1.49439">
        <ele>248.2</ele>
        <time>2013-09-28T14:48:12.474Z</time>
      </trkpt>
      <trkpt lat="43.51261" lon="1.49435">
        <ele>248.2</ele>
        <time>2013-09-28T14:48:16.495Z</time>
      </trkpt>
      <trkpt lat="43.5126" lon="1.49433">
        <ele>248.1</ele>
        <time>2013-09-28T14:48:17.507Z</time>
      </trkpt>
      <trkpt lat="43.51254" lon="1.49426">
        <ele>253.5</ele>
        <time>2013-09-28T14:48:22.417Z</time>
      </trkpt>
      <trkpt lat="43.51253" lon="1.49426">
        <ele>254.4</ele>
        <time>2013-09-28T14:48:23.402Z</time>
      </trkpt>
      <trkpt lat="43.51248" lon="1.49416">
        <ele>258</ele>
        <time>2013-09-28T14:48:28.494Z</time>
      </trkpt>
      <trkpt lat="43.51246" lon="1.49414">
        <ele>257.5</ele>
        <time>2013-09-28T14:48:29.476Z</time>
      </trkpt>
      <trkpt lat="43.51238" lon="1.49411">
        <ele>258</ele>
        <time>2013-09-28T14:48:32.598Z</time>
      </trkpt>
      <trkpt lat="43.51234" lon="1.4941">
        <ele>257.2</ele>
        <time>2013-09-28T14:48:33.642Z</time>
      </trkpt>
      <trkpt lat="43.51226" lon="1.4941">
        <ele>260.8</ele>
        <time>2013-09-28T14:48:36.526Z</time>
      </trkpt>
      <trkpt lat="43.51223" lon="1.4941">
        <ele>260</ele>
        <time>2013-09-28T14:48:37.453Z</time>
      </trkpt>
      <trkpt lat="43.51214" lon="1.49412">
        <ele>260.5</ele>
        <time>2013-09-28T14:48:40.471Z</time>
      </trkpt>
      <trkpt lat="43.51211" lon="1.49413">
        <ele>259.2</ele>
        <time>2013-09-28T14:48:41.579Z</time>
      </trkpt>
      <trkpt lat="43.51203" lon="1.49415">
        <ele>263.8</ele>
        <time>2013-09-28T14:48:47.450Z</time>
      </trkpt>
      <trkpt lat="43.51202" lon="1.49417">
        <ele>263.3</ele>
        <time>2013-09-28T14:48:48.472Z</time>
      </trkpt>
      <trkpt lat="43.51195" lon="1.49418">
        <ele>263.8</ele>
        <time>2013-09-28T14:48:51.480Z</time>
      </trkpt>
      <trkpt lat="43.51192" lon="1.49418">
        <ele>265.1</ele>
        <time>2013-09-28T14:48:52.497Z</time>
      </trkpt>
      <trkpt lat="43.51185" lon="1.49419">
        <ele>265.8</ele>
        <time>2013-09-28T14:48:55.452Z</time>
      </trkpt>
      <trkpt lat="43.51182" lon="1.49419">
        <ele>265.4</ele>
        <time>2013-09-28T14:48:56.486Z</time>
      </trkpt>
      <trkpt lat="43.51173" lon="1.49422">
        <ele>267.6</ele>
        <time>2013-09-28T14:49:00.504Z</time>
      </trkpt>
      <trkpt lat="43.51171" lon="1.49422">
        <ele>267.5</ele>
        <time>2013-09-28T14:49:01.426Z</time>
      </trkpt>
      <trkpt lat="43.51163" lon="1.49423">
        <ele>266.9</ele>
        <time>2013-09-28T14:49:04.803Z</time>
      </trkpt>
      <trkpt lat="43.5116" lon="1.49422">
        <ele>267.7</ele>
        <time>2013-09-28T14:49:05.498Z</time>
      </trkpt>
      <trkpt lat="43.51153" lon="1.49423">
        <ele>268.7</ele>
        <time>2013-09-28T14:49:08.489Z</time>
      </trkpt>
      <trkpt lat="43.51151" lon="1.49423">
        <ele>269.5</ele>
        <time>2013-09-28T14:49:09.505Z</time>
      </trkpt>
      <trkpt lat="43.51143" lon="1.49424">
        <ele>274.8</ele>
        <time>2013-09-28T14:49:14.787Z</time>
      </trkpt>
      <trkpt lat="43.51141" lon="1.49424">
        <ele>274</ele>
        <time>2013-09-28T14:49:15.399Z</time>
      </trkpt>
      <trkpt lat="43.51136" lon="1.49424">
        <ele>272.9</ele>
        <time>2013-09-28T14:49:17.523Z</time>
      </trkpt>
      <trkpt lat="43.51132" lon="1.49424">
        <ele>270.6</ele>
        <time>2013-09-28T14:49:18.517Z</time>
      </trkpt>
      <trkpt lat="43.51125" lon="1.49427">
        <ele>267.9</ele>
        <time>2013-09-28T14:49:20.502Z</time>
      </trkpt>
      <trkpt lat="43.51121" lon="1.49427">
        <ele>267.2</ele>
        <time>2013-09-28T14:49:21.468Z</time>
      </trkpt>
      <trkpt lat="43.51114" lon="1.49426">
        <ele>264.5</ele>
        <time>2013-09-28T14:49:23.466Z</time>
      </trkpt>
      <trkpt lat="43.51111" lon="1.49426">
        <ele>264.8</ele>
        <time>2013-09-28T14:49:24.476Z</time>
      </trkpt>
      <trkpt lat="43.51104" lon="1.49429">
        <ele>264.6</ele>
        <time>2013-09-28T14:49:27.490Z</time>
      </trkpt>
      <trkpt lat="43.51102" lon="1.4943">
        <ele>264.2</ele>
        <time>2013-09-28T14:49:28.489Z</time>
      </trkpt>
      <trkpt lat="43.51095" lon="1.49433">
        <ele>262</ele>
        <time>2013-09-28T14:49:31.416Z</time>
      </trkpt>
      <trkpt lat="43.51092" lon="1.49434">
        <ele>261.4</ele>
        <time>2013-09-28T14:49:32.500Z</time>
      </trkpt>
      <trkpt lat="43.51084" lon="1.49437">
        <ele>261.7</ele>
        <time>2013-09-28T14:49:35.432Z</time>
      </trkpt>
      <trkpt lat="43.51082" lon="1.49437">
        <ele>260.9</ele>
        <time>2013-09-28T14:49:36.427Z</time>
      </trkpt>
      <trkpt lat="43.51074" lon="1.49435">
        <ele>260.7</ele>
        <time>2013-09-28T14:49:39.437Z</time>
      </trkpt>
      <trkpt lat="43.51071" lon="1.49435">
        <ele>260.9</ele>
        <time>2013-09-28T14:49:40.532Z</time>
      </trkpt>
      <trkpt lat="43.51065" lon="1.49444">
        <ele>261</ele>
        <time>2013-09-28T14:49:44.937Z</time>
      </trkpt>
      <trkpt lat="43.51066" lon="1.49446">
        <ele>259.1</ele>
        <time>2013-09-28T14:49:45.397Z</time>
      </trkpt>
      <trkpt lat="43.51062" lon="1.49437">
        <ele>254.3</ele>
        <time>2013-09-28T14:49:51.479Z</time>
      </trkpt>
      <trkpt lat="43.51058" lon="1.49435">
        <ele>254.9</ele>
        <time>2013-09-28T14:49:51.580Z</time>
      </trkpt>
      <trkpt lat="43.5105" lon="1.49438">
        <ele>253.1</ele>
        <time>2013-09-28T14:49:58.481Z</time>
      </trkpt>
      <trkpt lat="43.51047" lon="1.49438">
        <ele>253.5</ele>
        <time>2013-09-28T14:49:59.400Z</time>
      </trkpt>
      <trkpt lat="43.51039" lon="1.49435">
        <ele>252.1</ele>
        <time>2013-09-28T14:50:03.435Z</time>
      </trkpt>
      <trkpt lat="43.51034" lon="1.49434">
        <ele>253</ele>
        <time>2013-09-28T14:50:04.484Z</time>
      </trkpt>
      <trkpt lat="43.51031" lon="1.49432">
        <ele>254.3</ele>
        <time>2013-09-28T14:50:05.445Z</time>
      </trkpt>
      <trkpt lat="43.51025" lon="1.4943">
        <ele>253.3</ele>
        <time>2013-09-28T14:50:06.467Z</time>
      </trkpt>
      <trkpt lat="43.51017" lon="1.49428">
        <ele>252.9</ele>
        <time>2013-09-28T14:50:08.489Z</time>
      </trkpt>
      <trkpt lat="43.51014" lon="1.49427">
        <ele>252</ele>
        <time>2013-09-28T14:50:09.431Z</time>
      </trkpt>
      <trkpt lat="43.51008" lon="1.49419">
        <ele>256.8</ele>
        <time>2013-09-28T14:50:17.581Z</time>
      </trkpt>
      <trkpt lat="43.51005" lon="1.49417">
        <ele>256.4</ele>
        <time>2013-09-28T14:50:18.446Z</time>
      </trkpt>
      <trkpt lat="43.50996" lon="1.49418">
        <ele>256.9</ele>
        <time>2013-09-28T14:50:20.413Z</time>
      </trkpt>
      <trkpt lat="43.50989" lon="1.49421">
        <ele>252.6</ele>
        <time>2013-09-28T14:50:21.420Z</time>
      </trkpt>
      <trkpt lat="43.50983" lon="1.49424">
        <ele>250.6</ele>
        <time>2013-09-28T14:50:22.450Z</time>
      </trkpt>
      <trkpt lat="43.50977" lon="1.49426">
        <ele>248.9</ele>
        <time>2013-09-28T14:50:23.454Z</time>
      </trkpt>
      <trkpt lat="43.50971" lon="1.49426">
        <ele>248.4</ele>
        <time>2013-09-28T14:50:24.951Z</time>
      </trkpt>
      <trkpt lat="43.50966" lon="1.49426">
        <ele>247.2</ele>
        <time>2013-09-28T14:50:25.434Z</time>
      </trkpt>
      <trkpt lat="43.5096" lon="1.49418">
        <ele>250.8</ele>
        <time>2013-09-28T14:50:35.400Z</time>
      </trkpt>
      <trkpt lat="43.50959" lon="1.49419">
        <ele>252.5</ele>
        <time>2013-09-28T14:50:36.428Z</time>
      </trkpt>
      <trkpt lat="43.50951" lon="1.49417">
        <ele>254.5</ele>
        <time>2013-09-28T14:50:40.200Z</time>
      </trkpt>
      <trkpt lat="43.50949" lon="1.49416">
        <ele>255</ele>
        <time>2013-09-28T14:50:40.461Z</time>
      </trkpt>
      <trkpt lat="43.50941" lon="1.49418">
        <ele>252.2</ele>
        <time>2013-09-28T14:50:43.385Z</time>
      </trkpt>
      <trkpt lat="43.50938" lon="1.49415">
        <ele>251.7</ele>
        <time>2013-09-28T14:50:44.481Z</time>
      </trkpt>
      <trkpt lat="43.50933" lon="1.49415">
        <ele>253.6</ele>
        <time>2013-09-28T14:50:45.392Z</time>
      </trkpt>
      <trkpt lat="43.50928" lon="1.49418">
        <ele>253.2</ele>
        <time>2013-09-28T14:50:46.410Z</time>
      </trkpt>
      <trkpt lat="43.50922" lon="1.49421">
        <ele>259</ele>
        <time>2013-09-28T14:50:48.410Z</time>
      </trkpt>
      <trkpt lat="43.50918" lon="1.49422">
        <ele>260.9</ele>
        <time>2013-09-28T14:50:49.380Z</time>
      </trkpt>
      <trkpt lat="43.50909" lon="1.49421">
        <ele>264.7</ele>
        <time>2013-09-28T14:50:54.610Z</time>
      </trkpt>
      <trkpt lat="43.50908" lon="1.49421">
        <ele>265.7</ele>
        <time>2013-09-28T14:50:55.432Z</time>
      </trkpt>
      <trkpt lat="43.50899" lon="1.49424">
        <ele>268.9</ele>
        <time>2013-09-28T14:51:01.426Z</time>
      </trkpt>
      <trkpt lat="43.50898" lon="1.49426">
        <ele>270.2</ele>
        <time>2013-09-28T14:51:02.438Z</time>
      </trkpt>
      <trkpt lat="43.50891" lon="1.49432">
        <ele>271.6</ele>
        <time>2013-09-28T14:51:06.532Z</time>
      </trkpt>
      <trkpt lat="43.50887" lon="1.49432">
        <ele>271</ele>
        <time>2013-09-28T14:51:07.425Z</time>
      </trkpt>
      <trkpt lat="43.50879" lon="1.49434">
        <ele>270.1</ele>
        <time>2013-09-28T14:51:15.547Z</time>
      </trkpt>
      <trkpt lat="43.50878" lon="1.49435">
        <ele>269.8</ele>
        <time>2013-09-28T14:51:16.481Z</time>
      </trkpt>
      <trkpt lat="43.5087" lon="1.49436">
        <ele>270.4</ele>
        <time>2013-09-28T14:51:20.517Z</time>
      </trkpt>
      <trkpt lat="43.50865" lon="1.49438">
        <ele>271.2</ele>
        <time>2013-09-28T14:51:21.451Z</time>
      </trkpt>
      <trkpt lat="43.5086" lon="1.49439">
        <ele>270.8</ele>
        <time>2013-09-28T14:51:22.432Z</time>
      </trkpt>
      <trkpt lat="43.50855" lon="1.49439">
        <ele>270.6</ele>
        <time>2013-09-28T14:51:23.410Z</time>
      </trkpt>
      <trkpt lat="43.50849" lon="1.49441">
        <ele>271</ele>
        <time>2013-09-28T14:51:24.764Z</time>
      </trkpt>
      <trkpt lat="43.50845" lon="1.49442">
        <ele>273.6</ele>
        <time>2013-09-28T14:51:25.470Z</time>
      </trkpt>
      <trkpt lat="43.50837" lon="1.49443">
        <ele>276.6</ele>
        <time>2013-09-28T14:51:27.443Z</time>
      </trkpt>
      <trkpt lat="43.50832" lon="1.49443">
        <ele>276.8</ele>
        <time>2013-09-28T14:51:28.444Z</time>
      </trkpt>
      <trkpt lat="43.50825" lon="1.49443">
        <ele>280.5</ele>
        <time>2013-09-28T14:51:30.453Z</time>
      </trkpt>
      <trkpt lat="43.50822" lon="1.49444">
        <ele>280.7</ele>
        <time>2013-09-28T14:51:31.474Z</time>
      </trkpt>
      <trkpt lat="43.50815" lon="1.49445">
        <ele>285.3</ele>
        <time>2013-09-28T14:51:33.449Z</time>
      </trkpt>
      <trkpt lat="43.50812" lon="1.49446">
        <ele>285.1</ele>
        <time>2013-09-28T14:51:34.461Z</time>
      </trkpt>
      <trkpt lat="43.50803" lon="1.49447">
        <ele>285.8</ele>
        <time>2013-09-28T14:51:37.431Z</time>
      </trkpt>
      <trkpt lat="43.508" lon="1.49447">
        <ele>285.9</ele>
        <time>2013-09-28T14:51:38.483Z</time>
      </trkpt>
      <trkpt lat="43.50792" lon="1.49446">
        <ele>286.5</ele>
        <time>2013-09-28T14:51:41.417Z</time>
      </trkpt>
      <trkpt lat="43.50791" lon="1.49444">
        <ele>288.6</ele>
        <time>2013-09-28T14:51:42.439Z</time>
      </trkpt>
      <trkpt lat="43.50786" lon="1.49437">
        <ele>288.8</ele>
        <time>2013-09-28T14:51:46.685Z</time>
      </trkpt>
      <trkpt lat="43.50781" lon="1.49435">
        <ele>290</ele>
        <time>2013-09-28T14:51:47.414Z</time>
      </trkpt>
      <trkpt lat="43.50774" lon="1.49435">
        <ele>289.9</ele>
        <time>2013-09-28T14:51:50.379Z</time>
      </trkpt>
      <trkpt lat="43.5077" lon="1.49434">
        <ele>288.5</ele>
        <time>2013-09-28T14:51:50.516Z</time>
      </trkpt>
      <trkpt lat="43.50763" lon="1.49429">
        <ele>282.5</ele>
        <time>2013-09-28T14:51:53.421Z</time>
      </trkpt>
      <trkpt lat="43.50761" lon="1.49428">
        <ele>281.4</ele>
        <time>2013-09-28T14:51:54.457Z</time>
      </trkpt>
      <trkpt lat="43.50753" lon="1.49424">
        <ele>279.5</ele>
        <time>2013-09-28T14:52:02.451Z</time>
      </trkpt>
      <trkpt lat="43.50752" lon="1.49423">
        <ele>278.6</ele>
        <time>2013-09-28T14:52:03.439Z</time>
      </trkpt>
      <trkpt lat="43.50746" lon="1.49415">
        <ele>293.1</ele>
        <time>2013-09-28T14:52:10.453Z</time>
      </trkpt>
      <trkpt lat="43.50742" lon="1.49412">
        <ele>292.2</ele>
        <time>2013-09-28T14:52:12.393Z</time>
      </trkpt>
      <trkpt lat="43.50735" lon="1.49405">
        <ele>293.2</ele>
        <time>2013-09-28T14:52:15.432Z</time>
      </trkpt>
      <trkpt lat="43.50732" lon="1.49404">
        <ele>293.4</ele>
        <time>2013-09-28T14:52:16.473Z</time>
      </trkpt>
      <trkpt lat="43.50725" lon="1.49403">
        <ele>300.6</ele>
        <time>2013-09-28T14:52:22.086Z</time>
      </trkpt>
      <trkpt lat="43.50722" lon="1.49402">
        <ele>300.6</ele>
        <time>2013-09-28T14:52:22.379Z</time>
      </trkpt>
      <trkpt lat="43.50717" lon="1.49398">
        <ele>298.7</ele>
        <time>2013-09-28T14:52:25.248Z</time>
      </trkpt>
      <trkpt lat="43.50714" lon="1.49395">
        <ele>295.9</ele>
        <time>2013-09-28T14:52:25.485Z</time>
      </trkpt>
      <trkpt lat="43.50709" lon="1.49391">
        <ele>290.9</ele>
        <time>2013-09-28T14:52:27.442Z</time>
      </trkpt>
      <trkpt lat="43.50705" lon="1.4939">
        <ele>289.4</ele>
        <time>2013-09-28T14:52:28.497Z</time>
      </trkpt>
      <trkpt lat="43.50699" lon="1.49388">
        <ele>288.7</ele>
        <time>2013-09-28T14:52:30.453Z</time>
      </trkpt>
      <trkpt lat="43.50696" lon="1.49388">
        <ele>289.5</ele>
        <time>2013-09-28T14:52:31.417Z</time>
      </trkpt>
      <trkpt lat="43.50689" lon="1.49388">
        <ele>288.7</ele>
        <time>2013-09-28T14:52:33.509Z</time>
      </trkpt>
      <trkpt lat="43.50686" lon="1.49388">
        <ele>288.9</ele>
        <time>2013-09-28T14:52:34.555Z</time>
      </trkpt>
      <trkpt lat="43.50678" lon="1.49387">
        <ele>289.9</ele>
        <time>2013-09-28T14:52:37.582Z</time>
      </trkpt>
      <trkpt lat="43.50676" lon="1.49386">
        <ele>290.8</ele>
        <time>2013-09-28T14:52:38.491Z</time>
      </trkpt>
      <trkpt lat="43.50669" lon="1.4939">
        <ele>301.4</ele>
        <time>2013-09-28T14:52:45.384Z</time>
      </trkpt>
      <trkpt lat="43.50668" lon="1.49392">
        <ele>301.1</ele>
        <time>2013-09-28T14:52:46.427Z</time>
      </trkpt>
      <trkpt lat="43.50662" lon="1.49395">
        <ele>302.7</ele>
        <time>2013-09-28T14:52:49.615Z</time>
      </trkpt>
      <trkpt lat="43.50658" lon="1.49395">
        <ele>300.5</ele>
        <time>2013-09-28T14:52:50.495Z</time>
      </trkpt>
      <trkpt lat="43.5065" lon="1.49394">
        <ele>304.5</ele>
        <time>2013-09-28T14:52:52.443Z</time>
      </trkpt>
      <trkpt lat="43.50647" lon="1.49394">
        <ele>305.7</ele>
        <time>2013-09-28T14:52:53.450Z</time>
      </trkpt>
      <trkpt lat="43.5064" lon="1.49393">
        <ele>306.8</ele>
        <time>2013-09-28T14:52:56.453Z</time>
      </trkpt>
      <trkpt lat="43.50637" lon="1.49392">
        <ele>303.4</ele>
        <time>2013-09-28T14:52:57.460Z</time>
      </trkpt>
      <trkpt lat="43.50629" lon="1.4939">
        <ele>309</ele>
        <time>2013-09-28T14:53:01.393Z</time>
      </trkpt>
      <trkpt lat="43.50627" lon="1.49391">
        <ele>309.7</ele>
        <time>2013-09-28T14:53:02.476Z</time>
      </trkpt>
      <trkpt lat="43.50619" lon="1.49393">
        <ele>310.1</ele>
        <time>2013-09-28T14:53:06.499Z</time>
      </trkpt>
      <trkpt lat="43.50618" lon="1.49394">
        <ele>311.6</ele>
        <time>2013-09-28T14:53:07.456Z</time>
      </trkpt>
      <trkpt lat="43.50612" lon="1.49398">
        <ele>305.6</ele>
        <time>2013-09-28T14:53:13.618Z</time>
      </trkpt>
      <trkpt lat="43.50606" lon="1.49396">
        <ele>307</ele>
        <time>2013-09-28T14:53:14.471Z</time>
      </trkpt>
      <trkpt lat="43.50599" lon="1.49393">
        <ele>304.1</ele>
        <time>2013-09-28T14:53:15.580Z</time>
      </trkpt>
      <trkpt lat="43.50594" lon="1.49391">
        <ele>304.7</ele>
        <time>2013-09-28T14:53:16.493Z</time>
      </trkpt>
      <trkpt lat="43.50589" lon="1.49389">
        <ele>304.8</ele>
        <time>2013-09-28T14:53:17.605Z</time>
      </trkpt>
      <trkpt lat="43.50585" lon="1.49388">
        <ele>304.8</ele>
        <time>2013-09-28T14:53:18.465Z</time>
      </trkpt>
      <trkpt lat="43.50576" lon="1.49389">
        <ele>300</ele>
        <time>2013-09-28T14:53:20.525Z</time>
      </trkpt>
      <trkpt lat="43.50573" lon="1.49389">
        <ele>297.9</ele>
        <time>2013-09-28T14:53:21.416Z</time>
      </trkpt>
      <trkpt lat="43.50567" lon="1.4939">
        <ele>295.9</ele>
        <time>2013-09-28T14:53:23.409Z</time>
      </trkpt>
      <trkpt lat="43.50563" lon="1.49391">
        <ele>295</ele>
        <time>2013-09-28T14:53:24.452Z</time>
      </trkpt>
      <trkpt lat="43.50556" lon="1.4939">
        <ele>293.4</ele>
        <time>2013-09-28T14:53:27.437Z</time>
      </trkpt>
      <trkpt lat="43.50554" lon="1.49389">
        <ele>292.6</ele>
        <time>2013-09-28T14:53:28.438Z</time>
      </trkpt>
      <trkpt lat="43.50547" lon="1.49386">
        <ele>290.5</ele>
        <time>2013-09-28T14:53:31.416Z</time>
      </trkpt>
      <trkpt lat="43.50545" lon="1.49385">
        <ele>289.7</ele>
        <time>2013-09-28T14:53:32.425Z</time>
      </trkpt>
      <trkpt lat="43.50537" lon="1.49384">
        <ele>285.4</ele>
        <time>2013-09-28T14:53:36.425Z</time>
      </trkpt>
      <trkpt lat="43.50534" lon="1.49384">
        <ele>285.1</ele>
        <time>2013-09-28T14:53:37.448Z</time>
      </trkpt>
      <trkpt lat="43.50528" lon="1.49377">
        <ele>284.9</ele>
        <time>2013-09-28T14:53:45.294Z</time>
      </trkpt>
      <trkpt lat="43.50527" lon="1.49376">
        <ele>284.9</ele>
        <time>2013-09-28T14:53:45.579Z</time>
      </trkpt>
      <trkpt lat="43.50518" lon="1.49374">
        <ele>283.5</ele>
        <time>2013-09-28T14:53:50.357Z</time>
      </trkpt>
      <trkpt lat="43.50516" lon="1.49374">
        <ele>282.7</ele>
        <time>2013-09-28T14:53:50.818Z</time>
      </trkpt>
      <trkpt lat="43.50507" lon="1.49374">
        <ele>281.3</ele>
        <time>2013-09-28T14:53:54.602Z</time>
      </trkpt>
      <trkpt lat="43.50505" lon="1.49375">
        <ele>282.3</ele>
        <time>2013-09-28T14:53:55.407Z</time>
      </trkpt>
      <trkpt lat="43.50497" lon="1.4937">
        <ele>281.7</ele>
        <time>2013-09-28T14:53:59.660Z</time>
      </trkpt>
      <trkpt lat="43.50494" lon="1.49369">
        <ele>281.1</ele>
        <time>2013-09-28T14:54:00.448Z</time>
      </trkpt>
      <trkpt lat="43.50486" lon="1.49366">
        <ele>276.9</ele>
        <time>2013-09-28T14:54:04.724Z</time>
      </trkpt>
      <trkpt lat="43.50484" lon="1.49365">
        <ele>277.5</ele>
        <time>2013-09-28T14:54:05.446Z</time>
      </trkpt>
      <trkpt lat="43.50477" lon="1.49363">
        <ele>276.9</ele>
        <time>2013-09-28T14:54:08.476Z</time>
      </trkpt>
      <trkpt lat="43.50475" lon="1.49362">
        <ele>276.7</ele>
        <time>2013-09-28T14:54:09.519Z</time>
      </trkpt>
      <trkpt lat="43.50468" lon="1.49361">
        <ele>274.7</ele>
        <time>2013-09-28T14:54:12.477Z</time>
      </trkpt>
      <trkpt lat="43.50465" lon="1.49361">
        <ele>274.1</ele>
        <time>2013-09-28T14:54:13.477Z</time>
      </trkpt>
      <trkpt lat="43.50457" lon="1.4936">
        <ele>272.9</ele>
        <time>2013-09-28T14:54:17.470Z</time>
      </trkpt>
      <trkpt lat="43.50456" lon="1.49359">
        <ele>271.6</ele>
        <time>2013-09-28T14:54:18.525Z</time>
      </trkpt>
      <trkpt lat="43.50449" lon="1.49358">
        <ele>273.4</ele>
        <time>2013-09-28T14:54:20.491Z</time>
      </trkpt>
      <trkpt lat="43.50444" lon="1.49358">
        <ele>271.9</ele>
        <time>2013-09-28T14:54:21.440Z</time>
      </trkpt>
      <trkpt lat="43.50435" lon="1.49358">
        <ele>272.3</ele>
        <time>2013-09-28T14:54:25.437Z</time>
      </trkpt>
      <trkpt lat="43.50434" lon="1.49358">
        <ele>271.7</ele>
        <time>2013-09-28T14:54:26.463Z</time>
      </trkpt>
      <trkpt lat="43.50428" lon="1.49352">
        <ele>272</ele>
        <time>2013-09-28T14:54:32.532Z</time>
      </trkpt>
      <trkpt lat="43.50426" lon="1.49351">
        <ele>271.7</ele>
        <time>2013-09-28T14:54:33.485Z</time>
      </trkpt>
      <trkpt lat="43.50419" lon="1.49349">
        <ele>270.9</ele>
        <time>2013-09-28T14:54:37.422Z</time>
      </trkpt>
      <trkpt lat="43.50417" lon="1.49348">
        <ele>269.8</ele>
        <time>2013-09-28T14:54:38.627Z</time>
      </trkpt>
      <trkpt lat="43.50408" lon="1.49346">
        <ele>267.1</ele>
        <time>2013-09-28T14:54:41.421Z</time>
      </trkpt>
      <trkpt lat="43.50404" lon="1.49345">
        <ele>263.9</ele>
        <time>2013-09-28T14:54:42.440Z</time>
      </trkpt>
      <trkpt lat="43.50397" lon="1.49342">
        <ele>260.8</ele>
        <time>2013-09-28T14:54:44.851Z</time>
      </trkpt>
      <trkpt lat="43.50395" lon="1.49341">
        <ele>260.5</ele>
        <time>2013-09-28T14:54:45.615Z</time>
      </trkpt>
      <trkpt lat="43.50387" lon="1.49337">
        <ele>260.3</ele>
        <time>2013-09-28T14:54:48.459Z</time>
      </trkpt>
      <trkpt lat="43.50385" lon="1.49336">
        <ele>259.9</ele>
        <time>2013-09-28T14:54:49.447Z</time>
      </trkpt>
      <trkpt lat="43.50379" lon="1.49333">
        <ele>259.9</ele>
        <time>2013-09-28T14:54:52.470Z</time>
      </trkpt>
      <trkpt lat="43.50377" lon="1.49331">
        <ele>260.4</ele>
        <time>2013-09-28T14:54:53.450Z</time>
      </trkpt>
      <trkpt lat="43.5037" lon="1.49325">
        <ele>261.8</ele>
        <time>2013-09-28T14:54:57.489Z</time>
      </trkpt>
      <trkpt lat="43.50368" lon="1.49323">
        <ele>261.8</ele>
        <time>2013-09-28T14:54:58.450Z</time>
      </trkpt>
      <trkpt lat="43.50362" lon="1.49317">
        <ele>260.6</ele>
        <time>2013-09-28T14:55:02.455Z</time>
      </trkpt>
      <trkpt lat="43.5036" lon="1.49316">
        <ele>260.5</ele>
        <time>2013-09-28T14:55:03.410Z</time>
      </trkpt>
      <trkpt lat="43.50352" lon="1.4931">
        <ele>261</ele>
        <time>2013-09-28T14:55:09.706Z</time>
      </trkpt>
      <trkpt lat="43.50348" lon="1.49307">
        <ele>260.6</ele>
        <time>2013-09-28T14:55:10.460Z</time>
      </trkpt>
      <trkpt lat="43.50341" lon="1.49301">
        <ele>260.2</ele>
        <time>2013-09-28T14:55:14.772Z</time>
      </trkpt>
      <trkpt lat="43.50339" lon="1.493">
        <ele>259.7</ele>
        <time>2013-09-28T14:55:15.495Z</time>
      </trkpt>
      <trkpt lat="43.50334" lon="1.49295">
        <ele>260</ele>
        <time>2013-09-28T14:55:18.444Z</time>
      </trkpt>
      <trkpt lat="43.50332" lon="1.49292">
        <ele>259.7</ele>
        <time>2013-09-28T14:55:19.419Z</time>
      </trkpt>
      <trkpt lat="43.50327" lon="1.49286">
        <ele>260.3</ele>
        <time>2013-09-28T14:55:22.453Z</time>
      </trkpt>
      <trkpt lat="43.50325" lon="1.49284">
        <ele>260.2</ele>
        <time>2013-09-28T14:55:23.501Z</time>
      </trkpt>
      <trkpt lat="43.50318" lon="1.49278">
        <ele>259.1</ele>
        <time>2013-09-28T14:55:28.392Z</time>
      </trkpt>
      <trkpt lat="43.50316" lon="1.49277">
        <ele>259.7</ele>
        <time>2013-09-28T14:55:29.414Z</time>
      </trkpt>
      <trkpt lat="43.5031" lon="1.49272">
        <ele>257.7</ele>
        <time>2013-09-28T14:55:32.420Z</time>
      </trkpt>
      <trkpt lat="43.50307" lon="1.4927">
        <ele>256.4</ele>
        <time>2013-09-28T14:55:33.394Z</time>
      </trkpt>
      <trkpt lat="43.50299" lon="1.49266">
        <ele>257.1</ele>
        <time>2013-09-28T14:55:36.485Z</time>
      </trkpt>
      <trkpt lat="43.50297" lon="1.49265">
        <ele>256.9</ele>
        <time>2013-09-28T14:55:37.514Z</time>
      </trkpt>
      <trkpt lat="43.5029" lon="1.49263">
        <ele>256.9</ele>
        <time>2013-09-28T14:55:40.453Z</time>
      </trkpt>
      <trkpt lat="43.50288" lon="1.49262">
        <ele>258</ele>
        <time>2013-09-28T14:55:41.408Z</time>
      </trkpt>
      <trkpt lat="43.50281" lon="1.49259">
        <ele>260.8</ele>
        <time>2013-09-28T14:55:45.554Z</time>
      </trkpt>
      <trkpt lat="43.5028" lon="1.49258">
        <ele>261.4</ele>
        <time>2013-09-28T14:55:46.455Z</time>
      </trkpt>
      <trkpt lat="43.50272" lon="1.49252">
        <ele>263.2</ele>
        <time>2013-09-28T14:55:51.456Z</time>
      </trkpt>
      <trkpt lat="43.50271" lon="1.49252">
        <ele>264.1</ele>
        <time>2013-09-28T14:55:52.439Z</time>
      </trkpt>
      <trkpt lat="43.50264" lon="1.4925">
        <ele>265</ele>
        <time>2013-09-28T14:55:56.443Z</time>
      </trkpt>
      <trkpt lat="43.50261" lon="1.4925">
        <ele>263.9</ele>
        <time>2013-09-28T14:55:57.475Z</time>
      </trkpt>
      <trkpt lat="43.50253" lon="1.49248">
        <ele>266.5</ele>
        <time>2013-09-28T14:56:02.472Z</time>
      </trkpt>
      <trkpt lat="43.50251" lon="1.49247">
        <ele>267.8</ele>
        <time>2013-09-28T14:56:03.691Z</time>
      </trkpt>
      <trkpt lat="43.50243" lon="1.49245">
        <ele>266.1</ele>
        <time>2013-09-28T14:56:06.461Z</time>
      </trkpt>
      <trkpt lat="43.50241" lon="1.49244">
        <ele>267.2</ele>
        <time>2013-09-28T14:56:07.439Z</time>
      </trkpt>
      <trkpt lat="43.50232" lon="1.49243">
        <ele>267.6</ele>
        <time>2013-09-28T14:56:12.458Z</time>
      </trkpt>
      <trkpt lat="43.5023" lon="1.49242">
        <ele>267.7</ele>
        <time>2013-09-28T14:56:13.408Z</time>
      </trkpt>
      <trkpt lat="43.50222" lon="1.49238">
        <ele>268.3</ele>
        <time>2013-09-28T14:56:17.492Z</time>
      </trkpt>
      <trkpt lat="43.5022" lon="1.49238">
        <ele>268.4</ele>
        <time>2013-09-28T14:56:18.459Z</time>
      </trkpt>
      <trkpt lat="43.50212" lon="1.49237">
        <ele>271</ele>
        <time>2013-09-28T14:56:23.493Z</time>
      </trkpt>
      <trkpt lat="43.50211" lon="1.49237">
        <ele>272.3</ele>
        <time>2013-09-28T14:56:24.446Z</time>
      </trkpt>
      <trkpt lat="43.50203" lon="1.49238">
        <ele>274.7</ele>
        <time>2013-09-28T14:56:29.901Z</time>
      </trkpt>
      <trkpt lat="43.50201" lon="1.49239">
        <ele>275</ele>
        <time>2013-09-28T14:56:30.471Z</time>
      </trkpt>
      <trkpt lat="43.50194" lon="1.49244">
        <ele>274.8</ele>
        <time>2013-09-28T14:56:34.940Z</time>
      </trkpt>
      <trkpt lat="43.50192" lon="1.49246">
        <ele>275.7</ele>
        <time>2013-09-28T14:56:35.492Z</time>
      </trkpt>
      <trkpt lat="43.50184" lon="1.4925">
        <ele>276.3</ele>
        <time>2013-09-28T14:56:40.492Z</time>
      </trkpt>
      <trkpt lat="43.50183" lon="1.4925">
        <ele>276.6</ele>
        <time>2013-09-28T14:56:41.438Z</time>
      </trkpt>
      <trkpt lat="43.50178" lon="1.49256">
        <ele>280.2</ele>
        <time>2013-09-28T14:56:45.408Z</time>
      </trkpt>
      <trkpt lat="43.50176" lon="1.49259">
        <ele>279.4</ele>
        <time>2013-09-28T14:56:46.453Z</time>
      </trkpt>
      <trkpt lat="43.50169" lon="1.49262">
        <ele>278.9</ele>
        <time>2013-09-28T14:56:50.128Z</time>
      </trkpt>
      <trkpt lat="43.50167" lon="1.49263">
        <ele>278.3</ele>
        <time>2013-09-28T14:56:50.457Z</time>
      </trkpt>
      <trkpt lat="43.50161" lon="1.49271">
        <ele>281.6</ele>
        <time>2013-09-28T14:56:55.399Z</time>
      </trkpt>
      <trkpt lat="43.5016" lon="1.49273">
        <ele>281.3</ele>
        <time>2013-09-28T14:56:56.438Z</time>
      </trkpt>
      <trkpt lat="43.50152" lon="1.49278">
        <ele>281.7</ele>
        <time>2013-09-28T14:57:00.427Z</time>
      </trkpt>
      <trkpt lat="43.50151" lon="1.4928">
        <ele>281.6</ele>
        <time>2013-09-28T14:57:01.424Z</time>
      </trkpt>
      <trkpt lat="43.50145" lon="1.49288">
        <ele>281.2</ele>
        <time>2013-09-28T14:57:06.421Z</time>
      </trkpt>
      <trkpt lat="43.50143" lon="1.49289">
        <ele>281.2</ele>
        <time>2013-09-28T14:57:07.449Z</time>
      </trkpt>
      <trkpt lat="43.50138" lon="1.49297">
        <ele>280.9</ele>
        <time>2013-09-28T14:57:11.465Z</time>
      </trkpt>
      <trkpt lat="43.50136" lon="1.49299">
        <ele>281.2</ele>
        <time>2013-09-28T14:57:12.402Z</time>
      </trkpt>
      <trkpt lat="43.5013" lon="1.49305">
        <ele>282.8</ele>
        <time>2013-09-28T14:57:16.445Z</time>
      </trkpt>
      <trkpt lat="43.50128" lon="1.49307">
        <ele>282.9</ele>
        <time>2013-09-28T14:57:17.467Z</time>
      </trkpt>
      <trkpt lat="43.50123" lon="1.49315">
        <ele>283.5</ele>
        <time>2013-09-28T14:57:21.506Z</time>
      </trkpt>
      <trkpt lat="43.50122" lon="1.49318">
        <ele>283.6</ele>
        <time>2013-09-28T14:57:22.455Z</time>
      </trkpt>
      <trkpt lat="43.50116" lon="1.49325">
        <ele>283.8</ele>
        <time>2013-09-28T14:57:26.443Z</time>
      </trkpt>
      <trkpt lat="43.50115" lon="1.49327">
        <ele>285</ele>
        <time>2013-09-28T14:57:27.521Z</time>
      </trkpt>
      <trkpt lat="43.5011" lon="1.49333">
        <ele>284.1</ele>
        <time>2013-09-28T14:57:31.419Z</time>
      </trkpt>
      <trkpt lat="43.50108" lon="1.49335">
        <ele>282.8</ele>
        <time>2013-09-28T14:57:32.456Z</time>
      </trkpt>
      <trkpt lat="43.50102" lon="1.49341">
        <ele>283</ele>
        <time>2013-09-28T14:57:35.419Z</time>
      </trkpt>
      <trkpt lat="43.50101" lon="1.49344">
        <ele>283.3</ele>
        <time>2013-09-28T14:57:36.476Z</time>
      </trkpt>
      <trkpt lat="43.50096" lon="1.49352">
        <ele>284.9</ele>
        <time>2013-09-28T14:57:40.466Z</time>
      </trkpt>
      <trkpt lat="43.50094" lon="1.49353">
        <ele>285.7</ele>
        <time>2013-09-28T14:57:41.471Z</time>
      </trkpt>
      <trkpt lat="43.50089" lon="1.49362">
        <ele>287.8</ele>
        <time>2013-09-28T14:57:45.406Z</time>
      </trkpt>
      <trkpt lat="43.50089" lon="1.49365">
        <ele>288.5</ele>
        <time>2013-09-28T14:57:46.462Z</time>
      </trkpt>
      <trkpt lat="43.50082" lon="1.49372">
        <ele>291.6</ele>
        <time>2013-09-28T14:57:51.482Z</time>
      </trkpt>
      <trkpt lat="43.50081" lon="1.49373">
        <ele>293</ele>
        <time>2013-09-28T14:57:52.447Z</time>
      </trkpt>
      <trkpt lat="43.50075" lon="1.4938">
        <ele>294.6</ele>
        <time>2013-09-28T14:57:56.544Z</time>
      </trkpt>
      <trkpt lat="43.50074" lon="1.49383">
        <ele>294.3</ele>
        <time>2013-09-28T14:57:57.463Z</time>
      </trkpt>
      <trkpt lat="43.5007" lon="1.49391">
        <ele>296.2</ele>
        <time>2013-09-28T14:58:02.412Z</time>
      </trkpt>
      <trkpt lat="43.50069" lon="1.49393">
        <ele>297.5</ele>
        <time>2013-09-28T14:58:03.416Z</time>
      </trkpt>
      <trkpt lat="43.50064" lon="1.494">
        <ele>298.1</ele>
        <time>2013-09-28T14:58:07.405Z</time>
      </trkpt>
      <trkpt lat="43.50062" lon="1.49402">
        <ele>297.7</ele>
        <time>2013-09-28T14:58:08.431Z</time>
      </trkpt>
      <trkpt lat="43.50055" lon="1.49408">
        <ele>300.5</ele>
        <time>2013-09-28T14:58:14.789Z</time>
      </trkpt>
      <trkpt lat="43.50054" lon="1.4941">
        <ele>299.3</ele>
        <time>2013-09-28T14:58:15.390Z</time>
      </trkpt>
      <trkpt lat="43.50047" lon="1.49415">
        <ele>302.3</ele>
        <time>2013-09-28T14:58:22.442Z</time>
      </trkpt>
      <trkpt lat="43.50045" lon="1.49415">
        <ele>302.2</ele>
        <time>2013-09-28T14:58:23.427Z</time>
      </trkpt>
      <trkpt lat="43.50039" lon="1.49423">
        <ele>299.8</ele>
        <time>2013-09-28T14:58:30.366Z</time>
      </trkpt>
      <trkpt lat="43.50039" lon="1.49424">
        <ele>299.7</ele>
        <time>2013-09-28T14:58:31.419Z</time>
      </trkpt>
      <trkpt lat="43.50032" lon="1.49432">
        <ele>303.9</ele>
        <time>2013-09-28T14:58:41.408Z</time>
      </trkpt>
      <trkpt lat="43.50032" lon="1.49431">
        <ele>305</ele>
        <time>2013-09-28T14:58:42.465Z</time>
      </trkpt>
      <trkpt lat="43.50031" lon="1.49433">
        <ele>304.4</ele>
        <time>2013-09-28T14:58:43.481Z</time>
      </trkpt>
      <trkpt lat="43.50025" lon="1.49439">
        <ele>303.9</ele>
        <time>2013-09-28T14:58:48.436Z</time>
      </trkpt>
      <trkpt lat="43.50023" lon="1.49443">
        <ele>304.7</ele>
        <time>2013-09-28T14:58:49.433Z</time>
      </trkpt>
      <trkpt lat="43.50016" lon="1.4945">
        <ele>302.5</ele>
        <time>2013-09-28T14:58:55.495Z</time>
      </trkpt>
      <trkpt lat="43.50015" lon="1.4945">
        <ele>302.2</ele>
        <time>2013-09-28T14:58:56.495Z</time>
      </trkpt>
      <trkpt lat="43.50007" lon="1.49456">
        <ele>302.5</ele>
        <time>2013-09-28T14:59:03.520Z</time>
      </trkpt>
      <trkpt lat="43.50005" lon="1.49457">
        <ele>302.3</ele>
        <time>2013-09-28T14:59:04.438Z</time>
      </trkpt>
      <trkpt lat="43.5" lon="1.49466">
        <ele>303.2</ele>
        <time>2013-09-28T14:59:10.564Z</time>
      </trkpt>
      <trkpt lat="43.49999" lon="1.49468">
        <ele>303.5</ele>
        <time>2013-09-28T14:59:11.585Z</time>
      </trkpt>
      <trkpt lat="43.49993" lon="1.49472">
        <ele>303.6</ele>
        <time>2013-09-28T14:59:18.438Z</time>
      </trkpt>
      <trkpt lat="43.4999" lon="1.49474">
        <ele>304</ele>
        <time>2013-09-28T14:59:19.422Z</time>
      </trkpt>
      <trkpt lat="43.49986" lon="1.49481">
        <ele>302.8</ele>
        <time>2013-09-28T14:59:22.438Z</time>
      </trkpt>
      <trkpt lat="43.49984" lon="1.49485">
        <ele>303.7</ele>
        <time>2013-09-28T14:59:23.438Z</time>
      </trkpt>
      <trkpt lat="43.49979" lon="1.49493">
        <ele>303.9</ele>
        <time>2013-09-28T14:59:26.717Z</time>
      </trkpt>
      <trkpt lat="43.49978" lon="1.49496">
        <ele>302.7</ele>
        <time>2013-09-28T14:59:27.557Z</time>
      </trkpt>
      <trkpt lat="43.49973" lon="1.49506">
        <ele>302.1</ele>
        <time>2013-09-28T14:59:31.410Z</time>
      </trkpt>
      <trkpt lat="43.49972" lon="1.49508">
        <ele>303.3</ele>
        <time>2013-09-28T14:59:32.411Z</time>
      </trkpt>
      <trkpt lat="43.49969" lon="1.49516">
        <ele>302.3</ele>
        <time>2013-09-28T14:59:35.500Z</time>
      </trkpt>
      <trkpt lat="43.49967" lon="1.49518">
        <ele>301.9</ele>
        <time>2013-09-28T14:59:36.485Z</time>
      </trkpt>
      <trkpt lat="43.49962" lon="1.49525">
        <ele>300.9</ele>
        <time>2013-09-28T14:59:39.829Z</time>
      </trkpt>
      <trkpt lat="43.4996" lon="1.49527">
        <ele>300.9</ele>
        <time>2013-09-28T14:59:40.440Z</time>
      </trkpt>
      <trkpt lat="43.49954" lon="1.49534">
        <ele>301.5</ele>
        <time>2013-09-28T14:59:43.443Z</time>
      </trkpt>
      <trkpt lat="43.49952" lon="1.49536">
        <ele>301.4</ele>
        <time>2013-09-28T14:59:44.431Z</time>
      </trkpt>
      <trkpt lat="43.49947" lon="1.49543">
        <ele>303</ele>
        <time>2013-09-28T14:59:47.511Z</time>
      </trkpt>
      <trkpt lat="43.49946" lon="1.49546">
        <ele>303.9</ele>
        <time>2013-09-28T14:59:48.433Z</time>
      </trkpt>
      <trkpt lat="43.49941" lon="1.49554">
        <ele>305.5</ele>
        <time>2013-09-28T14:59:51.510Z</time>
      </trkpt>
      <trkpt lat="43.49939" lon="1.49556">
        <ele>306</ele>
        <time>2013-09-28T14:59:52.433Z</time>
      </trkpt>
      <trkpt lat="43.49934" lon="1.49563">
        <ele>305</ele>
        <time>2013-09-28T14:59:55.445Z</time>
      </trkpt>
      <trkpt lat="43.49933" lon="1.49566">
        <ele>305.4</ele>
        <time>2013-09-28T14:59:56.427Z</time>
      </trkpt>
      <trkpt lat="43.49927" lon="1.49575">
        <ele>305.9</ele>
        <time>2013-09-28T15:00:00.498Z</time>
      </trkpt>
      <trkpt lat="43.49925" lon="1.49578">
        <ele>306</ele>
        <time>2013-09-28T15:00:01.427Z</time>
      </trkpt>
      <trkpt lat="43.4992" lon="1.49586">
        <ele>305.5</ele>
        <time>2013-09-28T15:00:04.696Z</time>
      </trkpt>
      <trkpt lat="43.49919" lon="1.49589">
        <ele>305.6</ele>
        <time>2013-09-28T15:00:05.401Z</time>
      </trkpt>
      <trkpt lat="43.49912" lon="1.49596">
        <ele>305</ele>
        <time>2013-09-28T15:00:08.427Z</time>
      </trkpt>
      <trkpt lat="43.49911" lon="1.49598">
        <ele>306.1</ele>
        <time>2013-09-28T15:00:09.468Z</time>
      </trkpt>
      <trkpt lat="43.49906" lon="1.49607">
        <ele>306.5</ele>
        <time>2013-09-28T15:00:13.454Z</time>
      </trkpt>
      <trkpt lat="43.49905" lon="1.4961">
        <ele>306.4</ele>
        <time>2013-09-28T15:00:14.498Z</time>
      </trkpt>
      <trkpt lat="43.499" lon="1.49617">
        <ele>308.5</ele>
        <time>2013-09-28T15:00:20.129Z</time>
      </trkpt>
      <trkpt lat="43.49899" lon="1.49619">
        <ele>307.7</ele>
        <time>2013-09-28T15:00:20.414Z</time>
      </trkpt>
      <trkpt lat="43.49893" lon="1.49625">
        <ele>308.5</ele>
        <time>2013-09-28T15:00:23.416Z</time>
      </trkpt>
      <trkpt lat="43.49891" lon="1.49626">
        <ele>308.3</ele>
        <time>2013-09-28T15:00:24.406Z</time>
      </trkpt>
      <trkpt lat="43.49885" lon="1.49633">
        <ele>307.2</ele>
        <time>2013-09-28T15:00:27.551Z</time>
      </trkpt>
      <trkpt lat="43.49884" lon="1.49636">
        <ele>307.9</ele>
        <time>2013-09-28T15:00:28.434Z</time>
      </trkpt>
      <trkpt lat="43.4988" lon="1.49644">
        <ele>308</ele>
        <time>2013-09-28T15:00:31.438Z</time>
      </trkpt>
      <trkpt lat="43.49877" lon="1.49647">
        <ele>307.9</ele>
        <time>2013-09-28T15:00:32.445Z</time>
      </trkpt>
      <trkpt lat="43.49871" lon="1.49654">
        <ele>306.8</ele>
        <time>2013-09-28T15:00:35.451Z</time>
      </trkpt>
      <trkpt lat="43.4987" lon="1.49656">
        <ele>306.8</ele>
        <time>2013-09-28T15:00:36.449Z</time>
      </trkpt>
      <trkpt lat="43.49863" lon="1.49663">
        <ele>305.7</ele>
        <time>2013-09-28T15:00:40.427Z</time>
      </trkpt>
      <trkpt lat="43.49861" lon="1.49664">
        <ele>305</ele>
        <time>2013-09-28T15:00:41.435Z</time>
      </trkpt>
      <trkpt lat="43.49857" lon="1.49671">
        <ele>302.5</ele>
        <time>2013-09-28T15:00:44.912Z</time>
      </trkpt>
      <trkpt lat="43.49855" lon="1.49674">
        <ele>302.9</ele>
        <time>2013-09-28T15:00:45.523Z</time>
      </trkpt>
      <trkpt lat="43.49851" lon="1.49683">
        <ele>302.8</ele>
        <time>2013-09-28T15:00:48.575Z</time>
      </trkpt>
      <trkpt lat="43.4985" lon="1.49686">
        <ele>303.3</ele>
        <time>2013-09-28T15:00:49.411Z</time>
      </trkpt>
      <trkpt lat="43.49845" lon="1.49694">
        <ele>303.6</ele>
        <time>2013-09-28T15:00:52.452Z</time>
      </trkpt>
      <trkpt lat="43.49843" lon="1.49696">
        <ele>302.3</ele>
        <time>2013-09-28T15:00:53.562Z</time>
      </trkpt>
      <trkpt lat="43.49837" lon="1.49703">
        <ele>301.6</ele>
        <time>2013-09-28T15:00:56.421Z</time>
      </trkpt>
      <trkpt lat="43.49834" lon="1.49705">
        <ele>301</ele>
        <time>2013-09-28T15:00:57.460Z</time>
      </trkpt>
      <trkpt lat="43.49828" lon="1.49712">
        <ele>300.9</ele>
        <time>2013-09-28T15:01:00.427Z</time>
      </trkpt>
      <trkpt lat="43.49825" lon="1.49714">
        <ele>300.6</ele>
        <time>2013-09-28T15:01:01.438Z</time>
      </trkpt>
      <trkpt lat="43.49819" lon="1.49723">
        <ele>305.7</ele>
        <time>2013-09-28T15:01:06.439Z</time>
      </trkpt>
      <trkpt lat="43.49819" lon="1.49725">
        <ele>306.5</ele>
        <time>2013-09-28T15:01:07.443Z</time>
      </trkpt>
      <trkpt lat="43.49813" lon="1.49731">
        <ele>308.4</ele>
        <time>2013-09-28T15:01:10.503Z</time>
      </trkpt>
      <trkpt lat="43.4981" lon="1.49733">
        <ele>308.6</ele>
        <time>2013-09-28T15:01:11.533Z</time>
      </trkpt>
      <trkpt lat="43.49803" lon="1.49739">
        <ele>309.3</ele>
        <time>2013-09-28T15:01:14.951Z</time>
      </trkpt>
      <trkpt lat="43.49802" lon="1.4974">
        <ele>309.9</ele>
        <time>2013-09-28T15:01:15.450Z</time>
      </trkpt>
      <trkpt lat="43.49799" lon="1.49748">
        <ele>307.9</ele>
        <time>2013-09-28T15:01:20.449Z</time>
      </trkpt>
      <trkpt lat="43.49796" lon="1.4975">
        <ele>306.3</ele>
        <time>2013-09-28T15:01:21.636Z</time>
      </trkpt>
      <trkpt lat="43.4979" lon="1.49756">
        <ele>308</ele>
        <time>2013-09-28T15:01:26.404Z</time>
      </trkpt>
      <trkpt lat="43.49789" lon="1.49761">
        <ele>307.6</ele>
        <time>2013-09-28T15:01:27.503Z</time>
      </trkpt>
      <trkpt lat="43.49784" lon="1.49769">
        <ele>309</ele>
        <time>2013-09-28T15:01:30.401Z</time>
      </trkpt>
      <trkpt lat="43.49784" lon="1.49773">
        <ele>309.9</ele>
        <time>2013-09-28T15:01:31.426Z</time>
      </trkpt>
      <trkpt lat="43.49777" lon="1.49781">
        <ele>312.9</ele>
        <time>2013-09-28T15:01:35.196Z</time>
      </trkpt>
      <trkpt lat="43.49773" lon="1.49786">
        <ele>313.7</ele>
        <time>2013-09-28T15:01:35.512Z</time>
      </trkpt>
      <trkpt lat="43.49767" lon="1.49794">
        <ele>310.9</ele>
        <time>2013-09-28T15:01:37.438Z</time>
      </trkpt>
      <trkpt lat="43.49766" lon="1.49797">
        <ele>309.2</ele>
        <time>2013-09-28T15:01:38.536Z</time>
      </trkpt>
      <trkpt lat="43.49763" lon="1.49801">
        <ele>309.7</ele>
        <time>2013-09-28T15:01:42.399Z</time>
      </trkpt>
      <trkpt lat="43.49761" lon="1.49807">
        <ele>309.8</ele>
        <time>2013-09-28T15:01:42.793Z</time>
      </trkpt>
      <trkpt lat="43.49757" lon="1.49818">
        <ele>308.5</ele>
        <time>2013-09-28T15:01:45.878Z</time>
      </trkpt>
      <trkpt lat="43.49756" lon="1.49821">
        <ele>308.4</ele>
        <time>2013-09-28T15:01:46.779Z</time>
      </trkpt>
      <trkpt lat="43.49749" lon="1.49826">
        <ele>307.4</ele>
        <time>2013-09-28T15:01:49.788Z</time>
      </trkpt>
      <trkpt lat="43.49747" lon="1.49827">
        <ele>304.5</ele>
        <time>2013-09-28T15:01:50.811Z</time>
      </trkpt>
      <trkpt lat="43.49742" lon="1.49836">
        <ele>305.3</ele>
        <time>2013-09-28T15:01:55.792Z</time>
      </trkpt>
      <trkpt lat="43.4974" lon="1.49839">
        <ele>305.8</ele>
        <time>2013-09-28T15:01:56.811Z</time>
      </trkpt>
      <trkpt lat="43.49735" lon="1.49849">
        <ele>303.7</ele>
        <time>2013-09-28T15:01:59.830Z</time>
      </trkpt>
      <trkpt lat="43.49733" lon="1.49851">
        <ele>303.3</ele>
        <time>2013-09-28T15:02:00.781Z</time>
      </trkpt>
      <trkpt lat="43.49727" lon="1.49857">
        <ele>302.3</ele>
        <time>2013-09-28T15:02:03.786Z</time>
      </trkpt>
      <trkpt lat="43.49726" lon="1.49859">
        <ele>305.4</ele>
        <time>2013-09-28T15:02:04.791Z</time>
      </trkpt>
      <trkpt lat="43.49723" lon="1.4987">
        <ele>306.4</ele>
        <time>2013-09-28T15:02:08.798Z</time>
      </trkpt>
      <trkpt lat="43.49723" lon="1.49874">
        <ele>306.4</ele>
        <time>2013-09-28T15:02:09.799Z</time>
      </trkpt>
      <trkpt lat="43.49721" lon="1.49886">
        <ele>307.9</ele>
        <time>2013-09-28T15:02:12.799Z</time>
      </trkpt>
      <trkpt lat="43.4972" lon="1.49888">
        <ele>309.1</ele>
        <time>2013-09-28T15:02:13.802Z</time>
      </trkpt>
      <trkpt lat="43.49712" lon="1.4989">
        <ele>303.9</ele>
        <time>2013-09-28T15:02:15.866Z</time>
      </trkpt>
      <trkpt lat="43.4971" lon="1.49893">
        <ele>305.1</ele>
        <time>2013-09-28T15:02:16.791Z</time>
      </trkpt>
      <trkpt lat="43.49707" lon="1.49904">
        <ele>309.9</ele>
        <time>2013-09-28T15:02:21.907Z</time>
      </trkpt>
      <trkpt lat="43.49705" lon="1.49905">
        <ele>310.5</ele>
        <time>2013-09-28T15:02:22.918Z</time>
      </trkpt>
      <trkpt lat="43.49698" lon="1.49909">
        <ele>310.2</ele>
        <time>2013-09-28T15:02:27.640Z</time>
      </trkpt>
      <trkpt lat="43.49696" lon="1.4991">
        <ele>309.1</ele>
        <time>2013-09-28T15:02:28.626Z</time>
      </trkpt>
      <trkpt lat="43.49691" lon="1.49919">
        <ele>306.9</ele>
        <time>2013-09-28T15:02:35.684Z</time>
      </trkpt>
      <trkpt lat="43.4969" lon="1.49919">
        <ele>307.2</ele>
        <time>2013-09-28T15:02:36.677Z</time>
      </trkpt>
      <trkpt lat="43.4969" lon="1.4993">
        <ele>307.8</ele>
        <time>2013-09-28T15:02:41.743Z</time>
      </trkpt>
      <trkpt lat="43.49691" lon="1.49932">
        <ele>308.7</ele>
        <time>2013-09-28T15:02:42.663Z</time>
      </trkpt>
      <trkpt lat="43.49693" lon="1.49943">
        <ele>307.8</ele>
        <time>2013-09-28T15:02:47.713Z</time>
      </trkpt>
      <trkpt lat="43.49695" lon="1.49945">
        <ele>308</ele>
        <time>2013-09-28T15:02:48.651Z</time>
      </trkpt>
      <trkpt lat="43.49701" lon="1.49951">
        <ele>307.4</ele>
        <time>2013-09-28T15:02:55.662Z</time>
      </trkpt>
      <trkpt lat="43.49704" lon="1.49954">
        <ele>307.7</ele>
        <time>2013-09-28T15:02:56.670Z</time>
      </trkpt>
      <trkpt lat="43.49709" lon="1.49961">
        <ele>309.5</ele>
        <time>2013-09-28T15:02:59.932Z</time>
      </trkpt>
      <trkpt lat="43.49712" lon="1.49964">
        <ele>309.9</ele>
        <time>2013-09-28T15:03:00.771Z</time>
      </trkpt>
      <trkpt lat="43.49718" lon="1.49972">
        <ele>309.9</ele>
        <time>2013-09-28T15:03:05.685Z</time>
      </trkpt>
      <trkpt lat="43.49723" lon="1.49976">
        <ele>310.8</ele>
        <time>2013-09-28T15:03:06.818Z</time>
      </trkpt>
      <trkpt lat="43.49721" lon="1.49986">
        <ele>314.4</ele>
        <time>2013-09-28T15:03:11.725Z</time>
      </trkpt>
      <trkpt lat="43.49723" lon="1.49989">
        <ele>310.9</ele>
        <time>2013-09-28T15:03:12.662Z</time>
      </trkpt>
      <trkpt lat="43.49722" lon="1.50001">
        <ele>313.8</ele>
        <time>2013-09-28T15:03:15.759Z</time>
      </trkpt>
      <trkpt lat="43.49722" lon="1.50005">
        <ele>315.3</ele>
        <time>2013-09-28T15:03:16.679Z</time>
      </trkpt>
      <trkpt lat="43.49724" lon="1.50016">
        <ele>312.3</ele>
        <time>2013-09-28T15:03:20.000Z</time>
      </trkpt>
      <trkpt lat="43.49725" lon="1.50019">
        <ele>313.1</ele>
        <time>2013-09-28T15:03:20.648Z</time>
      </trkpt>
      <trkpt lat="43.49724" lon="1.50029">
        <ele>313.4</ele>
        <time>2013-09-28T15:03:23.663Z</time>
      </trkpt>
      <trkpt lat="43.49724" lon="1.50032">
        <ele>312.7</ele>
        <time>2013-09-28T15:03:24.721Z</time>
      </trkpt>
      <trkpt lat="43.49727" lon="1.50038">
        <ele>311.4</ele>
        <time>2013-09-28T15:03:26.677Z</time>
      </trkpt>
      <trkpt lat="43.49729" lon="1.50044">
        <ele>309.8</ele>
        <time>2013-09-28T15:03:27.698Z</time>
      </trkpt>
      <trkpt lat="43.49732" lon="1.50048">
        <ele>310.3</ele>
        <time>2013-09-28T15:03:28.688Z</time>
      </trkpt>
      <trkpt lat="43.49736" lon="1.50053">
        <ele>305.5</ele>
        <time>2013-09-28T15:03:29.637Z</time>
      </trkpt>
      <trkpt lat="43.49739" lon="1.50064">
        <ele>312.2</ele>
        <time>2013-09-28T15:03:35.763Z</time>
      </trkpt>
      <trkpt lat="43.49741" lon="1.50066">
        <ele>310.9</ele>
        <time>2013-09-28T15:03:36.789Z</time>
      </trkpt>
      <trkpt lat="43.49746" lon="1.50074">
        <ele>311</ele>
        <time>2013-09-28T15:03:40.069Z</time>
      </trkpt>
      <trkpt lat="43.49747" lon="1.50077">
        <ele>311.2</ele>
        <time>2013-09-28T15:03:40.714Z</time>
      </trkpt>
      <trkpt lat="43.49747" lon="1.50087">
        <ele>310.2</ele>
        <time>2013-09-28T15:03:42.696Z</time>
      </trkpt>
      <trkpt lat="43.49747" lon="1.50093">
        <ele>310.3</ele>
        <time>2013-09-28T15:03:43.703Z</time>
      </trkpt>
      <trkpt lat="43.49748" lon="1.50101">
        <ele>308.5</ele>
        <time>2013-09-28T15:03:45.639Z</time>
      </trkpt>
      <trkpt lat="43.49751" lon="1.50105">
        <ele>304.5</ele>
        <time>2013-09-28T15:03:46.685Z</time>
      </trkpt>
      <trkpt lat="43.49755" lon="1.50114">
        <ele>305.8</ele>
        <time>2013-09-28T15:03:48.644Z</time>
      </trkpt>
      <trkpt lat="43.49755" lon="1.50116">
        <ele>303.7</ele>
        <time>2013-09-28T15:03:49.637Z</time>
      </trkpt>
      <trkpt lat="43.49755" lon="1.50127">
        <ele>301.6</ele>
        <time>2013-09-28T15:03:53.693Z</time>
      </trkpt>
      <trkpt lat="43.49756" lon="1.5013">
        <ele>301.3</ele>
        <time>2013-09-28T15:03:54.670Z</time>
      </trkpt>
      <trkpt lat="43.49758" lon="1.50141">
        <ele>300.9</ele>
        <time>2013-09-28T15:03:56.671Z</time>
      </trkpt>
      <trkpt lat="43.49759" lon="1.50146">
        <ele>301</ele>
        <time>2013-09-28T15:03:57.655Z</time>
      </trkpt>
      <trkpt lat="43.4976" lon="1.50152">
        <ele>300.3</ele>
        <time>2013-09-28T15:03:58.690Z</time>
      </trkpt>
      <trkpt lat="43.49762" lon="1.50159">
        <ele>296.7</ele>
        <time>2013-09-28T15:03:59.667Z</time>
      </trkpt>
      <trkpt lat="43.49764" lon="1.50167">
        <ele>294.5</ele>
        <time>2013-09-28T15:04:00.866Z</time>
      </trkpt>
      <trkpt lat="43.49766" lon="1.50171">
        <ele>292.6</ele>
        <time>2013-09-28T15:04:01.666Z</time>
      </trkpt>
      <trkpt lat="43.4977" lon="1.5018">
        <ele>290.7</ele>
        <time>2013-09-28T15:04:05.208Z</time>
      </trkpt>
      <trkpt lat="43.49772" lon="1.50184">
        <ele>290.5</ele>
        <time>2013-09-28T15:04:06.003Z</time>
      </trkpt>
      <trkpt lat="43.49777" lon="1.50193">
        <ele>289.1</ele>
        <time>2013-09-28T15:04:09.951Z</time>
      </trkpt>
      <trkpt lat="43.49778" lon="1.50195">
        <ele>287.7</ele>
        <time>2013-09-28T15:04:10.684Z</time>
      </trkpt>
      <trkpt lat="43.49783" lon="1.50203">
        <ele>284.3</ele>
        <time>2013-09-28T15:04:14.985Z</time>
      </trkpt>
      <trkpt lat="43.49786" lon="1.50206">
        <ele>284</ele>
        <time>2013-09-28T15:04:15.802Z</time>
      </trkpt>
      <trkpt lat="43.49792" lon="1.50213">
        <ele>284.9</ele>
        <time>2013-09-28T15:04:18.651Z</time>
      </trkpt>
      <trkpt lat="43.49794" lon="1.50216">
        <ele>285</ele>
        <time>2013-09-28T15:04:19.660Z</time>
      </trkpt>
      <trkpt lat="43.49798" lon="1.50226">
        <ele>284.4</ele>
        <time>2013-09-28T15:04:23.719Z</time>
      </trkpt>
      <trkpt lat="43.49798" lon="1.50227">
        <ele>286.1</ele>
        <time>2013-09-28T15:04:24.666Z</time>
      </trkpt>
      <trkpt lat="43.49804" lon="1.50236">
        <ele>287.4</ele>
        <time>2013-09-28T15:04:28.684Z</time>
      </trkpt>
      <trkpt lat="43.49806" lon="1.50239">
        <ele>287.7</ele>
        <time>2013-09-28T15:04:29.685Z</time>
      </trkpt>
      <trkpt lat="43.49812" lon="1.50247">
        <ele>287.7</ele>
        <time>2013-09-28T15:04:32.671Z</time>
      </trkpt>
      <trkpt lat="43.49814" lon="1.5025">
        <ele>287.6</ele>
        <time>2013-09-28T15:04:33.654Z</time>
      </trkpt>
      <trkpt lat="43.49817" lon="1.50259">
        <ele>286.3</ele>
        <time>2013-09-28T15:04:37.862Z</time>
      </trkpt>
      <trkpt lat="43.49819" lon="1.50261">
        <ele>285.9</ele>
        <time>2013-09-28T15:04:37.984Z</time>
      </trkpt>
      <trkpt lat="43.49823" lon="1.50269">
        <ele>286.3</ele>
        <time>2013-09-28T15:04:41.758Z</time>
      </trkpt>
      <trkpt lat="43.49825" lon="1.50273">
        <ele>284.2</ele>
        <time>2013-09-28T15:04:42.898Z</time>
      </trkpt>
      <trkpt lat="43.49833" lon="1.50278">
        <ele>285</ele>
        <time>2013-09-28T15:04:46.887Z</time>
      </trkpt>
      <trkpt lat="43.49835" lon="1.5028">
        <ele>285.4</ele>
        <time>2013-09-28T15:04:47.635Z</time>
      </trkpt>
      <trkpt lat="43.4984" lon="1.50288">
        <ele>287.9</ele>
        <time>2013-09-28T15:04:50.654Z</time>
      </trkpt>
      <trkpt lat="43.49842" lon="1.5029">
        <ele>288.3</ele>
        <time>2013-09-28T15:04:51.716Z</time>
      </trkpt>
      <trkpt lat="43.49846" lon="1.50297">
        <ele>289</ele>
        <time>2013-09-28T15:04:53.734Z</time>
      </trkpt>
      <trkpt lat="43.49847" lon="1.50301">
        <ele>289</ele>
        <time>2013-09-28T15:04:54.740Z</time>
      </trkpt>
      <trkpt lat="43.49853" lon="1.50308">
        <ele>289.8</ele>
        <time>2013-09-28T15:04:57.702Z</time>
      </trkpt>
      <trkpt lat="43.49856" lon="1.5031">
        <ele>290.2</ele>
        <time>2013-09-28T15:04:58.641Z</time>
      </trkpt>
      <trkpt lat="43.49863" lon="1.50317">
        <ele>294.1</ele>
        <time>2013-09-28T15:05:02.633Z</time>
      </trkpt>
      <trkpt lat="43.49864" lon="1.50319">
        <ele>294.2</ele>
        <time>2013-09-28T15:05:03.645Z</time>
      </trkpt>
      <trkpt lat="43.49871" lon="1.50325">
        <ele>294.4</ele>
        <time>2013-09-28T15:05:06.638Z</time>
      </trkpt>
      <trkpt lat="43.49873" lon="1.50327">
        <ele>294.7</ele>
        <time>2013-09-28T15:05:07.653Z</time>
      </trkpt>
      <trkpt lat="43.49881" lon="1.50333">
        <ele>297.3</ele>
        <time>2013-09-28T15:05:11.727Z</time>
      </trkpt>
      <trkpt lat="43.49883" lon="1.50335">
        <ele>297.9</ele>
        <time>2013-09-28T15:05:12.721Z</time>
      </trkpt>
      <trkpt lat="43.49889" lon="1.50343">
        <ele>297.1</ele>
        <time>2013-09-28T15:05:16.755Z</time>
      </trkpt>
      <trkpt lat="43.49891" lon="1.50345">
        <ele>297.2</ele>
        <time>2013-09-28T15:05:17.706Z</time>
      </trkpt>
      <trkpt lat="43.49896" lon="1.50353">
        <ele>297.4</ele>
        <time>2013-09-28T15:05:20.647Z</time>
      </trkpt>
      <trkpt lat="43.49897" lon="1.50355">
        <ele>296.9</ele>
        <time>2013-09-28T15:05:21.706Z</time>
      </trkpt>
      <trkpt lat="43.49905" lon="1.50362">
        <ele>297.5</ele>
        <time>2013-09-28T15:05:25.718Z</time>
      </trkpt>
      <trkpt lat="43.49907" lon="1.50364">
        <ele>297.8</ele>
        <time>2013-09-28T15:05:26.734Z</time>
      </trkpt>
      <trkpt lat="43.49913" lon="1.5037">
        <ele>297.7</ele>
        <time>2013-09-28T15:05:30.963Z</time>
      </trkpt>
      <trkpt lat="43.49914" lon="1.50371">
        <ele>298.5</ele>
        <time>2013-09-28T15:05:31.850Z</time>
      </trkpt>
      <trkpt lat="43.4992" lon="1.50379">
        <ele>297.9</ele>
        <time>2013-09-28T15:05:37.646Z</time>
      </trkpt>
      <trkpt lat="43.49921" lon="1.50381">
        <ele>296.8</ele>
        <time>2013-09-28T15:05:38.651Z</time>
      </trkpt>
      <trkpt lat="43.49923" lon="1.50391">
        <ele>291.4</ele>
        <time>2013-09-28T15:05:42.665Z</time>
      </trkpt>
      <trkpt lat="43.49923" lon="1.50393">
        <ele>290.5</ele>
        <time>2013-09-28T15:05:43.635Z</time>
      </trkpt>
      <trkpt lat="43.49915" lon="1.50399">
        <ele>290.4</ele>
        <time>2013-09-28T15:05:52.644Z</time>
      </trkpt>
      <trkpt lat="43.49915" lon="1.50402">
        <ele>291.3</ele>
        <time>2013-09-28T15:05:53.708Z</time>
      </trkpt>
      <trkpt lat="43.49912" lon="1.50412">
        <ele>293.4</ele>
        <time>2013-09-28T15:05:57.741Z</time>
      </trkpt>
      <trkpt lat="43.4991" lon="1.50416">
        <ele>294.3</ele>
        <time>2013-09-28T15:05:58.790Z</time>
      </trkpt>
      <trkpt lat="43.49903" lon="1.50424">
        <ele>296.1</ele>
        <time>2013-09-28T15:06:02.711Z</time>
      </trkpt>
      <trkpt lat="43.49902" lon="1.50425">
        <ele>296.8</ele>
        <time>2013-09-28T15:06:03.682Z</time>
      </trkpt>
      <trkpt lat="43.49895" lon="1.50433">
        <ele>297.3</ele>
        <time>2013-09-28T15:06:08.629Z</time>
      </trkpt>
      <trkpt lat="43.49893" lon="1.50435">
        <ele>298.4</ele>
        <time>2013-09-28T15:06:09.736Z</time>
      </trkpt>
      <trkpt lat="43.49887" lon="1.50444">
        <ele>298.5</ele>
        <time>2013-09-28T15:06:12.722Z</time>
      </trkpt>
      <trkpt lat="43.49886" lon="1.50446">
        <ele>298.1</ele>
        <time>2013-09-28T15:06:13.696Z</time>
      </trkpt>
      <trkpt lat="43.49879" lon="1.50454">
        <ele>301.1</ele>
        <time>2013-09-28T15:06:17.702Z</time>
      </trkpt>
      <trkpt lat="43.49877" lon="1.50454">
        <ele>301.5</ele>
        <time>2013-09-28T15:06:18.737Z</time>
      </trkpt>
      <trkpt lat="43.49871" lon="1.50458">
        <ele>301</ele>
        <time>2013-09-28T15:06:21.710Z</time>
      </trkpt>
      <trkpt lat="43.49868" lon="1.50458">
        <ele>302.1</ele>
        <time>2013-09-28T15:06:22.918Z</time>
      </trkpt>
      <trkpt lat="43.4986" lon="1.50461">
        <ele>303.7</ele>
        <time>2013-09-28T15:06:26.636Z</time>
      </trkpt>
      <trkpt lat="43.49857" lon="1.50461">
        <ele>304.4</ele>
        <time>2013-09-28T15:06:27.739Z</time>
      </trkpt>
      <trkpt lat="43.49851" lon="1.50461">
        <ele>304.7</ele>
        <time>2013-09-28T15:06:30.384Z</time>
      </trkpt>
      <trkpt lat="43.49848" lon="1.5046">
        <ele>305.7</ele>
        <time>2013-09-28T15:06:30.695Z</time>
      </trkpt>
      <trkpt lat="43.49842" lon="1.50459">
        <ele>301.5</ele>
        <time>2013-09-28T15:06:32.637Z</time>
      </trkpt>
      <trkpt lat="43.49839" lon="1.50459">
        <ele>301</ele>
        <time>2013-09-28T15:06:33.729Z</time>
      </trkpt>
      <trkpt lat="43.49835" lon="1.50468">
        <ele>301.8</ele>
        <time>2013-09-28T15:06:36.670Z</time>
      </trkpt>
      <trkpt lat="43.49835" lon="1.50471">
        <ele>301.2</ele>
        <time>2013-09-28T15:06:37.679Z</time>
      </trkpt>
      <trkpt lat="43.49831" lon="1.5048">
        <ele>302.5</ele>
        <time>2013-09-28T15:06:40.657Z</time>
      </trkpt>
      <trkpt lat="43.4983" lon="1.50483">
        <ele>301.7</ele>
        <time>2013-09-28T15:06:41.612Z</time>
      </trkpt>
      <trkpt lat="43.49825" lon="1.50491">
        <ele>303.2</ele>
        <time>2013-09-28T15:06:45.712Z</time>
      </trkpt>
      <trkpt lat="43.49823" lon="1.50492">
        <ele>304.4</ele>
        <time>2013-09-28T15:06:46.713Z</time>
      </trkpt>
      <trkpt lat="43.49817" lon="1.505">
        <ele>303.2</ele>
        <time>2013-09-28T15:06:49.914Z</time>
      </trkpt>
      <trkpt lat="43.49816" lon="1.50503">
        <ele>302.7</ele>
        <time>2013-09-28T15:06:50.633Z</time>
      </trkpt>
      <trkpt lat="43.49813" lon="1.50512">
        <ele>302.9</ele>
        <time>2013-09-28T15:06:53.707Z</time>
      </trkpt>
      <trkpt lat="43.4981" lon="1.50515">
        <ele>302.6</ele>
        <time>2013-09-28T15:06:54.736Z</time>
      </trkpt>
      <trkpt lat="43.49802" lon="1.50518">
        <ele>304.3</ele>
        <time>2013-09-28T15:07:00.343Z</time>
      </trkpt>
      <trkpt lat="43.49801" lon="1.5052">
        <ele>304.9</ele>
        <time>2013-09-28T15:07:00.616Z</time>
      </trkpt>
      <trkpt lat="43.49796" lon="1.50526">
        <ele>305.8</ele>
        <time>2013-09-28T15:07:02.625Z</time>
      </trkpt>
      <trkpt lat="43.49794" lon="1.5053">
        <ele>306.2</ele>
        <time>2013-09-28T15:07:03.646Z</time>
      </trkpt>
      <trkpt lat="43.49791" lon="1.50541">
        <ele>306.3</ele>
        <time>2013-09-28T15:07:06.743Z</time>
      </trkpt>
      <trkpt lat="43.4979" lon="1.50544">
        <ele>305.8</ele>
        <time>2013-09-28T15:07:07.678Z</time>
      </trkpt>
      <trkpt lat="43.49788" lon="1.50555">
        <ele>305.9</ele>
        <time>2013-09-28T15:07:11.703Z</time>
      </trkpt>
      <trkpt lat="43.49788" lon="1.50558">
        <ele>306.6</ele>
        <time>2013-09-28T15:07:12.706Z</time>
      </trkpt>
      <trkpt lat="43.49784" lon="1.50568">
        <ele>306.8</ele>
        <time>2013-09-28T15:07:16.749Z</time>
      </trkpt>
      <trkpt lat="43.49783" lon="1.50573">
        <ele>306.4</ele>
        <time>2013-09-28T15:07:17.709Z</time>
      </trkpt>
      <trkpt lat="43.49778" lon="1.50583">
        <ele>306.6</ele>
        <time>2013-09-28T15:07:20.639Z</time>
      </trkpt>
      <trkpt lat="43.49778" lon="1.50586">
        <ele>309.1</ele>
        <time>2013-09-28T15:07:21.628Z</time>
      </trkpt>
      <trkpt lat="43.49776" lon="1.50596">
        <ele>309.2</ele>
        <time>2013-09-28T15:07:24.754Z</time>
      </trkpt>
      <trkpt lat="43.49775" lon="1.50599">
        <ele>309.3</ele>
        <time>2013-09-28T15:07:25.830Z</time>
      </trkpt>
      <trkpt lat="43.49771" lon="1.50609">
        <ele>309.3</ele>
        <time>2013-09-28T15:07:28.645Z</time>
      </trkpt>
      <trkpt lat="43.4977" lon="1.50612">
        <ele>309.2</ele>
        <time>2013-09-28T15:07:29.648Z</time>
      </trkpt>
      <trkpt lat="43.49765" lon="1.50622">
        <ele>305.1</ele>
        <time>2013-09-28T15:07:32.724Z</time>
      </trkpt>
      <trkpt lat="43.49764" lon="1.50625">
        <ele>305.1</ele>
        <time>2013-09-28T15:07:33.711Z</time>
      </trkpt>
      <trkpt lat="43.49761" lon="1.50635">
        <ele>303.9</ele>
        <time>2013-09-28T15:07:36.646Z</time>
      </trkpt>
      <trkpt lat="43.4976" lon="1.50637">
        <ele>303.7</ele>
        <time>2013-09-28T15:07:37.675Z</time>
      </trkpt>
      <trkpt lat="43.49758" lon="1.50647">
        <ele>301.1</ele>
        <time>2013-09-28T15:07:41.938Z</time>
      </trkpt>
      <trkpt lat="43.49757" lon="1.5065">
        <ele>300.4</ele>
        <time>2013-09-28T15:07:42.644Z</time>
      </trkpt>
      <trkpt lat="43.49753" lon="1.50661">
        <ele>303</ele>
        <time>2013-09-28T15:07:46.767Z</time>
      </trkpt>
      <trkpt lat="43.49752" lon="1.50663">
        <ele>302.7</ele>
        <time>2013-09-28T15:07:47.720Z</time>
      </trkpt>
      <trkpt lat="43.4975" lon="1.50675">
        <ele>304.3</ele>
        <time>2013-09-28T15:07:51.693Z</time>
      </trkpt>
      <trkpt lat="43.49749" lon="1.50679">
        <ele>303.7</ele>
        <time>2013-09-28T15:07:52.720Z</time>
      </trkpt>
      <trkpt lat="43.49745" lon="1.50688">
        <ele>302.4</ele>
        <time>2013-09-28T15:07:55.660Z</time>
      </trkpt>
      <trkpt lat="43.49745" lon="1.50693">
        <ele>301.8</ele>
        <time>2013-09-28T15:07:56.615Z</time>
      </trkpt>
      <trkpt lat="43.49745" lon="1.50703">
        <ele>301.3</ele>
        <time>2013-09-28T15:07:59.703Z</time>
      </trkpt>
      <trkpt lat="43.49744" lon="1.50707">
        <ele>300.2</ele>
        <time>2013-09-28T15:08:00.868Z</time>
      </trkpt>
      <trkpt lat="43.49744" lon="1.50715">
        <ele>299.7</ele>
        <time>2013-09-28T15:08:03.699Z</time>
      </trkpt>
      <trkpt lat="43.49744" lon="1.50719">
        <ele>300.5</ele>
        <time>2013-09-28T15:08:04.619Z</time>
      </trkpt>
      <trkpt lat="43.49741" lon="1.50728">
        <ele>300.3</ele>
        <time>2013-09-28T15:08:06.660Z</time>
      </trkpt>
      <trkpt lat="43.49741" lon="1.50734">
        <ele>300</ele>
        <time>2013-09-28T15:08:07.631Z</time>
      </trkpt>
      <trkpt lat="43.4974" lon="1.50744">
        <ele>305.1</ele>
        <time>2013-09-28T15:08:12.639Z</time>
      </trkpt>
      <trkpt lat="43.49741" lon="1.50746">
        <ele>303.2</ele>
        <time>2013-09-28T15:08:13.718Z</time>
      </trkpt>
      <trkpt lat="43.49747" lon="1.50754">
        <ele>307.6</ele>
        <time>2013-09-28T15:08:18.639Z</time>
      </trkpt>
      <trkpt lat="43.49749" lon="1.50757">
        <ele>305.8</ele>
        <time>2013-09-28T15:08:19.652Z</time>
      </trkpt>
      <trkpt lat="43.49753" lon="1.50766">
        <ele>303.3</ele>
        <time>2013-09-28T15:08:22.737Z</time>
      </trkpt>
      <trkpt lat="43.49754" lon="1.50769">
        <ele>302.7</ele>
        <time>2013-09-28T15:08:23.725Z</time>
      </trkpt>
      <trkpt lat="43.49756" lon="1.5078">
        <ele>299.8</ele>
        <time>2013-09-28T15:08:27.628Z</time>
      </trkpt>
      <trkpt lat="43.49756" lon="1.50783">
        <ele>298.7</ele>
        <time>2013-09-28T15:08:28.636Z</time>
      </trkpt>
      <trkpt lat="43.49753" lon="1.50795">
        <ele>294.5</ele>
        <time>2013-09-28T15:08:32.617Z</time>
      </trkpt>
      <trkpt lat="43.49752" lon="1.50795">
        <ele>294.4</ele>
        <time>2013-09-28T15:08:33.723Z</time>
      </trkpt>
      <trkpt lat="43.49746" lon="1.50803">
        <ele>291.2</ele>
        <time>2013-09-28T15:08:41.721Z</time>
      </trkpt>
      <trkpt lat="43.49745" lon="1.50805">
        <ele>289.6</ele>
        <time>2013-09-28T15:08:42.625Z</time>
      </trkpt>
      <trkpt lat="43.4974" lon="1.50814">
        <ele>288.2</ele>
        <time>2013-09-28T15:08:46.641Z</time>
      </trkpt>
      <trkpt lat="43.49739" lon="1.50816">
        <ele>287.9</ele>
        <time>2013-09-28T15:08:47.750Z</time>
      </trkpt>
      <trkpt lat="43.49733" lon="1.50823">
        <ele>285.1</ele>
        <time>2013-09-28T15:08:53.725Z</time>
      </trkpt>
      <trkpt lat="43.49732" lon="1.50824">
        <ele>284.9</ele>
        <time>2013-09-28T15:08:54.624Z</time>
      </trkpt>
      <trkpt lat="43.49728" lon="1.50835">
        <ele>283.6</ele>
        <time>2013-09-28T15:09:02.659Z</time>
      </trkpt>
      <trkpt lat="43.49728" lon="1.50837">
        <ele>283.2</ele>
        <time>2013-09-28T15:09:03.693Z</time>
      </trkpt>
      <trkpt lat="43.49723" lon="1.50845">
        <ele>280.7</ele>
        <time>2013-09-28T15:09:08.684Z</time>
      </trkpt>
      <trkpt lat="43.49722" lon="1.50846">
        <ele>280.4</ele>
        <time>2013-09-28T15:09:09.767Z</time>
      </trkpt>
      <trkpt lat="43.49716" lon="1.50856">
        <ele>280.1</ele>
        <time>2013-09-28T15:09:16.720Z</time>
      </trkpt>
      <trkpt lat="43.49715" lon="1.50856">
        <ele>280</ele>
        <time>2013-09-28T15:09:17.712Z</time>
      </trkpt>
      <trkpt lat="43.4971" lon="1.50866">
        <ele>277</ele>
        <time>2013-09-28T15:09:22.621Z</time>
      </trkpt>
      <trkpt lat="43.49709" lon="1.50868">
        <ele>276.8</ele>
        <time>2013-09-28T15:09:23.690Z</time>
      </trkpt>
      <trkpt lat="43.49705" lon="1.50878">
        <ele>273.6</ele>
        <time>2013-09-28T15:09:30.650Z</time>
      </trkpt>
      <trkpt lat="43.49704" lon="1.50881">
        <ele>273.8</ele>
        <time>2013-09-28T15:09:31.677Z</time>
      </trkpt>
      <trkpt lat="43.497" lon="1.50892">
        <ele>270.2</ele>
        <time>2013-09-28T15:09:36.624Z</time>
      </trkpt>
      <trkpt lat="43.497" lon="1.50895">
        <ele>268.8</ele>
        <time>2013-09-28T15:09:37.674Z</time>
      </trkpt>
      <trkpt lat="43.49698" lon="1.50906">
        <ele>267.7</ele>
        <time>2013-09-28T15:09:43.657Z</time>
      </trkpt>
      <trkpt lat="43.49697" lon="1.50908">
        <ele>266.6</ele>
        <time>2013-09-28T15:09:44.629Z</time>
      </trkpt>
      <trkpt lat="43.49696" lon="1.50918">
        <ele>264.7</ele>
        <time>2013-09-28T15:09:48.659Z</time>
      </trkpt>
      <trkpt lat="43.49695" lon="1.5092">
        <ele>264.3</ele>
        <time>2013-09-28T15:09:49.683Z</time>
      </trkpt>
      <trkpt lat="43.49693" lon="1.50931">
        <ele>261</ele>
        <time>2013-09-28T15:09:54.862Z</time>
      </trkpt>
      <trkpt lat="43.49692" lon="1.50933">
        <ele>261.2</ele>
        <time>2013-09-28T15:09:55.713Z</time>
      </trkpt>
      <trkpt lat="43.49691" lon="1.50945">
        <ele>261.2</ele>
        <time>2013-09-28T15:10:01.686Z</time>
      </trkpt>
      <trkpt lat="43.4969" lon="1.50947">
        <ele>261.1</ele>
        <time>2013-09-28T15:10:02.617Z</time>
      </trkpt>
      <trkpt lat="43.49688" lon="1.50958">
        <ele>260.1</ele>
        <time>2013-09-28T15:10:07.655Z</time>
      </trkpt>
      <trkpt lat="43.49688" lon="1.5096">
        <ele>260.1</ele>
        <time>2013-09-28T15:10:08.616Z</time>
      </trkpt>
      <trkpt lat="43.49688" lon="1.50964">
        <ele>260.9</ele>
        <time>2013-09-28T15:10:12.733Z</time>
      </trkpt>
      <trkpt lat="43.49688" lon="1.50963">
        <ele>260.6</ele>
        <time>2013-09-28T15:10:13.687Z</time>
      </trkpt>
      <trkpt lat="43.49687" lon="1.50963">
        <ele>261</ele>
        <time>2013-09-28T15:10:15.692Z</time>
      </trkpt>
      <trkpt lat="43.49687" lon="1.50963">
        <ele>261.2</ele>
        <time>2013-09-28T15:10:16.706Z</time>
      </trkpt>
      <trkpt lat="43.49688" lon="1.50974">
        <ele>260</ele>
        <time>2013-09-28T15:10:22.623Z</time>
      </trkpt>
      <trkpt lat="43.49687" lon="1.50976">
        <ele>259.8</ele>
        <time>2013-09-28T15:10:23.657Z</time>
      </trkpt>
      <trkpt lat="43.49689" lon="1.50984">
        <ele>257.3</ele>
        <time>2013-09-28T15:10:28.637Z</time>
      </trkpt>
      <trkpt lat="43.49689" lon="1.50988">
        <ele>255.7</ele>
        <time>2013-09-28T15:10:29.685Z</time>
      </trkpt>
      <trkpt lat="43.49685" lon="1.50995">
        <ele>252.6</ele>
        <time>2013-09-28T15:10:33.711Z</time>
      </trkpt>
      <trkpt lat="43.49683" lon="1.50998">
        <ele>253.5</ele>
        <time>2013-09-28T15:10:34.625Z</time>
      </trkpt>
      <trkpt lat="43.49676" lon="1.51006">
        <ele>258.6</ele>
        <time>2013-09-28T15:10:40.423Z</time>
      </trkpt>
      <trkpt lat="43.49675" lon="1.51007">
        <ele>258.7</ele>
        <time>2013-09-28T15:10:40.682Z</time>
      </trkpt>
      <trkpt lat="43.49668" lon="1.5101">
        <ele>267.8</ele>
        <time>2013-09-28T15:10:47.690Z</time>
      </trkpt>
      <trkpt lat="43.49666" lon="1.51009">
        <ele>268.9</ele>
        <time>2013-09-28T15:10:48.683Z</time>
      </trkpt>
      <trkpt lat="43.4966" lon="1.51014">
        <ele>272.2</ele>
        <time>2013-09-28T15:10:52.656Z</time>
      </trkpt>
      <trkpt lat="43.49657" lon="1.51017">
        <ele>272.5</ele>
        <time>2013-09-28T15:10:53.667Z</time>
      </trkpt>
      <trkpt lat="43.49653" lon="1.51025">
        <ele>277.7</ele>
        <time>2013-09-28T15:10:55.667Z</time>
      </trkpt>
      <trkpt lat="43.49651" lon="1.51029">
        <ele>277.8</ele>
        <time>2013-09-28T15:10:56.663Z</time>
      </trkpt>
      <trkpt lat="43.49646" lon="1.51035">
        <ele>280.2</ele>
        <time>2013-09-28T15:10:58.632Z</time>
      </trkpt>
      <trkpt lat="43.49644" lon="1.51038">
        <ele>280.7</ele>
        <time>2013-09-28T15:10:59.717Z</time>
      </trkpt>
      <trkpt lat="43.49639" lon="1.51048">
        <ele>279.1</ele>
        <time>2013-09-28T15:11:06.635Z</time>
      </trkpt>
      <trkpt lat="43.49638" lon="1.51048">
        <ele>278.2</ele>
        <time>2013-09-28T15:11:07.674Z</time>
      </trkpt>
      <trkpt lat="43.49631" lon="1.51051">
        <ele>278.3</ele>
        <time>2013-09-28T15:11:11.771Z</time>
      </trkpt>
      <trkpt lat="43.49629" lon="1.51053">
        <ele>278.1</ele>
        <time>2013-09-28T15:11:12.632Z</time>
      </trkpt>
      <trkpt lat="43.49622" lon="1.51059">
        <ele>275.7</ele>
        <time>2013-09-28T15:11:20.653Z</time>
      </trkpt>
      <trkpt lat="43.4962" lon="1.51059">
        <ele>275.4</ele>
        <time>2013-09-28T15:11:21.661Z</time>
      </trkpt>
      <trkpt lat="43.49613" lon="1.51063">
        <ele>275</ele>
        <time>2013-09-28T15:11:27.683Z</time>
      </trkpt>
      <trkpt lat="43.49611" lon="1.51064">
        <ele>274.6</ele>
        <time>2013-09-28T15:11:28.638Z</time>
      </trkpt>
      <trkpt lat="43.49604" lon="1.5107">
        <ele>273.9</ele>
        <time>2013-09-28T15:11:35.629Z</time>
      </trkpt>
      <trkpt lat="43.49603" lon="1.51071">
        <ele>274.4</ele>
        <time>2013-09-28T15:11:36.666Z</time>
      </trkpt>
      <trkpt lat="43.49598" lon="1.51081">
        <ele>274.4</ele>
        <time>2013-09-28T15:11:43.770Z</time>
      </trkpt>
      <trkpt lat="43.49597" lon="1.51082">
        <ele>275.4</ele>
        <time>2013-09-28T15:11:44.634Z</time>
      </trkpt>
      <trkpt lat="43.49591" lon="1.51088">
        <ele>274.4</ele>
        <time>2013-09-28T15:11:50.701Z</time>
      </trkpt>
      <trkpt lat="43.4959" lon="1.51089">
        <ele>273.9</ele>
        <time>2013-09-28T15:11:51.755Z</time>
      </trkpt>
      <trkpt lat="43.49582" lon="1.51096">
        <ele>275.1</ele>
        <time>2013-09-28T15:11:58.622Z</time>
      </trkpt>
      <trkpt lat="43.49581" lon="1.51097">
        <ele>274.7</ele>
        <time>2013-09-28T15:11:59.631Z</time>
      </trkpt>
      <trkpt lat="43.49574" lon="1.51103">
        <ele>274.8</ele>
        <time>2013-09-28T15:12:05.749Z</time>
      </trkpt>
      <trkpt lat="43.49573" lon="1.51104">
        <ele>274.7</ele>
        <time>2013-09-28T15:12:06.669Z</time>
      </trkpt>
      <trkpt lat="43.49566" lon="1.51112">
        <ele>276.5</ele>
        <time>2013-09-28T15:12:13.676Z</time>
      </trkpt>
      <trkpt lat="43.49565" lon="1.51113">
        <ele>276.9</ele>
        <time>2013-09-28T15:12:14.630Z</time>
      </trkpt>
      <trkpt lat="43.49558" lon="1.5112">
        <ele>278.2</ele>
        <time>2013-09-28T15:12:20.024Z</time>
      </trkpt>
      <trkpt lat="43.49556" lon="1.51121">
        <ele>278.9</ele>
        <time>2013-09-28T15:12:21.050Z</time>
      </trkpt>
      <trkpt lat="43.49549" lon="1.51126">
        <ele>279.5</ele>
        <time>2013-09-28T15:12:27.693Z</time>
      </trkpt>
      <trkpt lat="43.49549" lon="1.51127">
        <ele>279.4</ele>
        <time>2013-09-28T15:12:28.685Z</time>
      </trkpt>
      <trkpt lat="43.49548" lon="1.51129">
        <ele>279.7</ele>
        <time>2013-09-28T15:12:32.633Z</time>
      </trkpt>
      <trkpt lat="43.49548" lon="1.51129">
        <ele>279.7</ele>
        <time>2013-09-28T15:12:33.702Z</time>
      </trkpt>
      <trkpt lat="43.49548" lon="1.51129">
        <ele>279.7</ele>
        <time>2013-09-28T15:12:34.624Z</time>
      </trkpt>
      <trkpt lat="43.49543" lon="1.51139">
        <ele>282.6</ele>
        <time>2013-09-28T15:12:41.635Z</time>
      </trkpt>
      <trkpt lat="43.49541" lon="1.51141">
        <ele>282.8</ele>
        <time>2013-09-28T15:12:42.634Z</time>
      </trkpt>
      <trkpt lat="43.49536" lon="1.51149">
        <ele>283</ele>
        <time>2013-09-28T15:12:48.622Z</time>
      </trkpt>
      <trkpt lat="43.49535" lon="1.51149">
        <ele>283.1</ele>
        <time>2013-09-28T15:12:49.648Z</time>
      </trkpt>
      <trkpt lat="43.49527" lon="1.51146">
        <ele>284.3</ele>
        <time>2013-09-28T15:12:56.630Z</time>
      </trkpt>
      <trkpt lat="43.49525" lon="1.51145">
        <ele>284.7</ele>
        <time>2013-09-28T15:12:57.666Z</time>
      </trkpt>
      <trkpt lat="43.49517" lon="1.51141">
        <ele>284.9</ele>
        <time>2013-09-28T15:13:02.634Z</time>
      </trkpt>
      <trkpt lat="43.49516" lon="1.5114">
        <ele>285.2</ele>
        <time>2013-09-28T15:13:03.648Z</time>
      </trkpt>
      <trkpt lat="43.4951" lon="1.51133">
        <ele>285.9</ele>
        <time>2013-09-28T15:13:07.720Z</time>
      </trkpt>
      <trkpt lat="43.49508" lon="1.51131">
        <ele>286.2</ele>
        <time>2013-09-28T15:13:08.716Z</time>
      </trkpt>
      <trkpt lat="43.49502" lon="1.51126">
        <ele>287.1</ele>
        <time>2013-09-28T15:13:11.677Z</time>
      </trkpt>
      <trkpt lat="43.495" lon="1.51125">
        <ele>287</ele>
        <time>2013-09-28T15:13:12.664Z</time>
      </trkpt>
      <trkpt lat="43.49494" lon="1.5112">
        <ele>289.3</ele>
        <time>2013-09-28T15:13:16.878Z</time>
      </trkpt>
      <trkpt lat="43.49492" lon="1.5112">
        <ele>289.8</ele>
        <time>2013-09-28T15:13:17.645Z</time>
      </trkpt>
      <trkpt lat="43.49485" lon="1.51116">
        <ele>290.9</ele>
        <time>2013-09-28T15:13:20.655Z</time>
      </trkpt>
      <trkpt lat="43.49478" lon="1.51117">
        <ele>290</ele>
        <time>2013-09-28T15:13:22.650Z</time>
      </trkpt>
      <trkpt lat="43.49473" lon="1.51118">
        <ele>288</ele>
        <time>2013-09-28T15:13:23.706Z</time>
      </trkpt>
      <trkpt lat="43.49469" lon="1.51122">
        <ele>286.9</ele>
        <time>2013-09-28T15:13:24.710Z</time>
      </trkpt>
      <trkpt lat="43.49462" lon="1.51128">
        <ele>286</ele>
        <time>2013-09-28T15:13:26.694Z</time>
      </trkpt>
      <trkpt lat="43.49467" lon="1.51136">
        <ele>289.5</ele>
        <time>2013-09-28T15:13:27.763Z</time>
      </trkpt>
      <trkpt lat="43.49471" lon="1.51146">
        <ele>291.4</ele>
        <time>2013-09-28T15:13:30.400Z</time>
      </trkpt>
      <trkpt lat="43.49472" lon="1.5115">
        <ele>291.7</ele>
        <time>2013-09-28T15:13:30.683Z</time>
      </trkpt>
      <trkpt lat="43.49467" lon="1.51156">
        <ele>290.2</ele>
        <time>2013-09-28T15:13:33.722Z</time>
      </trkpt>
      <trkpt lat="43.49463" lon="1.51156">
        <ele>289.7</ele>
        <time>2013-09-28T15:13:34.657Z</time>
      </trkpt>
      <trkpt lat="43.49459" lon="1.51163">
        <ele>289.8</ele>
        <time>2013-09-28T15:13:37.676Z</time>
      </trkpt>
      <trkpt lat="43.49458" lon="1.51166">
        <ele>290.8</ele>
        <time>2013-09-28T15:13:38.634Z</time>
      </trkpt>
      <trkpt lat="43.49453" lon="1.51176">
        <ele>290.3</ele>
        <time>2013-09-28T15:13:41.676Z</time>
      </trkpt>
      <trkpt lat="43.49452" lon="1.51178">
        <ele>291.1</ele>
        <time>2013-09-28T15:13:42.638Z</time>
      </trkpt>
      <trkpt lat="43.49447" lon="1.51187">
        <ele>290.7</ele>
        <time>2013-09-28T15:13:47.755Z</time>
      </trkpt>
      <trkpt lat="43.49446" lon="1.51189">
        <ele>290.5</ele>
        <time>2013-09-28T15:13:48.639Z</time>
      </trkpt>
      <trkpt lat="43.49443" lon="1.51198">
        <ele>287.1</ele>
        <time>2013-09-28T15:13:51.665Z</time>
      </trkpt>
      <trkpt lat="43.49442" lon="1.51201">
        <ele>286.9</ele>
        <time>2013-09-28T15:13:52.687Z</time>
      </trkpt>
      <trkpt lat="43.4944" lon="1.5121">
        <ele>286.7</ele>
        <time>2013-09-28T15:13:55.708Z</time>
      </trkpt>
      <trkpt lat="43.49438" lon="1.51212">
        <ele>286.1</ele>
        <time>2013-09-28T15:13:56.670Z</time>
      </trkpt>
      <trkpt lat="43.49429" lon="1.51211">
        <ele>286.2</ele>
        <time>2013-09-28T15:14:00.696Z</time>
      </trkpt>
      <trkpt lat="43.49427" lon="1.51212">
        <ele>285</ele>
        <time>2013-09-28T15:14:01.678Z</time>
      </trkpt>
      <trkpt lat="43.49423" lon="1.5122">
        <ele>285.8</ele>
        <time>2013-09-28T15:14:05.678Z</time>
      </trkpt>
      <trkpt lat="43.49422" lon="1.51223">
        <ele>285.5</ele>
        <time>2013-09-28T15:14:06.694Z</time>
      </trkpt>
      <trkpt lat="43.49415" lon="1.51228">
        <ele>283.8</ele>
        <time>2013-09-28T15:14:09.934Z</time>
      </trkpt>
      <trkpt lat="43.49412" lon="1.51228">
        <ele>284.5</ele>
        <time>2013-09-28T15:14:10.616Z</time>
      </trkpt>
      <trkpt lat="43.49406" lon="1.51237">
        <ele>283.4</ele>
        <time>2013-09-28T15:14:14.985Z</time>
      </trkpt>
      <trkpt lat="43.49405" lon="1.5124">
        <ele>282.6</ele>
        <time>2013-09-28T15:14:15.822Z</time>
      </trkpt>
      <trkpt lat="43.49399" lon="1.51249">
        <ele>282.4</ele>
        <time>2013-09-28T15:14:21.674Z</time>
      </trkpt>
      <trkpt lat="43.49398" lon="1.51252">
        <ele>282.3</ele>
        <time>2013-09-28T15:14:22.653Z</time>
      </trkpt>
      <trkpt lat="43.49396" lon="1.5126">
        <ele>282</ele>
        <time>2013-09-28T15:14:25.002Z</time>
      </trkpt>
      <trkpt lat="43.49396" lon="1.51265">
        <ele>281.5</ele>
        <time>2013-09-28T15:14:25.663Z</time>
      </trkpt>
      <trkpt lat="43.49393" lon="1.51276">
        <ele>281</ele>
        <time>2013-09-28T15:14:30.001Z</time>
      </trkpt>
      <trkpt lat="43.49392" lon="1.51277">
        <ele>281.3</ele>
        <time>2013-09-28T15:14:30.722Z</time>
      </trkpt>
      <trkpt lat="43.49387" lon="1.51286">
        <ele>277.2</ele>
        <time>2013-09-28T15:14:35.699Z</time>
      </trkpt>
      <trkpt lat="43.49386" lon="1.51288">
        <ele>277.1</ele>
        <time>2013-09-28T15:14:36.697Z</time>
      </trkpt>
      <trkpt lat="43.49382" lon="1.51297">
        <ele>276.2</ele>
        <time>2013-09-28T15:14:40.681Z</time>
      </trkpt>
      <trkpt lat="43.49381" lon="1.51299">
        <ele>275.5</ele>
        <time>2013-09-28T15:14:41.698Z</time>
      </trkpt>
      <trkpt lat="43.49376" lon="1.51305">
        <ele>276.6</ele>
        <time>2013-09-28T15:14:47.763Z</time>
      </trkpt>
      <trkpt lat="43.49371" lon="1.51303">
        <ele>279.9</ele>
        <time>2013-09-28T15:14:48.700Z</time>
      </trkpt>
      <trkpt lat="43.49363" lon="1.51301">
        <ele>281.2</ele>
        <time>2013-09-28T15:14:50.857Z</time>
      </trkpt>
      <trkpt lat="43.4936" lon="1.51301">
        <ele>282.4</ele>
        <time>2013-09-28T15:14:51.738Z</time>
      </trkpt>
      <trkpt lat="43.49353" lon="1.51293">
        <ele>281.7</ele>
        <time>2013-09-28T15:14:56.721Z</time>
      </trkpt>
      <trkpt lat="43.49352" lon="1.51293">
        <ele>280</ele>
        <time>2013-09-28T15:14:57.712Z</time>
      </trkpt>
      <trkpt lat="43.49345" lon="1.51286">
        <ele>273.1</ele>
        <time>2013-09-28T15:15:02.736Z</time>
      </trkpt>
      <trkpt lat="43.49344" lon="1.51282">
        <ele>270.6</ele>
        <time>2013-09-28T15:15:03.707Z</time>
      </trkpt>
      <trkpt lat="43.49341" lon="1.51273">
        <ele>266.5</ele>
        <time>2013-09-28T15:15:05.735Z</time>
      </trkpt>
      <trkpt lat="43.49341" lon="1.51268">
        <ele>265.4</ele>
        <time>2013-09-28T15:15:06.678Z</time>
      </trkpt>
      <trkpt lat="43.49341" lon="1.51256">
        <ele>264.5</ele>
        <time>2013-09-28T15:15:11.651Z</time>
      </trkpt>
      <trkpt lat="43.4934" lon="1.51255">
        <ele>265</ele>
        <time>2013-09-28T15:15:11.776Z</time>
      </trkpt>
      <trkpt lat="43.49338" lon="1.51245">
        <ele>271</ele>
        <time>2013-09-28T15:15:17.699Z</time>
      </trkpt>
      <trkpt lat="43.49336" lon="1.51243">
        <ele>271.5</ele>
        <time>2013-09-28T15:15:18.726Z</time>
      </trkpt>
      <trkpt lat="43.49329" lon="1.5125">
        <ele>279.1</ele>
        <time>2013-09-28T15:15:25.134Z</time>
      </trkpt>
      <trkpt lat="43.49328" lon="1.51252">
        <ele>278.8</ele>
        <time>2013-09-28T15:15:25.641Z</time>
      </trkpt>
      <trkpt lat="43.49321" lon="1.51256">
        <ele>272.2</ele>
        <time>2013-09-28T15:15:28.705Z</time>
      </trkpt>
      <trkpt lat="43.49317" lon="1.51257">
        <ele>270.2</ele>
        <time>2013-09-28T15:15:29.701Z</time>
      </trkpt>
      <trkpt lat="43.49311" lon="1.51255">
        <ele>269.2</ele>
        <time>2013-09-28T15:15:31.682Z</time>
      </trkpt>
      <trkpt lat="43.49308" lon="1.51253">
        <ele>268.8</ele>
        <time>2013-09-28T15:15:32.704Z</time>
      </trkpt>
      <trkpt lat="43.49301" lon="1.51258">
        <ele>261.7</ele>
        <time>2013-09-28T15:15:38.700Z</time>
      </trkpt>
      <trkpt lat="43.49298" lon="1.5126">
        <ele>261.8</ele>
        <time>2013-09-28T15:15:39.705Z</time>
      </trkpt>
      <trkpt lat="43.49295" lon="1.51263">
        <ele>263.4</ele>
        <time>2013-09-28T15:15:42.150Z</time>
      </trkpt>
      <trkpt lat="43.49289" lon="1.51265">
        <ele>267.9</ele>
        <time>2013-09-28T15:15:42.670Z</time>
      </trkpt>
      <trkpt lat="43.49282" lon="1.51271">
        <ele>263.6</ele>
        <time>2013-09-28T15:15:48.707Z</time>
      </trkpt>
      <trkpt lat="43.49279" lon="1.51272">
        <ele>260.5</ele>
        <time>2013-09-28T15:15:49.676Z</time>
      </trkpt>
      <trkpt lat="43.49274" lon="1.51282">
        <ele>260.7</ele>
        <time>2013-09-28T15:15:57.698Z</time>
      </trkpt>
      <trkpt lat="43.49274" lon="1.51283">
        <ele>262.2</ele>
        <time>2013-09-28T15:15:58.701Z</time>
      </trkpt>
      <trkpt lat="43.49268" lon="1.5129">
        <ele>261.3</ele>
        <time>2013-09-28T15:16:07.070Z</time>
      </trkpt>
      <trkpt lat="43.49266" lon="1.51291">
        <ele>261.9</ele>
        <time>2013-09-28T15:16:07.647Z</time>
      </trkpt>
      <trkpt lat="43.4926" lon="1.51293">
        <ele>263.7</ele>
        <time>2013-09-28T15:16:08.643Z</time>
      </trkpt>
      <trkpt lat="43.49255" lon="1.51295">
        <ele>264.9</ele>
        <time>2013-09-28T15:16:09.630Z</time>
      </trkpt>
      <trkpt lat="43.49249" lon="1.51301">
        <ele>264.5</ele>
        <time>2013-09-28T15:16:15.104Z</time>
      </trkpt>
      <trkpt lat="43.49243" lon="1.51303">
        <ele>262.2</ele>
        <time>2013-09-28T15:16:15.751Z</time>
      </trkpt>
      <trkpt lat="43.49234" lon="1.51306">
        <ele>258.1</ele>
        <time>2013-09-28T15:16:17.699Z</time>
      </trkpt>
      <trkpt lat="43.4923" lon="1.51307">
        <ele>259</ele>
        <time>2013-09-28T15:16:18.702Z</time>
      </trkpt>
      <trkpt lat="43.49223" lon="1.5131">
        <ele>260.4</ele>
        <time>2013-09-28T15:16:20.710Z</time>
      </trkpt>
      <trkpt lat="43.4922" lon="1.51311">
        <ele>262.4</ele>
        <time>2013-09-28T15:16:21.703Z</time>
      </trkpt>
      <trkpt lat="43.49218" lon="1.51315">
        <ele>263.9</ele>
        <time>2013-09-28T15:16:25.101Z</time>
      </trkpt>
      <trkpt lat="43.49213" lon="1.51319">
        <ele>261.5</ele>
        <time>2013-09-28T15:16:25.816Z</time>
      </trkpt>
      <trkpt lat="43.49209" lon="1.51322">
        <ele>262.4</ele>
        <time>2013-09-28T15:16:26.710Z</time>
      </trkpt>
      <trkpt lat="43.49202" lon="1.51328">
        <ele>261.4</ele>
        <time>2013-09-28T15:16:27.689Z</time>
      </trkpt>
      <trkpt lat="43.49198" lon="1.51334">
        <ele>259</ele>
        <time>2013-09-28T15:16:28.704Z</time>
      </trkpt>
      <trkpt lat="43.49195" lon="1.51341">
        <ele>258.8</ele>
        <time>2013-09-28T15:16:29.728Z</time>
      </trkpt>
      <trkpt lat="43.49194" lon="1.51353">
        <ele>255.1</ele>
        <time>2013-09-28T15:16:31.630Z</time>
      </trkpt>
      <trkpt lat="43.49197" lon="1.5136">
        <ele>252.1</ele>
        <time>2013-09-28T15:16:32.733Z</time>
      </trkpt>
      <trkpt lat="43.49199" lon="1.5137">
        <ele>249.4</ele>
        <time>2013-09-28T15:16:34.669Z</time>
      </trkpt>
      <trkpt lat="43.49199" lon="1.51374">
        <ele>246.3</ele>
        <time>2013-09-28T15:16:35.685Z</time>
      </trkpt>
      <trkpt lat="43.492" lon="1.51383">
        <ele>247.8</ele>
        <time>2013-09-28T15:16:38.641Z</time>
      </trkpt>
      <trkpt lat="43.49199" lon="1.51386">
        <ele>247.2</ele>
        <time>2013-09-28T15:16:39.645Z</time>
      </trkpt>
      <trkpt lat="43.49197" lon="1.51397">
        <ele>245.6</ele>
        <time>2013-09-28T15:16:42.963Z</time>
      </trkpt>
      <trkpt lat="43.49196" lon="1.51401">
        <ele>245.3</ele>
        <time>2013-09-28T15:16:43.779Z</time>
      </trkpt>
      <trkpt lat="43.49194" lon="1.51413">
        <ele>242.1</ele>
        <time>2013-09-28T15:16:46.725Z</time>
      </trkpt>
      <trkpt lat="43.49193" lon="1.51416">
        <ele>242.6</ele>
        <time>2013-09-28T15:16:47.713Z</time>
      </trkpt>
      <trkpt lat="43.49192" lon="1.51427">
        <ele>245.3</ele>
        <time>2013-09-28T15:16:51.730Z</time>
      </trkpt>
      <trkpt lat="43.49192" lon="1.5143">
        <ele>246</ele>
        <time>2013-09-28T15:16:52.710Z</time>
      </trkpt>
      <trkpt lat="43.49192" lon="1.5144">
        <ele>246.2</ele>
        <time>2013-09-28T15:16:56.731Z</time>
      </trkpt>
      <trkpt lat="43.49192" lon="1.51443">
        <ele>247.4</ele>
        <time>2013-09-28T15:16:57.700Z</time>
      </trkpt>
      <trkpt lat="43.49192" lon="1.51455">
        <ele>244.7</ele>
        <time>2013-09-28T15:17:01.663Z</time>
      </trkpt>
      <trkpt lat="43.49191" lon="1.51458">
        <ele>243.6</ele>
        <time>2013-09-28T15:17:02.705Z</time>
      </trkpt>
      <trkpt lat="43.49187" lon="1.51468">
        <ele>243.3</ele>
        <time>2013-09-28T15:17:05.701Z</time>
      </trkpt>
      <trkpt lat="43.49186" lon="1.51471">
        <ele>244</ele>
        <time>2013-09-28T15:17:06.701Z</time>
      </trkpt>
      <trkpt lat="43.49184" lon="1.51482">
        <ele>243.9</ele>
        <time>2013-09-28T15:17:09.738Z</time>
      </trkpt>
      <trkpt lat="43.49183" lon="1.51485">
        <ele>244.5</ele>
        <time>2013-09-28T15:17:10.863Z</time>
      </trkpt>
      <trkpt lat="43.4918" lon="1.51497">
        <ele>245.8</ele>
        <time>2013-09-28T15:17:14.927Z</time>
      </trkpt>
      <trkpt lat="43.49179" lon="1.51499">
        <ele>245.1</ele>
        <time>2013-09-28T15:17:15.647Z</time>
      </trkpt>
      <trkpt lat="43.49177" lon="1.51511">
        <ele>244</ele>
        <time>2013-09-28T15:17:18.635Z</time>
      </trkpt>
      <trkpt lat="43.49177" lon="1.51515">
        <ele>243.9</ele>
        <time>2013-09-28T15:17:19.653Z</time>
      </trkpt>
      <trkpt lat="43.49173" lon="1.51524">
        <ele>243.1</ele>
        <time>2013-09-28T15:17:22.723Z</time>
      </trkpt>
      <trkpt lat="43.49171" lon="1.51528">
        <ele>244.3</ele>
        <time>2013-09-28T15:17:23.673Z</time>
      </trkpt>
      <trkpt lat="43.49167" lon="1.51532">
        <ele>250</ele>
        <time>2013-09-28T15:17:28.612Z</time>
      </trkpt>
      <trkpt lat="43.49167" lon="1.51532">
        <ele>249.7</ele>
        <time>2013-09-28T15:17:29.691Z</time>
      </trkpt>
      <trkpt lat="43.49167" lon="1.51531">
        <ele>249.4</ele>
        <time>2013-09-28T15:17:30.731Z</time>
      </trkpt>
      <trkpt lat="43.49166" lon="1.51531">
        <ele>249.4</ele>
        <time>2013-09-28T15:17:33.643Z</time>
      </trkpt>
      <trkpt lat="43.49166" lon="1.51531">
        <ele>249.6</ele>
        <time>2013-09-28T15:17:34.645Z</time>
      </trkpt>
      <trkpt lat="43.49167" lon="1.51533">
        <ele>246.2</ele>
        <time>2013-09-28T15:17:42.626Z</time>
      </trkpt>
      <trkpt lat="43.49166" lon="1.51533">
        <ele>246.2</ele>
        <time>2013-09-28T15:17:43.650Z</time>
      </trkpt>
      <trkpt lat="43.49158" lon="1.51538">
        <ele>242.6</ele>
        <time>2013-09-28T15:17:51.672Z</time>
      </trkpt>
      <trkpt lat="43.49158" lon="1.51539">
        <ele>243.7</ele>
        <time>2013-09-28T15:17:52.768Z</time>
      </trkpt>
      <trkpt lat="43.49153" lon="1.51548">
        <ele>241</ele>
        <time>2013-09-28T15:18:00.835Z</time>
      </trkpt>
      <trkpt lat="43.49151" lon="1.51551">
        <ele>240.3</ele>
        <time>2013-09-28T15:18:02.372Z</time>
      </trkpt>
      <trkpt lat="43.4915" lon="1.51553">
        <ele>239.6</ele>
        <time>2013-09-28T15:18:03.700Z</time>
      </trkpt>
    </trkseg>
  </trk>
</gpx>